ECMWFFLT1_sfc_thetae_000.txt.gz
Theta_e
332 333 335 337 339 340 344 347 348 349 351 354 353 353 352 352 354 353 353 353 353 352 353 355 354 355 353 354 352 352 354 360 351 355 357 354 351 353 350 351 339 345 346 348 345 348 348 350 351 349 350 349 348 349 349 349 349 347 348 349 348 349 347
331 332 333 336 337 340 345 348 358 356 351 354 349 353 351 353 353 351 352 353 353 352 353 353 353 353 353 353 353 351 349 349 349 351 354 354 350 352 346 347 349 343 344 346 348 348 350 348 349 351 348 348 346 347 345 346 348 348 346 348 347 349 348
332 333 333 335 338 339 345 347 349 355 352 346 346 349 351 354 353 353 353 351 353 353 354 353 353 353 351 353 351 351 348 349 348 346 344 344 345 342 347 348 344 348 347 346 346 344 345 348 353 351 349 346 346 346 347 345 346 347 347 348 347 344 347
334 339 338 340 341 342 345 348 352 350 349 346 347 350 351 353 353 354 352 351 353 353 351 352 352 351 351 352 351 351 350 350 349 346 344 347 342 346 347 349 344 346 349 345 347 345 344 345 345 348 346 346 346 346 344 344 344 345 346 347 347 345 346
342 342 344 342 339 340 340 345 346 349 347 346 349 350 354 354 353 353 351 352 352 351 351 352 349 352 354 354 350 350 351 350 347 348 347 347 348 349 344 343 343 343 345 344 348 348 350 348 345 345 345 346 343 342 343 345 344 346 346 346 346 346 348
339 342 341 338 337 339 338 343 345 346 346 346 347 348 353 351 348 346 348 352 352 352 352 352 352 354 354 352 352 350 353 351 351 352 349 348 348 345 342 343 343 347 339 347 347 348 348 348 344 343 341 338 338 339 340 341 343 344 344 347 347 348 347
335 340 342 338 344 343 342 338 346 349 350 347 351 350 349 348 346 345 345 346 347 350 348 348 350 352 353 354 353 353 349 349 349 346 347 345 346 345 346 346 347 345 345 346 345 346 344 344 344 344 342 341 342 340 341 342 342 343 344 344 345 346 347
336 337 341 340 345 342 336 340 346 344 346 350 348 345 343 347 345 343 343 344 344 345 344 343 348 352 351 353 353 349 349 349 347 347 349 345 347 345 345 346 348 346 346 342 343 345 341 343 341 342 343 341 341 342 342 342 343 340 340 340 341 344 341
339 347 342 335 336 341 342 344 342 345 349 350 347 345 345 346 342 339 341 344 343 344 343 343 344 349 353 350 349 349 349 349 348 347 347 345 344 338 338 338 342 341 340 341 341 344 345 344 344 345 343 341 341 343 342 344 343 342 340 340 341 341 340
342 346 349 343 339 335 347 351 351 349 350 350 347 347 345 343 343 342 342 343 341 342 341 342 344 345 351 351 348 348 348 347 348 344 339 337 340 337 336 336 337 342 343 344 342 342 346 345 341 339 340 340 339 339 341 343 346 343 341 341 341 341 339
351 349 353 347 347 352 343 345 347 346 348 348 348 347 347 345 344 342 344 342 339 340 341 343 348 348 350 348 345 344 346 343 342 341 342 339 335 335 334 333 333 339 337 338 338 342 338 341 346 345 340 338 339 341 340 343 345 343 341 341 343 341 339
341 354 359 352 352 347 341 344 343 346 347 346 345 345 349 347 344 344 345 343 340 337 341 344 338 339 345 346 345 347 343 343 341 340 340 340 338 336 338 338 340 335 332 335 335 342 338 339 337 336 338 340 340 339 340 341 347 344 344 345 339 338 339
345 346 356 349 359 352 354 350 348 346 350 348 346 349 348 346 344 342 344 342 338 342 348 347 344 343 341 343 343 345 343 342 343 343 339 343 342 342 339 335 333 333 336 332 331 332 333 334 334 338 340 339 339 340 341 340 339 343 346 345 343 342 343
342 343 341 345 351 355 353 352 345 345 346 351 348 348 348 346 344 343 340 337 336 341 343 346 346 346 346 346 345 348 343 342 344 343 345 345 350 347 344 342 344 345 344 342 339 334 334 332 336 337 336 337 339 340 339 338 338 346 346 340 338 338 335
329 331 339 338 344 354 340 347 348 346 346 348 348 347 346 345 343 342 339 335 335 338 343 349 351 350 346 346 347 348 346 347 345 346 347 345 347 344 344 345 345 344 343 343 341 339 336 336 337 339 338 337 337 337 339 338 340 340 338 338 337 340 336
322 326 332 336 344 346 347 349 344 345 347 348 348 347 345 342 341 339 335 335 340 339 344 351 350 350 350 346 347 351 347 349 348 347 347 346 344 345 345 343 344 342 342 342 341 343 343 343 344 336 333 334 337 340 339 338 336 337 334 332 338 339 338
329 327 331 340 346 346 353 345 342 344 346 348 347 347 344 343 341 342 336 338 339 340 342 348 349 351 349 343 345 349 348 347 347 346 346 347 345 346 344 344 344 344 344 344 344 344 345 340 336 332 335 334 332 332 336 333 333 329 327 328 330 337 339
329 337 339 344 340 340 340 345 345 347 348 349 347 347 346 348 344 346 339 338 339 341 346 346 347 346 347 345 348 350 347 346 347 346 346 346 347 346 346 345 345 345 345 345 343 345 343 339 339 340 341 336 333 335 334 336 331 322 324 327 327 331 337
333 333 338 344 352 346 342 344 346 351 349 348 346 346 345 347 344 342 343 342 342 342 343 343 346 344 346 347 349 347 347 347 346 346 346 346 346 347 346 345 343 343 344 342 346 344 340 340 337 336 338 338 341 337 338 336 329 322 322 324 324 327 332
330 329 330 332 336 343 350 345 341 347 350 350 348 345 343 343 345 344 343 342 343 343 342 343 342 342 343 345 348 347 346 346 345 345 345 347 346 346 346 345 345 345 342 343 346 341 337 337 338 339 339 340 343 344 341 338 329 320 319 320 321 324 328
336 338 337 338 344 339 350 352 350 349 351 350 348 345 342 340 341 344 340 337 339 343 339 342 342 344 346 346 346 347 347 346 346 344 346 346 345 345 344 345 345 345 343 340 339 338 339 338 339 343 338 339 340 340 337 330 325 319 318 317 317 319 324
327 327 330 335 340 350 351 352 351 346 347 348 348 345 343 343 340 336 333 338 339 338 344 343 343 345 344 345 345 346 346 345 345 344 344 345 345 343 343 347 346 344 348 345 341 337 336 337 337 334 334 339 340 337 336 333 319 319 317 316 316 319 328
325 328 333 347 339 344 361 358 354 349 352 350 346 344 343 340 335 335 334 332 335 343 340 342 342 341 341 343 344 344 345 343 343 343 342 343 343 342 340 340 340 341 341 339 334 332 334 336 335 335 335 339 338 339 338 338 328 316 316 316 316 319 330
326 330 332 335 358 352 362 367 362 359 353 351 347 340 339 337 335 336 336 334 337 334 335 338 338 341 343 341 342 344 344 342 342 341 342 342 341 341 343 341 341 342 346 339 333 332 332 333 338 335 344 337 332 332 333 331 327 315 314 316 317 321 329
328 328 335 335 338 336 342 356 364 359 359 348 337 339 338 337 337 336 337 336 331 331 334 338 340 340 341 342 343 344 343 343 343 342 342 342 342 340 336 339 343 346 337 334 335 335 337 334 331 336 332 327 326 332 332 329 326 312 317 317 315 322 332
341 335 342 347 341 341 353 370 365 347 342 339 341 343 342 339 335 334 336 332 333 331 335 337 339 341 343 342 343 344 344 344 346 344 341 341 340 341 347 345 347 335 336 336 332 331 331 332 331 333 329 328 328 327 327 328 329 334 318 314 314 315 328
329 330 330 328 335 351 349 361 353 344 343 342 342 339 338 335 334 336 338 339 337 335 338 340 341 345 346 346 342 343 344 346 347 343 341 343 348 348 346 345 345 351 348 338 334 337 336 334 336 332 333 331 333 331 329 329 327 325 319 314 314 314 317
326 325 329 345 350 357 353 345 351 346 343 344 341 338 338 339 342 340 339 339 337 343 349 349 348 347 346 346 344 346 350 353 357 350 345 347 345 345 344 350 347 344 344 341 338 336 336 335 337 334 331 330 328 328 327 328 328 326 323 316 315 313 312
335 333 332 342 344 342 339 336 344 341 341 339 337 338 345 341 345 343 347 340 342 346 346 347 347 346 346 347 350 353 349 344 341 346 342 341 346 348 351 348 346 344 340 337 338 335 333 336 334 330 328 327 328 328 329 326 325 324 326 320 314 312 310
338 344 334 327 335 340 336 342 344 342 339 337 338 347 353 335 341 346 353 347 346 348 347 347 352 353 354 353 351 350 351 345 344 343 348 346 346 354 351 347 345 345 343 340 335 336 334 338 329 328 326 325 330 329 327 326 327 326 324 326 319 311 306
336 331 332 334 323 337 338 338 339 338 343 350 342 341 342 346 350 351 344 341 339 337 343 340 339 349 346 346 349 357 347 346 348 347 345 340 344 346 345 341 339 333 335 338 336 337 336 333 329 328 325 328 327 328 327 329 331 331 330 323 321 315 311
337 337 329 333 343 346 338 335 340 336 338 342 341 339 340 344 346 344 347 345 345 343 341 347 343 342 339 347 351 345 340 336 336 342 338 341 342 343 340 332 330 331 336 335 336 337 333 333 334 333 332 330 328 329 327 329 330 332 328 323 321 318 314
339 333 329 331 334 335 336 335 335 337 336 335 337 338 341 346 344 351 347 343 343 342 346 349 345 350 347 347 346 345 345 345 334 334 340 338 337 333 332 332 340 333 333 339 333 333 335 328 327 328 325 329 329 327 328 326 327 325 319 319 317 316 317
337 342 343 340 338 336 333 333 336 334 332 337 338 338 338 337 340 343 344 337 336 338 343 345 345 341 341 339 343 347 346 338 331 335 334 330 331 331 334 335 327 330 331 327 328 327 327 326 327 326 325 326 326 326 327 325 321 313 313 315 312 311 312
336 339 346 343 339 334 332 333 336 337 336 333 336 339 337 336 332 331 337 338 335 345 341 340 341 342 337 336 340 336 337 336 337 336 331 334 329 321 316 317 325 330 322 317 316 319 319 322 320 322 320 319 325 323 322 321 315 309 303 309 302 305 305
341 341 341 341 341 339 340 343 339 339 336 340 342 336 338 338 333 325 323 331 333 337 338 343 336 331 328 332 330 328 329 329 325 332 337 326 324 320 316 309 298 307 322 315 307 302 302 306 314 314 319 320 316 316 315 313 310 298 294 294 294 293 294
336 334 335 339 338 340 341 343 342 340 341 340 337 334 335 333 329 336 329 338 339 334 338 335 343 336 327 330 326 334 329 326 327 331 342 334 332 323 320 317 311 297 297 302 303 299 295 294 296 299 304 316 312 306 303 302 297 294 294 293 293 293 293
335 337 333 335 337 338 339 338 338 338 340 338 336 335 336 328 330 333 330 336 333 337 340 337 338 335 329 327 329 337 341 329 334 332 331 335 336 329 324 320 316 312 299 295 298 298 295 294 294 294 296 298 305 310 312 304 297 294 294 294 293 293 293

ECMWFFLT1_sfc_thetae_003.txt.gz
Theta_e
330 330 332 332 333 336 339 341 342 342 342 342 344 344 347 348 350 349 347 345 344 342 343 343 342 342 341 340 338 339 337 335 338 338 332 338 337 337 341 338 335 339 337 337 335 335 338 340 338 340 341 340 338 339 339 340 339 342 340 339 340 339 339
330 329 330 331 332 336 339 340 341 342 341 341 344 343 346 348 349 348 346 345 344 342 343 342 342 342 341 341 338 338 338 337 340 343 342 341 340 336 331 337 331 333 335 335 335 337 339 339 339 339 338 339 337 338 338 337 338 337 338 338 337 337 337
329 330 329 331 332 335 338 339 341 342 340 341 345 344 345 348 348 347 346 344 343 342 343 342 344 342 341 341 339 336 335 338 338 338 336 337 334 333 333 338 334 332 332 335 338 338 339 335 337 337 336 335 336 337 337 337 337 338 338 338 338 339 336
327 328 329 331 333 335 339 339 340 342 342 343 345 344 346 348 347 347 346 344 342 342 342 341 343 341 343 340 338 337 337 338 336 333 334 336 335 335 337 333 335 334 334 333 335 337 339 336 334 336 344 337 336 337 337 336 335 335 336 337 337 337 336
326 328 329 330 333 335 338 339 340 343 344 345 346 347 348 348 347 346 345 345 343 342 342 342 343 340 343 341 339 338 337 336 337 335 335 337 337 334 332 332 334 333 334 337 337 337 336 336 337 336 336 336 336 335 335 335 336 337 337 337 336 337 337
327 327 328 330 332 335 338 340 342 345 345 344 345 347 348 347 347 345 345 345 343 343 343 343 341 342 341 340 341 340 339 337 337 336 336 337 336 334 332 333 331 333 334 334 339 338 338 337 336 336 334 335 333 332 332 333 334 335 334 335 336 337 338
327 330 334 331 332 336 338 340 344 346 345 345 346 347 348 346 346 345 344 344 344 343 341 343 341 342 341 341 340 342 339 338 336 336 335 337 337 334 332 332 336 334 333 337 334 335 335 335 334 334 335 334 334 332 332 333 334 335 335 334 333 335 339
328 329 331 332 332 337 339 341 344 345 345 345 345 345 348 345 345 344 343 345 345 344 342 342 341 343 341 341 341 339 338 337 337 337 336 335 335 336 335 336 336 335 335 332 333 336 336 334 335 335 334 333 333 333 333 333 334 334 333 332 331 333 337
329 330 332 333 333 338 340 342 343 344 343 343 343 344 346 344 344 343 343 345 344 342 342 343 343 344 343 340 339 337 337 337 336 336 335 335 335 335 335 336 335 336 334 334 335 336 335 335 334 334 335 334 332 330 331 334 334 335 334 333 332 331 332
329 331 334 335 335 337 339 340 342 342 342 342 342 342 344 343 343 342 342 344 343 341 341 341 344 344 342 341 339 338 337 337 337 337 337 335 336 335 334 335 334 335 335 334 334 333 335 336 335 335 332 330 330 331 332 332 332 335 335 333 332 331 331
331 333 333 333 333 335 336 337 339 340 341 341 341 342 343 343 341 341 340 342 342 341 341 341 344 342 340 339 338 338 337 337 338 336 336 334 335 334 333 331 330 336 335 334 333 332 332 332 332 330 329 331 331 331 332 333 333 334 334 332 332 331 332
331 335 333 332 332 332 333 335 337 338 340 342 342 341 341 342 340 340 340 340 341 341 340 340 342 342 339 337 337 336 336 335 335 335 334 333 332 332 332 330 330 329 330 329 327 327 328 327 329 333 330 328 326 327 329 331 331 334 333 332 330 329 330
323 331 334 335 333 332 333 333 334 336 338 341 343 341 341 341 338 338 338 339 340 341 340 339 340 340 339 338 336 336 334 334 333 333 333 334 332 332 332 331 328 329 329 329 326 326 327 329 329 330 330 330 331 331 331 332 331 328 334 331 330 330 330
332 333 337 338 335 333 333 333 334 335 338 340 341 341 340 341 338 337 337 338 338 339 338 340 340 340 339 339 338 337 334 334 334 333 333 334 335 334 332 331 330 331 333 334 331 330 328 329 329 329 332 331 330 330 331 328 332 335 332 332 331 330 330
327 332 328 335 335 336 335 334 335 336 338 340 340 340 340 340 339 338 338 338 336 337 337 340 341 340 340 339 339 338 335 334 334 334 335 337 336 335 333 332 332 333 333 334 333 334 331 331 331 330 330 330 330 328 329 333 333 335 332 329 329 331 331
325 326 329 327 337 336 337 337 337 338 339 340 340 339 340 339 338 338 337 334 335 337 336 337 338 337 338 338 339 340 337 335 336 335 335 335 334 332 332 332 333 333 332 333 333 333 334 332 333 333 330 328 326 327 332 332 332 334 331 333 333 331 332
323 323 324 327 333 337 337 338 339 339 340 340 339 339 340 338 336 336 335 332 335 336 337 336 335 335 335 335 339 340 338 336 336 336 335 335 333 333 332 332 333 333 333 334 334 335 335 335 332 331 329 327 327 325 331 330 332 330 326 327 330 331 328
322 328 330 337 334 335 337 338 338 338 339 340 340 340 339 336 334 333 331 329 334 336 338 337 337 337 336 337 340 338 337 336 335 335 334 334 333 334 334 333 333 333 333 334 334 335 335 334 332 331 330 329 326 325 331 328 329 325 323 325 325 329 328
327 328 326 328 338 338 338 338 339 339 340 342 340 340 338 336 332 330 329 328 334 337 337 337 338 339 339 337 338 337 335 334 334 333 333 333 333 333 333 332 333 333 333 333 335 335 335 333 332 331 331 328 325 324 328 328 328 324 322 323 323 325 326
325 324 324 324 325 337 339 338 338 340 340 342 341 340 339 337 332 331 330 330 333 334 334 336 338 339 338 336 337 338 335 334 333 332 333 333 333 333 332 332 332 332 333 334 334 335 334 332 331 330 328 328 326 327 329 330 327 322 320 320 320 321 325
331 330 326 326 326 327 331 338 338 337 339 341 342 340 339 336 334 331 331 333 332 333 333 336 338 337 337 336 339 338 335 334 334 333 333 334 333 333 332 333 332 333 334 333 332 333 332 331 329 328 330 330 330 330 331 333 324 319 318 317 316 318 323
321 322 324 326 324 324 325 338 339 338 340 343 342 340 339 336 336 332 333 334 332 334 335 337 337 337 337 336 339 337 335 335 334 334 334 334 334 333 332 332 332 332 333 335 333 332 331 330 330 329 329 328 329 330 330 331 321 318 316 315 315 319 322
322 323 323 330 328 327 330 343 341 341 343 341 341 340 339 338 337 334 335 334 334 335 336 337 336 335 335 335 338 337 336 335 334 333 334 334 334 333 332 331 331 332 334 334 333 330 329 328 327 327 326 327 329 329 329 328 320 314 313 313 314 317 320
322 324 325 335 341 339 339 351 344 342 343 340 339 339 340 338 337 334 333 333 333 333 333 336 335 335 335 336 337 337 336 335 335 333 333 332 333 333 332 332 333 332 333 330 328 327 326 326 327 328 328 326 324 329 328 328 326 316 312 312 313 316 321
323 325 329 330 328 327 329 339 345 346 344 342 339 338 337 337 334 333 331 331 330 330 331 333 335 335 335 336 337 336 336 336 335 334 332 331 332 332 332 331 332 332 332 331 329 327 327 329 327 327 324 323 325 329 323 324 320 311 313 313 313 319 322
328 328 331 333 329 329 339 341 337 335 335 331 332 335 335 334 332 330 328 327 328 328 329 332 335 335 335 336 336 336 336 335 335 334 332 331 331 331 331 332 332 334 334 331 329 328 328 327 329 324 324 323 323 326 325 323 323 324 311 312 313 314 320
324 325 325 323 333 341 336 334 331 327 325 326 329 330 332 335 332 329 329 327 328 328 331 333 334 334 333 333 334 335 335 334 333 332 332 332 332 332 333 332 337 338 334 330 329 327 327 328 325 324 325 323 325 324 324 325 324 324 316 314 313 312 316
325 324 341 339 337 336 336 334 329 328 326 328 329 332 332 331 331 329 327 328 326 328 332 333 333 333 332 332 332 332 333 332 332 333 333 334 334 332 333 334 330 329 331 330 328 327 327 327 326 324 324 323 323 322 322 327 329 326 320 317 312 308 310
321 320 334 335 335 338 336 331 328 325 326 328 330 331 330 329 327 328 329 329 331 334 332 332 333 333 332 332 331 331 331 332 334 336 334 332 331 330 338 336 331 327 327 326 325 326 326 325 324 324 323 323 321 322 323 323 325 323 325 316 309 306 308
325 331 335 336 338 337 336 330 327 326 327 331 332 331 329 326 326 331 327 324 328 329 332 334 337 335 332 332 334 335 334 335 335 331 331 335 334 333 329 331 332 332 329 329 327 325 324 323 323 322 321 321 322 323 323 322 323 324 322 319 311 308 306
326 325 328 330 333 336 336 331 326 325 327 329 330 331 328 327 333 330 327 330 334 331 331 334 334 333 331 332 337 337 335 334 333 332 329 329 331 332 330 328 327 323 324 324 327 326 326 322 322 320 319 319 320 319 319 321 323 325 321 319 315 312 308
323 326 326 328 331 335 334 331 328 327 328 330 331 332 332 331 332 328 328 334 333 333 333 333 332 331 333 337 335 331 330 330 331 330 329 331 329 325 323 321 323 325 326 326 328 326 324 323 322 321 319 321 320 319 318 320 321 319 317 319 317 314 311
326 324 325 328 331 333 331 331 331 332 333 331 332 335 337 336 335 333 336 336 336 336 336 334 335 337 335 335 333 328 327 328 329 330 330 325 325 326 328 326 328 327 326 324 325 328 327 324 322 321 322 321 321 320 320 322 316 313 314 313 311 311 312
328 330 329 328 329 329 328 329 329 330 328 327 326 326 328 331 334 335 333 333 335 337 337 337 334 331 331 332 336 332 331 331 339 331 324 322 319 317 318 322 323 320 317 316 318 317 318 320 319 318 319 318 320 319 319 315 310 309 310 311 310 309 308
329 329 330 328 327 328 328 328 327 325 324 324 324 320 319 320 325 330 331 332 336 337 333 332 334 334 332 331 328 328 328 326 328 324 320 314 309 307 306 310 316 312 309 309 309 314 317 316 314 315 314 318 317 318 320 317 310 309 305 309 305 306 305
331 331 330 330 330 329 329 327 324 322 322 323 322 320 320 322 326 328 329 334 335 334 332 333 333 333 329 325 326 325 325 324 322 324 319 315 311 309 308 304 298 306 311 308 307 304 302 305 310 311 313 309 306 309 312 310 309 301 297 295 294 295 295
331 331 332 331 328 326 325 325 327 326 325 324 322 321 322 324 325 326 331 332 330 333 334 333 330 327 324 326 323 324 325 321 324 325 319 318 315 312 310 307 305 295 296 302 302 298 294 294 296 300 307 311 306 305 303 302 297 294 294 293 293 293 293
329 330 332 333 332 330 328 328 327 326 324 323 324 324 325 325 326 328 329 327 330 328 330 329 329 325 323 323 324 327 326 322 326 327 326 321 318 314 312 309 306 306 297 294 295 295 293 292 293 293 296 302 306 304 305 299 294 294 294 293 293 293 293

ECMWFFLT1_sfc_thetae_006.txt.gz
Theta_e
332 335 336 336 337 339 339 340 341 342 343 344 344 345 346 348 350 350 348 345 343 339 338 338 336 335 334 334 334 333 330 331 331 332 330 330 335 335 332 331 330 330 328 329 331 332 333 335 334 334 336 336 334 334 334 336 336 339 336 335 337 336 335
329 334 335 335 335 337 338 341 342 343 343 343 344 345 346 347 349 349 347 344 342 339 338 338 338 336 335 333 334 333 330 331 335 338 333 337 337 333 333 332 329 329 331 329 330 331 334 334 335 334 335 336 334 333 333 333 333 332 333 333 333 332 333
327 332 335 335 334 336 338 340 342 343 343 343 344 344 345 347 349 348 346 344 341 339 339 338 339 336 336 334 334 333 331 332 335 335 333 333 332 329 329 332 328 329 329 329 330 331 335 332 332 333 334 333 332 332 332 331 333 333 332 333 333 334 332
326 329 332 334 334 336 338 340 342 343 343 343 344 344 345 347 349 349 347 344 341 339 338 338 339 337 337 334 333 332 331 332 334 333 332 332 331 329 330 331 329 328 329 330 333 335 335 333 332 332 341 333 332 332 332 332 332 331 331 331 331 332 333
326 329 330 331 332 334 338 339 341 343 343 343 344 345 345 347 349 348 346 344 342 340 339 339 340 338 338 335 333 333 332 332 331 331 331 332 332 331 331 329 329 329 329 330 331 335 333 332 330 330 332 331 331 331 332 330 330 331 331 331 331 332 333
325 326 328 329 331 334 337 339 341 342 342 342 342 343 345 346 348 347 346 344 342 341 340 339 339 339 337 335 334 333 334 333 331 331 330 331 332 331 331 330 329 329 329 330 334 333 332 331 332 332 330 331 331 330 328 328 329 330 330 329 330 330 333
325 326 328 329 330 333 336 339 341 342 343 343 343 344 345 346 347 347 345 344 342 340 339 339 339 339 338 336 334 334 332 333 331 331 331 332 332 331 329 329 332 330 330 331 332 334 333 332 332 331 331 329 331 329 328 328 329 330 330 329 330 330 330
324 325 327 329 330 333 336 338 340 341 342 342 342 342 343 346 347 346 344 344 342 341 339 339 339 339 338 337 335 333 333 332 333 332 332 332 332 330 329 329 330 330 330 330 331 332 332 330 330 331 330 330 329 330 330 330 329 330 328 329 328 329 331
324 326 326 329 330 331 335 337 338 340 340 339 341 342 343 345 345 345 344 343 342 340 339 340 339 339 339 337 335 334 333 333 333 332 331 332 331 330 329 329 329 331 331 331 330 331 330 330 330 330 330 329 329 328 329 329 328 329 329 329 328 327 327
323 325 327 328 330 331 334 336 338 339 339 339 340 341 342 344 345 345 344 343 342 340 339 339 339 339 339 337 336 335 334 333 333 332 331 330 331 331 330 331 331 333 332 331 330 330 332 332 331 331 329 329 329 329 327 327 327 328 329 329 328 329 329
324 328 328 328 329 331 333 335 336 338 339 339 340 342 343 343 344 343 343 343 341 340 340 339 340 338 338 337 336 335 334 333 332 331 330 330 331 331 331 331 331 331 332 331 331 331 331 332 332 330 330 330 329 327 326 326 327 327 328 329 330 329 329
325 328 328 327 329 331 332 334 337 338 339 340 340 342 342 342 343 343 343 342 342 341 340 339 340 338 337 337 335 334 334 333 332 332 331 330 331 331 332 331 331 330 332 332 331 331 330 330 329 331 328 327 326 326 327 327 327 328 328 330 330 330 329
327 329 328 328 329 331 332 333 336 338 339 340 341 341 343 342 342 342 342 342 342 341 340 339 339 338 337 336 335 334 333 332 333 332 332 332 331 332 332 332 331 330 330 332 331 329 328 327 325 327 328 327 326 326 326 327 327 326 329 330 329 329 328
333 328 328 329 329 330 331 333 335 337 339 340 341 341 343 343 342 341 341 341 341 340 339 340 339 338 336 336 335 334 333 333 333 332 332 333 332 332 332 331 329 327 327 329 327 326 326 325 326 326 328 326 326 327 329 327 326 326 329 329 329 328 327
325 327 328 328 329 330 331 332 334 336 338 340 340 340 341 342 341 341 341 341 341 340 339 340 339 338 336 336 334 333 333 334 333 333 333 334 332 331 330 330 329 327 327 328 326 327 325 326 327 326 326 327 327 327 327 327 329 331 330 329 328 327 327
323 328 328 328 328 329 330 332 333 334 337 338 339 339 340 341 340 340 339 340 340 339 338 340 339 337 336 335 334 334 333 333 333 333 332 332 331 331 330 329 328 328 327 329 329 329 330 327 328 327 327 327 326 326 326 328 329 332 331 331 330 327 328
319 328 329 329 329 329 329 330 332 333 334 337 338 339 340 341 340 339 339 339 339 339 338 339 339 337 336 335 334 334 333 332 332 332 331 331 331 331 331 330 329 328 328 328 328 328 329 330 328 328 329 328 327 325 327 329 330 329 326 327 331 330 326
317 319 322 325 330 331 330 330 330 330 331 334 338 339 339 339 340 338 338 338 338 339 338 338 338 337 336 337 334 334 332 332 332 331 331 331 331 331 331 330 329 328 328 328 328 329 330 329 330 329 329 330 327 325 325 327 328 325 325 326 326 330 329
316 320 323 324 326 331 332 333 333 332 332 334 336 339 340 340 338 337 337 337 338 339 337 337 338 337 336 335 335 335 333 332 332 331 330 330 331 331 330 328 328 328 328 328 329 329 329 330 330 330 329 329 327 326 325 325 326 324 324 324 324 325 327
320 321 321 329 330 331 333 334 335 335 335 335 337 339 341 341 339 338 338 338 337 336 336 336 335 336 336 335 336 336 334 333 332 331 330 331 331 330 329 328 328 328 329 329 330 330 329 330 330 330 329 329 328 328 326 324 324 323 321 321 321 322 324
317 318 317 321 327 332 332 334 335 336 336 337 338 338 339 339 339 338 335 335 335 335 335 335 335 335 336 336 337 336 335 335 333 332 331 331 331 330 329 329 328 328 329 329 329 329 329 330 330 330 331 330 329 327 325 325 323 320 319 318 317 319 323
319 321 321 322 320 322 331 334 335 336 337 340 340 340 339 339 337 335 333 334 334 334 334 335 334 335 334 334 334 335 335 335 334 333 332 331 330 329 329 328 328 328 329 329 328 329 329 329 330 330 329 329 328 326 325 327 324 320 318 316 316 319 323
320 319 319 320 321 322 321 330 335 336 338 338 339 340 339 338 334 333 332 331 332 333 333 335 334 332 331 332 333 334 335 334 333 332 331 331 329 329 328 328 328 328 329 328 328 328 328 328 329 329 328 327 326 326 326 327 323 317 315 315 315 317 317
320 321 326 330 328 331 336 336 335 336 336 335 334 334 332 330 330 330 329 329 331 331 331 331 330 332 333 332 332 334 335 333 333 332 331 330 329 329 329 329 329 328 330 328 328 328 329 328 325 325 327 326 326 327 326 325 322 314 312 312 314 319 317
320 323 322 323 330 336 337 338 336 336 335 333 332 331 331 331 330 329 329 330 330 330 329 329 329 330 330 331 333 336 334 333 332 331 330 329 329 329 329 328 329 329 329 329 328 327 325 327 324 324 323 323 325 332 324 322 317 311 311 311 312 316 316
324 326 326 328 333 332 332 336 335 331 330 330 330 332 332 332 331 330 329 329 329 329 327 327 329 329 330 333 335 335 335 333 332 331 330 329 329 330 330 330 329 328 328 327 326 325 324 326 325 322 321 323 324 325 322 320 319 320 310 310 311 314 317
322 323 325 331 333 336 327 327 331 331 330 330 331 332 332 332 330 329 329 329 328 328 329 329 329 330 332 332 333 334 334 333 332 331 331 330 330 330 330 329 328 328 328 326 325 324 324 324 324 321 320 320 321 322 321 322 320 322 309 309 310 312 316
320 326 335 336 334 328 325 325 326 328 329 330 331 333 332 331 329 329 328 327 327 328 330 330 331 333 333 332 332 333 333 333 332 332 332 331 328 328 327 328 330 327 322 322 323 324 325 324 322 320 318 319 320 320 320 324 328 320 313 309 306 308 311
319 321 329 330 329 328 326 324 325 327 328 329 331 332 332 331 329 329 329 326 327 330 330 332 332 333 333 332 332 332 332 333 332 331 331 330 330 328 327 325 323 322 322 321 321 320 321 322 321 319 318 317 318 317 319 318 322 322 316 306 304 304 306
327 330 332 334 332 328 326 324 325 326 327 328 330 330 331 331 329 329 328 327 329 329 330 331 331 332 331 332 331 330 330 330 331 330 329 330 330 329 324 321 322 323 322 321 321 321 322 321 320 318 316 316 317 319 318 317 316 320 318 312 307 305 304
323 323 326 330 332 331 325 324 323 324 325 326 328 330 331 331 329 329 327 328 329 328 329 329 330 330 330 330 329 329 328 329 328 328 327 328 328 324 323 321 321 320 321 321 321 321 321 319 319 318 317 317 317 316 316 319 320 317 318 317 312 308 306
322 324 328 331 330 329 326 323 323 323 324 324 325 327 329 329 329 329 328 327 329 329 329 330 329 329 328 330 331 328 328 326 325 324 325 325 324 324 323 321 321 319 319 321 322 322 321 319 318 316 316 316 315 315 315 317 317 312 313 317 315 312 310
321 323 326 328 330 329 323 322 322 322 323 323 324 325 327 328 327 327 326 328 328 329 330 330 330 332 332 331 328 327 326 325 324 324 323 322 323 324 325 322 324 324 323 322 322 320 319 321 320 319 317 315 315 316 320 318 310 309 309 308 307 308 309
322 322 323 326 329 325 323 322 322 325 325 325 327 328 328 326 324 327 329 330 331 331 332 332 331 329 328 326 326 325 327 330 334 324 317 314 316 318 319 319 320 320 319 320 321 319 317 319 318 319 319 317 316 317 318 314 308 307 307 307 308 306 304
322 322 322 324 325 326 325 326 325 324 324 323 326 329 328 328 329 330 330 329 329 329 329 329 330 328 327 327 327 328 331 329 322 317 313 310 308 305 305 308 312 312 308 306 306 311 317 314 313 313 312 315 316 317 315 312 310 309 306 306 303 304 304
324 324 324 325 326 326 326 325 323 320 318 317 320 323 325 327 326 323 321 322 323 323 323 325 327 326 325 325 326 328 328 323 319 316 313 311 309 308 306 303 296 300 308 307 307 302 302 306 310 311 310 305 303 308 314 314 308 303 299 297 295 294 294
326 326 326 326 324 322 320 320 320 319 318 318 321 323 322 320 319 319 320 319 319 319 320 322 325 325 326 325 325 326 325 321 318 315 313 312 311 310 308 306 305 295 294 299 301 298 294 295 298 303 307 310 304 303 302 301 297 296 295 294 293 293 293
327 326 326 324 323 321 321 321 319 318 318 319 321 320 320 320 320 321 323 322 322 321 320 320 321 324 325 325 325 327 326 321 318 316 313 312 311 310 309 307 306 305 298 294 295 295 293 293 294 296 298 301 304 303 304 299 295 293 293 293 293 292 292

ECMWFFLT1_sfc_thetae_009.txt.gz
Theta_e
330 332 333 335 336 338 339 340 341 342 343 343 344 345 347 348 349 349 349 349 349 347 344 341 337 336 334 331 331 330 330 330 331 328 328 327 331 332 330 330 330 328 327 325 326 332 332 334 333 333 331 333 331 331 330 333 334 337 334 333 334 333 331
328 331 333 335 335 337 340 341 341 342 342 343 344 345 346 347 348 349 349 349 349 348 344 339 337 334 333 331 331 331 330 330 332 334 330 331 336 332 331 330 329 328 327 327 329 331 332 332 332 330 332 334 332 329 330 330 330 329 329 330 330 329 329
327 330 333 334 335 337 339 340 341 341 342 343 344 345 346 347 348 349 349 348 348 347 343 339 337 334 333 332 331 330 330 330 330 331 328 329 332 331 330 330 328 328 328 328 330 330 333 331 330 330 332 332 332 329 329 328 330 330 329 329 329 330 329
326 328 332 335 336 337 339 340 341 341 342 343 344 345 346 347 348 349 349 349 348 346 342 339 337 334 332 332 331 330 328 329 330 330 329 330 331 330 330 328 327 327 328 327 330 330 333 332 330 329 340 330 330 328 328 330 329 329 329 328 328 329 329
325 328 331 333 334 336 338 339 340 341 342 343 344 345 346 347 348 349 349 349 348 346 344 340 338 335 334 333 332 331 329 329 329 329 329 330 330 328 328 328 326 326 327 327 328 333 331 330 328 328 329 331 329 328 330 329 329 329 328 327 328 329 329
324 326 329 332 333 335 337 339 340 341 341 342 343 344 345 346 347 348 348 348 347 347 344 340 337 337 334 333 333 331 329 330 330 330 330 330 328 327 327 328 327 327 325 326 331 330 330 329 329 329 328 329 330 329 328 327 327 327 328 326 329 329 330
324 325 328 331 333 334 336 338 340 341 342 343 344 344 345 345 346 347 348 347 347 345 342 339 338 336 335 334 333 332 329 329 330 329 330 330 328 328 327 327 329 327 327 328 328 330 329 329 328 328 329 329 330 328 327 326 326 327 326 325 327 327 327
324 324 327 330 333 334 335 337 339 341 342 342 342 343 343 344 345 346 346 347 346 345 342 340 338 337 336 334 333 331 330 329 330 329 329 329 329 328 328 327 328 327 328 327 328 329 330 329 330 330 329 328 327 327 327 327 327 328 326 327 326 326 328
325 325 326 328 331 333 334 335 338 339 341 341 341 342 343 343 344 345 346 346 346 344 342 341 339 338 337 334 332 331 330 330 329 329 328 329 329 328 328 328 328 329 328 327 327 330 330 330 329 329 328 327 327 326 326 327 328 328 326 326 325 325 326
323 324 325 328 330 332 333 335 337 338 339 340 340 340 341 343 343 345 345 346 345 344 343 342 340 338 337 335 333 331 330 330 329 329 329 329 330 329 328 328 328 330 328 328 327 328 330 329 328 327 327 327 327 326 326 327 327 327 325 326 326 326 327
323 324 325 326 327 328 330 332 335 337 338 339 340 340 341 342 343 343 344 345 345 344 344 342 341 339 337 335 333 331 330 330 332 332 331 331 331 331 330 329 328 329 329 328 327 327 328 330 329 327 327 328 327 327 327 327 327 325 324 324 325 326 327
322 323 324 325 326 326 327 331 334 336 338 339 340 340 340 341 342 343 344 345 345 344 343 342 341 339 338 336 333 331 330 332 333 333 332 331 331 331 331 329 328 328 330 329 328 328 328 328 328 330 328 327 328 328 327 326 325 324 325 325 326 326 327
321 323 324 325 326 327 327 329 332 335 337 338 339 340 340 341 341 342 343 344 345 345 343 342 340 339 337 336 334 331 332 333 333 333 333 332 331 331 330 329 329 329 329 331 329 328 328 328 327 330 329 328 327 326 326 325 325 324 324 325 326 326 326
328 322 324 325 325 325 326 328 331 333 335 337 338 339 340 341 341 342 343 343 344 344 343 342 340 338 337 336 333 332 332 332 332 332 332 332 331 331 330 330 329 329 329 330 329 328 328 327 327 327 328 327 326 326 326 325 324 324 325 326 326 326 325
321 322 323 324 324 325 326 327 329 332 334 336 337 338 338 340 340 341 342 343 343 343 342 342 339 337 336 334 332 332 333 334 333 333 334 334 331 330 330 330 330 329 329 329 329 330 328 327 326 325 324 325 325 325 326 326 326 326 326 325 325 325 325
321 322 323 323 324 324 326 328 329 331 333 335 336 337 338 339 339 340 341 342 342 342 342 340 338 336 334 332 332 333 334 333 333 333 334 333 332 331 330 330 330 329 327 327 327 327 327 324 324 324 324 324 324 325 326 326 327 330 328 329 328 326 326
321 322 323 324 324 324 326 328 329 331 332 334 335 337 338 338 340 340 341 341 342 342 342 340 337 333 331 332 333 333 334 333 333 333 332 332 332 331 330 330 330 329 328 327 326 325 325 325 323 323 324 324 325 325 326 326 327 327 325 327 330 329 325
321 322 323 324 324 325 325 327 328 328 330 333 335 336 338 338 339 340 340 340 341 341 341 338 334 331 332 333 334 333 333 333 332 331 331 332 331 331 331 330 329 328 327 326 326 326 326 326 325 325 326 326 326 325 326 326 327 324 324 326 327 330 329
321 322 324 324 325 326 326 327 328 328 329 331 334 336 338 339 339 339 340 340 341 341 338 335 332 332 332 333 333 332 333 332 332 331 330 330 331 331 331 330 329 328 327 326 327 326 326 326 327 326 327 327 326 326 327 327 326 323 323 324 324 326 328
318 321 323 324 326 327 328 328 329 329 329 330 333 336 339 340 340 341 341 340 338 337 335 334 333 332 332 332 332 332 333 332 331 330 331 331 331 331 330 329 329 328 328 328 328 327 326 326 326 327 326 327 327 327 327 327 325 322 321 321 322 323 326
316 320 322 323 324 326 327 329 330 330 329 330 331 333 336 338 339 339 338 337 337 336 335 334 333 332 332 332 333 333 332 332 331 330 331 332 331 330 330 330 329 328 328 328 327 327 326 326 326 326 328 327 328 327 327 329 324 320 319 318 318 320 324
318 319 319 322 323 324 325 327 329 331 332 334 332 332 335 337 338 337 334 335 335 334 334 333 332 332 333 332 332 332 332 332 331 332 332 331 330 329 329 329 329 329 329 329 328 327 327 326 326 326 327 328 327 327 327 328 323 320 318 317 317 320 323
318 317 317 319 323 324 327 328 330 331 332 333 334 334 335 336 337 334 332 333 333 334 333 333 332 332 332 332 333 332 332 332 332 332 331 331 330 329 329 329 329 329 329 328 327 326 325 326 326 328 327 326 326 326 326 327 324 318 316 315 316 317 319
318 317 317 318 321 324 321 326 331 334 335 334 335 336 335 335 334 331 331 331 331 332 332 332 332 333 333 333 333 333 333 333 332 332 331 331 330 329 330 330 330 329 330 328 327 326 326 326 325 325 326 326 326 327 326 327 324 318 314 314 315 318 317
318 320 324 325 330 331 329 328 332 334 335 334 335 334 334 332 331 330 330 330 331 332 331 331 331 333 333 334 334 333 334 334 333 333 331 331 331 331 330 330 330 330 329 328 327 327 325 327 325 323 323 326 326 330 328 325 322 316 313 312 312 318 315
320 320 322 328 333 335 335 335 334 329 330 332 333 331 331 330 330 330 330 330 330 330 331 332 332 333 335 334 333 333 334 334 333 332 332 332 332 332 331 331 330 328 327 326 326 325 323 326 324 323 322 323 325 328 326 324 322 321 310 309 309 315 317
320 322 326 330 333 340 333 331 331 332 332 333 332 330 330 330 329 329 330 330 329 329 331 333 333 333 333 333 332 332 333 333 332 331 332 333 333 332 331 329 327 325 325 325 325 323 323 323 323 321 320 320 322 321 321 322 318 316 309 308 309 313 317
324 328 333 335 333 329 327 327 328 329 329 330 330 330 330 330 330 329 328 328 328 330 332 332 332 332 332 331 331 331 332 331 331 332 333 333 331 326 326 325 326 326 325 324 323 323 322 322 321 319 318 318 319 321 317 322 324 315 310 308 306 308 311
317 327 328 327 327 327 326 325 328 328 327 329 330 330 330 330 330 328 329 327 329 331 331 331 331 330 331 330 330 331 331 330 331 331 331 330 328 325 324 324 325 323 324 323 323 323 322 321 319 318 317 317 316 316 316 315 320 318 316 307 304 305 307
324 326 328 330 328 326 327 323 324 325 325 327 328 328 329 329 330 329 328 328 329 328 329 329 329 329 329 330 330 329 330 331 331 331 329 328 327 326 324 323 323 322 322 321 321 319 320 318 317 316 315 316 316 317 317 316 317 317 315 312 305 302 302
320 322 326 327 326 326 323 322 322 322 324 325 327 327 327 327 327 328 327 326 328 327 328 329 329 328 328 328 328 328 328 330 329 328 328 327 327 325 323 321 320 320 318 318 317 318 318 317 317 315 316 314 315 315 315 318 317 316 315 312 308 304 303
320 322 325 326 325 326 323 321 322 323 324 324 325 325 326 325 326 325 324 325 328 326 327 328 329 328 327 327 328 327 327 325 324 324 326 327 327 326 324 321 320 320 317 317 317 317 318 317 316 316 315 314 313 314 315 317 316 312 312 316 313 311 308
320 321 322 323 325 327 321 322 322 323 324 323 322 324 325 323 324 325 326 327 326 327 327 328 329 329 328 326 325 325 325 324 323 324 325 324 324 323 322 321 319 319 320 319 318 318 318 319 318 317 315 314 313 314 316 317 314 310 308 305 304 306 308
322 322 323 323 325 324 321 321 320 323 323 323 322 324 324 325 327 327 327 327 328 328 328 328 328 327 326 325 326 326 326 326 331 325 318 317 319 320 320 320 321 320 320 320 319 318 317 318 318 317 316 314 313 315 317 317 313 309 307 304 305 303 301
324 322 321 323 324 323 319 320 321 321 324 323 322 325 325 324 324 325 325 327 328 329 328 329 330 327 325 325 326 325 328 326 326 317 314 310 307 304 303 306 310 312 309 306 306 312 319 319 318 318 316 317 316 316 315 315 313 312 306 308 304 304 303
322 324 324 324 325 324 324 323 322 322 323 322 322 320 317 316 316 316 318 321 324 327 326 326 324 323 323 324 326 325 322 318 317 316 315 314 312 308 306 302 296 299 308 307 307 302 301 309 314 315 313 309 305 310 314 314 311 301 295 293 294 294 294
323 324 324 324 322 320 320 319 322 321 322 320 317 315 315 314 314 314 315 316 318 319 321 322 322 322 323 325 325 324 321 319 317 317 316 315 313 311 309 305 304 295 294 299 301 298 296 297 300 303 307 311 303 302 301 301 296 293 293 292 292 293 292
326 324 325 324 322 320 320 319 320 321 320 317 316 316 317 317 317 317 317 316 317 318 319 320 320 319 320 323 326 327 324 320 320 318 317 315 313 310 309 308 306 305 298 294 294 296 294 294 295 296 299 302 305 302 301 297 294 293 293 293 293 292 292

ECMWFFLT1_sfc_thetae_012.txt.gz
Theta_e
326 327 330 332 333 334 335 337 338 339 340 341 342 344 344 345 346 347 347 348 348 348 349 349 348 348 348 346 345 341 339 337 336 335 333 332 332 331 330 331 333 333 333 332 332 333 336 338 337 338 336 337 336 335 335 339 338 339 338 339 338 338 336
325 327 329 331 333 334 335 338 339 339 340 341 342 344 345 345 346 346 347 348 348 348 348 348 348 347 347 346 343 338 335 333 335 336 333 333 335 332 331 332 333 332 332 332 332 334 336 337 337 336 335 338 337 335 335 336 338 338 338 336 336 336 337
325 327 329 331 333 334 335 337 339 340 341 341 343 343 345 346 347 347 347 347 347 348 348 348 348 346 346 344 340 336 333 332 333 332 330 330 332 332 332 333 332 332 331 331 332 334 336 336 335 334 335 336 337 335 335 334 336 335 335 334 336 337 335
325 327 329 331 333 335 336 337 339 340 342 342 343 343 345 346 348 348 349 348 348 348 347 348 347 346 344 342 338 335 332 331 332 331 330 330 332 332 332 332 331 331 330 330 333 335 336 335 334 333 341 335 336 335 334 334 334 334 335 335 335 334 334
324 327 329 330 332 334 335 337 338 340 341 343 343 345 345 347 348 349 349 349 348 348 348 348 347 346 344 342 338 335 332 331 332 333 331 331 334 332 331 331 330 330 330 330 333 335 335 333 333 333 336 334 334 333 334 333 333 334 334 333 333 333 334
323 325 328 330 332 333 335 337 339 340 340 342 343 344 345 346 347 347 348 349 348 348 349 348 346 345 342 340 337 334 333 332 332 332 331 331 332 331 331 331 330 330 329 330 334 333 333 333 333 333 332 333 333 333 333 333 333 333 334 332 333 333 333
323 325 327 330 332 333 335 337 339 340 341 342 343 345 345 345 345 346 348 348 348 347 347 347 345 343 342 338 336 334 332 331 331 331 331 331 331 331 331 331 332 329 330 331 331 331 331 331 332 332 332 331 334 333 333 333 333 332 332 331 332 332 332
323 324 326 329 332 333 335 337 339 340 342 342 342 343 343 345 345 345 346 347 348 348 347 346 345 343 341 337 335 332 331 331 331 332 331 330 330 330 330 331 331 330 330 328 329 331 330 331 332 333 331 330 331 332 332 332 332 331 331 331 331 331 332
323 325 326 328 331 333 335 336 338 340 341 341 341 342 343 344 344 345 346 347 347 347 347 347 346 344 341 335 333 332 331 332 332 331 330 330 331 329 330 329 330 331 329 329 328 331 330 331 331 332 332 331 332 331 331 331 331 332 331 331 331 331 331
322 323 325 328 331 333 334 336 338 339 340 340 341 341 342 343 344 345 345 346 347 347 347 347 346 343 338 334 333 332 331 331 332 330 330 330 330 329 329 330 329 331 329 329 328 328 331 332 331 332 331 331 332 331 331 331 331 331 331 331 331 330 330
321 323 324 325 328 331 333 334 335 337 339 340 341 341 342 342 343 344 344 346 346 347 347 347 346 341 336 334 333 332 332 332 332 331 330 330 331 331 331 330 329 331 330 329 328 329 329 332 332 331 331 330 330 330 330 331 331 331 330 330 331 330 330
321 322 323 324 326 329 330 332 335 337 338 339 340 341 341 342 343 343 344 345 346 346 346 346 345 340 335 333 332 332 332 332 332 331 332 332 331 332 333 332 331 330 330 330 328 329 329 329 330 331 330 330 330 331 331 331 331 331 331 330 330 330 330
321 322 323 323 325 327 330 331 333 335 337 339 340 340 341 341 342 343 343 344 345 346 346 346 344 339 335 333 332 332 332 332 332 333 333 333 333 334 333 333 333 331 329 331 330 329 328 328 329 332 331 330 330 331 331 331 330 330 330 330 329 329 330
327 321 322 323 324 325 327 329 332 333 335 337 339 340 341 341 342 342 343 343 344 345 346 345 343 338 335 333 332 332 332 332 334 333 332 333 333 331 330 331 332 331 330 331 330 329 329 329 329 330 332 331 331 331 332 331 330 329 329 329 329 329 329
320 321 321 322 323 324 325 326 329 332 334 336 337 338 340 341 341 342 343 343 344 345 345 345 341 337 335 332 332 332 333 332 333 332 332 332 329 329 331 332 332 332 331 330 331 331 330 330 330 330 330 330 331 331 331 330 329 329 328 328 328 329 329
320 320 321 322 323 324 325 326 328 330 333 334 336 337 338 339 340 341 341 342 343 344 344 342 339 336 333 332 332 333 333 331 331 331 330 326 327 329 330 331 332 332 330 330 330 330 331 330 330 330 329 329 329 329 329 328 329 330 327 328 330 329 329
319 320 321 322 323 323 325 326 327 329 331 332 334 336 338 339 340 341 341 341 342 343 342 341 337 335 333 332 333 333 331 329 329 329 328 325 327 329 329 330 331 331 331 330 329 329 330 331 329 328 329 328 328 327 328 328 329 326 324 325 328 331 329
319 320 320 321 323 323 324 325 326 327 329 331 333 335 336 338 339 339 340 341 341 342 340 338 336 335 334 333 333 332 330 328 327 326 327 326 328 329 330 331 332 331 330 330 329 329 329 329 328 328 328 327 327 326 327 328 326 323 323 325 326 329 332
319 320 321 322 323 324 323 324 326 327 328 329 331 333 335 338 337 338 339 340 341 340 338 336 335 334 333 333 332 331 331 328 325 327 329 330 330 330 331 331 331 331 330 330 330 330 328 328 328 328 327 327 327 326 328 328 326 323 323 323 324 325 328
318 320 321 322 323 324 324 325 326 328 328 330 332 334 336 338 338 339 340 340 340 338 336 335 334 334 333 333 332 332 331 329 327 329 330 331 330 330 329 329 329 330 330 331 331 330 329 329 329 329 328 327 327 328 329 329 325 322 321 321 321 323 326
318 320 321 322 323 324 325 327 328 329 329 330 332 334 336 337 338 339 339 339 338 337 335 334 334 333 333 333 333 332 331 329 328 327 327 328 329 329 328 328 329 330 330 331 330 330 329 329 328 328 329 329 329 329 329 330 323 320 319 318 318 320 324
318 321 322 324 325 326 327 328 329 329 330 333 332 333 334 336 338 338 338 338 337 335 334 334 333 333 333 333 332 332 330 328 327 326 327 328 329 329 328 328 329 330 331 331 330 330 330 330 329 329 329 329 329 329 329 331 322 320 319 317 317 320 326
320 322 324 325 327 328 329 330 330 330 332 332 331 331 332 335 338 338 337 336 336 335 334 333 333 333 333 333 333 333 330 329 327 328 329 329 328 328 328 328 329 330 331 331 330 329 328 329 328 330 329 329 330 329 329 330 325 318 315 315 316 318 326
322 324 324 325 324 324 326 327 330 333 333 332 332 332 333 335 337 336 335 335 335 334 333 333 332 333 333 333 333 333 331 329 328 329 331 331 329 329 330 330 331 331 332 331 330 329 329 329 329 330 330 329 329 330 330 330 326 318 314 313 315 319 326
318 319 320 320 322 324 323 327 331 334 334 333 333 332 333 335 335 334 334 334 334 334 333 332 333 333 333 334 334 334 333 331 330 331 330 331 331 331 330 330 330 332 332 332 331 330 330 330 328 328 328 329 329 330 331 331 327 317 315 314 313 320 325
322 325 328 331 333 330 329 335 336 333 333 333 333 333 334 334 334 334 333 333 334 333 333 333 334 334 335 335 335 335 334 333 333 333 332 331 332 332 331 332 332 332 331 330 330 330 330 330 329 328 328 328 330 331 331 330 328 328 312 311 309 316 325
323 327 329 331 334 338 332 332 332 332 333 333 333 333 334 333 333 333 333 332 333 333 334 336 336 335 335 335 335 334 334 334 333 332 333 333 334 334 335 333 332 332 331 329 328 328 328 327 328 327 327 325 326 326 324 325 324 319 308 306 308 314 317
327 329 331 334 333 330 328 328 328 328 328 328 330 331 332 334 333 333 332 331 332 334 335 336 335 335 335 335 335 334 334 334 334 334 333 334 333 331 332 332 332 331 331 330 329 327 327 327 326 323 321 321 322 322 321 325 326 321 311 308 307 310 313
324 326 327 328 327 329 329 325 325 327 327 329 329 329 331 332 333 332 331 330 330 331 333 334 334 335 335 334 334 334 334 334 334 333 333 332 332 331 330 330 330 330 329 328 327 327 326 324 322 319 321 322 322 322 323 324 326 318 317 307 304 305 309
324 326 328 328 327 327 327 324 325 325 326 327 328 328 329 330 331 331 330 329 328 331 333 333 333 334 333 334 333 333 332 334 334 334 333 333 331 330 329 328 328 328 328 328 327 326 324 322 322 322 322 322 322 321 320 320 322 318 315 313 306 304 302
323 326 328 328 327 329 323 323 323 323 325 325 327 327 327 328 331 332 330 328 330 331 331 332 332 332 332 331 331 331 332 333 333 332 331 331 330 328 327 326 326 325 325 327 326 324 324 322 321 320 320 320 320 320 319 319 319 319 316 311 305 301 300
323 324 325 326 326 328 322 322 323 324 326 325 325 326 329 326 329 332 329 328 331 330 331 331 331 331 330 330 330 330 329 329 330 330 330 330 330 330 329 327 326 326 323 323 323 323 323 321 319 318 318 318 318 318 318 318 317 316 315 315 313 310 307
322 323 324 326 327 328 321 322 323 325 326 326 324 326 326 326 327 329 328 329 328 330 330 330 330 330 329 328 328 328 328 328 328 329 330 329 328 328 328 325 324 324 323 322 320 320 320 319 319 318 317 318 318 318 317 317 315 315 313 312 313 313 313
322 323 324 324 326 326 321 321 322 325 325 324 325 325 326 326 327 327 328 328 329 330 331 330 330 328 327 327 327 327 327 328 333 330 326 325 325 324 323 322 321 321 321 319 319 318 318 319 319 318 318 318 318 318 318 317 315 314 312 309 310 310 311
322 322 323 322 323 325 322 322 323 323 324 324 323 325 326 326 327 327 327 328 329 330 330 329 330 328 326 327 327 327 329 330 332 325 319 313 309 306 306 309 312 317 315 309 311 315 319 318 318 320 319 319 318 318 318 317 316 317 308 311 306 308 308
320 322 323 324 325 325 325 326 324 324 324 323 322 320 319 318 321 326 328 329 329 330 330 329 327 326 326 326 327 327 324 321 319 317 316 314 313 311 307 302 297 300 309 310 308 304 300 306 319 320 319 316 313 314 318 318 318 302 297 295 295 295 297
321 321 322 324 324 322 322 322 326 324 322 319 317 316 316 317 319 324 327 329 330 330 328 327 327 326 326 326 324 323 321 319 318 318 317 316 316 316 315 311 306 295 294 298 301 298 295 298 303 307 311 315 309 305 302 302 297 294 293 293 293 293 292
324 323 325 325 322 321 321 322 323 322 318 316 316 315 316 316 318 322 325 327 328 328 328 327 327 325 325 325 324 324 323 320 320 319 318 318 319 319 316 313 310 307 298 294 294 295 294 294 296 297 300 302 306 303 303 298 294 293 293 293 293 293 292

ECMWFFLT1_sfc_thetae_015.txt.gz
Theta_e
335 335 337 339 340 339 340 343 344 343 346 347 348 348 349 351 352 355 354 356 357 358 360 361 360 361 361 362 363 364 363 363 363 360 358 356 355 353 351 350 351 351 349 346 347 347 350 351 352 351 351 350 348 349 349 348 347 346 348 348 348 347 346
332 333 335 338 339 340 342 344 345 345 345 346 347 349 349 352 353 353 354 356 357 358 360 360 360 360 361 362 363 363 363 362 361 359 357 355 353 352 351 350 350 350 350 349 350 350 351 350 350 350 349 350 348 349 347 348 348 346 344 347 346 346 346
331 332 334 336 338 339 342 344 345 345 346 345 346 348 349 353 354 354 354 355 357 358 360 360 360 360 361 362 362 361 361 360 358 356 354 352 351 348 348 349 349 348 348 349 350 349 349 350 351 351 349 348 346 348 348 347 348 347 347 348 346 344 345
331 331 333 337 340 342 343 343 344 344 345 346 346 348 350 354 355 355 356 356 356 358 358 359 360 359 360 361 360 360 358 357 355 353 352 351 350 348 347 346 348 348 347 347 347 347 348 349 349 350 349 347 347 346 346 346 345 347 347 347 344 344 345
332 333 333 335 337 340 341 342 343 345 345 346 348 351 353 354 353 354 356 356 355 356 357 359 359 360 360 361 359 358 356 354 352 351 349 348 350 348 345 343 345 345 345 347 348 348 348 348 348 348 348 348 346 347 347 347 345 347 346 346 344 345 343
331 332 333 334 335 337 340 341 342 343 344 345 347 350 351 351 351 351 353 355 355 356 359 359 359 360 357 357 356 355 354 352 351 350 349 348 349 346 345 345 344 344 345 346 346 346 347 347 346 347 345 344 342 344 345 345 344 345 345 346 344 343 340
331 333 333 334 335 337 338 340 341 343 345 346 348 350 350 349 350 351 352 353 354 355 356 356 358 358 357 356 354 353 351 350 349 347 346 346 347 346 346 347 346 344 345 347 345 346 346 346 346 347 345 344 344 343 344 345 344 345 346 345 344 345 343
332 333 335 336 336 337 338 340 342 343 345 347 347 347 348 349 350 351 351 352 353 353 354 353 356 357 356 356 354 352 352 349 347 345 344 344 345 344 345 345 345 346 347 343 344 345 343 345 345 346 345 343 345 345 345 345 347 344 345 343 343 342 343
332 335 335 335 336 337 338 341 343 344 346 348 348 349 348 349 349 350 351 352 353 352 353 354 355 356 356 354 353 352 351 346 344 343 343 343 343 341 342 343 344 344 342 340 340 343 343 344 343 343 344 343 343 344 344 345 345 345 344 343 343 341 341
330 334 336 336 338 338 340 342 345 347 348 349 350 350 349 349 350 350 351 352 352 352 353 354 355 353 354 353 353 351 347 345 342 340 339 339 341 339 340 340 342 342 341 339 338 338 340 340 341 341 342 341 341 342 343 343 343 343 343 343 343 342 342
331 335 337 335 337 340 342 341 344 347 348 350 351 349 351 350 350 350 351 351 352 353 354 355 355 353 352 352 348 345 343 342 341 340 339 338 338 339 339 339 338 339 339 339 338 338 337 337 339 340 339 338 339 341 341 342 343 343 343 343 343 343 342
333 335 337 337 339 340 340 343 346 348 349 350 350 349 351 352 350 350 351 352 353 353 354 354 354 352 350 349 345 342 342 341 342 341 340 339 339 339 338 337 339 339 339 339 338 336 335 335 336 337 338 339 340 341 342 343 344 344 343 342 342 343 342
331 335 336 335 338 340 345 346 345 347 350 349 348 350 350 349 349 350 352 353 352 353 353 355 353 352 349 348 342 342 343 344 344 341 340 342 343 342 340 338 339 339 338 339 335 333 331 333 334 337 337 339 339 340 341 342 343 343 343 343 344 343 343
335 332 334 337 338 339 341 344 347 347 348 348 348 351 350 350 350 351 353 352 352 352 353 354 353 351 349 348 343 342 343 345 346 345 342 342 344 343 341 340 341 341 340 337 334 333 333 333 332 334 336 338 338 340 342 342 342 342 342 343 343 343 342
329 329 332 333 337 341 342 343 346 347 347 348 349 349 350 350 351 352 354 352 353 352 352 355 354 351 348 347 344 343 344 346 347 347 345 341 342 343 342 344 342 338 338 335 332 333 333 333 333 333 335 337 339 340 340 340 340 341 342 342 343 343 342
328 329 330 332 336 337 342 343 345 347 348 350 349 350 349 350 352 351 350 350 351 352 352 356 355 351 348 346 346 345 345 346 347 347 346 342 342 342 341 338 334 333 335 333 332 333 335 334 334 334 335 337 338 339 340 340 341 335 328 332 342 343 343
329 329 330 334 338 338 340 343 344 346 347 348 349 349 350 351 351 351 349 350 350 352 353 355 355 352 349 347 349 347 346 345 345 346 345 343 342 340 336 333 333 333 332 333 332 333 334 334 333 333 334 335 336 337 338 339 339 328 326 326 327 337 343
330 332 332 333 336 337 339 340 342 344 345 345 347 350 350 352 351 350 349 350 350 350 352 353 354 351 351 349 348 347 345 343 344 345 344 343 340 339 335 333 331 330 330 332 332 332 333 333 333 335 336 336 336 337 339 340 330 325 324 325 325 327 339
332 332 333 337 338 337 336 336 339 343 343 344 345 347 349 352 349 350 351 351 351 352 352 351 352 353 351 349 347 346 345 344 343 344 344 342 339 337 333 331 329 327 328 331 332 332 331 332 334 335 337 337 337 337 338 339 329 324 323 323 323 324 328
333 333 334 335 335 335 337 339 339 341 343 346 347 346 348 350 349 351 351 351 354 352 353 353 353 353 351 349 346 345 345 344 343 342 342 341 337 335 331 329 328 329 332 332 332 332 332 334 335 336 337 337 338 339 339 339 329 323 320 320 321 322 326
334 336 335 335 336 335 340 341 343 342 342 341 341 345 347 347 349 351 350 352 352 353 355 354 353 352 350 348 346 345 344 343 342 341 341 339 337 335 333 332 333 333 334 333 333 332 332 334 335 336 337 337 337 337 337 337 325 321 319 318 317 319 324
331 332 333 334 338 340 342 338 340 338 341 342 343 343 344 346 347 347 347 350 351 351 353 353 352 350 349 347 345 344 343 341 341 340 339 337 336 336 334 333 334 334 336 335 333 333 334 336 336 336 336 337 337 335 336 337 323 320 318 317 317 320 331
329 331 333 338 337 339 343 343 342 341 346 344 343 345 344 346 346 346 347 347 349 352 350 351 350 349 348 346 345 344 342 340 339 339 338 336 335 334 333 333 334 335 336 334 334 333 333 334 335 337 337 337 338 337 337 338 329 317 315 315 315 321 334
329 331 334 335 340 341 343 343 345 347 344 345 344 345 346 346 346 349 349 348 350 349 349 348 348 348 348 346 346 344 343 340 339 338 337 336 334 334 335 335 336 336 336 334 333 332 333 334 335 337 338 338 338 337 338 338 333 317 314 313 315 323 336
329 332 335 337 338 339 340 345 346 343 348 346 343 344 347 348 348 348 349 349 347 347 347 347 348 348 347 346 346 344 342 340 339 339 337 336 336 336 336 336 336 336 336 335 335 335 336 336 336 336 338 337 337 336 335 338 329 315 316 314 313 322 334
332 334 335 336 339 344 347 347 346 345 344 345 346 346 349 350 350 351 350 347 346 346 346 348 349 349 348 347 345 344 341 340 339 338 337 336 337 338 337 338 337 336 335 335 335 335 336 336 337 336 337 337 337 336 336 335 337 328 312 311 310 316 334
339 340 338 338 339 342 342 342 342 341 342 344 345 344 346 348 349 348 349 348 347 346 347 347 348 347 346 346 344 342 341 340 339 337 337 338 338 339 338 337 336 336 335 334 334 336 336 337 337 336 337 336 337 336 331 331 328 327 309 308 309 313 321
335 336 338 340 342 340 340 342 344 342 342 345 345 345 345 347 346 346 346 346 346 347 346 347 347 346 345 345 343 342 340 339 339 339 339 340 338 336 338 339 337 336 336 336 337 337 338 338 337 336 336 336 334 333 329 330 328 329 313 309 307 308 313
336 336 337 338 338 338 338 339 339 338 338 339 341 343 343 346 345 345 345 344 346 345 346 346 346 345 345 344 343 342 340 339 339 338 338 339 337 336 336 337 337 338 338 339 339 338 337 337 337 338 335 332 330 330 333 333 331 322 325 309 306 306 310
338 336 333 333 333 335 337 337 337 337 339 339 340 340 341 345 345 344 343 344 345 344 345 346 346 345 344 343 342 341 340 339 339 339 339 339 337 334 334 335 336 337 338 339 337 336 336 337 336 335 333 332 332 330 331 332 332 320 318 316 307 305 306
336 336 335 334 332 336 336 337 336 335 336 337 338 340 341 344 344 343 343 343 343 344 344 345 345 344 343 342 342 340 340 339 338 338 339 339 337 334 335 335 336 335 338 339 337 337 337 336 334 334 335 333 331 329 328 327 327 327 320 314 309 306 303
334 336 335 336 338 339 338 339 342 341 338 338 339 340 341 342 344 342 344 342 343 344 345 345 344 343 342 342 341 340 339 338 338 338 339 339 336 335 335 335 336 337 337 335 335 336 335 335 335 333 331 329 328 328 326 323 324 325 323 315 310 308 304
336 337 338 336 336 337 338 332 333 340 340 338 337 338 338 339 340 344 343 341 343 344 345 344 343 341 342 340 340 340 339 337 337 337 338 337 335 335 336 337 337 337 334 333 332 334 336 334 332 330 327 326 324 322 321 322 324 325 323 322 319 319 315
335 335 336 337 337 338 337 337 337 337 337 338 338 338 338 338 339 340 340 339 339 340 343 342 340 339 339 339 339 338 338 338 338 337 336 335 334 334 333 334 334 334 334 333 333 333 332 331 330 329 331 330 323 320 322 322 324 325 323 322 322 321 320
335 335 336 335 336 338 337 336 336 336 335 335 336 336 337 338 337 337 339 337 339 341 341 339 339 339 338 337 336 335 337 337 338 337 335 335 335 330 326 330 334 335 329 325 329 333 331 330 330 330 327 325 323 323 323 324 323 325 317 325 314 321 322
337 337 337 338 337 337 338 337 337 337 337 337 335 335 336 337 338 337 336 337 338 340 340 339 337 337 336 336 336 335 336 337 337 337 334 331 328 324 316 302 296 303 321 324 312 305 299 305 327 325 323 324 327 326 326 326 329 308 303 301 302 302 302
337 336 335 336 337 337 337 337 337 336 335 333 331 331 331 333 334 337 336 338 339 339 340 339 337 335 335 335 335 335 336 336 336 334 333 331 329 327 322 316 308 295 293 299 301 298 295 295 298 306 315 324 323 312 300 303 298 297 296 295 294 294 293
335 335 334 334 334 335 335 335 335 334 331 328 328 328 330 330 333 336 336 338 339 340 340 339 337 336 335 336 335 334 336 335 334 332 331 330 330 329 326 322 318 313 297 292 295 296 293 294 298 299 304 309 315 313 312 300 295 295 295 294 293 293 292

ECMWFFLT1_sfc_thetae_018.txt.gz
Theta_e
342 342 343 344 344 344 345 347 350 350 351 353 356 356 356 358 359 360 361 363 364 365 368 370 370 370 369 369 370 371 371 370 369 367 365 364 364 364 363 361 361 361 358 357 357 355 357 355 353 352 352 351 348 347 348 348 347 345 346 347 347 347 347
340 340 342 343 344 345 347 349 351 350 351 353 355 357 357 358 359 359 361 364 365 365 367 369 370 369 369 369 370 371 372 371 370 368 367 365 366 365 364 364 363 363 363 361 358 358 356 353 352 351 349 348 347 348 347 347 347 346 345 346 345 346 346
339 339 341 343 344 345 348 350 351 351 352 352 353 355 356 359 360 360 361 362 364 366 367 369 370 369 369 370 370 371 371 371 370 369 367 365 365 364 366 367 365 363 362 361 358 355 354 353 352 350 347 347 346 347 347 346 346 345 345 346 344 344 345
339 339 341 344 347 349 349 350 351 351 350 352 353 354 357 359 361 362 362 363 363 365 365 367 369 368 368 368 369 370 371 371 371 369 368 366 366 367 365 365 364 363 361 358 356 354 352 351 349 348 347 347 347 347 347 346 345 346 345 345 343 343 344
338 340 341 342 344 347 348 349 351 352 350 351 353 356 358 359 360 361 361 362 362 364 364 366 366 368 369 369 368 369 371 371 370 370 369 367 368 367 365 362 362 360 359 358 356 354 351 350 348 347 346 347 347 346 346 346 345 346 345 345 344 343 341
336 339 340 340 342 345 348 349 349 350 350 349 352 354 355 356 357 357 359 362 361 363 366 366 367 368 367 368 368 369 371 371 372 371 369 368 367 365 363 362 360 359 357 356 353 352 351 350 347 346 346 345 345 345 345 345 343 343 344 344 344 342 341
336 340 340 340 342 344 346 348 349 349 351 350 352 354 354 354 355 356 357 359 359 361 362 362 364 366 368 368 368 369 369 369 370 368 367 367 366 365 364 363 361 359 357 355 352 351 350 348 346 347 347 346 345 345 345 345 345 344 344 344 344 343 343
337 339 342 342 342 342 344 348 349 349 351 352 351 351 352 353 353 354 355 355 358 357 359 358 362 366 368 368 368 368 368 368 367 366 366 365 365 364 363 362 359 359 357 354 353 351 348 348 346 348 348 345 346 346 345 345 346 343 343 343 343 343 343
338 342 343 341 341 341 343 346 348 349 351 352 352 353 353 353 352 353 354 354 357 356 357 357 359 364 369 368 368 369 368 366 366 365 365 363 362 360 359 359 359 357 355 352 350 351 348 348 347 349 350 347 345 347 346 346 346 344 342 343 344 343 341
338 342 345 342 342 340 343 344 348 351 351 352 353 354 353 353 354 353 353 353 355 355 356 356 357 361 367 367 366 367 367 365 364 362 361 359 359 357 359 356 356 355 353 350 347 347 346 349 347 350 348 345 346 347 346 345 344 342 342 343 343 342 341
338 344 346 342 342 342 344 344 347 351 352 355 354 352 355 354 354 353 354 354 353 355 356 357 359 359 364 365 363 364 364 362 362 361 359 357 356 354 353 352 353 353 351 348 344 346 348 350 351 350 348 345 345 345 345 343 343 342 342 343 343 343 341
341 343 346 346 345 343 344 347 350 352 354 356 355 353 356 357 354 353 354 356 355 355 357 357 358 359 362 364 361 362 362 361 361 359 358 356 355 354 353 351 352 351 349 346 342 346 346 348 346 345 346 346 345 343 342 342 342 343 342 342 343 343 342
341 343 345 343 345 346 349 350 352 354 356 356 354 355 356 355 354 354 357 357 355 356 357 359 359 360 361 362 360 361 360 360 360 360 357 357 355 353 353 350 349 347 344 343 342 344 343 345 345 345 344 343 344 342 341 341 341 343 345 344 344 344 344
345 341 344 345 346 347 349 351 354 356 357 356 354 356 356 356 355 355 357 356 356 356 357 358 360 360 361 362 361 361 359 361 362 361 359 357 355 353 352 350 349 348 346 344 344 342 341 343 342 342 341 341 342 342 342 341 341 344 346 345 345 344 343
340 338 343 343 346 349 351 351 355 356 355 355 355 356 356 355 356 357 359 358 358 356 357 360 361 362 361 361 361 360 362 363 362 362 358 354 354 353 352 350 349 348 349 347 345 341 342 344 342 340 340 340 341 341 341 340 340 343 344 345 346 344 342
337 337 339 342 346 347 351 353 356 356 356 355 354 355 354 355 357 356 357 357 357 358 358 360 361 363 362 360 360 362 363 362 362 360 357 354 355 351 351 348 348 348 347 347 345 346 345 344 341 338 338 338 338 338 339 339 341 338 331 336 343 343 343
338 336 338 343 347 347 351 353 355 356 355 355 354 356 356 357 357 357 356 356 357 359 358 360 362 363 362 361 362 362 362 361 360 359 356 354 353 347 349 349 349 348 347 346 346 344 343 342 338 337 338 337 336 335 335 338 340 330 327 329 331 341 342
338 340 340 343 346 348 349 350 354 355 354 354 355 358 358 359 358 357 355 357 357 358 358 359 362 362 362 362 363 363 361 360 360 359 356 354 353 348 348 347 345 347 347 347 345 343 342 339 340 340 340 338 337 335 336 339 331 326 326 327 326 330 342
339 340 343 346 347 347 347 349 353 355 353 354 354 357 358 360 358 359 358 359 359 360 358 358 359 364 364 363 363 363 362 360 359 358 357 354 353 350 347 347 346 345 344 344 344 342 340 340 340 340 339 339 338 335 337 338 330 325 324 325 325 325 331
340 340 343 345 346 346 349 351 351 354 354 356 357 357 358 361 359 360 360 359 360 359 361 360 361 364 364 364 364 363 362 360 358 357 357 354 352 351 347 345 345 344 342 343 341 339 338 339 340 339 339 339 339 339 340 341 330 324 322 322 322 324 328
342 344 345 346 347 347 351 351 352 354 354 353 354 357 358 359 359 361 359 359 359 361 361 361 361 362 365 364 364 363 362 360 357 356 356 354 351 351 347 345 345 344 342 342 340 337 337 338 337 339 340 340 340 340 340 340 327 321 320 319 319 321 326
338 340 342 345 349 350 351 348 350 351 353 353 354 355 356 357 358 357 356 357 359 359 360 362 362 362 365 364 363 362 361 359 357 356 355 353 351 349 347 346 345 344 344 342 343 342 340 339 337 337 339 341 341 340 340 340 324 321 319 318 317 321 335
332 337 341 347 348 349 353 352 352 352 356 354 354 355 355 356 355 354 354 354 357 360 359 361 361 363 364 363 362 360 360 358 356 355 354 353 350 348 346 345 344 344 344 339 336 335 336 336 337 338 339 340 340 340 341 341 328 318 317 316 316 322 338
333 336 340 344 348 350 353 352 351 355 350 352 353 354 353 352 351 354 355 354 357 359 359 359 361 362 364 362 362 360 359 358 356 355 353 352 349 348 346 345 345 343 342 337 334 331 331 332 333 335 338 338 339 339 341 340 329 315 314 314 315 326 340
332 335 340 343 346 349 346 350 351 350 351 351 347 349 351 352 352 354 355 356 355 357 358 358 361 362 362 361 361 361 359 357 356 355 353 352 350 349 347 344 343 342 341 338 336 333 334 333 333 334 335 336 337 337 338 339 328 313 314 313 313 328 340
334 336 338 342 344 348 350 352 352 347 346 346 350 353 356 355 355 357 358 355 356 356 357 359 361 363 363 361 361 360 357 355 355 355 353 352 351 350 348 347 345 343 339 336 335 334 334 334 335 335 334 336 337 338 339 336 340 332 311 311 311 319 340
341 342 342 342 345 350 353 353 351 349 350 356 359 356 356 356 358 360 360 359 358 356 358 360 362 362 361 361 358 357 356 355 354 354 354 353 351 349 347 346 344 341 337 335 335 335 336 336 336 337 336 337 339 340 339 338 342 336 311 310 311 314 325
341 343 347 350 349 347 349 350 354 355 355 357 358 358 359 361 361 361 361 359 358 359 361 361 361 360 360 359 357 356 355 354 354 354 353 353 350 347 346 346 345 341 337 337 336 336 336 336 336 336 337 340 340 340 341 339 339 341 314 310 309 310 318
342 342 343 344 346 347 347 347 347 346 347 347 350 355 357 360 361 361 359 358 359 358 358 357 357 358 358 357 356 355 354 354 353 352 352 351 350 348 346 344 343 341 340 338 337 337 337 337 338 338 338 339 342 342 342 342 335 326 329 310 308 308 313
341 340 339 340 342 344 345 345 345 345 349 351 354 355 357 359 357 356 357 357 357 356 355 354 354 356 356 355 355 354 353 352 351 351 351 349 347 346 345 342 340 339 339 339 338 338 337 337 339 340 338 339 338 338 340 341 339 323 320 317 308 306 308
336 336 335 336 335 341 341 343 345 346 350 352 355 356 357 357 355 356 356 355 354 354 353 353 354 355 354 353 353 352 351 349 349 349 348 347 346 345 343 342 339 337 339 340 339 338 336 336 339 337 334 335 335 336 337 339 337 332 321 314 309 307 306
337 339 340 341 342 344 346 347 348 347 345 347 350 351 351 352 353 353 353 353 352 353 353 353 354 353 352 352 351 350 348 345 346 347 348 347 345 343 342 341 338 336 338 340 339 339 337 337 335 337 338 335 336 336 335 335 335 329 323 318 313 310 308
341 341 341 343 344 343 341 341 341 343 343 343 344 345 347 350 350 351 350 349 350 351 354 354 353 351 351 350 348 348 347 345 343 343 343 344 342 342 342 340 339 337 337 339 337 338 338 338 337 335 334 337 337 336 334 334 333 332 328 327 323 319 313
340 340 344 346 344 343 343 341 340 342 343 344 345 346 346 346 348 348 348 348 349 351 353 351 351 349 349 347 345 345 345 344 341 341 340 341 340 338 338 338 337 336 337 337 336 337 338 337 336 334 334 334 335 334 331 331 332 331 327 324 324 323 321
339 340 341 341 344 346 344 343 343 345 344 344 346 346 346 345 344 346 347 347 349 352 351 348 347 348 346 344 343 342 343 342 340 340 339 339 339 332 329 337 339 338 339 339 339 340 340 340 336 335 335 337 335 332 330 331 329 329 319 326 317 326 327
339 340 341 342 343 345 346 347 347 346 346 346 348 347 346 346 345 345 344 346 348 349 349 348 346 346 343 342 342 341 340 340 339 340 340 338 334 329 320 304 298 308 328 332 312 303 298 306 332 334 338 336 336 338 334 332 332 315 308 307 305 297 295
339 338 339 342 343 345 345 346 346 346 345 345 345 343 344 345 344 345 345 347 348 349 349 348 345 343 342 341 340 339 339 339 339 340 340 339 334 331 327 324 314 295 294 301 302 298 293 295 297 304 314 333 333 318 300 304 306 303 302 301 297 295 295
340 340 338 339 341 344 344 344 345 344 343 343 343 343 344 343 345 346 345 347 348 350 349 347 344 342 339 340 340 340 341 341 342 341 340 338 336 334 330 326 325 320 299 293 296 297 294 293 296 297 303 303 317 320 322 304 298 299 298 297 296 295 294

ECMWFFLT1_sfc_thetae_021.txt.gz
Theta_e
339 338 338 343 344 343 344 347 350 349 351 352 352 353 352 353 356 359 360 362 365 367 369 368 368 368 369 367 366 366 367 366 367 364 363 362 361 361 360 360 360 360 357 356 356 354 355 356 354 352 353 353 351 350 351 349 350 348 347 347 347 346 345
333 330 333 340 342 345 345 348 350 350 351 352 353 355 353 353 356 358 360 363 366 367 369 370 370 369 369 368 368 368 368 367 367 367 365 364 364 363 362 362 361 360 360 358 357 357 357 353 353 354 352 353 351 351 349 350 350 348 345 346 344 345 345
332 334 335 337 339 345 347 346 350 350 352 352 353 354 354 357 358 360 360 362 366 368 370 369 371 371 370 370 369 369 368 368 367 365 364 362 363 361 363 363 362 359 358 359 359 358 358 356 355 354 353 352 349 349 350 350 349 346 346 346 345 344 345
332 335 336 338 343 348 348 347 348 350 351 352 353 355 357 360 360 361 361 364 366 368 369 370 371 371 371 370 369 370 369 370 369 366 365 364 363 364 362 363 363 360 357 357 358 357 357 355 353 354 352 351 348 348 349 348 347 347 347 347 345 345 345
331 337 340 341 342 346 347 346 347 350 349 350 354 359 360 359 360 360 362 365 365 367 367 369 369 371 371 371 369 369 370 370 370 368 366 366 366 365 364 361 360 360 357 358 360 360 358 355 353 352 350 350 347 349 348 347 347 347 346 346 345 344 342
328 335 339 340 344 345 347 347 347 349 349 350 353 358 358 358 359 359 360 364 364 365 368 369 368 370 370 370 369 368 371 372 373 371 368 367 366 364 363 363 360 360 355 359 359 358 356 353 352 350 347 345 345 346 347 347 346 346 345 346 346 343 341
329 333 338 340 343 346 347 348 349 349 350 350 352 356 356 357 358 358 358 360 360 362 363 364 364 367 370 370 369 370 370 370 372 371 368 367 366 365 365 366 364 361 358 361 359 358 354 352 351 351 348 344 346 346 347 348 346 346 345 347 346 346 345
329 329 340 343 341 344 347 349 350 351 351 349 349 352 354 355 356 354 355 357 357 357 360 357 361 365 370 370 368 369 369 370 371 371 370 367 367 366 366 365 364 364 362 361 360 357 353 352 350 350 348 346 346 348 347 348 348 344 345 344 344 344 342
328 333 338 342 342 340 343 350 351 351 353 351 348 351 353 352 350 349 351 353 355 353 356 355 356 362 370 370 369 369 369 369 371 371 370 367 365 364 363 364 364 364 361 360 357 356 354 352 349 349 349 347 347 348 348 349 347 346 345 344 343 344 342
332 334 344 344 341 336 341 348 353 355 355 355 353 354 353 351 348 347 348 349 352 351 352 353 353 358 367 369 367 369 370 370 370 369 368 366 365 362 361 360 361 362 361 360 356 354 355 353 349 349 349 346 348 348 347 347 346 346 346 344 343 343 345
332 337 346 344 344 344 346 346 352 357 358 360 358 350 355 351 346 345 347 348 349 351 350 352 353 356 364 366 365 367 368 369 368 368 368 365 362 361 359 356 359 361 360 358 355 355 353 352 350 349 348 346 348 346 345 345 346 346 344 343 342 343 343
341 341 348 349 348 344 344 352 358 362 364 364 357 351 359 357 347 344 347 349 350 350 351 351 351 353 360 365 364 366 367 368 368 368 366 363 361 360 358 355 360 360 359 357 354 355 352 351 347 348 350 350 347 345 348 347 347 346 343 340 341 343 343
337 344 349 348 348 346 354 360 359 360 363 358 354 354 355 353 350 346 353 351 349 349 352 353 353 355 357 364 363 365 366 368 368 367 366 365 362 361 359 356 357 357 357 356 354 353 352 348 348 349 351 348 342 344 348 345 346 344 343 342 343 344 343
350 346 350 349 348 348 350 355 357 358 359 358 355 356 356 355 354 351 353 351 350 349 350 353 355 354 355 362 365 366 367 369 370 370 369 365 365 364 361 358 355 355 357 357 353 350 350 347 347 350 351 346 344 349 350 347 342 342 344 343 342 342 342
340 344 348 347 348 351 352 350 356 357 356 357 357 357 357 356 356 358 357 355 355 349 349 355 357 357 356 361 366 368 371 373 372 370 369 366 366 363 362 361 359 356 355 358 355 351 349 350 350 351 350 350 349 350 347 343 340 343 343 342 342 342 342
325 328 339 347 349 349 353 354 356 359 359 361 358 358 356 357 359 356 356 356 354 354 351 356 360 363 360 361 367 370 372 372 372 371 370 367 365 365 364 360 358 355 356 356 355 353 351 353 352 349 346 345 346 345 341 341 343 336 328 334 342 343 342
324 325 327 334 354 351 354 356 358 360 360 360 358 358 358 359 359 358 356 356 356 356 353 354 364 362 363 367 370 372 373 372 370 369 368 366 365 365 364 362 360 360 361 358 355 353 353 351 347 347 346 348 347 342 340 339 337 328 326 328 333 342 343
325 327 327 328 332 350 355 356 359 360 359 358 357 359 360 361 359 357 355 357 356 356 355 357 361 362 368 368 371 372 371 370 369 368 367 366 365 364 363 362 361 359 357 355 353 352 352 347 350 349 346 344 341 339 339 339 329 325 325 327 328 334 344
325 325 328 339 339 350 354 355 357 362 360 359 357 359 360 361 358 358 358 360 360 360 356 357 361 367 368 369 371 372 371 370 368 368 365 364 363 363 363 362 360 359 357 355 354 353 352 351 348 344 343 342 339 336 337 337 327 323 324 326 326 328 335
325 325 326 326 330 345 356 357 357 361 362 361 360 360 361 364 360 360 359 360 361 359 361 364 365 367 368 370 371 371 370 368 368 367 365 363 362 361 359 359 358 357 356 355 355 355 353 350 347 345 344 341 341 338 337 337 326 322 322 323 324 326 331
327 328 329 329 335 331 354 360 359 363 363 360 358 360 361 361 361 362 358 360 359 363 367 364 365 368 370 370 370 371 369 367 367 366 364 363 360 358 357 357 358 357 355 353 352 353 350 348 346 344 342 339 337 336 336 337 325 321 321 321 321 323 328
325 326 326 327 342 353 361 355 358 360 362 361 358 359 359 360 359 359 356 359 361 361 362 365 366 368 370 369 369 369 369 367 366 366 364 360 358 357 356 356 357 356 355 353 352 352 349 347 345 342 341 340 339 338 339 338 321 320 320 319 319 323 336
323 327 327 330 335 338 354 362 361 361 364 359 358 359 358 359 359 357 356 359 360 363 361 363 366 368 370 369 369 369 369 367 365 364 362 359 357 356 355 355 355 354 355 353 350 348 346 346 342 343 341 340 340 339 339 338 326 318 317 318 318 323 339
324 325 326 325 341 338 355 361 360 361 360 358 356 358 360 360 359 358 359 360 361 362 362 363 364 368 370 370 371 370 370 368 366 364 361 360 358 356 353 354 353 352 354 351 349 347 346 344 342 342 342 340 339 338 338 338 332 315 315 315 316 327 340
322 323 326 328 335 345 358 360 359 360 361 358 356 359 361 360 360 359 359 361 360 361 362 363 365 368 369 370 371 370 369 368 366 365 362 360 358 354 353 353 353 352 352 349 349 348 349 346 344 341 339 337 335 337 336 337 330 313 314 314 314 329 342
332 331 330 333 344 357 360 363 362 360 355 355 359 361 364 359 361 360 359 358 360 360 361 363 366 368 371 371 371 370 368 366 365 364 363 360 358 355 354 354 351 350 348 348 347 346 345 344 342 340 337 336 336 335 336 337 339 326 313 312 313 319 344
333 334 333 336 346 355 357 356 357 356 354 358 364 360 362 359 357 359 360 361 361 360 361 365 368 370 371 370 368 367 366 365 365 363 363 361 358 354 352 351 349 348 347 345 345 344 343 340 339 338 336 335 335 334 332 334 336 337 311 310 311 316 326
337 336 338 344 352 354 355 351 357 356 355 361 361 359 356 361 361 360 360 359 359 362 363 368 370 370 369 368 367 365 363 363 363 363 360 360 358 355 352 352 351 348 346 344 343 342 340 340 338 338 336 336 336 337 337 338 337 340 315 312 310 313 317
341 341 346 352 352 354 352 353 352 352 354 353 352 355 358 362 362 361 361 361 363 365 368 369 369 368 367 366 364 362 361 361 361 359 359 355 355 354 351 352 350 350 347 345 342 340 338 337 338 339 339 338 341 342 342 344 337 324 325 310 310 312 315
349 353 352 350 350 350 349 349 350 352 355 354 360 364 366 366 363 363 364 365 368 368 368 368 368 367 364 363 362 360 359 358 358 360 358 356 353 351 351 349 349 347 345 343 341 338 338 338 339 338 337 337 340 341 342 341 337 324 321 318 311 308 310
349 348 347 348 348 355 355 356 357 355 359 360 364 364 365 366 364 363 362 363 364 363 364 364 364 362 360 359 359 358 357 356 356 356 355 353 352 352 350 349 347 344 343 342 339 338 338 339 340 339 339 338 338 338 339 341 337 334 324 318 312 310 309
346 347 349 350 351 352 352 353 355 355 354 355 356 359 361 364 364 361 360 362 361 362 362 360 358 356 355 355 355 354 354 352 352 353 353 352 351 351 350 347 344 342 341 340 339 339 338 339 339 339 339 339 339 337 336 337 336 331 325 321 317 317 313
345 346 347 347 349 350 349 348 347 347 349 350 353 354 355 359 360 361 361 360 359 360 360 357 354 352 352 353 353 353 353 351 349 349 349 350 349 348 347 345 343 341 339 340 339 340 340 340 339 338 337 337 338 337 336 336 335 332 329 329 328 329 323
343 342 345 346 345 344 343 342 343 344 345 346 349 352 353 353 355 357 357 355 355 355 355 353 353 352 353 352 351 349 349 349 349 348 347 346 344 343 344 343 341 339 339 340 340 340 339 339 338 337 339 337 336 337 336 334 335 333 330 329 330 329 326
346 351 352 349 348 349 349 349 347 347 345 345 346 346 345 345 346 348 350 352 355 357 355 352 350 353 351 349 348 346 347 347 345 345 344 343 336 326 321 329 343 341 338 325 326 332 341 341 338 339 338 338 336 334 334 335 334 336 324 339 320 326 325
341 343 346 349 350 352 352 352 351 349 348 348 348 347 347 347 348 350 350 352 354 356 355 353 352 351 347 346 345 345 344 343 342 343 342 341 337 328 320 305 298 308 334 327 312 304 300 309 335 335 338 338 339 341 336 334 334 311 305 306 307 305 304
339 339 340 342 343 345 347 348 349 348 347 347 347 346 345 346 346 349 349 352 355 354 354 353 350 347 345 344 342 341 343 341 342 342 343 341 339 338 334 329 318 297 295 304 305 299 296 296 297 301 311 337 333 318 304 306 303 301 302 298 295 295 296
339 340 341 343 345 345 346 346 347 347 346 346 346 345 346 345 347 350 351 353 353 354 354 353 348 345 343 343 342 343 345 343 343 343 342 340 339 338 337 335 330 323 301 295 299 298 295 295 295 296 300 304 316 325 328 308 300 299 298 296 295 294 293

ECMWFFLT1_sfc_thetae_024.txt.gz
Theta_e
336 336 337 338 340 339 341 346 345 345 349 353 353 353 353 355 358 360 360 363 364 365 367 367 366 367 367 367 369 367 366 366 367 366 366 365 363 363 363 361 361 361 359 359 358 358 359 359 358 357 355 355 354 355 354 354 352 353 353 355 356 362 348
331 333 333 334 336 339 342 346 350 349 351 354 353 354 353 355 358 359 360 364 365 366 367 367 367 367 367 368 368 368 366 366 367 367 367 367 365 366 364 363 362 362 363 361 361 362 358 359 359 357 355 354 352 355 352 352 353 352 350 351 349 351 350
331 331 333 334 336 340 343 344 347 347 350 350 352 352 352 355 358 360 360 363 365 366 367 367 366 367 368 368 367 367 367 366 366 367 365 364 364 360 363 365 363 362 362 362 362 359 358 356 358 357 354 352 350 353 352 351 352 350 350 348 347 346 349
331 331 334 338 341 346 345 344 347 347 348 349 351 351 353 356 358 360 361 363 364 366 366 366 366 366 367 368 367 366 367 367 367 365 364 364 364 362 363 364 363 363 360 360 359 358 356 355 355 357 356 353 352 351 350 349 348 348 348 346 346 346 347
333 335 335 336 336 344 346 344 345 349 348 349 351 354 355 357 357 359 361 361 362 364 365 366 364 364 367 368 367 366 366 367 367 366 364 364 365 364 362 359 362 359 360 360 360 359 359 357 353 354 353 354 352 351 350 350 348 348 347 348 345 346 345
334 334 334 334 334 337 343 344 343 344 348 349 351 354 354 354 354 354 357 360 361 363 367 367 365 366 366 367 367 366 367 368 368 367 366 364 365 363 362 361 360 359 358 359 359 359 360 356 353 352 351 351 348 347 347 348 346 347 347 348 347 345 343
333 333 334 333 334 335 337 340 341 343 348 350 351 353 353 353 352 352 354 357 359 362 364 365 365 365 366 366 366 367 367 367 368 367 366 365 365 364 363 362 361 360 358 360 358 358 358 355 354 352 351 349 348 346 346 347 346 346 347 346 346 347 345
330 331 335 335 333 335 336 339 342 344 346 350 350 351 352 353 352 352 352 355 359 361 363 363 364 365 365 366 367 366 367 366 367 367 366 364 364 363 363 362 362 362 360 358 359 359 356 355 354 353 351 349 347 347 347 348 348 346 346 345 345 345 344
335 333 336 334 335 333 333 339 344 346 345 346 349 351 352 353 352 351 352 356 358 360 362 363 364 364 367 367 367 366 367 367 368 367 366 363 362 359 360 362 363 363 360 358 358 359 357 355 353 353 352 348 347 347 348 348 347 347 346 345 345 343 343
334 332 335 335 335 334 340 343 346 346 344 343 345 350 353 353 353 352 354 355 356 358 361 362 362 363 367 367 366 366 367 367 368 365 363 361 360 358 359 359 361 362 361 358 357 358 358 357 354 353 351 347 346 347 348 348 347 346 346 345 345 344 343
339 337 338 337 339 339 340 342 343 346 347 347 347 350 355 356 355 354 354 354 356 358 361 360 360 361 364 364 363 363 366 365 366 366 364 363 361 360 359 360 361 361 359 358 355 358 358 356 354 353 350 346 346 346 347 347 347 347 345 346 345 344 343
337 342 340 341 342 340 340 341 346 348 350 354 354 353 356 357 356 355 355 353 355 355 356 357 355 358 362 364 363 364 364 363 364 365 364 363 360 360 359 360 361 361 360 359 357 359 357 355 352 351 350 347 347 346 347 347 347 347 345 344 344 344 343
344 344 342 343 343 341 347 350 349 352 357 359 354 353 355 356 355 354 355 354 355 354 353 355 354 355 359 363 363 364 363 363 364 365 365 364 363 361 360 359 359 360 360 359 358 358 356 354 352 350 350 348 347 347 347 348 347 347 346 346 345 344 343
348 343 350 352 350 354 353 358 351 353 357 359 355 353 354 355 354 355 355 352 351 351 351 352 353 353 357 362 363 364 364 366 365 364 366 366 366 363 361 360 358 359 362 360 359 357 355 354 352 350 349 347 347 348 348 347 347 347 347 347 346 344 343
338 338 347 348 351 355 354 361 365 357 357 359 357 353 352 352 353 355 354 351 349 348 350 352 353 353 355 361 363 364 364 366 366 365 366 366 367 364 362 361 360 359 362 362 360 357 355 355 353 349 349 348 347 349 347 345 345 346 346 346 344 343 342
327 334 345 346 352 354 360 362 367 367 364 364 359 356 352 352 354 353 351 348 348 348 349 352 352 353 354 360 364 366 366 368 367 366 367 366 366 365 363 361 360 359 361 361 360 359 357 356 353 350 348 348 348 348 346 345 346 340 333 338 343 341 341
325 325 329 342 352 351 356 357 364 366 366 364 361 359 354 354 355 356 350 347 345 348 350 354 354 354 354 360 365 367 368 369 369 368 367 367 366 365 364 362 361 360 361 361 360 358 357 357 352 349 349 350 347 343 344 346 345 330 328 331 334 340 341
325 330 332 336 350 350 353 355 358 361 362 361 362 362 358 358 358 356 350 347 345 345 348 354 355 354 355 361 367 369 369 369 370 370 369 369 367 366 365 364 363 362 361 360 360 359 358 356 352 350 351 350 345 340 343 346 334 325 326 328 329 335 342
326 327 331 343 351 350 350 350 355 359 358 357 358 360 360 361 359 358 355 352 349 349 347 351 355 358 358 364 368 370 370 371 372 371 371 370 368 367 366 366 365 364 363 362 362 361 358 356 353 351 352 350 347 343 346 347 328 324 324 326 326 329 337
327 326 327 336 350 352 351 353 353 358 358 359 359 357 358 360 359 360 359 358 358 353 351 351 360 361 360 366 369 371 372 373 372 371 371 371 370 368 367 366 364 363 363 361 360 359 356 354 353 353 352 350 348 347 345 342 325 323 321 323 323 326 330
335 331 329 332 349 350 355 356 359 362 362 358 357 359 359 360 360 361 360 360 359 360 358 357 364 362 363 367 371 373 373 373 372 371 371 370 369 367 366 365 364 363 360 358 356 355 354 352 351 351 351 348 348 347 343 340 321 320 319 320 320 323 327
326 327 331 332 333 344 359 358 359 359 362 360 362 358 357 357 357 356 355 357 358 359 361 365 368 365 366 369 372 373 373 371 370 370 369 367 367 365 364 364 364 361 361 359 357 356 355 354 351 350 349 348 346 343 340 336 319 319 318 318 319 323 333
324 326 327 332 333 346 363 363 363 361 367 364 358 357 355 357 357 357 357 355 356 360 361 367 368 366 368 371 373 372 371 371 369 367 366 365 363 362 361 361 361 361 361 357 355 354 354 353 351 351 347 346 345 342 339 335 321 317 316 317 318 321 333
323 324 325 328 331 344 366 364 365 366 365 363 360 358 359 359 359 360 359 356 358 359 360 369 367 368 370 372 373 371 371 371 369 367 365 363 361 359 359 358 359 359 360 355 351 349 351 351 351 350 348 345 342 340 338 336 325 315 314 315 316 323 332
322 321 323 326 327 328 362 362 361 364 366 364 359 359 361 361 360 359 358 358 356 357 359 367 368 370 371 371 372 372 370 369 369 367 364 362 360 358 356 355 356 356 357 354 353 351 352 351 349 348 347 343 341 336 337 338 331 313 314 314 314 323 334
325 324 324 326 326 327 346 363 362 366 363 361 361 360 363 362 361 359 358 359 357 357 360 365 370 372 372 371 372 371 369 368 367 366 364 362 360 359 358 356 354 354 352 352 352 351 350 350 348 346 344 343 342 342 339 338 342 323 313 312 312 318 335
331 329 331 325 324 333 350 362 362 363 360 362 363 360 361 360 360 358 359 360 359 358 360 367 373 373 372 372 370 369 368 368 367 366 365 362 360 357 356 354 353 352 352 349 349 351 353 349 347 344 344 341 342 341 339 339 342 326 311 310 311 314 323
337 339 334 350 364 353 361 358 362 361 359 366 364 361 362 362 361 360 362 362 362 363 365 371 373 373 373 371 369 367 366 365 366 366 364 363 361 358 356 355 353 352 350 348 350 350 347 346 345 343 342 344 347 344 345 342 338 331 313 312 310 312 316
347 346 352 358 361 357 356 358 360 356 357 360 359 359 363 364 363 362 362 363 366 367 370 372 373 372 371 369 366 365 364 365 364 363 363 362 360 357 354 353 351 351 351 350 346 345 343 343 342 341 342 343 346 343 343 343 341 325 323 312 310 310 312
356 353 348 350 353 354 353 358 357 353 355 355 360 363 364 367 361 362 363 365 369 370 371 372 371 370 367 364 365 364 362 363 363 363 362 360 359 356 353 351 352 352 350 345 344 342 342 342 342 340 337 337 341 340 341 346 343 325 320 318 310 309 310
340 344 344 350 350 358 355 355 356 353 359 366 367 369 368 366 363 363 365 368 370 370 370 369 367 365 362 362 362 362 362 362 361 361 359 358 357 353 351 351 350 347 346 343 342 342 340 340 339 338 338 339 339 341 343 340 335 329 321 317 313 313 312
340 342 338 340 350 354 354 352 356 360 360 367 369 370 369 369 368 364 366 369 368 369 368 366 363 361 360 360 360 359 358 358 357 358 356 355 355 352 351 349 346 344 343 343 341 341 340 340 338 338 338 339 339 341 339 337 334 329 325 320 318 318 314
347 346 346 346 356 357 354 349 351 354 359 361 365 365 365 365 365 365 367 367 366 365 365 362 361 358 358 357 356 357 357 355 353 353 352 353 352 350 350 347 345 343 342 342 340 340 339 339 339 339 338 339 341 340 338 336 332 329 328 328 327 327 321
350 348 351 358 358 356 358 357 357 358 360 361 363 363 361 361 361 362 362 363 363 362 361 358 357 356 355 354 353 352 353 352 352 350 348 348 347 347 347 345 344 342 342 341 341 339 339 339 339 339 339 338 339 338 337 335 332 329 328 330 330 330 328
351 351 350 348 349 348 347 351 352 352 352 354 357 356 356 355 354 355 358 359 359 359 356 353 351 353 352 351 350 349 350 349 348 346 337 329 321 313 310 318 342 341 329 322 322 328 341 341 342 341 339 339 339 337 335 335 332 332 322 332 321 329 330
346 346 348 351 350 348 346 347 347 346 345 347 350 351 351 352 353 354 354 356 356 356 354 353 351 349 348 348 347 346 345 345 344 342 336 329 324 321 317 309 299 310 331 324 313 304 299 311 338 339 340 339 341 341 337 335 337 317 311 308 308 310 313
342 342 345 347 345 346 346 347 348 348 348 348 348 347 346 348 349 352 353 355 355 354 355 354 350 347 346 345 344 343 344 343 343 342 339 333 331 328 325 321 315 299 296 304 306 301 297 296 296 308 326 338 331 317 307 309 304 303 302 301 300 300 301
339 340 342 344 344 346 346 346 348 348 349 350 350 351 351 348 351 355 354 355 355 356 356 354 350 347 345 344 344 344 344 343 344 343 339 335 334 332 328 324 321 318 302 296 299 299 296 295 295 298 309 315 319 320 317 305 300 300 300 300 299 298 297

ECMWFFLT1_sfc_thetae_027.txt.gz
Theta_e
330 330 330 332 332 334 336 337 339 340 340 343 345 346 347 348 349 351 353 355 355 354 356 357 358 359 359 358 359 359 360 359 359 357 355 354 355 353 350 353 352 351 351 351 349 352 350 352 351 350 350 349 349 346 343 341 338 341 342 342 343 341 338
329 329 329 331 333 334 337 338 339 341 341 343 345 346 348 348 349 350 353 355 356 356 356 357 358 358 359 360 360 360 359 359 359 358 357 356 355 354 353 354 354 352 351 352 351 352 351 351 351 350 349 349 346 344 343 342 340 340 340 340 342 340 339
328 329 330 330 333 334 337 339 339 341 343 343 346 347 348 349 350 351 353 355 356 357 358 358 358 359 359 360 360 360 360 359 358 358 357 356 355 355 355 354 355 354 353 353 353 352 352 350 351 350 349 347 345 343 342 342 341 342 340 340 340 340 337
328 329 331 332 333 335 336 339 341 341 344 345 346 347 348 349 351 353 355 355 356 357 357 358 358 359 359 359 360 360 359 359 358 358 358 358 355 356 355 354 355 355 354 353 354 353 352 352 350 348 352 345 345 343 341 341 343 342 341 339 338 340 338
328 330 331 332 332 333 335 336 341 341 342 346 347 348 349 350 352 353 355 357 357 357 358 359 360 360 360 360 361 361 359 358 359 359 359 359 357 356 355 354 354 355 355 354 354 354 350 349 350 348 347 344 344 344 342 341 342 342 341 339 338 339 338
328 329 329 331 331 332 335 337 339 342 342 344 346 347 349 350 352 353 355 357 357 358 359 360 359 360 359 360 361 361 360 359 359 359 359 359 357 355 355 355 354 354 355 354 354 353 350 348 350 349 346 344 344 344 342 341 342 341 341 338 337 338 338
328 328 329 330 331 331 333 336 339 341 343 344 347 349 349 350 351 353 355 356 357 357 358 359 360 359 359 360 360 360 359 358 358 359 359 359 359 355 355 356 355 355 354 355 354 352 350 347 348 348 347 344 344 343 342 341 341 341 340 338 337 337 338
327 328 328 330 330 331 333 336 338 341 343 344 347 348 348 349 350 352 353 355 358 358 359 359 360 360 359 360 360 359 360 359 359 359 359 358 358 356 355 355 355 355 354 353 354 352 351 348 347 348 347 345 344 343 342 342 341 341 339 340 336 337 340
327 328 329 330 331 332 335 337 338 339 341 342 344 348 348 348 349 350 352 354 357 358 358 360 361 361 360 360 360 359 360 360 359 359 358 357 357 357 356 355 355 356 354 353 353 353 352 350 348 347 346 345 344 343 342 342 341 341 339 339 338 337 338
326 327 328 330 332 332 336 338 338 338 340 341 342 346 347 348 349 350 352 353 355 357 358 360 361 361 360 359 360 360 359 359 359 359 358 357 357 357 356 356 355 356 354 354 353 352 352 351 348 346 345 344 343 342 341 341 341 340 339 338 338 338 337
327 328 328 329 330 330 333 337 337 337 340 342 344 346 347 348 348 349 350 352 353 355 358 359 361 361 360 359 359 359 359 358 359 358 358 357 357 356 357 356 356 356 354 354 353 353 352 351 349 347 345 344 343 341 341 341 341 340 339 339 339 338 338
328 328 328 328 328 328 330 335 336 337 340 343 344 346 347 347 348 349 349 350 352 353 356 358 360 361 360 359 358 358 358 358 358 358 358 358 357 356 356 356 356 355 355 354 352 352 352 351 349 347 345 344 343 342 341 341 341 340 340 339 339 338 338
328 328 328 327 328 329 332 334 335 338 340 343 344 345 347 348 348 349 348 348 351 353 355 357 359 360 360 359 358 357 357 358 358 358 358 358 357 357 356 355 356 356 355 355 353 352 351 351 349 348 347 345 343 342 341 341 341 340 340 340 339 338 338
334 328 328 329 329 329 331 334 336 338 339 341 343 344 347 349 349 349 348 348 349 352 355 358 359 359 359 359 357 356 357 358 358 359 359 359 358 356 356 355 354 355 355 355 353 351 352 351 350 348 347 346 343 342 342 342 341 340 340 340 340 339 338
327 328 328 328 328 328 332 333 335 337 339 339 340 341 344 348 349 349 349 349 349 352 355 357 358 358 358 358 356 356 357 357 358 359 360 359 358 356 355 355 354 355 355 354 353 352 352 352 351 348 346 346 344 342 341 341 342 341 340 340 340 340 339
327 328 328 328 329 331 333 335 337 337 339 340 339 339 341 346 349 349 349 349 350 351 354 356 357 356 357 357 356 356 357 357 357 358 359 359 358 357 356 355 354 355 355 354 353 352 352 352 351 349 347 345 343 342 341 341 342 337 330 334 340 340 340
329 336 340 337 334 334 335 336 338 339 340 341 342 341 341 345 349 350 351 351 351 351 353 355 355 354 355 356 357 357 357 357 357 357 358 359 359 358 357 355 355 354 355 355 354 352 352 352 350 348 347 345 343 342 342 342 341 330 328 330 334 339 339
329 333 338 338 339 340 343 343 339 341 342 343 345 345 344 346 348 350 351 352 351 351 352 352 353 352 352 356 358 358 358 357 357 356 357 359 359 359 357 356 354 353 353 355 354 353 352 351 350 348 347 345 344 342 342 342 332 326 327 329 330 334 339
327 330 334 336 337 339 344 349 346 344 345 347 348 347 347 348 349 350 351 351 352 351 350 349 350 350 350 353 357 358 359 358 357 357 356 357 358 359 358 356 354 353 353 354 354 353 352 350 349 347 346 345 343 342 342 342 331 325 326 328 328 330 335
320 325 332 338 339 340 341 346 352 352 348 349 351 350 349 349 349 350 352 351 350 349 348 346 347 348 348 350 355 358 358 358 358 357 357 357 358 358 358 356 354 354 354 355 354 353 352 350 348 347 345 345 344 342 342 342 329 324 323 325 326 327 331
324 326 326 333 337 339 341 342 346 352 352 352 352 352 350 349 349 350 350 350 347 346 345 344 345 346 347 348 353 357 358 358 358 358 358 358 358 358 357 356 355 354 354 354 354 353 351 350 347 346 345 345 345 343 342 342 325 321 321 322 322 324 329
319 323 323 330 339 341 341 341 344 350 352 355 354 353 352 349 350 349 349 349 347 344 343 343 345 346 346 347 352 356 358 358 358 359 359 359 358 358 357 356 355 355 355 353 353 353 352 350 348 346 345 346 345 343 340 341 321 320 320 320 321 324 332
316 317 318 324 341 343 344 344 346 350 352 353 354 353 353 352 351 351 350 348 347 345 342 342 345 346 346 347 352 356 358 359 360 360 360 360 359 358 357 356 356 355 354 352 350 350 349 348 347 347 346 345 345 343 342 338 321 318 317 318 319 322 333
315 316 318 321 337 344 345 345 346 348 351 352 352 353 353 353 352 351 350 349 348 348 345 342 345 348 348 348 353 357 360 361 362 362 362 361 360 359 358 358 357 355 353 352 349 348 348 347 346 346 346 345 344 343 341 333 322 315 315 316 316 323 332
315 313 315 315 318 336 346 347 347 348 350 351 351 352 353 353 352 352 350 350 349 349 349 346 348 351 349 350 355 360 362 363 363 363 362 361 360 359 358 357 356 355 354 352 351 349 349 347 346 345 344 343 342 339 337 332 322 313 315 315 314 323 332
324 319 316 317 318 318 342 350 350 350 352 351 350 352 352 352 352 350 350 350 350 349 349 351 354 354 353 355 361 364 364 364 363 363 362 360 359 359 358 357 356 355 352 350 349 348 348 347 345 343 342 341 340 339 337 334 329 321 312 312 312 317 331
337 332 341 344 338 337 323 349 351 351 353 353 353 353 353 352 351 349 349 350 349 348 350 355 359 358 359 363 365 365 365 364 363 362 361 360 358 357 355 354 353 352 350 349 347 345 344 345 344 343 340 339 338 337 336 337 333 323 310 309 310 314 321
342 345 349 351 350 348 341 327 352 353 354 355 354 353 353 352 350 349 349 349 348 349 352 359 361 363 364 364 364 364 364 363 362 361 359 357 355 353 351 350 350 349 349 345 344 343 342 341 340 339 337 338 338 336 335 338 333 325 312 311 310 311 316
335 338 341 344 346 347 352 348 340 351 355 356 355 354 353 352 350 350 350 349 349 352 358 363 364 365 365 364 363 362 363 362 359 358 357 354 353 351 348 348 347 346 345 343 341 339 337 336 336 335 335 335 335 334 335 336 333 320 319 311 309 307 311
335 336 340 343 347 348 348 345 342 342 341 344 350 354 354 353 350 350 350 350 352 357 363 364 365 365 363 361 361 361 361 360 358 357 355 353 351 349 347 346 345 344 342 340 338 336 334 334 334 333 333 333 334 334 333 334 331 320 317 316 310 307 309
335 335 337 339 344 347 344 342 342 343 344 344 344 344 353 355 352 350 349 352 357 361 364 364 364 363 361 361 360 359 359 359 357 355 353 352 350 346 345 344 343 339 338 338 336 335 333 332 333 332 332 332 333 332 333 331 328 325 320 315 311 309 309
343 341 339 339 344 348 345 342 351 346 340 341 344 346 347 354 354 350 351 358 360 364 365 364 362 360 359 359 358 358 358 356 355 353 352 350 348 346 345 343 340 338 337 336 335 334 333 332 332 332 332 333 333 334 331 328 326 323 321 319 313 312 311
342 344 344 342 343 347 350 347 351 354 357 356 360 359 358 358 356 356 360 361 364 365 364 362 359 356 356 356 356 356 355 353 351 350 348 347 346 345 343 341 339 337 336 335 334 333 332 332 332 332 332 332 334 333 331 328 325 323 320 320 317 318 317
341 339 338 338 338 340 340 340 339 338 338 337 335 337 342 351 357 363 364 364 365 363 360 356 355 355 355 354 353 352 351 350 353 347 344 343 343 342 340 339 338 337 335 335 335 333 333 333 333 333 333 333 335 333 330 328 326 324 323 322 322 321 320
341 337 336 334 335 336 336 335 335 335 335 335 337 338 338 339 340 342 348 354 357 358 356 353 350 353 353 353 350 348 345 341 333 330 326 319 313 309 313 331 336 328 321 316 318 333 337 336 335 336 337 337 335 332 330 329 327 327 319 325 317 321 323
339 339 338 338 337 335 335 335 335 335 334 334 335 335 337 338 341 345 346 344 344 343 342 342 346 347 349 349 347 343 337 333 330 327 324 322 320 318 314 306 300 310 324 319 310 304 303 320 337 339 338 338 336 334 334 331 332 316 310 308 308 309 311
335 336 339 339 336 334 333 333 335 334 333 333 334 334 334 334 339 342 343 343 344 343 341 341 341 344 344 344 343 338 334 331 329 328 326 324 323 321 319 316 311 298 297 304 304 300 296 296 305 315 324 334 329 314 307 317 310 306 305 304 305 306 306
334 335 337 341 340 337 334 334 337 337 337 339 340 340 340 337 337 339 342 340 341 343 342 343 342 342 342 341 339 336 334 332 330 328 327 325 324 322 321 320 317 315 302 296 298 298 296 296 298 306 312 315 317 316 315 307 304 304 303 303 302 304 303

ECMWFFLT1_sfc_thetae_030.txt.gz
Theta_e
327 327 328 329 330 331 333 335 335 335 337 339 340 341 342 343 345 348 349 349 349 349 351 352 351 351 351 352 352 353 352 352 351 351 351 352 351 351 350 350 349 350 350 349 349 349 349 350 349 349 348 347 344 344 343 342 338 340 338 339 339 339 338
325 327 328 329 330 330 332 334 335 336 336 339 340 341 342 343 344 346 349 350 350 350 351 352 353 351 351 351 353 353 352 352 353 353 352 352 353 352 352 351 350 349 350 350 350 350 349 350 349 349 347 347 345 344 343 340 336 338 338 338 338 337 337
325 326 328 329 330 331 331 333 335 336 336 338 340 341 341 342 344 346 348 350 350 350 351 352 354 353 352 352 351 353 354 353 353 353 352 352 352 352 352 351 351 350 350 350 349 350 350 349 349 349 348 346 346 345 343 339 336 337 338 337 338 337 336
325 325 327 329 330 332 332 333 334 335 336 338 340 341 341 342 344 346 348 350 350 350 350 351 353 354 354 352 351 352 353 354 354 354 354 353 352 353 352 351 351 350 349 349 349 351 350 349 349 348 352 346 346 345 343 339 336 335 337 337 337 337 336
326 327 327 328 330 331 332 333 334 335 336 338 341 342 342 343 345 346 347 350 351 350 351 352 353 354 355 355 353 353 353 354 355 355 355 355 354 353 352 350 351 350 350 350 350 351 350 348 348 348 348 347 345 343 342 339 336 336 336 336 336 336 335
326 326 327 327 329 331 332 334 335 336 336 337 340 341 342 343 345 345 347 349 351 352 352 352 353 354 354 355 355 355 355 355 356 356 356 355 354 353 352 350 351 350 350 350 351 350 350 348 348 348 347 346 345 342 341 338 336 337 336 335 335 336 335
326 327 327 328 329 330 332 334 335 336 337 338 340 342 343 344 344 346 347 349 351 351 351 352 353 354 354 356 356 356 355 355 355 356 356 356 355 353 352 351 351 351 351 351 351 350 349 348 348 348 347 345 345 341 339 338 337 337 337 335 334 335 335
326 326 328 328 329 330 332 333 335 336 338 339 339 342 343 344 345 346 347 349 351 352 352 352 353 354 354 355 356 356 356 356 356 356 356 356 355 353 352 352 351 352 352 350 350 351 349 348 348 348 347 345 343 342 339 338 337 338 337 335 334 333 336
326 327 328 329 329 330 332 333 335 336 337 338 339 342 343 344 345 346 347 349 351 352 352 354 354 355 355 355 356 356 357 357 356 356 356 355 355 354 353 352 352 352 352 351 351 351 350 348 348 347 347 345 343 342 340 338 338 338 337 336 335 334 334
325 326 327 329 330 331 331 333 335 336 337 338 340 341 343 344 346 347 348 349 351 351 353 354 355 356 356 355 356 356 357 357 357 356 356 355 355 355 354 353 353 353 352 352 352 350 351 349 348 347 346 344 342 341 341 339 338 338 338 337 336 334 334
325 327 327 328 329 330 330 331 333 336 337 338 340 342 343 344 345 346 348 350 351 352 354 355 356 356 356 356 356 356 356 356 356 356 355 355 355 355 355 354 353 353 352 352 352 351 350 349 347 347 346 344 342 341 340 340 339 338 338 338 337 336 335
325 326 327 328 329 329 329 330 333 335 337 338 340 342 343 344 345 346 348 350 352 353 354 355 357 357 356 356 356 355 356 356 356 355 355 355 355 355 355 355 354 353 353 352 352 352 351 349 347 346 346 345 343 342 341 341 340 339 338 338 337 337 336
325 326 326 327 328 329 329 329 331 333 336 338 340 342 344 344 345 346 347 349 352 354 355 355 356 357 356 356 356 355 355 356 356 356 355 355 355 355 355 355 354 354 353 353 352 351 350 349 348 346 345 345 344 343 342 341 340 340 339 338 337 337 336
329 325 326 326 327 327 327 329 331 333 335 337 339 342 344 345 346 346 347 348 350 353 355 356 356 356 356 356 355 355 355 356 356 356 356 356 356 355 355 355 354 353 353 353 352 351 350 349 348 347 345 344 344 343 343 341 340 340 339 339 337 337 336
321 322 323 324 325 326 327 329 331 332 335 337 338 340 343 344 345 346 347 348 350 352 354 356 356 356 356 355 355 355 356 356 356 357 356 356 355 355 354 354 354 354 353 353 352 352 351 351 349 348 346 344 343 343 342 341 340 340 339 338 337 337 336
321 322 323 323 324 325 327 329 332 333 334 336 337 339 341 344 344 345 346 347 349 351 353 355 355 355 355 355 355 356 356 356 356 356 356 356 355 355 354 354 354 353 353 352 352 352 351 350 350 348 347 345 343 342 342 341 341 336 328 332 339 337 337
322 323 323 324 325 325 327 329 332 333 334 335 337 339 341 343 345 346 346 347 348 350 352 354 354 355 355 355 356 356 356 356 356 356 355 355 355 355 354 354 353 353 352 352 352 351 351 350 349 348 348 346 344 343 342 342 341 329 326 328 331 337 337
322 322 323 324 325 325 326 328 332 333 334 336 338 339 341 343 344 345 346 346 347 349 351 352 353 354 354 355 356 356 355 355 355 355 355 355 355 355 354 354 353 352 351 351 351 351 351 349 349 349 348 347 345 344 343 342 332 326 325 327 328 332 339
323 323 324 325 325 326 327 329 332 334 335 337 338 340 342 344 345 345 346 346 347 349 350 351 352 353 354 355 355 355 355 355 355 354 354 354 355 355 354 353 352 351 350 350 351 351 350 349 349 348 348 347 345 344 344 343 331 325 324 326 326 328 335
328 327 326 326 327 327 329 331 333 335 336 337 339 341 343 345 346 347 348 348 348 347 348 350 351 352 353 354 355 355 355 355 354 354 354 354 355 355 354 353 352 352 351 351 351 350 350 349 348 348 348 347 346 345 345 344 330 324 322 323 324 326 331
322 326 329 328 328 329 329 331 333 335 336 337 339 340 342 343 346 347 348 348 347 347 348 349 350 351 353 353 354 355 355 354 354 353 353 354 354 354 354 353 353 352 351 351 351 350 350 349 348 348 348 347 347 345 345 345 328 321 320 320 321 324 328
324 324 325 327 329 330 332 333 333 334 336 339 340 341 341 341 344 346 347 348 348 347 347 348 349 351 352 352 354 355 355 354 354 353 353 353 353 353 353 353 353 352 352 351 351 352 352 351 350 348 348 347 346 345 344 345 322 319 319 319 320 323 333
318 320 320 325 332 333 334 336 337 338 338 339 340 341 341 342 342 344 347 348 348 347 347 347 348 349 351 352 353 354 355 355 354 353 353 353 352 352 353 353 353 353 353 351 351 351 351 351 350 349 348 347 346 345 344 341 321 318 316 317 319 322 335
313 312 317 323 329 333 335 336 339 341 341 340 341 342 344 343 343 343 344 346 348 347 347 346 346 348 350 351 352 354 355 355 355 353 353 352 352 352 353 354 355 354 353 351 351 351 351 352 351 349 348 346 345 345 343 339 320 315 315 316 317 324 335
320 316 311 320 328 331 334 337 339 342 347 346 343 345 346 345 344 343 343 345 346 347 346 346 346 347 348 349 351 353 355 356 355 355 353 353 352 353 353 354 354 355 354 353 352 351 352 351 349 348 347 346 346 340 341 334 320 313 315 316 316 325 336
331 333 338 315 328 335 335 338 339 339 342 345 345 346 347 347 345 344 344 344 346 346 345 346 347 348 348 349 350 351 353 355 355 355 354 354 353 353 354 354 355 354 353 353 352 351 350 348 348 346 344 343 343 342 339 333 327 320 313 314 314 319 335
338 341 343 344 341 334 335 338 339 339 340 343 346 348 349 348 346 344 343 344 345 344 346 347 348 348 347 347 348 349 351 354 355 355 355 355 355 355 354 354 354 354 353 352 350 348 346 345 345 343 340 340 340 339 336 335 330 324 312 312 313 315 323
333 336 341 346 344 331 324 334 340 340 340 341 343 346 348 349 347 345 344 344 343 345 347 347 347 347 346 346 346 347 350 353 355 356 356 356 356 355 354 355 355 354 353 351 347 345 343 341 340 339 337 337 337 336 334 335 329 328 314 312 311 311 317
331 330 333 339 341 341 329 331 337 341 341 344 347 347 347 346 346 346 345 344 345 347 347 347 347 345 345 345 345 346 349 352 353 355 357 357 357 356 354 354 353 352 349 346 345 343 341 340 339 337 335 334 333 333 334 333 330 321 322 311 309 308 312
340 339 335 338 342 340 341 337 338 341 341 344 345 346 347 347 345 344 343 344 348 348 348 347 347 346 344 344 345 347 349 352 354 356 358 357 356 355 353 352 351 348 346 344 343 341 339 337 336 334 333 332 331 331 332 332 328 319 317 315 309 308 309
336 336 337 338 340 343 341 338 337 336 339 342 342 343 343 344 344 343 342 345 347 347 348 348 349 350 347 347 349 351 354 356 357 357 357 356 355 352 350 348 346 343 341 341 339 338 336 334 334 333 331 330 330 329 329 329 326 323 319 316 311 309 308
334 334 334 335 335 338 343 346 341 339 336 335 336 338 339 341 342 340 340 347 351 355 356 355 352 352 352 352 354 355 357 356 356 355 355 354 353 351 350 347 344 341 339 338 337 336 334 332 332 331 331 329 329 329 328 325 323 321 319 318 313 311 308
332 332 332 331 334 336 336 336 335 334 335 334 335 338 341 341 341 341 342 346 350 353 357 357 356 353 354 355 356 357 356 355 352 351 350 350 349 348 346 344 342 339 337 336 334 333 332 331 331 331 330 330 329 328 327 325 323 320 318 316 314 314 316
331 330 331 331 333 334 333 333 332 333 334 334 335 337 338 340 340 341 342 345 352 355 353 353 354 355 356 356 356 355 354 352 353 349 346 345 345 343 341 340 340 337 335 335 334 333 332 331 331 330 330 330 330 328 327 325 323 321 319 317 316 317 320
333 332 331 331 332 333 332 332 331 331 332 332 334 336 336 337 338 340 340 341 342 346 350 350 350 352 354 353 352 351 350 349 347 345 342 334 322 320 330 337 337 333 327 323 331 335 333 332 331 332 333 333 331 329 327 326 325 325 317 320 314 318 322
332 334 333 333 334 333 333 333 332 331 331 330 331 332 334 335 335 337 339 339 340 340 339 338 339 341 342 344 346 345 345 342 338 333 330 327 321 317 311 306 303 316 330 323 314 318 322 321 332 334 335 334 333 332 330 329 330 314 308 305 305 307 311
332 333 335 332 331 332 333 334 334 332 332 331 331 331 332 333 336 335 337 337 338 339 337 338 337 336 336 336 334 332 334 334 332 332 330 328 326 322 319 316 309 296 297 303 306 305 306 310 313 318 324 333 330 317 314 315 307 304 303 302 302 304 304
333 334 336 337 335 333 332 333 333 331 331 331 332 330 329 331 335 336 338 337 336 336 335 336 334 332 332 332 331 330 329 330 329 328 327 326 325 324 323 321 318 313 300 296 300 299 297 300 307 308 312 316 320 319 318 306 302 301 301 302 302 303 302

ECMWFFLT1_sfc_thetae_033.txt.gz
Theta_e
324 325 326 328 329 330 331 332 332 333 334 335 336 337 338 340 342 343 343 343 344 344 345 348 348 349 349 349 349 349 349 349 348 348 347 347 347 347 347 347 347 349 350 350 350 351 352 352 350 350 349 348 346 344 342 342 341 339 337 338 337 337 336
322 324 325 327 329 330 331 333 333 334 334 335 336 337 338 339 342 343 343 343 344 344 345 347 349 349 349 349 349 349 349 349 349 349 349 348 348 348 348 348 348 348 350 350 351 351 351 351 350 348 348 348 346 345 343 342 341 338 337 337 336 335 336
322 323 325 326 328 329 331 332 333 334 334 335 337 337 338 339 341 343 343 343 343 344 345 346 348 349 349 350 349 349 349 349 348 348 347 348 348 348 349 349 348 348 349 351 350 351 351 350 350 348 348 347 346 345 344 342 341 339 337 336 336 336 335
322 323 324 326 328 330 331 332 334 334 335 336 336 337 338 339 341 343 344 344 344 344 344 346 347 349 349 349 349 349 349 349 349 348 348 348 348 349 349 349 349 349 348 349 350 351 351 350 349 348 351 346 345 344 344 342 341 339 337 336 336 336 335
323 324 324 325 326 328 330 331 333 334 335 336 337 339 339 340 341 343 344 345 345 344 346 347 347 348 350 350 350 350 350 350 349 349 349 349 349 350 349 349 349 348 349 349 350 350 349 349 348 347 347 346 345 344 343 342 340 338 337 336 335 335 335
322 323 324 325 326 327 329 331 332 334 335 335 336 337 339 340 341 342 344 346 346 346 346 347 348 348 348 349 350 350 350 350 350 350 350 349 349 349 349 350 349 349 348 349 350 349 349 348 348 347 347 346 345 344 343 342 340 336 335 335 335 335 335
323 323 324 325 326 327 328 330 331 333 335 336 337 338 339 340 340 342 343 345 346 346 346 347 348 349 349 349 349 350 349 350 350 350 351 350 350 349 349 350 350 350 350 350 349 349 348 348 348 347 347 346 346 344 343 342 340 337 335 334 334 334 335
323 324 324 325 326 327 328 329 330 332 334 336 336 336 338 340 340 341 342 344 346 347 347 347 348 349 349 350 349 349 349 350 351 351 351 350 350 350 350 350 350 350 350 348 349 349 348 348 348 347 347 346 345 345 344 343 341 338 335 334 333 333 334
323 325 325 325 327 328 329 329 330 331 332 334 335 335 337 339 340 341 342 343 346 347 347 348 348 350 351 350 350 349 350 350 350 351 351 350 351 350 350 351 351 351 350 349 349 349 349 348 347 347 347 346 345 345 344 342 341 339 336 334 333 333 333
322 323 325 326 327 328 329 330 330 331 331 332 333 334 336 338 340 340 341 343 345 346 347 348 349 350 351 351 351 351 350 350 350 351 351 350 351 351 351 351 351 351 350 350 349 348 349 348 348 347 346 345 345 344 344 342 341 339 337 335 334 333 333
322 323 324 325 326 326 328 329 329 330 331 332 333 334 336 338 339 340 341 342 344 346 348 349 350 350 350 351 351 351 351 350 350 350 350 351 351 351 352 352 352 351 350 350 349 349 348 348 348 347 346 345 345 344 343 342 341 339 337 336 335 334 333
320 322 323 325 326 326 326 328 329 330 331 332 333 334 336 338 339 340 341 342 344 345 347 348 350 350 350 350 350 351 351 351 351 350 350 351 351 352 352 352 352 351 351 350 349 349 349 348 347 347 346 346 345 345 344 343 341 339 338 337 336 335 333
319 321 322 324 326 326 326 327 328 330 331 333 334 334 336 338 339 340 340 342 343 345 347 348 349 350 349 350 350 350 351 351 351 352 351 352 352 353 353 353 352 352 351 351 350 349 348 348 347 347 346 346 346 345 344 343 341 339 338 337 336 335 334
326 320 322 324 325 326 325 326 327 329 331 332 334 335 336 338 339 340 341 341 343 345 347 349 349 349 349 350 350 350 351 352 353 353 353 353 353 353 353 353 353 352 351 351 350 350 349 348 348 347 347 346 345 345 344 343 341 340 338 337 337 336 335
317 320 321 323 324 326 326 326 327 329 330 332 334 335 336 338 339 341 341 342 344 345 347 349 349 349 350 350 349 350 351 352 353 354 354 354 353 353 353 353 353 353 352 351 350 350 350 350 349 347 346 345 345 345 344 343 342 341 339 338 337 336 336
315 318 320 321 323 325 326 327 327 328 330 332 334 335 336 338 339 340 341 342 344 345 347 349 349 349 350 350 350 351 352 353 353 354 354 354 353 353 353 353 353 353 352 351 351 350 350 350 349 348 347 345 344 344 344 343 342 336 328 331 338 337 336
315 317 320 322 322 324 325 326 327 328 330 332 334 335 337 338 340 341 342 343 344 346 348 349 349 350 350 350 351 352 352 353 353 354 353 354 354 353 353 353 353 352 352 351 351 350 349 349 348 348 348 346 345 343 343 344 342 329 326 327 331 337 336
316 316 318 321 322 324 325 326 327 328 329 331 334 335 337 339 340 341 341 343 344 346 349 349 349 349 350 351 352 352 352 353 353 353 353 354 353 353 353 353 352 352 351 350 350 350 350 349 348 348 348 347 346 344 343 343 332 327 325 326 327 331 338
318 318 318 320 322 324 324 325 326 328 330 331 334 336 338 340 340 341 342 343 345 347 349 349 350 350 350 351 352 352 353 353 353 353 353 353 354 354 353 352 352 351 351 350 350 350 349 349 348 348 348 347 346 345 345 344 331 325 324 325 325 327 333
318 319 319 321 323 324 325 326 327 329 330 332 334 337 338 340 341 342 344 344 346 346 348 349 350 350 350 351 352 353 353 353 353 353 353 354 354 354 353 352 351 351 351 351 350 349 349 349 348 348 347 347 346 346 346 344 330 323 321 322 323 325 330
318 319 320 320 320 322 323 324 326 327 329 331 334 336 338 339 341 343 343 344 344 346 347 348 349 350 351 351 352 353 353 353 353 353 353 353 353 353 352 352 352 351 351 350 350 349 348 348 348 348 348 348 348 347 346 346 328 320 319 319 320 323 326
319 322 321 321 322 322 323 324 325 326 329 333 335 336 337 338 341 342 342 344 344 345 346 347 348 349 350 351 352 353 353 353 353 353 353 353 353 352 352 352 351 351 351 350 350 350 350 349 349 348 347 348 348 347 345 347 324 319 318 318 319 322 331
316 320 322 323 323 323 325 326 327 328 331 333 335 336 337 339 340 341 342 343 344 344 345 346 346 347 349 350 352 353 353 354 353 353 353 353 352 352 352 351 351 351 352 350 349 349 348 349 349 349 348 347 347 346 346 345 323 317 316 317 318 321 333
312 313 318 324 326 327 328 327 329 332 333 333 335 336 338 338 339 340 341 342 343 343 343 344 345 347 348 349 351 352 353 354 353 353 352 352 352 352 352 352 353 352 352 350 349 348 349 349 349 349 349 348 347 347 346 344 322 315 314 316 316 322 334
329 330 317 313 320 327 328 329 330 331 333 333 334 336 337 338 339 340 341 342 342 343 342 343 344 346 347 349 351 352 353 354 354 353 353 352 352 352 352 352 352 353 352 351 351 350 350 349 348 348 348 348 348 341 344 343 323 313 315 315 315 323 335
331 333 338 336 319 321 328 331 333 330 331 332 333 335 337 337 338 339 340 342 343 342 342 343 344 346 348 349 350 352 353 353 353 353 353 352 352 353 353 353 353 352 352 351 351 350 350 349 348 348 348 348 347 345 345 341 328 320 313 314 313 318 336
331 331 333 337 339 337 328 330 332 332 334 335 335 336 337 338 337 337 339 341 342 342 344 345 346 346 347 348 350 351 352 353 353 353 353 353 353 353 353 353 352 352 352 351 351 350 349 348 348 348 347 346 346 345 344 339 331 323 312 312 312 315 324
336 337 338 339 341 341 338 328 331 333 334 335 338 339 338 339 338 337 337 338 340 343 346 347 346 346 346 347 348 350 351 352 353 354 354 354 353 352 351 352 353 352 352 352 350 349 348 348 347 347 345 343 343 343 341 338 329 329 313 313 311 313 318
332 333 333 335 337 340 339 334 335 336 336 339 340 340 342 338 337 337 338 337 339 343 345 346 347 346 346 346 346 348 350 351 352 352 354 354 353 352 351 352 352 352 351 351 350 348 347 347 346 344 341 339 339 339 338 336 332 321 321 312 311 311 313
331 332 334 336 338 338 337 334 334 334 335 336 337 337 339 342 340 338 337 337 339 342 343 342 343 344 344 344 344 346 348 350 351 353 354 353 353 352 351 351 351 351 351 350 349 347 346 344 343 341 338 337 335 335 334 334 333 322 319 318 311 310 311
329 330 332 333 335 337 335 333 332 333 334 336 337 338 337 338 340 339 340 340 341 342 342 343 342 342 342 343 343 344 345 347 349 351 353 353 353 351 350 350 350 349 350 349 348 347 345 343 341 340 338 336 333 332 332 331 331 327 322 317 312 310 310
328 330 332 334 334 334 334 334 334 335 335 335 337 338 340 339 337 341 339 339 342 345 346 346 344 343 342 341 341 342 343 344 346 349 352 353 353 352 352 351 350 349 349 348 347 345 343 340 339 338 336 334 333 331 330 327 326 324 322 318 314 313 310
328 329 330 331 332 333 332 333 333 333 334 334 336 338 340 341 340 340 341 340 343 347 347 347 345 344 342 341 341 342 343 343 344 346 349 352 353 353 352 352 351 349 346 347 346 344 340 338 336 335 334 333 331 330 328 326 324 322 319 316 315 315 315
328 328 329 329 329 329 329 330 330 331 332 332 333 334 336 338 339 339 339 340 342 346 346 346 346 346 345 343 342 342 343 343 348 347 348 350 352 352 351 351 351 348 345 346 344 339 336 334 333 331 331 331 330 329 329 326 324 321 318 315 316 316 319
328 327 328 328 329 328 327 327 327 326 328 328 330 332 332 333 335 336 336 338 339 340 342 343 344 347 348 348 347 345 344 345 345 346 348 349 345 341 349 349 348 346 344 345 344 341 338 336 335 335 334 333 330 329 327 326 325 324 314 318 313 317 322
331 331 330 329 330 329 329 330 329 328 327 326 327 329 330 331 333 334 336 337 338 339 339 338 339 339 341 342 348 349 347 346 347 348 347 341 334 327 316 311 307 327 342 338 331 327 325 324 336 337 335 333 333 334 331 328 330 313 306 304 305 307 311
330 332 333 333 332 331 331 330 332 329 329 328 329 327 327 329 332 333 335 335 335 335 335 336 337 334 334 337 336 338 342 343 345 345 339 336 336 334 326 318 311 297 302 318 321 314 309 312 313 317 324 331 330 318 315 315 307 303 302 302 303 304 305
330 331 332 334 334 334 334 334 334 334 333 331 329 327 327 329 332 333 336 337 336 334 332 333 334 333 331 330 330 329 329 329 329 330 331 332 334 332 326 322 314 310 299 304 312 312 310 309 310 312 314 317 320 318 314 306 302 301 301 301 301 302 302

ECMWFFLT1_sfc_thetae_036.txt.gz
Theta_e
327 328 329 330 330 331 332 333 333 333 334 335 336 337 338 340 342 343 343 344 344 344 345 346 348 349 348 348 349 350 350 350 349 348 348 347 347 347 347 347 348 348 350 350 351 352 354 356 356 355 355 354 352 351 349 348 347 344 342 341 341 341 339
324 326 328 329 329 330 332 333 333 333 334 335 336 337 338 339 341 342 343 344 344 344 345 346 348 348 348 349 349 349 349 349 350 350 349 348 349 348 348 348 348 348 349 351 352 353 354 355 355 355 354 354 353 351 348 347 346 344 341 341 339 339 340
322 324 326 328 329 329 331 332 333 333 333 334 335 336 337 338 340 342 343 343 343 344 345 345 347 348 349 349 349 349 349 349 349 349 348 347 347 347 348 349 348 348 349 351 352 352 354 354 355 354 354 353 352 350 348 346 345 344 342 341 340 339 339
320 322 325 327 329 330 331 332 333 333 333 334 335 336 337 338 340 341 343 343 343 344 344 345 346 347 348 348 348 348 348 349 349 349 349 348 348 348 348 348 349 349 349 350 352 353 353 354 353 353 355 352 352 350 348 346 345 344 342 341 340 340 339
319 321 323 325 326 328 329 330 332 333 333 334 335 337 337 338 339 340 342 343 343 343 344 345 346 347 349 349 349 349 349 349 349 349 349 349 349 349 348 347 348 348 349 350 352 353 353 352 352 352 352 352 351 350 348 347 345 344 342 341 339 339 339
319 320 321 323 325 327 328 330 331 332 333 333 334 335 336 337 338 339 341 343 343 344 345 346 346 347 347 349 349 349 350 349 350 350 349 349 349 348 348 348 348 348 348 349 351 352 352 352 352 351 351 351 350 349 348 347 346 344 343 340 340 339 339
320 321 321 322 324 325 327 329 331 332 333 334 334 335 336 337 337 338 340 341 343 343 343 344 345 346 347 348 349 349 349 349 349 349 350 349 349 349 349 349 349 349 349 350 350 351 351 351 351 351 351 350 350 349 347 346 346 344 342 341 340 339 339
320 320 322 323 323 325 326 328 330 332 333 334 334 334 335 336 337 337 339 341 342 343 343 343 344 345 347 348 349 349 349 349 349 350 350 349 349 349 349 349 349 350 350 349 350 351 350 351 351 351 350 350 349 349 348 346 346 345 342 341 340 339 339
320 321 322 323 324 324 325 327 329 331 332 333 333 334 335 336 337 337 338 340 342 342 343 344 344 346 347 347 348 348 349 349 349 350 349 349 348 348 348 349 350 351 350 349 349 351 351 351 351 351 350 350 349 348 347 346 345 345 343 341 340 339 339
318 320 322 323 324 324 325 327 328 330 331 332 333 334 334 336 337 338 338 339 341 342 343 344 345 345 346 346 347 349 349 349 349 349 349 348 349 348 349 349 350 351 350 350 350 349 351 351 350 350 350 349 349 348 347 346 346 345 343 341 340 339 339
318 320 321 322 323 324 325 325 326 328 330 331 333 334 335 335 336 337 338 339 340 342 344 344 345 345 346 346 346 347 348 348 349 349 349 349 349 349 349 349 350 351 350 350 350 350 350 350 351 350 349 348 348 348 347 347 346 345 343 342 341 340 339
317 318 320 321 323 323 324 325 327 328 329 331 332 333 335 336 336 337 338 339 341 341 343 344 345 346 346 346 346 346 347 348 348 348 349 349 349 350 350 350 350 350 351 351 350 350 350 349 349 349 349 349 349 348 348 348 347 345 344 342 341 340 339
316 318 320 321 322 323 325 326 326 327 329 330 331 333 334 335 336 337 338 339 341 342 343 345 345 346 346 346 346 347 347 347 348 349 349 350 350 351 351 351 351 351 350 351 351 350 349 349 349 350 349 349 349 348 348 347 347 346 345 344 342 340 339
323 318 319 321 323 323 324 325 327 327 328 329 330 332 334 335 336 337 338 339 340 342 343 344 346 346 346 346 347 347 347 348 349 349 350 351 351 351 351 351 351 351 352 352 350 350 349 349 349 349 349 349 349 349 349 348 347 346 345 344 343 341 340
311 314 317 318 321 323 324 324 326 327 328 329 330 331 332 334 335 337 338 340 341 341 342 345 345 346 346 346 347 347 349 349 350 350 350 351 351 351 351 351 352 352 352 352 351 351 351 350 350 349 348 349 348 348 348 347 346 346 345 343 342 342 340
310 312 314 316 319 322 324 325 326 327 328 329 330 331 331 333 335 336 337 338 340 341 343 344 345 346 346 346 347 348 349 350 351 351 351 350 350 351 351 352 352 352 352 351 351 351 351 351 350 349 348 348 348 348 347 347 347 339 329 333 343 341 340
310 311 312 315 318 321 324 325 326 327 328 329 330 331 332 333 334 336 337 338 339 341 342 344 344 345 346 346 348 349 350 350 350 351 351 351 351 351 351 352 352 352 352 352 351 351 351 351 349 349 349 348 347 347 347 347 346 330 326 328 331 340 341
310 311 312 313 316 319 322 324 325 326 327 328 330 331 332 333 334 335 336 338 339 340 342 343 344 345 346 347 348 349 349 349 350 351 351 351 351 351 352 352 352 352 352 351 351 351 351 350 350 350 349 349 348 347 347 347 334 327 326 327 327 332 341
312 313 313 315 316 320 320 323 325 327 327 328 330 331 333 334 334 335 337 338 340 341 342 342 343 345 346 347 348 348 349 350 350 350 351 351 352 352 352 352 352 351 351 351 352 351 350 350 350 350 350 349 348 347 347 347 333 326 324 326 325 327 335
313 314 314 315 317 319 322 324 326 327 328 329 331 332 334 336 335 336 338 339 341 341 342 343 343 345 345 347 347 348 349 350 350 350 351 352 352 353 352 352 351 352 352 352 352 351 350 350 350 350 350 349 349 348 348 348 332 324 322 323 323 325 331
309 313 316 317 317 319 322 324 326 327 328 328 330 332 334 335 337 338 339 340 340 342 342 343 344 344 345 346 347 349 349 349 350 350 351 352 352 352 352 352 352 352 352 352 352 351 350 350 350 350 350 350 350 349 348 348 328 322 320 320 320 323 327
312 314 317 319 319 319 322 323 325 326 327 331 331 332 334 335 337 337 338 340 341 341 343 343 344 344 345 346 347 348 349 350 350 350 351 351 352 352 352 352 352 352 353 353 353 353 352 352 351 350 350 350 350 349 348 349 325 320 319 318 319 321 334
312 313 315 319 321 320 323 326 326 327 332 334 331 332 333 335 337 338 339 340 340 342 342 343 344 344 346 346 348 349 350 350 350 350 351 351 351 351 352 352 352 353 354 352 352 352 351 351 351 351 351 350 350 349 348 349 328 318 317 317 317 321 337
328 326 319 317 320 324 325 325 326 329 329 330 331 332 334 336 338 339 339 340 341 342 342 343 344 345 346 347 348 350 351 351 351 350 351 351 351 351 352 353 353 353 353 352 351 351 351 352 352 352 352 350 350 349 348 349 330 315 315 315 315 324 338
331 332 335 335 326 322 325 329 328 329 331 330 329 332 335 336 338 338 339 340 341 342 342 343 344 346 346 348 349 350 352 352 352 351 351 352 352 352 352 353 353 354 354 353 353 352 353 352 351 351 351 351 351 338 345 349 332 314 315 314 314 325 340
332 334 336 338 338 335 330 334 333 330 329 329 332 334 336 336 338 339 339 339 341 341 341 343 345 347 348 349 350 351 352 353 353 353 352 352 353 353 353 354 354 354 353 353 353 352 352 351 351 350 350 351 350 349 347 349 340 322 314 313 313 318 339
334 335 336 338 337 336 332 331 330 330 332 335 337 336 336 336 337 338 339 340 340 340 342 344 346 347 348 349 350 351 352 353 353 353 353 354 354 354 354 354 353 353 353 352 353 353 352 351 350 350 350 350 351 350 349 349 343 326 312 312 312 315 325
334 336 337 338 339 336 335 335 335 336 337 337 338 338 337 336 336 337 338 339 339 341 344 345 345 346 347 348 349 350 352 353 354 354 354 355 354 354 353 354 355 354 353 353 352 351 351 351 349 349 349 350 350 350 350 346 333 334 314 313 312 313 318
332 333 333 334 334 335 336 335 335 335 335 337 338 337 338 339 336 337 338 338 340 345 349 347 346 347 347 347 348 349 350 352 352 353 354 354 354 353 353 354 354 354 353 353 352 351 350 350 350 349 348 348 349 349 349 349 340 324 323 313 311 311 314
333 334 334 334 335 335 335 334 335 336 336 337 339 339 338 339 339 337 336 338 344 346 348 347 346 346 346 346 347 348 349 351 352 353 354 354 354 353 353 353 353 353 352 352 351 349 349 349 349 348 347 346 346 346 347 346 343 323 319 319 312 310 311
331 332 333 332 333 335 335 334 334 335 335 336 338 339 339 339 339 339 338 339 341 343 345 344 345 345 345 345 346 346 348 350 351 352 353 354 354 352 352 352 352 351 352 351 351 350 349 348 348 347 346 346 344 343 342 341 339 333 324 318 313 311 310
330 331 331 331 331 333 334 335 335 334 333 333 335 337 338 339 339 338 338 341 342 345 346 344 344 344 345 345 345 346 347 348 350 351 352 353 354 353 353 352 351 350 351 350 350 350 349 348 347 346 346 345 344 342 339 337 336 333 329 321 315 314 312
329 329 328 328 330 331 330 331 331 331 332 331 332 334 335 336 338 338 339 340 341 345 348 346 344 343 344 345 345 346 346 347 348 349 351 352 353 353 353 353 352 351 349 349 350 350 349 348 346 346 345 344 343 341 337 335 334 332 328 325 321 319 317
327 328 329 329 330 330 330 329 328 329 329 329 329 331 333 334 335 336 337 338 340 341 345 348 346 344 344 344 344 344 345 345 348 348 348 350 351 351 352 352 352 351 350 350 350 349 349 348 346 345 345 344 342 339 335 333 332 329 325 322 321 319 322
331 330 331 331 331 331 330 330 330 329 329 329 329 329 331 332 334 335 336 336 338 339 341 343 345 346 346 346 347 343 343 344 344 345 346 347 350 351 352 352 351 351 351 353 354 352 351 349 349 347 348 345 340 336 332 331 328 327 318 322 316 319 323
333 334 334 335 335 335 335 334 331 330 329 329 329 329 330 332 334 335 337 337 337 337 339 340 339 338 338 339 342 342 344 344 345 344 343 344 346 348 349 336 323 339 352 351 338 332 330 330 347 349 347 341 338 337 332 330 331 315 308 308 308 309 313
331 332 333 334 334 334 334 334 335 332 331 329 329 330 332 333 334 335 337 337 336 335 335 336 336 334 334 333 333 332 333 334 335 335 335 337 339 340 340 340 338 312 309 309 316 323 318 314 318 319 326 335 334 330 323 322 314 305 304 303 304 305 306
330 330 332 332 332 332 332 332 332 332 331 332 331 331 332 334 335 336 338 337 337 336 335 334 333 331 331 332 332 332 331 331 330 331 332 332 333 334 333 332 331 334 317 307 306 308 309 307 308 313 316 319 324 327 329 315 305 303 302 303 304 305 304

ECMWFFLT1_sfc_thetae_039.txt.gz
Theta_e
336 337 338 339 339 340 340 342 344 344 345 346 347 347 348 349 350 353 353 354 355 356 358 358 358 358 358 359 360 361 361 360 360 358 357 357 358 358 358 358 358 359 359 359 361 362 365 367 366 366 365 364 363 364 364 363 363 364 362 360 359 357 356
334 335 336 338 339 339 341 343 345 344 345 346 346 348 347 348 351 351 352 355 355 356 357 357 357 358 358 359 360 361 361 360 360 360 359 358 359 360 359 359 359 360 361 361 362 365 366 366 366 365 364 364 362 363 363 362 364 363 361 359 357 356 355
333 334 336 337 337 339 341 342 344 344 345 344 345 346 347 349 351 351 353 353 354 355 357 357 358 357 358 359 359 360 360 360 360 359 358 357 357 356 359 360 360 359 360 361 363 363 364 364 366 366 365 363 362 363 362 362 364 363 361 359 357 355 354
331 333 335 337 339 341 342 342 342 343 343 344 344 345 347 350 351 352 353 352 353 354 355 356 356 356 357 358 359 359 359 360 360 358 358 358 357 357 358 359 359 359 359 359 360 361 362 364 364 365 364 364 363 362 361 361 362 362 361 359 356 355 354
330 333 334 335 337 339 339 340 341 342 342 343 344 346 348 349 349 350 351 352 352 353 353 355 354 356 358 358 358 358 359 359 359 359 359 359 359 359 358 356 357 357 357 359 361 362 363 363 362 363 363 363 363 362 360 360 362 362 360 358 356 354 353
327 330 332 334 335 336 338 339 340 341 341 341 342 344 345 346 346 346 348 350 351 352 354 355 355 356 356 357 357 357 359 360 360 360 359 359 359 358 357 357 356 357 356 358 359 360 362 362 361 362 361 361 360 360 360 360 361 360 359 357 356 354 351
328 329 330 332 333 335 337 338 339 340 341 342 342 344 344 344 344 345 346 348 349 351 352 352 353 354 356 356 356 358 358 358 359 359 359 359 359 358 358 358 358 357 358 360 359 360 360 361 361 362 362 360 361 362 362 362 360 360 359 357 355 354 353
329 330 332 332 333 334 335 338 339 340 341 342 341 341 342 342 344 344 345 346 348 349 350 350 352 354 355 356 356 356 357 357 357 358 358 357 357 358 357 357 358 359 359 358 359 360 359 361 361 362 362 361 362 363 363 362 362 359 358 356 354 354 353
327 332 331 330 331 332 334 337 339 339 341 342 341 342 341 342 342 343 344 345 347 347 348 350 350 353 356 356 356 357 357 357 357 357 358 356 356 356 355 357 358 359 358 357 357 359 359 360 360 362 363 361 362 363 362 362 362 360 358 356 355 354 352
327 331 334 332 332 330 333 336 339 341 342 343 343 344 341 341 342 343 343 344 345 346 347 349 350 352 355 355 355 356 357 357 357 356 355 354 355 355 355 355 357 358 357 356 356 357 359 360 361 362 362 361 362 362 362 362 361 360 359 357 356 355 354
327 333 336 332 333 333 334 333 337 339 341 342 343 342 343 342 342 342 343 344 344 346 347 349 351 351 352 353 352 354 355 355 355 355 355 354 354 355 355 355 355 357 356 356 355 357 358 359 361 361 361 359 360 361 361 361 361 360 358 358 357 356 355
330 332 335 336 337 336 334 336 339 339 342 342 343 341 344 344 341 341 342 344 345 345 347 348 350 350 351 352 351 353 354 355 355 354 354 354 354 354 355 355 355 356 356 356 356 357 357 358 359 359 360 360 360 361 361 361 361 360 359 357 356 356 355
329 333 334 331 336 337 342 342 339 339 342 341 340 342 342 341 341 341 344 344 344 345 347 348 349 351 350 350 350 353 354 354 355 355 354 356 355 355 355 355 355 355 355 356 356 356 356 357 358 359 359 360 360 360 361 361 360 360 360 358 357 356 355
330 326 330 334 334 337 339 341 341 341 343 341 340 343 341 342 342 342 344 344 344 345 346 348 350 351 351 351 351 353 353 355 356 357 357 357 358 357 356 356 356 357 357 357 356 355 356 356 357 358 359 359 360 361 361 361 360 360 360 359 357 355 354
320 321 326 327 335 338 339 339 342 340 342 342 340 340 341 342 342 345 347 345 346 344 345 350 350 351 350 351 352 354 356 357 357 358 359 358 358 357 357 357 357 358 358 358 357 356 356 357 357 358 358 359 359 360 360 359 359 359 359 358 357 356 354
320 322 323 326 333 334 340 340 342 344 344 344 341 342 340 342 343 343 343 344 345 346 346 349 351 352 350 351 354 357 357 358 358 358 359 358 358 358 358 357 358 357 358 358 357 358 358 359 358 358 357 357 358 359 359 358 359 346 334 339 356 356 354
321 323 325 329 335 334 337 340 341 344 345 345 343 343 342 343 343 344 342 343 343 346 347 349 352 350 350 351 354 356 358 357 358 359 358 358 359 359 359 358 359 359 359 359 359 358 359 358 358 357 357 357 357 357 357 357 355 333 330 332 335 352 355
323 329 329 328 332 333 335 336 339 340 341 340 340 342 343 343 343 342 341 343 343 344 346 347 348 349 352 354 356 357 357 356 358 358 357 358 358 359 359 359 359 358 359 359 359 359 359 358 358 358 357 357 357 356 357 357 338 329 328 329 329 336 354
322 325 328 335 335 335 330 331 336 341 339 339 340 340 341 343 342 343 344 345 346 347 346 346 347 351 353 356 357 358 358 359 358 357 358 358 358 359 359 359 359 359 359 358 359 359 359 358 357 358 358 357 357 356 356 357 335 328 326 327 327 328 340
323 325 327 327 329 329 333 336 335 336 339 342 342 340 341 343 342 345 345 346 349 347 348 350 350 351 353 356 357 358 358 358 357 357 358 358 359 359 359 358 358 358 358 358 359 359 358 358 358 358 358 358 357 357 357 357 334 326 324 324 324 326 333
326 329 331 331 332 328 333 336 336 338 339 338 338 340 342 342 342 344 344 347 347 349 351 352 352 353 355 356 357 358 358 358 358 358 359 359 359 358 358 357 358 358 358 357 357 358 358 357 357 358 358 358 357 357 356 356 330 323 322 321 321 323 327
321 323 324 327 333 336 338 333 336 334 338 340 340 339 340 340 341 341 341 344 345 346 349 350 351 351 356 356 356 357 358 358 358 358 359 359 358 358 357 358 358 358 359 359 358 359 358 359 358 357 358 358 358 356 356 356 327 322 321 320 319 321 338
321 324 326 333 332 331 336 338 337 336 340 340 339 338 338 339 340 341 341 342 343 349 347 349 352 354 355 354 355 356 357 357 357 358 358 359 358 358 357 357 358 359 360 358 358 357 356 357 357 358 358 358 358 357 356 357 334 320 318 318 317 323 344
331 337 341 343 344 338 336 336 337 337 336 337 339 339 340 341 341 343 345 344 344 347 346 348 351 353 354 354 356 357 358 358 358 358 358 358 357 357 357 358 359 359 360 358 356 355 356 357 358 358 359 357 357 357 356 357 337 316 316 316 315 326 345
340 342 344 345 345 343 343 342 342 337 339 338 336 340 343 342 342 342 346 348 343 344 346 349 351 352 353 354 356 358 359 358 359 359 357 358 358 358 358 358 359 359 360 358 358 357 359 358 357 358 359 358 357 342 351 357 338 315 316 315 314 328 348
344 345 345 345 343 343 344 347 343 338 337 336 343 345 346 344 345 346 349 345 344 345 347 349 351 355 356 355 357 357 357 356 359 358 357 358 359 359 359 360 359 359 359 358 358 357 358 357 357 356 356 358 357 357 355 355 356 330 314 314 313 319 347
343 343 344 344 343 346 347 347 348 346 346 349 351 343 344 344 346 348 348 351 349 347 347 351 355 358 358 358 355 354 357 358 358 358 359 360 359 358 359 359 358 358 358 357 357 357 356 357 356 355 356 356 358 357 357 357 357 336 312 312 312 315 328
342 342 344 345 346 347 347 346 348 348 347 349 349 346 345 349 350 352 353 352 350 352 353 356 357 358 359 358 357 356 357 357 358 360 359 360 361 360 359 360 360 359 359 358 358 358 357 357 356 356 356 357 358 358 358 351 340 348 315 314 312 314 319
341 341 343 345 346 346 347 347 346 344 345 346 347 349 349 346 351 352 353 351 354 355 356 358 358 360 359 360 358 358 358 359 360 360 359 360 361 359 359 360 359 360 361 360 359 358 356 357 357 356 355 357 357 358 359 360 352 327 326 313 312 311 315
340 342 342 342 344 346 347 346 344 343 342 343 345 348 351 353 350 351 351 355 356 354 356 358 360 360 359 359 358 358 357 358 360 360 361 361 361 360 361 360 360 360 360 360 358 357 356 355 356 356 354 354 354 355 356 358 358 329 320 321 312 312 313
340 341 341 342 342 345 345 345 344 343 342 343 344 344 347 352 353 351 349 350 355 359 356 356 358 358 357 356 357 359 359 360 361 361 362 362 361 360 359 359 360 359 360 359 357 356 355 355 355 355 354 354 354 355 356 357 358 346 326 317 313 313 312
339 340 340 341 343 343 343 342 343 342 341 342 344 346 345 345 347 346 345 348 351 357 360 359 359 358 357 357 358 357 358 359 359 362 362 362 361 360 361 359 359 358 359 358 356 356 355 354 354 354 354 353 354 355 357 358 357 348 334 321 316 316 314
338 339 340 340 340 341 341 340 338 338 339 339 342 343 345 347 345 345 347 348 351 354 359 359 358 358 358 359 356 358 359 358 358 359 361 362 360 360 360 359 359 359 358 357 355 355 355 355 354 353 353 352 353 354 355 355 355 351 341 334 331 329 325
336 336 338 339 340 341 341 339 337 337 337 337 340 342 342 344 345 347 349 350 352 354 358 361 358 354 356 357 358 358 358 358 355 355 356 358 359 357 358 359 360 359 358 357 357 356 355 355 354 353 354 353 353 355 355 354 353 351 345 338 337 336 334
336 337 338 338 338 338 337 336 336 337 337 337 339 340 340 341 343 345 347 349 352 355 356 357 359 360 357 355 354 354 356 355 356 354 355 357 360 361 360 360 360 362 361 363 364 361 358 357 356 356 357 356 356 357 357 355 352 351 334 343 328 334 335
336 337 337 338 338 338 337 336 336 336 336 338 340 340 340 341 342 344 346 349 351 354 353 353 353 353 352 353 355 356 357 353 352 353 353 354 355 358 361 326 313 335 352 354 324 313 309 316 343 350 353 357 359 360 358 357 356 332 319 316 314 315 316
334 334 335 336 336 335 335 336 337 337 336 337 339 339 340 341 342 343 345 347 349 351 351 351 347 346 346 346 345 343 350 351 353 353 354 355 356 357 356 357 345 305 309 318 321 317 311 311 310 309 312 334 349 350 332 331 329 313 311 310 309 309 309
334 334 335 336 335 335 335 335 335 336 336 338 338 339 341 340 341 342 343 345 347 349 348 348 346 344 343 344 344 343 345 346 345 347 347 347 347 348 349 348 351 351 323 311 313 310 305 304 306 309 314 314 320 331 352 329 313 307 308 307 307 307 307

ECMWFFLT1_sfc_thetae_042.txt.gz
Theta_e
338 339 343 345 347 346 347 350 352 352 353 355 355 356 356 357 358 361 361 363 364 365 365 365 364 364 362 361 363 364 364 364 365 366 365 365 364 364 364 363 364 364 362 361 364 362 367 368 367 369 371 371 370 371 371 371 369 367 367 368 367 364 363
334 336 339 343 346 347 349 351 353 353 354 354 355 358 357 358 359 359 361 363 365 365 366 366 366 364 363 363 363 365 365 363 365 366 367 365 366 365 365 366 365 365 365 364 364 367 368 369 368 369 371 372 370 371 370 370 369 368 365 366 365 364 362
334 335 338 342 344 347 350 350 352 353 354 354 355 356 356 358 359 361 361 362 364 365 367 366 366 365 363 363 363 364 364 364 364 364 365 364 365 363 366 367 366 364 365 366 366 366 368 370 371 371 371 370 368 369 369 369 367 367 367 367 366 363 362
335 336 338 342 346 349 350 350 351 352 353 354 355 356 357 360 361 361 361 362 363 364 364 365 366 363 363 364 364 365 365 366 366 364 365 366 366 366 365 366 367 366 365 365 364 365 367 369 370 371 371 369 369 368 369 367 366 367 367 367 365 365 364
334 337 338 340 343 346 348 349 350 352 352 353 355 357 358 359 360 360 361 361 361 363 363 364 363 364 365 365 364 365 365 365 364 365 366 367 368 368 366 364 365 365 364 365 366 366 367 369 369 369 369 370 369 368 368 369 367 368 367 367 365 365 362
330 335 337 339 342 344 346 348 349 350 351 351 353 355 356 357 357 357 359 360 361 362 364 365 364 365 364 364 364 363 365 365 367 368 366 368 368 366 365 366 365 365 363 364 365 365 367 367 366 367 368 367 365 365 367 368 366 366 366 365 366 364 362
330 335 337 338 341 343 345 347 348 349 352 351 352 355 356 355 356 356 356 358 359 360 360 361 362 363 364 364 364 366 366 365 366 366 367 369 368 367 367 367 366 365 366 366 365 366 365 366 367 367 367 366 366 364 366 368 366 366 366 365 365 365 365
329 333 339 340 340 341 343 347 348 348 350 352 350 351 352 353 354 354 355 356 357 357 358 358 360 362 364 364 364 364 365 366 367 368 368 366 367 366 366 366 366 367 367 365 366 367 365 367 367 367 367 366 367 367 367 368 369 365 365 366 366 367 365
328 337 339 338 340 339 342 346 348 348 349 350 350 350 351 352 352 353 355 355 356 355 356 357 359 361 364 364 364 364 365 365 366 367 367 365 365 364 363 365 366 366 366 363 363 367 366 366 366 368 368 367 367 368 367 368 369 368 367 368 368 366 364
328 333 341 338 338 337 341 342 346 349 348 349 350 351 350 351 352 352 353 353 354 354 355 356 358 359 362 363 362 364 365 365 365 364 364 363 363 362 363 363 364 365 364 364 362 363 366 367 367 368 368 367 368 368 368 368 369 368 367 367 368 367 365
333 340 342 339 338 339 340 340 343 349 349 354 352 349 351 350 350 350 351 352 352 353 354 356 358 358 360 361 361 361 362 362 362 362 363 362 361 362 362 362 362 364 364 363 362 363 365 366 367 368 368 367 367 368 368 368 370 369 366 366 367 367 365
338 337 341 344 342 340 339 342 344 350 352 353 350 349 351 352 350 349 350 352 352 352 354 354 356 357 358 360 359 360 361 362 362 361 361 361 361 361 361 361 361 362 363 363 363 363 362 365 365 366 368 369 369 369 369 370 370 370 368 365 366 367 365
331 335 341 342 343 343 345 346 345 349 354 350 348 349 349 349 349 349 351 351 351 352 353 355 356 357 357 359 359 360 360 361 362 362 360 361 361 360 360 360 360 361 361 363 363 362 361 362 365 366 367 369 369 368 369 370 369 369 369 367 366 367 366
342 332 338 344 345 345 346 348 348 350 353 351 347 348 348 349 348 349 350 350 351 351 352 353 356 356 357 358 359 360 359 361 363 363 363 363 364 363 361 361 361 362 362 364 363 361 361 361 363 365 366 368 369 369 370 370 369 369 370 368 366 366 366
326 327 334 340 349 352 352 350 353 352 349 350 347 347 348 347 348 350 351 351 352 350 351 354 355 356 355 357 359 361 363 363 364 364 365 364 364 363 362 362 363 364 364 364 363 362 362 362 362 365 366 367 368 369 368 367 368 368 368 367 366 366 365
320 321 322 326 340 344 354 352 354 356 353 352 348 347 346 347 350 348 348 350 350 351 351 353 354 356 356 356 360 363 364 365 365 365 365 364 364 365 364 362 363 363 363 364 364 365 364 365 364 364 365 365 367 368 367 367 367 354 338 345 365 366 364
321 321 322 325 331 331 345 353 352 356 355 353 352 349 347 348 350 349 348 348 348 351 351 352 355 355 356 358 361 364 365 365 365 366 365 365 365 365 365 364 364 364 365 365 365 365 366 365 364 362 364 365 365 365 366 366 364 337 333 335 340 360 366
321 324 324 324 326 329 332 349 352 353 353 351 352 351 349 351 349 348 346 347 348 349 351 351 353 354 359 360 363 364 365 365 366 366 365 366 365 366 366 365 364 364 365 364 365 366 365 364 363 364 364 364 365 364 365 366 343 331 331 333 333 341 364
321 322 323 327 327 329 328 330 338 354 348 348 349 348 348 351 348 349 349 350 350 352 350 349 351 357 360 362 364 366 367 368 367 366 366 366 366 367 367 366 365 364 364 364 365 366 365 365 364 364 364 364 364 363 363 365 338 330 328 330 331 332 345
322 323 324 325 325 326 329 336 340 340 348 350 349 347 349 351 348 349 351 349 351 351 352 353 354 359 361 362 365 367 368 367 367 366 367 367 367 366 366 365 364 364 364 364 365 365 365 364 364 364 365 364 364 365 364 364 337 327 326 327 327 329 337
327 325 327 328 329 327 331 340 351 350 346 344 344 346 347 348 348 349 350 350 348 351 357 354 354 356 362 363 365 366 366 366 366 366 367 367 367 367 366 365 366 365 364 363 363 364 364 363 363 364 365 364 363 363 363 362 332 324 323 323 323 326 330
322 322 323 324 328 332 344 340 345 342 344 344 341 338 343 346 347 346 347 349 348 349 352 355 355 355 360 362 363 364 364 364 363 364 366 366 366 365 364 365 365 364 364 363 363 365 364 364 364 363 364 364 364 362 362 363 329 322 322 321 322 324 344
322 323 323 327 327 332 348 350 346 343 345 345 343 340 341 344 346 346 346 347 347 350 350 353 356 356 359 361 362 362 363 362 362 363 364 365 364 364 363 364 364 365 366 363 362 361 363 364 363 364 364 364 364 363 363 364 339 319 319 319 319 325 351
325 325 327 330 336 346 353 352 347 346 346 345 347 346 346 346 347 347 347 348 348 350 351 351 356 359 361 362 363 363 364 364 364 364 364 365 363 363 363 363 364 365 365 363 361 360 361 363 364 364 364 363 363 363 363 363 341 316 317 317 316 330 352
328 331 337 343 348 348 347 355 355 349 350 349 345 348 348 348 347 345 347 349 346 349 351 352 355 358 360 362 364 365 365 364 364 365 364 364 364 364 363 363 364 365 365 363 363 361 362 363 363 362 363 363 363 345 356 363 344 315 317 315 315 332 355
341 348 350 350 351 354 356 357 356 349 348 346 349 349 351 346 347 350 349 346 346 347 350 353 355 360 362 362 363 364 364 363 365 365 365 366 366 365 364 364 363 363 362 363 362 362 361 361 362 362 362 362 361 361 361 362 366 336 315 315 314 320 354
350 351 351 351 352 354 353 355 355 351 349 358 358 352 349 346 347 348 351 352 351 349 350 356 359 362 363 363 361 362 364 364 365 365 366 366 367 365 364 363 362 362 363 361 362 362 362 360 361 360 361 361 363 362 362 362 363 352 313 313 313 316 331
351 351 351 353 351 355 355 352 354 353 352 355 355 351 349 350 350 351 354 355 353 353 353 357 361 363 364 364 362 362 364 363 365 367 366 368 368 367 364 365 365 364 363 362 363 363 362 363 362 360 360 362 364 365 365 356 342 369 317 314 312 315 320
351 350 351 354 355 353 352 354 354 353 353 353 354 356 354 350 353 354 356 355 357 355 357 359 363 366 366 365 362 363 364 365 364 366 366 367 368 368 365 365 365 365 366 365 365 364 362 363 363 362 362 362 363 364 365 368 362 335 336 313 312 312 316
351 352 351 352 352 354 354 354 354 354 355 355 358 359 359 354 355 357 357 357 367 362 362 365 365 366 364 364 362 362 362 362 363 365 366 365 366 366 365 364 364 365 365 365 363 360 359 359 360 359 357 356 359 359 359 367 364 338 325 324 310 312 312
348 349 351 351 350 353 354 354 355 355 356 357 359 361 364 362 360 360 363 363 365 364 363 363 363 363 361 362 361 362 361 361 363 365 365 365 365 365 364 364 364 363 365 364 361 360 360 359 359 356 356 356 356 358 360 362 362 365 336 318 313 312 312
349 350 350 350 351 351 352 353 355 354 353 355 356 356 358 359 360 359 359 361 363 366 363 362 361 362 361 361 362 362 361 362 363 366 366 365 363 364 364 363 362 361 363 362 360 360 358 358 356 356 357 356 357 357 358 361 362 363 358 325 319 316 313
345 346 348 348 348 350 349 350 349 350 350 350 354 355 354 355 355 358 359 360 359 362 367 364 362 361 361 361 361 364 364 362 362 362 364 365 362 363 363 362 361 362 361 363 360 360 358 357 356 357 356 356 357 358 359 359 360 362 361 345 338 334 329
343 343 345 346 347 348 349 349 348 347 348 348 350 352 352 353 355 357 359 359 361 363 363 363 360 359 359 359 359 360 362 361 363 362 361 363 362 359 360 362 362 361 361 361 361 359 358 358 356 356 357 356 356 358 358 358 359 359 361 354 346 343 341
343 343 343 343 344 345 346 346 346 347 345 346 348 349 350 351 353 356 359 361 364 366 364 362 359 362 361 360 360 359 362 360 361 359 359 361 365 364 362 360 362 365 362 365 364 363 361 361 359 359 360 358 358 357 357 359 358 361 339 362 331 343 347
342 341 341 342 343 343 343 344 344 343 344 345 347 347 347 349 351 354 356 359 362 362 363 363 362 362 361 361 361 361 359 359 358 359 357 357 358 360 359 325 313 335 367 364 323 313 314 327 358 358 360 362 364 366 362 361 364 334 320 317 314 317 321
340 339 339 341 341 341 341 342 343 344 344 345 346 345 345 347 348 350 352 355 358 360 359 359 356 356 355 356 356 355 360 359 359 363 362 361 359 360 362 361 353 308 303 318 328 316 308 310 315 315 318 340 352 351 332 325 319 316 317 313 308 309 312
340 340 340 340 340 341 341 342 343 343 343 344 344 345 345 345 347 349 350 352 353 356 356 356 354 352 352 352 352 351 354 356 358 357 358 359 361 363 361 359 358 349 320 307 313 310 304 305 301 298 300 301 306 314 332 323 314 309 306 305 306 307 308

ECMWFFLT1_sfc_thetae_048.txt.gz
Theta_e
331 330 340 338 338 337 340 342 344 344 346 350 353 351 353 355 358 360 361 363 363 363 364 364 364 364 363 363 363 363 363 364 364 364 363 361 361 361 364 364 364 365 363 362 363 362 365 366 364 364 366 369 368 368 370 369 369 368 369 370 370 369 364
330 330 334 338 338 339 343 344 344 344 346 352 355 355 354 356 358 360 362 364 364 364 364 364 365 364 364 363 363 363 363 363 365 365 364 363 362 362 363 366 366 367 367 365 366 367 367 366 366 365 365 368 368 369 370 369 368 369 367 369 367 369 366
330 329 332 335 335 335 342 343 344 345 348 350 354 354 354 356 359 361 363 364 365 366 364 364 364 364 364 365 363 363 363 364 365 365 363 361 362 359 362 365 368 367 367 367 367 367 367 366 366 368 366 366 365 368 369 369 369 369 369 369 368 366 366
330 328 330 335 339 341 342 344 346 346 349 351 353 354 355 359 360 362 364 364 365 366 365 365 364 364 365 364 363 363 363 364 364 363 362 361 362 361 361 362 366 367 367 364 363 365 363 365 365 365 369 366 366 367 368 367 368 370 370 370 367 367 367
331 331 331 335 338 340 340 340 343 347 345 349 356 358 357 359 359 361 363 364 366 366 366 365 364 365 366 365 363 363 363 363 364 363 362 363 363 362 360 358 362 364 365 366 364 363 365 365 364 364 366 367 367 368 368 368 368 371 370 369 366 365 366
331 331 331 333 338 337 336 337 339 347 352 353 355 356 356 356 356 357 360 365 366 367 367 367 365 367 366 366 365 363 364 364 364 364 364 365 364 363 360 361 360 362 361 365 365 363 363 366 363 364 363 365 364 364 366 367 366 369 370 368 366 364 363
330 331 331 331 334 338 337 340 346 352 354 355 356 358 357 355 355 356 358 363 365 366 365 366 366 366 366 367 366 365 364 364 364 364 364 364 364 364 363 362 362 362 362 365 365 364 361 363 364 365 365 362 362 362 364 366 365 366 368 367 366 365 364
333 331 331 332 332 335 342 346 348 351 354 353 354 356 356 356 356 356 357 361 364 365 365 365 365 366 368 367 364 363 364 364 364 364 363 361 362 363 364 364 363 364 365 364 366 366 362 361 361 365 366 365 364 365 366 367 367 365 366 366 365 364 364
330 332 330 329 332 332 335 341 340 340 344 347 351 356 356 357 355 355 357 360 363 363 364 365 365 365 366 365 364 363 363 364 363 363 362 360 359 358 359 363 364 365 364 363 362 366 365 363 360 363 366 366 367 367 366 367 366 365 365 366 365 363 361
328 333 334 332 332 334 337 341 344 341 341 348 355 358 357 357 357 357 357 359 361 362 364 364 365 364 364 364 363 363 364 365 364 361 359 359 359 359 358 359 362 364 363 363 361 362 365 366 363 364 366 366 367 368 366 366 366 365 364 365 365 364 363
329 336 335 333 334 339 345 346 344 343 344 351 357 356 358 358 358 357 358 358 359 361 363 364 365 364 362 362 361 361 363 361 362 363 361 360 359 359 358 359 361 363 361 360 360 362 363 365 367 367 366 365 366 368 367 365 366 365 363 365 366 365 363
336 335 335 336 341 342 340 345 347 346 348 358 358 355 359 360 358 357 357 358 359 360 362 364 363 363 363 362 362 361 361 362 361 360 361 360 358 358 357 358 359 362 363 364 363 362 362 364 365 366 367 366 366 368 368 367 365 365 364 363 364 366 365
340 345 338 337 343 343 344 345 346 345 348 356 353 353 356 357 357 357 360 360 359 360 361 363 363 363 362 363 362 361 361 362 360 360 361 361 358 357 359 359 358 360 362 363 362 361 359 363 364 365 368 367 367 366 368 367 366 365 366 365 365 366 365
341 333 339 342 346 353 351 348 354 358 360 357 354 355 354 356 356 358 361 360 360 359 360 361 362 362 363 364 363 362 360 363 362 360 362 362 362 360 359 359 358 359 362 365 363 361 359 358 363 366 366 368 367 367 367 367 367 366 367 367 366 366 366
329 328 332 335 353 359 356 352 358 362 360 357 355 354 354 354 356 359 362 360 360 358 359 362 361 362 362 364 364 364 364 365 364 362 363 364 363 360 359 359 359 360 361 364 364 362 360 358 360 364 365 367 368 368 367 366 366 366 366 367 366 366 365
325 328 330 333 340 345 360 360 366 366 365 363 356 356 352 354 357 358 359 358 358 361 360 362 362 362 360 362 365 366 366 366 366 365 364 364 363 361 361 359 359 359 360 362 364 364 364 361 358 362 365 365 368 368 367 366 366 355 342 348 364 365 363
324 327 326 328 342 339 350 353 359 364 365 364 361 360 355 355 356 356 354 356 356 360 360 361 363 362 361 362 367 368 368 367 367 367 365 365 364 364 362 361 361 360 361 361 363 365 366 365 360 357 363 365 366 367 367 366 363 341 335 339 344 360 363
326 329 327 330 337 339 348 347 352 357 358 358 357 358 357 359 356 354 351 353 355 356 357 358 362 362 363 364 369 370 369 368 368 368 367 366 365 365 365 363 362 361 361 361 362 365 366 365 363 361 358 364 365 366 367 367 347 335 334 336 337 345 363
323 324 331 338 342 350 345 344 347 356 350 349 350 350 351 358 352 354 354 355 356 357 356 355 357 364 365 365 369 370 370 370 369 368 368 368 367 367 367 365 363 362 361 360 362 363 365 366 364 363 361 360 365 365 367 368 343 333 331 333 334 336 349
322 323 324 325 329 331 337 342 349 356 353 355 354 348 350 354 353 356 355 354 358 356 356 357 358 364 365 366 369 371 371 370 369 369 369 370 369 369 368 367 364 362 361 361 363 363 363 365 364 364 363 361 363 366 367 368 344 329 328 330 331 333 341
326 327 332 336 341 331 352 349 346 356 350 342 352 354 352 352 352 357 355 355 355 356 361 360 358 361 367 365 368 371 371 371 370 369 370 371 371 369 369 368 367 365 363 362 362 362 362 363 363 364 364 363 362 364 366 366 339 326 326 326 327 330 335
323 323 324 328 340 353 349 337 344 332 350 342 344 344 351 350 349 348 350 350 351 353 357 362 360 360 369 366 367 370 371 371 370 370 371 371 371 369 368 368 368 366 365 363 363 364 364 365 364 364 364 364 363 361 362 364 335 325 324 324 325 327 343
322 325 340 346 328 329 357 360 347 352 356 352 349 345 341 348 349 348 347 348 348 354 353 358 362 359 366 367 366 368 371 372 371 371 372 372 370 369 367 368 369 369 367 364 362 362 363 363 363 364 364 364 364 362 361 362 341 322 322 322 323 327 349
330 339 343 346 352 335 356 364 358 352 346 350 352 348 347 343 349 352 352 350 350 352 351 353 359 360 364 368 367 368 371 373 372 372 372 372 371 370 369 369 370 369 368 363 361 358 360 363 363 364 365 364 364 364 362 363 345 319 319 319 320 330 351
344 347 347 348 352 349 351 358 358 353 354 355 348 354 356 350 346 345 355 354 347 347 349 353 356 360 361 367 369 369 371 373 373 373 372 372 372 371 371 370 369 370 370 365 363 361 364 364 364 364 365 364 364 349 359 363 350 318 318 317 318 330 353
340 346 348 347 348 349 358 360 358 352 352 352 359 352 354 348 350 354 365 354 349 347 351 352 356 363 364 368 369 369 369 372 374 373 372 372 373 373 372 371 369 370 369 367 363 361 361 363 364 363 364 364 364 363 363 364 365 341 314 315 315 320 351
343 345 347 346 347 356 353 355 353 352 354 367 370 365 359 354 355 356 359 368 354 350 350 356 361 366 366 369 368 367 369 370 373 373 374 375 374 372 371 369 368 367 368 366 365 363 362 361 361 361 364 365 366 365 364 364 365 355 314 313 314 316 328
348 348 349 351 355 356 356 354 358 357 353 358 362 359 358 367 368 375 374 375 362 357 359 370 366 367 368 368 368 368 368 369 374 374 373 375 376 374 371 371 370 368 368 366 367 365 364 363 361 360 361 363 366 368 368 364 348 368 318 314 312 314 316
346 346 347 346 350 355 354 353 354 352 354 355 364 364 364 359 366 368 371 372 377 374 374 383 369 370 369 368 369 370 370 372 374 373 372 373 375 374 371 371 369 369 369 368 368 368 366 366 364 363 361 364 367 369 370 372 365 341 337 313 312 312 314
345 343 341 344 349 354 353 351 353 358 360 362 362 363 367 368 367 366 368 369 371 382 369 381 375 374 370 367 368 370 371 372 374 374 372 373 374 374 372 370 369 370 370 369 368 366 366 366 366 364 361 360 363 365 367 375 372 347 329 322 311 312 312
342 345 344 350 352 355 354 356 357 357 360 362 362 367 371 370 368 359 359 366 369 369 375 373 379 374 370 369 368 369 370 373 373 374 373 373 373 372 371 370 370 368 370 369 367 367 365 366 366 365 364 363 362 363 365 368 373 371 335 320 313 312 311
345 349 350 350 351 351 353 355 358 358 357 359 360 360 367 371 365 363 371 372 373 369 367 370 376 375 372 370 371 369 367 370 370 374 374 374 372 373 372 369 367 366 368 367 367 366 366 366 364 363 364 363 362 361 363 370 371 371 360 326 318 314 312
347 348 348 348 349 350 352 353 352 354 354 354 357 360 360 362 363 364 367 371 369 367 371 378 375 373 374 373 369 372 371 369 368 371 370 372 368 368 370 369 367 366 366 365 362 363 364 364 363 362 359 360 361 361 364 367 368 372 366 345 337 335 331
345 346 348 349 349 350 352 352 352 351 352 352 354 356 357 358 360 363 365 361 366 369 370 371 372 367 369 367 368 370 369 369 371 368 364 366 366 362 364 364 364 363 367 364 364 362 363 362 360 359 360 358 358 360 360 360 362 340 341 341 345 349 344
346 346 347 348 349 350 351 351 350 350 349 350 353 354 357 358 360 362 364 366 367 367 366 367 366 369 366 365 363 362 367 363 365 363 362 363 347 331 323 330 360 371 351 331 333 359 366 363 365 362 363 359 363 365 365 352 335 326 306 314 305 316 336
346 345 347 348 348 349 351 351 351 349 349 350 352 353 354 355 358 360 362 366 369 370 368 368 370 369 365 364 362 361 361 361 359 361 361 359 349 342 331 315 304 319 343 332 315 308 310 321 342 347 358 343 336 338 342 334 323 302 297 297 297 298 297
345 345 344 345 345 347 348 349 350 349 348 349 350 351 351 353 354 357 360 363 366 368 370 368 370 367 365 364 362 364 372 362 360 363 368 363 359 352 342 334 323 301 300 308 309 304 299 298 301 305 316 337 326 315 306 305 299 297 297 297 296 296 296
344 345 344 345 345 345 346 346 347 347 347 349 349 349 350 349 351 354 356 360 363 365 365 363 362 361 360 360 361 365 367 368 373 365 370 370 363 356 348 340 332 325 305 299 303 302 299 300 300 302 304 309 320 329 329 311 300 298 298 297 297 297 296

ECMWFFLT1_sfc_thetae_051.txt.gz
Theta_e
335 336 337 338 338 339 339 340 341 341 342 344 345 345 347 349 351 354 353 354 353 352 353 354 355 353 352 352 353 354 354 354 354 354 354 354 355 356 355 356 354 355 354 356 356 356 357 358 357 358 359 361 361 362 362 362 361 361 360 360 359 359 357
333 334 335 337 337 339 340 341 341 341 342 344 345 345 347 349 351 353 354 354 354 354 354 354 355 355 353 353 353 354 354 354 355 355 355 354 355 356 357 356 356 355 356 355 357 358 359 359 358 358 360 361 361 362 363 361 361 360 359 360 359 357 356
331 333 334 336 337 338 340 341 341 341 343 345 345 345 345 347 350 353 355 355 355 355 355 355 355 355 355 354 353 353 354 354 354 354 354 354 354 355 357 357 357 356 357 358 357 358 361 360 358 358 360 361 361 361 362 362 361 361 359 360 359 359 356
330 331 332 336 338 339 339 341 341 341 343 345 346 346 345 347 349 353 356 356 355 355 355 355 356 356 356 354 353 353 354 354 354 354 355 355 355 355 355 357 358 358 357 358 359 359 360 360 358 357 362 360 360 361 361 362 361 360 360 360 358 359 358
330 331 332 334 336 337 338 339 340 341 342 345 346 347 346 347 351 353 356 358 357 356 357 357 357 357 357 356 355 354 354 354 354 355 355 355 356 355 353 355 358 358 359 360 360 360 358 358 358 358 358 359 359 360 360 361 361 360 360 361 358 358 359
329 330 331 333 334 336 337 338 340 341 342 344 345 346 346 347 351 353 355 357 358 358 358 358 357 357 356 356 356 355 355 355 355 355 355 355 355 354 353 353 357 359 359 360 360 360 360 358 358 358 359 358 359 359 360 360 361 361 360 362 359 359 358
328 331 331 332 334 335 337 338 339 341 342 344 346 347 348 348 350 353 355 357 358 357 357 357 357 357 357 357 356 356 354 354 354 354 355 355 355 355 354 353 354 357 360 361 360 359 359 358 358 357 358 359 359 359 360 360 360 362 361 361 360 359 359
327 331 331 332 333 334 337 338 339 340 341 342 344 348 348 349 351 352 354 357 359 359 358 357 357 357 357 357 357 355 355 354 354 355 356 355 355 355 355 354 354 355 358 359 360 359 357 358 358 358 356 359 359 359 360 360 360 361 362 361 360 359 360
328 330 332 333 333 333 335 338 339 340 340 342 344 348 350 351 352 353 355 356 358 359 359 359 358 358 358 358 357 356 355 355 354 355 355 355 355 355 355 355 354 355 355 357 360 360 358 356 358 358 357 356 358 359 359 360 360 361 362 361 360 359 358
328 326 332 333 333 333 334 337 339 340 340 342 343 345 349 351 352 353 354 356 358 359 360 360 360 359 358 358 358 357 356 355 355 354 355 355 355 355 355 355 355 355 355 356 358 359 359 356 355 358 358 356 356 357 358 360 360 360 361 361 361 359 357
327 326 331 332 332 333 334 335 337 339 341 341 342 346 349 350 351 352 353 355 358 359 361 362 362 360 359 358 358 358 356 355 355 354 354 354 355 355 355 356 355 355 355 356 356 358 359 358 356 355 358 358 356 356 356 358 360 359 359 360 361 360 359
326 326 328 331 331 332 333 334 337 340 342 343 345 348 351 352 352 352 352 353 358 360 361 362 363 361 359 359 358 358 357 356 355 354 354 354 354 354 355 355 356 356 356 356 356 357 358 358 357 354 355 358 358 358 357 358 359 359 359 359 360 360 359
326 326 325 328 331 332 334 337 340 343 345 346 345 345 350 352 352 352 352 352 355 360 362 363 363 362 360 359 358 357 357 356 355 355 355 354 354 354 354 354 354 356 356 357 357 356 357 358 358 357 354 356 359 359 359 358 359 360 359 359 359 359 359
335 325 326 325 331 333 336 337 340 342 343 344 344 345 349 353 353 353 352 352 354 358 361 363 363 362 361 360 358 357 357 356 356 356 356 355 354 353 353 353 353 354 356 357 356 355 356 357 358 358 357 355 356 359 360 360 359 359 359 358 358 359 358
325 327 332 334 331 334 336 335 337 339 340 342 344 346 351 353 353 353 353 354 354 356 359 362 362 361 361 359 358 357 356 356 356 356 356 356 354 353 353 353 352 353 355 356 355 356 355 357 358 357 357 357 357 357 359 361 360 359 359 358 357 358 358
330 335 337 335 334 335 335 336 336 336 338 340 343 346 352 353 353 353 354 354 354 355 357 360 360 360 360 359 358 357 356 356 356 356 356 356 355 354 353 353 353 352 353 356 356 355 355 355 356 357 357 357 358 358 358 359 361 352 339 344 357 357 358
327 331 336 338 338 338 339 341 341 340 340 343 345 347 350 352 353 354 355 355 355 355 356 358 359 360 359 359 359 358 357 356 356 356 355 355 356 355 353 352 353 352 352 354 356 356 355 355 354 356 357 357 358 358 358 359 359 340 333 335 340 354 357
322 325 333 337 340 343 344 346 347 345 343 345 348 348 349 350 352 354 354 355 356 356 357 357 358 358 358 359 359 359 358 357 356 356 355 354 355 355 354 352 352 352 352 352 355 357 356 355 354 354 357 358 358 359 359 359 344 334 332 333 333 340 358
321 322 325 329 335 340 346 348 350 350 350 349 350 351 350 350 351 352 354 354 356 357 356 356 356 357 357 358 359 359 359 358 357 356 355 354 354 355 355 353 351 351 351 351 354 357 356 356 355 353 355 357 357 357 359 359 342 333 330 331 331 332 344
321 322 324 329 332 331 331 336 347 350 351 351 351 352 352 353 350 351 353 354 355 355 355 355 355 356 357 357 358 360 360 359 357 357 356 356 355 355 355 353 351 351 352 353 353 354 356 357 356 355 353 355 357 357 359 360 343 331 328 328 328 330 337
319 323 328 334 333 337 341 335 335 345 346 346 346 345 346 348 350 351 350 350 351 353 353 354 354 355 356 356 357 360 360 359 358 357 357 357 356 355 355 354 353 352 352 352 352 352 355 356 356 356 355 354 355 358 358 360 339 328 326 325 325 328 331
329 341 340 341 333 336 335 339 345 344 343 347 346 344 344 345 346 349 349 349 349 350 351 352 352 353 357 356 357 359 361 360 359 358 358 358 357 356 355 355 354 353 353 353 353 353 354 355 357 357 356 356 354 354 357 360 335 328 325 323 324 326 341
342 343 343 343 343 341 342 346 343 346 351 345 345 344 343 344 346 346 347 347 346 348 349 351 351 351 357 357 357 360 362 361 360 359 359 359 358 357 356 356 356 356 355 353 352 352 353 353 355 357 357 357 356 354 353 357 340 325 323 322 322 325 346
343 343 341 338 339 345 346 345 345 348 344 340 344 342 342 345 345 344 343 344 345 345 347 348 350 351 356 358 358 360 362 362 361 360 360 360 359 359 359 358 359 358 358 354 353 352 353 353 354 355 357 357 357 356 355 354 342 322 321 319 319 328 348
342 343 343 340 338 341 347 346 352 352 349 348 349 350 343 345 344 345 343 344 344 344 344 345 348 351 353 359 360 361 363 364 363 362 361 360 361 361 360 360 360 360 361 358 356 354 354 354 354 354 355 357 357 347 353 356 346 318 318 317 318 329 349
342 343 342 342 343 344 349 354 352 349 351 357 357 359 355 349 342 346 345 345 343 342 342 344 346 351 353 360 361 362 363 365 364 363 362 361 362 363 362 362 362 362 362 361 359 357 355 355 355 355 355 356 357 358 357 357 358 339 314 315 315 320 348
341 340 338 339 348 356 350 351 352 351 349 354 360 360 360 358 357 355 348 352 346 341 343 345 346 352 354 359 362 362 363 365 364 364 363 364 364 364 364 364 362 362 362 361 361 359 356 356 355 356 356 357 358 358 358 359 358 351 312 312 313 316 326
340 340 339 341 356 353 348 349 349 351 351 355 358 359 360 359 358 358 356 359 353 348 347 348 348 353 355 358 361 361 363 364 365 366 366 365 365 365 364 365 364 363 362 362 361 358 356 355 354 355 356 357 358 358 359 358 347 360 317 313 311 314 316
338 340 340 343 347 350 351 350 351 352 353 357 357 358 357 357 358 358 358 355 359 364 363 355 350 354 355 358 360 360 361 364 365 366 368 367 367 365 364 365 364 363 362 361 360 359 357 356 355 354 353 353 355 358 360 360 355 339 334 312 312 311 313
340 344 345 347 347 347 350 349 350 354 357 357 358 357 360 358 358 359 359 355 360 363 366 366 353 355 355 356 359 360 360 363 366 367 367 367 367 366 365 364 364 362 362 361 360 359 358 357 356 354 353 352 353 359 360 362 362 343 329 323 312 312 311
342 343 345 345 345 346 347 348 348 353 352 352 353 356 357 363 361 360 358 361 367 362 360 367 360 356 355 356 358 359 360 363 366 366 366 367 368 365 364 364 363 361 361 361 360 359 358 357 357 355 354 353 352 354 356 361 365 364 336 321 314 312 311
343 344 345 344 344 345 347 349 349 351 350 350 352 353 359 358 358 355 356 361 364 363 361 365 362 358 356 357 360 361 362 363 365 365 365 366 367 367 366 365 363 362 361 361 360 360 359 357 357 356 356 355 355 354 356 358 358 354 337 326 318 315 311
343 343 343 342 344 348 348 348 348 348 349 347 350 352 354 356 356 357 359 360 362 363 364 364 364 363 360 358 360 361 363 363 363 364 364 365 366 367 367 366 365 362 359 361 361 360 358 358 357 356 356 356 356 356 356 356 352 344 341 334 329 328 325
341 342 343 344 345 347 348 348 346 346 346 346 348 350 352 353 354 356 357 361 363 364 364 367 363 363 363 362 361 360 361 362 372 367 363 361 359 361 365 366 365 362 360 360 360 358 358 357 356 355 356 356 357 356 355 337 330 329 333 331 333 337 332
339 341 342 344 343 347 346 346 346 345 346 346 348 349 349 349 351 354 356 357 361 362 361 363 366 363 362 363 362 361 362 363 365 362 344 330 321 315 312 314 322 351 334 324 325 351 361 358 357 356 354 346 346 352 339 331 326 323 307 312 306 314 337
339 341 342 345 345 346 346 346 344 344 343 344 345 346 346 347 348 350 355 356 359 360 361 360 360 361 359 361 359 359 359 360 361 350 339 333 326 321 318 311 301 306 329 325 319 310 318 332 347 339 328 322 318 326 335 325 320 303 297 297 297 297 296
339 340 341 343 343 342 343 343 346 344 343 343 344 343 344 343 346 348 352 353 355 358 358 359 357 356 355 356 355 354 357 355 355 347 341 338 334 330 326 322 317 302 299 306 308 307 308 307 308 311 317 324 318 312 308 306 300 298 299 298 298 296 296
340 341 342 343 343 342 342 342 342 342 342 342 343 344 345 344 344 345 349 351 352 355 355 356 355 353 352 353 353 356 357 358 356 350 344 339 335 331 329 325 322 321 308 301 304 304 302 303 304 305 307 310 314 315 311 302 298 297 297 298 297 297 296

ECMWFFLT1_sfc_thetae_054.txt.gz
Theta_e
333 334 335 336 336 337 337 337 337 338 339 340 341 343 344 345 345 345 346 346 347 347 348 349 350 350 349 349 350 350 350 349 349 349 348 349 351 349 347 349 350 349 350 351 352 352 354 355 355 356 356 357 358 359 360 361 360 360 359 358 358 357 355
332 334 335 336 336 337 337 338 338 338 339 340 341 343 345 345 346 345 346 347 346 347 348 349 350 350 349 349 350 350 349 349 349 351 350 349 351 352 350 349 351 351 350 352 353 353 354 354 355 356 355 357 358 358 359 360 360 359 358 357 356 356 355
332 334 335 336 336 337 337 338 338 338 339 340 341 342 344 345 347 346 347 347 346 347 348 349 350 349 350 349 349 349 349 349 349 349 350 349 349 351 352 351 351 352 352 353 353 354 355 354 354 355 355 356 357 358 359 359 359 359 357 357 356 355 354
332 334 335 336 337 338 338 338 338 338 340 341 341 342 344 346 347 348 348 348 347 347 347 348 350 350 349 349 348 348 349 349 349 349 350 351 350 350 352 352 352 352 353 352 355 355 356 355 354 354 359 355 356 358 359 359 359 359 357 356 356 355 355
332 334 336 336 336 337 337 338 338 338 339 341 342 343 345 347 348 349 349 350 349 348 349 349 350 351 351 350 350 350 349 349 350 350 350 351 352 351 352 352 353 352 353 354 354 356 355 355 354 354 355 356 356 357 358 359 358 358 358 356 355 356 354
331 333 335 336 336 337 338 338 339 339 339 340 342 342 344 347 348 349 350 350 350 350 350 350 350 351 350 350 350 350 350 350 351 351 351 351 351 351 351 353 354 354 353 353 355 355 356 356 355 355 354 356 356 357 357 358 359 358 357 356 355 355 355
331 333 335 336 336 337 337 338 339 340 340 341 343 344 345 347 348 350 351 351 351 350 350 350 351 351 351 352 351 351 350 350 351 351 351 351 351 351 351 352 354 355 354 354 354 355 355 356 356 355 355 355 356 356 357 357 358 358 357 356 355 354 355
331 332 334 336 337 337 338 338 339 340 341 341 342 343 343 345 348 350 351 352 352 352 351 351 351 351 352 352 352 351 350 350 351 351 352 351 351 351 351 351 353 355 355 354 354 356 355 355 356 356 356 355 355 356 357 357 357 358 357 356 355 355 355
331 333 334 335 336 337 338 339 339 340 340 340 342 343 343 344 346 348 351 352 353 352 352 353 352 353 353 353 352 352 352 351 351 351 351 351 351 351 351 351 351 354 355 355 355 356 356 356 355 356 356 355 355 355 356 357 357 358 357 356 355 355 355
330 331 333 335 336 337 338 339 339 339 339 340 341 342 343 343 345 347 350 352 353 353 353 354 354 354 353 353 353 353 352 352 351 351 351 350 351 350 351 352 352 352 354 356 356 356 357 357 356 355 354 355 355 355 355 356 357 357 357 357 356 355 355
329 330 331 333 335 336 337 338 338 338 339 339 341 342 343 343 344 345 347 351 353 354 355 355 355 355 354 353 353 353 353 352 352 351 351 350 351 351 351 352 352 352 352 354 356 357 356 356 357 356 355 354 354 355 355 355 356 356 357 358 357 356 356
329 329 330 332 333 334 335 336 337 338 338 339 341 342 342 343 344 344 347 349 352 354 355 355 356 356 355 354 353 353 352 352 352 351 351 351 351 351 352 352 352 351 352 352 353 356 357 356 355 356 355 355 354 355 355 356 356 356 356 357 358 357 357
328 329 329 330 332 333 334 334 335 336 338 339 340 342 343 343 344 344 346 348 352 354 355 356 356 356 355 355 354 353 353 353 352 352 352 352 351 352 352 352 352 352 351 352 352 353 355 356 355 355 355 356 355 354 355 356 356 356 357 357 358 358 357
335 328 329 329 330 331 331 333 334 335 336 338 339 341 343 344 344 345 346 348 351 354 355 356 356 355 355 355 354 353 353 353 354 353 353 352 352 352 352 352 352 352 352 352 351 351 352 355 356 355 354 355 355 355 355 355 355 356 357 357 357 358 358
327 328 328 328 329 329 330 332 334 335 336 337 338 340 343 345 345 346 347 349 351 353 355 357 356 356 355 355 354 354 354 355 354 354 354 353 352 351 351 352 352 352 352 352 352 352 352 353 355 355 354 353 354 355 356 354 354 356 357 356 356 357 357
326 327 328 328 328 329 330 331 334 335 336 337 338 339 343 345 346 347 348 349 351 353 355 357 357 356 356 355 354 355 355 355 355 355 354 353 352 351 351 351 351 352 351 352 352 351 352 352 353 354 355 354 353 353 355 355 356 348 337 342 356 356 357
324 326 327 328 328 329 329 331 333 335 336 337 338 339 342 345 347 348 349 350 351 353 356 357 357 357 356 356 356 356 356 355 355 355 354 353 352 352 351 351 351 351 351 351 352 351 351 352 351 352 354 354 353 352 352 354 355 338 332 333 338 353 356
322 324 326 327 328 328 329 331 332 335 337 338 339 340 343 345 347 348 349 350 350 352 356 357 358 357 357 357 358 357 356 356 355 355 354 354 353 352 352 351 350 349 349 350 350 352 352 351 351 352 353 354 354 353 353 353 340 334 331 331 332 338 355
324 326 326 327 328 330 330 332 334 336 338 340 341 341 344 347 348 348 350 350 351 352 353 356 358 358 358 358 358 358 357 357 355 355 354 354 354 353 352 351 350 349 348 348 350 351 351 351 351 351 352 353 353 353 354 353 338 331 329 330 330 331 342
330 331 330 329 331 331 332 334 335 337 339 341 343 344 346 349 350 351 352 352 352 352 352 353 356 357 358 359 359 358 358 357 356 355 354 354 354 353 352 351 350 350 350 349 349 349 351 351 351 351 351 351 352 353 354 354 340 329 327 327 327 329 334
331 330 328 329 331 334 335 336 337 337 337 341 343 344 346 348 350 351 351 352 352 352 352 352 353 355 357 358 359 359 358 357 356 355 354 354 353 353 352 352 351 350 350 350 349 348 349 350 350 351 351 351 351 352 353 354 337 327 324 324 324 327 329
334 336 334 334 333 333 336 341 340 338 338 342 346 346 346 347 350 351 352 353 353 353 352 352 352 353 355 357 358 358 358 357 356 355 354 354 353 352 352 352 351 350 350 350 350 350 350 351 352 351 351 351 351 351 351 354 333 326 323 322 323 325 338
335 334 337 339 339 339 340 341 342 344 347 344 345 345 347 348 349 350 351 351 352 352 353 352 352 352 353 355 357 358 358 358 357 355 354 354 353 352 351 351 352 352 352 350 349 349 349 349 351 353 352 352 352 350 351 353 337 324 321 320 321 323 343
342 343 343 344 346 347 347 345 345 347 344 343 343 340 343 344 347 348 348 349 350 351 351 351 351 352 352 354 356 357 358 358 358 356 355 354 353 352 352 352 353 352 353 350 349 348 349 350 350 352 353 353 352 352 351 351 341 321 319 319 319 327 345
341 345 346 345 345 345 347 350 352 354 354 354 353 353 346 341 341 342 344 345 346 348 349 349 350 351 352 353 355 356 358 359 358 357 356 355 355 354 353 352 352 353 353 352 351 350 350 350 350 350 352 353 354 346 350 352 343 318 318 317 317 327 346
340 343 346 348 349 348 348 350 351 352 351 351 351 353 355 354 345 346 341 341 341 341 343 347 349 350 351 354 355 356 357 359 359 358 357 356 356 356 355 355 354 353 353 352 352 350 350 350 350 349 350 351 353 354 353 353 353 331 317 316 316 319 344
342 342 343 346 348 353 348 349 349 350 351 351 353 354 353 355 356 353 353 347 339 339 341 343 344 347 349 354 356 356 357 358 359 358 358 358 357 357 357 356 355 354 353 353 353 351 350 349 349 349 349 350 351 352 353 355 354 337 314 315 315 316 326
341 341 342 346 353 351 347 349 350 350 350 351 353 356 357 354 355 354 354 350 348 346 344 341 341 345 348 353 355 356 357 358 359 360 359 359 358 357 357 357 357 356 355 355 354 352 351 350 349 349 349 350 351 351 352 354 346 351 316 316 314 315 316
338 339 340 342 344 349 348 347 348 348 348 350 352 354 357 357 355 354 351 351 353 359 359 357 344 344 347 351 355 356 357 358 359 359 360 359 359 358 357 358 358 357 356 355 355 354 352 352 351 350 349 349 350 352 353 353 351 338 333 315 313 313 313
340 340 341 344 346 346 348 347 347 347 348 349 351 353 353 353 353 355 353 351 356 359 359 358 349 344 346 349 353 356 357 358 360 360 361 360 359 358 358 358 358 358 358 357 356 355 354 353 353 351 350 349 349 352 353 354 355 339 328 325 312 312 312
338 339 341 343 344 346 346 345 345 345 345 347 348 350 351 351 351 353 351 352 358 359 358 359 350 345 346 347 350 354 357 358 360 361 361 361 360 358 358 358 359 358 358 357 357 356 355 354 353 352 351 350 349 349 352 356 356 356 335 321 315 312 311
337 339 341 342 344 345 344 345 344 344 344 345 347 348 350 349 349 348 349 353 357 358 358 360 352 348 347 347 349 353 356 358 360 360 361 361 362 361 360 360 359 358 358 357 357 356 355 354 353 352 352 351 351 349 351 354 357 352 334 329 322 316 312
334 337 338 339 342 345 343 343 343 343 344 343 346 346 348 347 348 348 351 353 355 357 357 359 356 353 348 349 351 353 355 357 359 360 361 362 362 362 362 361 361 359 356 358 358 356 355 355 353 352 351 351 351 350 350 352 345 338 333 329 328 329 326
331 335 338 339 341 344 342 342 341 342 342 341 343 345 345 346 346 347 350 352 354 355 357 358 359 354 351 352 354 354 356 357 367 362 360 360 361 361 361 362 362 360 357 357 357 356 355 355 354 352 353 353 353 352 351 341 335 336 335 332 330 328 326
330 333 336 338 340 343 340 340 341 339 340 341 342 342 342 342 343 345 348 350 351 352 355 358 361 358 353 354 355 355 357 359 361 356 345 330 319 311 309 315 320 334 346 330 329 355 360 357 356 356 357 357 355 354 347 335 334 330 311 316 312 328 329
330 332 335 338 340 339 340 342 339 337 337 337 339 339 339 339 341 342 347 348 349 350 352 354 353 351 351 351 353 356 358 358 352 345 337 328 319 317 315 309 301 303 318 326 319 313 309 325 355 358 344 332 320 328 345 343 336 304 297 296 296 299 304
329 331 333 337 337 337 337 337 342 338 336 336 338 338 338 338 339 341 344 346 346 348 349 349 348 348 347 348 349 351 357 350 343 339 334 332 330 328 326 325 319 302 300 306 307 303 304 311 319 321 325 335 321 311 307 306 300 297 296 295 295 295 294
331 330 333 336 337 337 337 336 336 336 336 334 336 336 336 336 338 339 341 343 345 347 348 347 346 345 346 347 348 349 349 345 342 338 335 332 331 331 331 329 326 323 308 299 302 302 299 299 302 304 306 309 314 314 312 303 297 296 296 296 296 296 295

ECMWFFLT1_sfc_thetae_057.txt.gz
Theta_e
329 331 333 334 334 335 335 336 336 336 337 338 339 339 341 342 343 344 344 345 345 345 347 348 348 349 349 349 349 350 350 349 349 347 347 347 347 345 345 345 345 344 345 347 349 350 352 353 354 355 355 355 355 356 357 357 357 358 357 357 357 357 356
327 330 332 334 334 335 336 336 336 337 337 338 339 339 340 341 343 343 344 344 345 346 347 348 349 348 349 349 349 349 349 349 349 350 348 347 348 347 346 346 346 345 345 347 348 350 351 352 353 354 354 355 355 356 357 358 357 357 357 356 355 355 355
327 329 331 333 334 335 336 336 336 337 337 338 339 340 340 341 342 343 344 344 344 346 347 348 349 349 349 349 349 349 349 349 348 348 347 346 347 348 347 346 347 347 346 347 348 349 352 351 352 353 354 354 355 355 356 357 358 358 357 356 355 355 354
327 329 331 333 335 336 336 336 337 337 338 339 339 340 341 341 342 343 344 344 344 345 345 347 349 349 349 349 348 348 348 348 348 348 348 347 347 348 348 346 347 348 348 347 349 351 352 352 352 352 357 353 354 355 356 357 358 358 357 356 355 355 354
326 329 331 332 333 335 335 336 336 336 337 339 340 342 342 343 343 343 344 345 345 345 346 347 349 349 350 350 349 349 349 348 348 348 348 348 347 348 348 348 347 347 349 349 349 351 351 351 351 351 353 353 353 354 355 356 356 357 357 356 355 354 354
325 327 329 331 333 334 335 336 337 337 337 337 339 340 342 343 343 343 344 345 345 346 346 347 347 349 348 349 349 349 349 349 349 349 348 348 347 346 347 349 348 348 348 349 351 351 351 351 351 351 351 353 353 353 354 355 356 356 356 355 355 354 353
325 327 329 331 333 334 335 336 337 337 338 338 340 341 343 343 343 344 344 344 345 344 345 345 347 348 348 349 349 349 348 348 348 348 348 348 348 347 347 348 350 350 349 350 350 351 351 351 351 351 351 352 353 353 353 354 355 356 356 355 354 354 354
325 327 329 331 333 335 336 336 337 338 338 338 339 340 341 343 344 344 344 344 345 345 345 345 346 347 348 348 348 348 348 348 348 348 348 348 348 348 348 348 349 350 351 349 350 352 352 352 352 352 352 351 351 352 353 354 354 355 355 354 354 353 354
326 328 329 331 333 335 336 337 337 337 337 337 338 339 341 342 343 344 344 345 345 345 345 346 347 348 348 348 348 348 348 348 348 348 348 347 347 348 348 349 349 350 351 351 350 352 352 353 353 352 352 351 351 352 352 353 354 355 355 355 354 353 353
325 327 329 332 334 335 336 337 337 337 337 337 337 338 340 341 343 344 345 345 346 345 346 346 347 348 348 348 348 348 348 347 348 348 348 347 348 347 348 349 349 351 351 352 352 351 352 353 353 353 352 352 351 351 352 353 353 354 355 355 354 353 353
326 328 330 331 333 334 335 336 336 336 337 337 337 338 339 341 342 344 345 346 346 346 347 347 348 348 348 348 348 348 347 347 348 347 347 347 348 348 348 349 349 350 351 352 352 352 352 353 353 353 353 352 352 351 351 352 353 353 354 355 355 354 354
326 328 329 331 333 334 334 335 336 336 337 337 338 338 339 340 342 344 345 346 347 347 348 348 349 348 348 348 348 348 347 347 347 347 347 348 348 348 349 349 349 349 350 351 351 352 353 352 353 353 352 353 353 353 352 352 353 353 354 354 355 354 354
326 328 329 331 333 334 335 335 335 336 337 337 338 338 339 340 341 343 345 346 348 349 349 349 349 349 348 348 348 348 348 348 348 348 348 348 349 349 349 349 349 349 349 351 351 352 352 352 352 353 353 353 353 353 353 353 353 353 353 354 354 354 354
333 328 329 331 332 333 333 334 335 336 336 337 338 338 340 341 342 343 344 346 348 349 350 350 350 349 349 349 348 348 349 349 349 349 349 349 349 349 349 349 349 349 349 350 349 350 351 352 352 353 353 353 353 353 353 353 353 353 353 353 354 354 354
326 327 328 330 331 333 334 334 335 335 336 337 338 338 339 340 341 342 344 346 348 350 350 351 350 350 350 349 349 349 350 350 351 351 350 350 349 349 349 349 349 349 349 349 349 350 350 352 353 353 352 353 353 353 353 352 352 353 353 353 353 354 353
325 326 327 329 330 332 333 335 335 336 336 337 337 338 339 340 341 341 342 344 347 349 351 352 351 350 350 350 350 350 351 351 351 351 351 350 350 349 349 349 349 349 349 349 349 349 349 349 351 352 352 352 352 353 353 353 353 346 336 340 353 353 354
325 326 327 329 330 332 333 334 335 336 336 336 337 338 339 340 341 342 342 343 345 347 351 352 351 351 351 351 351 352 352 351 351 352 351 351 351 350 350 349 349 349 349 349 349 349 349 349 348 349 351 352 352 351 352 353 353 337 331 332 335 350 353
324 325 326 328 330 331 332 334 334 334 335 336 337 338 339 340 341 341 342 343 344 346 350 351 352 351 351 352 352 353 352 352 352 351 351 351 351 351 350 350 349 349 349 349 348 349 349 348 348 348 349 350 351 352 352 352 339 333 330 330 330 335 353
324 325 326 327 329 331 332 333 333 334 336 337 338 338 340 341 341 341 342 343 344 347 348 350 351 351 352 352 353 353 353 353 352 352 352 351 351 351 351 350 349 349 348 348 349 349 348 348 348 348 348 348 348 350 351 352 337 331 328 328 328 328 338
324 326 326 328 329 330 331 333 334 335 336 337 338 340 341 342 342 343 344 344 345 346 348 349 351 352 352 353 353 353 353 353 353 352 352 353 352 352 351 350 349 349 349 349 349 348 348 348 348 348 348 348 348 348 350 351 338 329 326 325 325 326 331
320 324 325 326 327 329 330 331 332 333 334 336 338 339 340 341 343 344 344 345 345 346 348 349 351 352 352 353 353 354 354 353 353 353 353 353 353 352 351 350 350 349 349 349 348 348 347 348 347 348 348 348 349 348 348 350 335 327 323 322 322 324 326
325 324 323 324 325 325 326 328 331 333 334 338 339 338 339 341 344 345 345 347 346 347 348 350 351 351 353 353 354 354 355 354 353 353 353 353 353 352 351 351 350 350 350 349 349 349 349 348 349 348 348 349 349 348 348 350 332 326 323 321 321 323 335
335 333 333 332 331 332 332 332 333 338 341 338 339 339 339 342 345 346 346 346 347 347 348 349 350 352 353 354 355 355 356 355 355 354 354 353 353 352 352 351 351 351 351 349 349 348 347 347 347 348 348 349 349 348 348 349 336 323 320 319 319 321 338
344 344 343 342 342 340 340 340 341 343 340 340 340 340 341 344 346 346 346 346 347 347 347 348 349 352 354 354 356 356 357 357 356 355 355 354 353 352 353 353 353 352 352 350 349 348 348 348 348 348 348 348 348 349 348 348 339 322 318 317 317 325 340
345 345 347 348 347 347 347 347 347 349 349 347 347 346 341 345 346 346 346 347 347 348 347 347 348 350 352 355 357 358 358 358 357 356 355 355 354 354 353 353 353 353 353 352 351 350 350 349 348 348 348 348 348 342 346 349 341 321 319 316 315 325 342
344 345 346 348 348 349 350 352 352 352 351 351 349 349 341 343 345 347 346 347 347 347 347 348 349 350 351 353 356 358 358 358 358 357 356 355 355 355 354 354 354 353 352 352 352 350 350 349 349 347 347 348 349 349 348 348 349 339 317 315 314 318 341
344 346 346 347 348 352 349 350 350 350 351 352 354 354 353 351 350 350 347 342 341 343 345 346 348 350 351 351 353 355 357 358 358 357 357 357 356 356 355 355 353 353 352 351 352 351 350 349 348 348 348 348 349 349 350 350 350 346 318 314 313 314 325
343 344 347 350 352 349 347 348 348 349 349 350 352 355 356 355 353 351 350 350 349 351 357 353 342 344 348 349 351 353 355 356 358 358 358 358 357 355 354 355 354 353 352 352 351 349 349 349 347 347 347 347 348 348 349 351 342 351 322 316 313 313 315
339 341 342 343 344 348 346 344 344 345 346 348 349 351 352 352 351 350 349 348 348 351 353 354 352 343 344 348 350 352 353 355 356 356 358 358 357 355 354 354 354 353 352 351 350 349 348 348 347 347 346 346 346 347 348 349 348 334 338 316 313 312 312
337 340 341 342 343 343 344 342 342 343 344 345 346 347 348 349 348 350 348 346 350 352 355 353 352 342 341 344 348 351 352 353 355 356 357 358 357 356 355 354 354 353 352 351 350 349 348 347 348 346 345 345 345 346 347 348 350 337 328 328 313 313 312
334 337 339 340 341 342 342 341 340 341 342 343 344 345 345 345 346 347 345 346 351 353 353 354 354 344 340 341 345 349 351 353 354 355 356 357 357 355 354 354 354 352 352 351 350 349 348 348 348 347 346 346 345 345 346 349 349 350 334 323 318 313 312
332 335 338 340 340 340 340 340 340 340 340 341 342 343 345 343 344 343 341 345 351 351 352 355 354 354 349 341 342 345 350 352 353 354 355 356 357 356 356 355 354 353 352 352 351 350 349 349 348 347 347 347 347 346 347 349 350 351 347 332 326 319 313
328 331 334 336 339 340 339 339 339 339 340 339 340 341 342 342 343 343 343 346 347 349 350 353 355 355 354 349 343 342 347 351 352 353 355 355 356 356 356 355 354 353 352 353 352 351 351 350 349 348 348 348 348 348 347 348 350 349 338 336 335 331 327
326 328 331 334 337 339 336 338 337 338 338 337 337 339 339 340 341 342 344 345 346 347 350 354 355 354 352 352 347 345 347 350 359 357 354 355 356 356 355 355 355 354 353 353 353 352 352 352 351 349 350 349 350 349 348 347 347 342 340 334 335 335 333
326 327 329 331 334 337 335 334 337 336 337 336 335 337 337 337 338 340 341 342 343 344 347 350 354 352 349 348 347 346 348 351 355 355 352 335 319 312 311 319 339 352 353 342 343 356 356 354 353 353 354 353 351 350 348 348 343 343 331 338 326 333 334
325 326 328 331 333 333 334 336 334 335 335 333 334 336 336 336 336 337 339 340 340 342 343 346 348 348 348 347 346 347 349 353 354 351 343 335 328 321 316 308 299 302 323 332 319 313 312 325 354 356 355 354 343 335 352 351 350 315 306 307 310 313 316
324 325 327 330 331 333 333 332 336 333 332 330 333 334 334 334 334 335 337 337 338 340 341 342 345 346 347 347 346 345 353 349 346 341 336 334 332 330 326 323 317 300 297 303 306 303 308 311 309 313 331 348 336 312 303 308 302 300 298 299 300 299 299
325 324 328 330 331 332 333 331 331 330 331 330 332 331 332 333 333 332 335 336 338 339 338 340 341 342 344 345 346 344 344 343 341 337 335 332 332 332 332 330 327 323 305 298 299 300 295 295 302 311 319 323 321 315 312 302 298 297 297 298 298 297 297

ECMWFFLT1_sfc_thetae_060.txt.gz
Theta_e
331 331 332 333 334 334 334 335 336 336 336 337 338 340 342 344 345 346 346 346 346 346 347 349 349 349 348 348 349 350 350 349 349 348 348 348 348 348 347 347 347 347 348 349 351 352 354 356 356 357 357 357 357 357 358 359 358 359 360 360 361 360 359
327 330 331 333 333 334 335 336 336 336 337 337 337 339 341 343 344 344 345 346 346 346 347 348 349 349 349 349 349 350 349 349 350 350 349 348 349 349 348 348 347 347 347 349 351 353 354 355 356 356 356 357 357 358 358 358 359 359 359 359 359 359 359
326 328 330 332 333 334 335 336 336 337 337 337 338 338 340 342 344 344 345 345 345 346 347 347 349 348 349 349 349 349 349 349 349 349 348 347 348 348 348 348 348 347 347 348 350 351 354 354 355 356 356 356 356 357 358 358 359 359 359 359 359 358 358
326 327 329 332 333 335 335 336 336 337 337 338 338 338 339 342 344 345 345 345 345 345 345 347 348 348 348 349 349 349 349 350 350 349 349 349 348 349 348 347 348 348 347 347 348 350 353 354 354 355 358 356 356 357 357 358 359 359 359 359 358 358 358
325 327 329 330 332 333 334 335 336 337 337 338 338 340 340 342 343 344 345 346 345 345 346 346 348 348 349 349 349 349 349 349 349 350 350 350 350 349 348 347 347 347 348 348 349 351 352 352 353 353 355 356 355 356 356 357 358 359 359 359 358 358 357
324 326 327 329 331 333 334 335 336 337 337 337 338 338 340 341 342 343 344 345 345 346 347 347 347 349 348 349 349 349 350 350 350 350 350 350 349 348 348 348 348 347 348 348 350 350 351 352 352 353 353 354 355 355 355 356 357 358 359 359 358 358 357
324 326 327 328 330 332 334 335 336 337 338 338 339 340 340 340 341 342 344 344 345 345 345 346 347 348 348 349 349 350 349 349 350 349 350 350 349 348 349 349 350 348 348 350 349 350 350 351 352 352 353 353 354 354 354 355 356 357 358 358 358 358 358
324 325 327 328 330 332 334 335 336 337 338 338 338 338 339 340 341 342 342 343 344 345 345 345 346 348 348 349 349 349 349 349 349 350 350 349 349 348 348 348 350 350 350 348 350 351 351 351 352 352 352 353 353 354 354 355 355 356 357 357 357 357 357
324 326 326 328 329 331 333 335 336 337 337 337 337 338 339 340 340 341 342 343 344 344 345 346 347 348 349 349 349 349 349 349 349 349 349 348 348 348 348 348 349 351 350 349 349 352 351 351 352 352 353 352 353 353 354 354 355 356 356 356 356 356 356
323 324 326 328 330 331 333 334 336 336 336 337 337 338 339 340 340 341 342 342 343 344 345 346 347 348 348 349 349 349 349 349 349 349 349 348 348 348 348 348 348 350 350 350 350 350 352 353 352 353 352 352 352 352 353 354 354 355 356 356 356 356 356
321 324 325 326 328 330 332 333 334 335 336 337 337 338 339 340 340 341 341 342 343 344 345 346 347 347 348 348 348 348 348 348 348 348 348 348 348 348 348 349 349 349 350 351 351 351 351 353 353 353 352 351 352 352 352 353 354 354 355 356 357 356 356
319 322 324 325 327 329 330 332 334 336 336 337 337 337 339 340 341 341 342 342 343 344 344 345 346 347 347 347 347 348 348 348 348 348 348 348 348 348 349 349 349 349 350 350 351 351 352 352 353 353 352 353 353 353 353 353 354 354 354 355 356 356 356
317 320 323 325 327 329 331 333 334 335 336 336 337 337 338 339 340 341 342 343 343 344 345 345 346 346 346 347 347 347 347 347 348 348 348 349 349 349 349 349 349 349 349 351 350 351 351 352 352 353 353 353 354 353 354 353 353 354 354 355 355 356 356
324 320 323 325 326 328 330 332 334 335 336 336 336 337 338 340 341 342 342 342 344 344 345 345 346 346 346 346 346 347 347 348 348 348 349 349 349 349 349 349 349 350 350 351 350 350 351 351 351 352 353 353 354 354 355 354 354 354 354 355 355 355 355
317 320 322 324 326 329 330 331 333 334 335 336 337 337 338 339 340 342 343 344 344 345 345 346 346 345 346 346 346 346 348 348 349 349 349 349 349 349 349 349 349 350 350 350 350 351 351 352 352 352 352 353 354 354 354 354 354 354 354 354 354 355 355
317 321 322 324 326 329 331 332 334 335 336 336 336 337 337 338 340 341 342 343 344 345 346 347 346 345 345 345 346 347 348 349 349 349 349 349 349 349 349 349 349 349 349 349 350 351 351 352 352 352 352 352 353 353 353 354 354 346 335 339 353 354 355
318 321 323 325 327 329 331 333 334 335 336 336 337 337 337 338 340 341 342 343 344 345 347 347 346 346 346 346 347 348 349 349 349 349 348 349 349 349 349 349 349 350 349 349 350 350 351 351 350 351 352 352 352 352 353 353 352 336 331 331 334 350 355
319 322 324 326 328 330 331 333 334 334 335 336 337 337 338 339 339 340 341 343 344 346 347 347 347 346 347 347 348 348 349 349 349 349 349 349 349 349 350 350 350 349 349 349 349 350 350 349 349 350 350 351 352 352 352 353 339 332 330 330 329 334 353
320 322 324 327 329 331 331 333 334 335 336 337 337 337 338 339 339 340 341 343 345 347 347 347 347 347 348 348 349 349 349 350 349 350 350 350 350 350 350 350 349 349 349 349 350 350 349 349 349 349 350 350 350 350 352 353 337 331 328 328 328 327 338
320 323 325 327 330 331 332 334 335 336 337 338 338 339 340 341 340 341 342 344 346 347 348 348 348 348 348 349 349 350 350 350 350 350 350 351 351 351 350 350 349 349 350 350 350 350 349 349 349 349 349 349 349 349 350 351 338 329 326 326 325 326 331
319 323 324 327 329 331 333 334 335 336 337 338 339 340 340 340 341 342 342 343 344 346 348 349 349 349 350 350 350 351 351 351 351 350 351 351 351 351 351 350 350 350 350 350 350 349 349 349 349 349 349 349 349 349 349 349 334 327 323 322 322 324 327
319 322 324 326 329 330 332 334 335 336 337 340 340 340 340 340 341 341 341 343 343 345 347 349 349 349 350 350 351 351 352 352 351 351 352 352 352 351 351 351 351 350 351 351 351 351 351 351 350 349 349 350 350 349 348 350 331 325 323 321 320 322 336
330 322 324 326 328 329 333 335 335 336 340 338 339 339 340 341 342 342 342 342 342 344 345 348 348 349 350 351 351 352 353 353 352 352 352 352 352 351 351 351 351 352 352 351 351 350 350 350 350 351 350 350 350 349 349 350 336 323 320 319 318 321 340
340 331 327 328 329 329 332 333 336 339 337 337 338 339 340 341 342 342 342 342 342 343 344 346 347 349 351 351 352 353 354 354 353 353 353 353 352 352 352 353 353 352 353 351 350 350 350 351 351 351 351 350 350 350 349 350 340 322 318 317 317 325 343
344 343 335 331 331 331 333 336 337 338 338 337 336 337 341 342 343 342 342 343 342 343 343 345 347 349 350 351 353 354 354 355 354 354 353 353 353 353 353 353 353 354 354 353 353 352 352 352 351 351 351 351 350 342 347 350 342 322 318 316 315 325 344
344 345 345 345 338 336 338 342 341 337 336 336 337 339 342 343 343 344 343 343 343 343 343 345 347 349 351 352 353 354 355 355 355 355 354 354 354 355 354 355 355 355 354 354 353 353 353 352 352 350 350 351 351 350 349 350 351 342 317 315 314 317 343
344 346 346 348 348 351 347 346 343 341 340 340 340 340 342 343 343 344 345 345 344 344 344 347 349 351 352 353 354 355 355 356 356 355 356 356 355 355 355 356 355 355 354 353 353 353 353 352 352 351 351 351 351 351 351 351 350 347 318 314 313 314 323
341 342 344 347 351 350 348 348 349 350 350 350 346 344 344 345 346 347 347 346 346 351 356 354 349 351 352 353 354 355 356 356 357 358 357 358 358 356 356 357 357 356 355 355 354 353 352 352 351 351 351 351 351 351 351 351 341 352 323 315 313 313 313
337 338 339 340 341 345 345 344 345 346 348 351 351 351 351 351 350 351 351 351 352 355 356 357 355 349 351 352 353 355 356 357 358 357 358 358 358 357 356 357 356 356 356 355 354 353 352 352 352 351 350 351 351 352 352 353 350 332 341 317 312 311 311
334 337 339 340 341 341 343 341 341 342 344 346 349 351 352 351 350 351 351 350 353 355 359 357 356 350 348 350 352 353 355 357 358 359 359 359 359 358 357 357 357 356 356 355 353 352 352 352 352 351 350 349 349 350 351 352 353 336 328 331 313 312 310
330 333 336 338 339 341 341 340 339 340 341 343 344 346 348 350 350 350 349 350 354 354 356 355 350 344 346 347 349 351 353 355 357 358 359 359 359 357 357 357 356 355 355 355 353 352 351 351 351 350 350 349 349 349 350 351 351 352 335 324 318 312 311
328 331 332 335 338 340 340 340 340 339 339 340 343 344 346 346 348 347 347 350 354 353 356 357 356 354 348 344 345 347 351 352 353 355 357 358 359 358 358 357 356 354 354 354 353 352 351 351 350 349 349 349 349 349 350 350 351 351 350 333 328 320 313
325 327 330 332 335 339 338 339 338 338 338 338 340 342 343 344 345 346 347 348 349 354 356 357 356 356 354 351 346 345 348 351 351 352 354 356 357 358 358 358 356 355 353 353 353 352 351 351 350 349 349 348 349 350 350 350 351 352 352 348 343 340 334
323 325 328 331 334 338 337 337 337 337 337 337 338 339 340 341 341 342 344 345 348 351 354 355 355 353 352 351 351 347 347 349 355 354 352 354 355 355 356 356 356 355 354 353 353 352 351 351 350 349 349 349 350 350 350 350 351 352 352 348 347 345 343
324 324 327 330 333 336 335 336 336 335 337 336 336 337 337 338 339 341 342 343 345 348 351 353 354 352 350 351 351 350 351 349 352 355 353 353 344 322 318 325 351 355 356 356 357 356 355 353 353 352 353 353 352 351 350 351 351 351 335 349 331 341 344
324 324 326 329 332 333 335 336 336 335 335 335 335 336 336 336 337 339 341 342 343 346 348 350 349 349 349 349 350 350 353 351 352 354 352 346 336 327 318 307 298 303 327 345 319 316 318 331 352 355 356 354 355 350 354 353 355 333 320 319 315 315 320
324 323 325 328 329 330 333 334 337 336 336 334 335 335 335 335 336 337 338 340 342 344 344 346 347 347 347 348 349 348 353 353 352 349 345 342 337 335 330 327 320 299 296 304 309 303 302 309 312 318 333 351 349 319 306 308 311 313 312 311 310 310 310
327 325 326 327 328 329 330 332 333 333 334 333 333 332 333 335 334 335 338 339 340 341 342 344 346 346 345 347 348 348 348 347 346 342 341 339 338 337 336 336 333 328 304 297 299 299 295 294 300 310 315 320 330 326 324 305 300 301 302 302 302 301 299

ECMWFFLT1_sfc_thetae_066.txt.gz
Theta_e
341 342 344 345 346 346 348 349 352 351 353 354 355 355 355 356 357 360 360 361 363 364 365 364 363 362 360 359 361 361 360 362 362 361 362 361 361 360 360 358 358 359 356 356 359 359 364 366 365 366 367 368 367 367 370 371 370 367 368 369 367 366 366
336 339 341 343 345 346 348 351 352 352 353 354 355 356 356 357 358 358 360 362 363 364 364 364 364 362 361 360 360 361 362 361 362 362 363 363 363 362 362 362 360 361 361 358 358 364 365 366 367 365 366 367 367 368 367 370 370 369 365 367 365 365 366
333 336 340 343 344 345 348 349 351 351 353 353 354 355 355 357 359 360 360 361 363 364 364 364 364 362 362 362 361 361 361 360 360 360 360 360 362 359 362 364 362 361 361 361 362 363 366 366 370 368 367 366 362 365 368 368 369 368 367 368 366 363 366
331 333 338 343 346 347 348 348 350 351 351 352 354 355 356 358 360 360 361 361 362 363 363 364 364 362 362 362 362 362 361 361 361 359 359 361 362 362 361 363 364 362 361 362 361 361 362 366 367 369 369 367 366 365 365 366 365 367 367 368 365 364 366
329 332 335 341 344 346 347 347 349 351 351 352 354 356 357 358 358 359 360 361 361 362 362 363 362 363 364 364 362 362 361 361 360 360 361 362 364 364 362 361 362 362 360 362 363 364 365 366 365 367 369 370 367 367 366 368 366 367 367 368 365 363 363
329 331 332 337 343 344 346 347 348 349 350 350 352 354 355 357 357 357 359 360 361 361 363 364 363 363 363 363 362 361 362 363 363 363 362 363 364 362 362 362 361 362 359 361 362 363 365 365 364 365 365 366 364 361 363 366 365 364 366 367 366 363 360
329 332 334 337 341 344 346 347 347 349 350 350 352 354 355 355 355 356 357 358 360 360 360 361 361 362 363 363 363 364 364 363 363 363 362 363 364 363 363 363 363 362 362 363 362 363 364 365 365 364 365 364 365 362 363 365 364 364 365 367 367 366 366
329 331 336 339 341 343 344 347 348 349 350 350 351 352 353 353 354 355 357 358 358 358 359 359 359 362 364 363 363 363 363 363 363 364 364 364 363 363 362 363 363 364 364 361 363 364 363 365 365 364 364 364 365 366 364 366 368 365 364 365 367 367 363
329 333 337 338 341 341 344 347 348 348 349 350 350 351 352 353 353 354 356 356 357 357 358 358 359 361 364 363 364 364 364 364 364 365 364 362 362 360 361 362 364 364 362 361 361 364 364 363 363 365 366 365 365 367 366 367 368 368 365 365 367 367 364
328 332 338 339 339 340 345 347 349 350 349 349 349 351 351 352 354 354 355 355 356 356 356 358 359 360 363 363 363 363 364 364 364 363 362 361 360 360 361 361 362 363 362 361 360 361 364 364 364 365 367 365 366 367 368 368 366 367 367 366 366 367 367
326 334 339 339 339 340 343 345 347 349 349 352 350 349 351 352 352 354 354 355 354 355 356 358 360 360 361 362 361 362 363 362 362 362 362 361 360 360 360 360 360 362 362 362 360 360 363 364 365 366 366 365 365 366 367 367 368 367 364 364 366 366 365
333 334 342 343 342 341 342 345 349 351 352 352 349 349 351 352 351 352 353 354 355 355 356 357 358 360 360 361 360 361 362 362 362 361 361 361 360 360 360 360 360 361 362 362 361 361 360 363 364 363 366 367 367 367 368 369 368 369 367 362 363 366 365
325 333 340 342 345 344 347 350 350 352 353 350 349 349 349 350 351 351 353 354 354 356 356 357 358 360 360 361 360 361 361 362 362 362 361 362 361 360 360 360 360 360 361 362 362 360 359 360 364 365 365 367 368 366 367 368 368 368 369 366 364 365 366
333 325 331 336 341 343 345 347 350 352 353 351 349 349 350 350 350 351 353 353 354 355 356 357 358 359 360 361 360 361 360 362 363 362 363 363 365 363 361 360 360 361 362 363 363 360 359 359 361 364 364 366 367 367 368 368 368 369 370 370 366 364 365
324 323 326 329 338 344 345 345 349 352 353 352 350 350 350 350 351 352 353 354 355 354 355 358 357 358 359 360 360 362 364 364 364 364 365 365 365 363 362 362 362 362 363 364 363 361 361 360 360 363 365 365 367 367 366 365 366 367 368 369 368 366 363
329 327 324 325 333 339 346 347 350 353 355 354 351 350 349 350 352 351 351 352 353 355 355 357 357 358 358 359 361 363 365 365 366 366 365 365 365 365 364 363 363 362 363 363 364 364 364 363 362 362 363 364 366 367 366 365 365 359 343 351 368 368 363
334 337 339 340 335 335 342 346 348 354 355 355 352 351 350 351 352 351 351 352 353 354 356 356 357 357 358 360 362 364 365 365 365 366 365 365 365 366 366 364 364 364 365 365 365 365 366 364 363 362 362 363 364 365 364 364 362 342 334 336 342 364 368
341 344 345 346 349 347 337 341 345 349 352 352 351 350 351 352 352 351 350 352 353 353 354 356 357 357 360 361 363 365 365 364 366 366 365 366 366 367 367 366 366 365 366 365 365 366 366 364 364 364 362 362 364 363 364 364 347 333 332 334 334 344 365
343 344 346 348 349 351 349 339 338 347 350 350 350 349 350 352 351 352 352 353 354 355 354 354 356 359 361 361 363 365 366 366 366 365 366 366 367 368 367 366 365 365 365 364 366 366 366 366 364 364 364 362 363 362 363 364 342 330 329 331 331 333 347
343 344 346 348 350 351 354 351 341 339 349 352 352 349 351 354 352 352 353 354 355 354 355 356 358 360 360 362 364 366 367 366 366 366 366 367 368 368 367 366 365 365 364 364 366 366 365 364 365 365 366 364 364 364 363 364 342 328 326 327 328 330 338
340 342 345 348 350 351 354 355 345 338 343 348 349 351 351 352 352 354 353 354 354 355 357 357 358 359 361 362 365 367 366 366 366 366 367 367 367 367 367 366 366 365 364 363 363 364 365 364 364 365 366 365 364 363 361 361 334 325 324 324 324 326 333
336 340 344 348 349 352 354 353 346 335 337 349 347 349 350 351 352 352 352 353 353 353 355 357 358 359 361 363 364 365 366 365 365 366 367 367 366 366 365 366 366 366 364 363 363 364 365 365 364 364 364 364 364 362 362 362 333 323 322 321 322 324 348
334 340 345 349 351 351 353 352 347 339 341 347 347 347 348 351 352 352 351 351 352 354 354 356 358 359 361 361 362 363 365 364 363 365 365 365 365 365 364 365 365 366 367 363 362 361 361 363 363 365 363 364 364 363 363 363 341 321 319 319 319 327 356
335 343 347 349 352 352 349 345 344 342 340 348 348 347 349 352 352 352 352 351 352 353 353 355 356 359 362 361 363 364 364 364 364 364 365 365 364 364 364 364 365 365 366 363 361 358 360 362 363 364 364 363 363 363 363 363 345 319 317 317 316 333 357
337 344 347 350 351 350 344 345 346 343 346 350 346 347 351 352 352 351 351 352 352 352 353 354 357 359 361 361 362 364 364 364 364 365 364 365 365 364 364 364 365 365 365 363 362 360 361 362 362 362 364 362 362 353 359 363 348 318 318 316 315 335 360
338 344 347 350 353 354 352 350 350 345 347 347 347 349 353 352 352 353 352 351 352 352 353 356 358 361 363 362 363 364 364 364 365 365 364 365 366 365 364 365 363 364 363 363 362 361 360 360 361 361 361 362 362 361 361 361 365 343 316 315 314 321 358
339 345 348 349 351 355 352 350 349 347 345 348 352 350 352 351 351 352 355 355 354 353 354 358 361 363 364 364 362 362 363 363 364 364 365 366 366 364 364 364 363 363 364 362 361 361 361 360 360 359 361 361 363 363 362 362 363 358 314 314 313 316 331
336 343 348 350 352 353 353 349 350 348 346 351 352 351 351 352 353 355 356 355 354 356 357 360 363 364 365 364 363 362 363 363 365 365 364 366 367 366 364 365 365 364 363 361 362 363 362 363 362 360 360 362 364 366 366 364 354 374 320 315 312 314 318
329 337 343 348 350 352 353 350 347 346 348 350 350 350 352 352 355 356 357 354 358 358 360 362 364 365 365 365 362 363 363 364 365 365 364 365 367 367 364 364 364 365 366 365 364 364 363 364 364 363 361 364 365 366 368 370 367 339 344 315 313 311 314
324 337 342 347 348 350 352 355 350 347 350 351 352 353 353 354 357 358 357 357 362 361 361 364 365 367 366 364 363 363 364 365 365 366 367 366 367 367 366 365 364 365 365 366 364 363 363 363 365 364 362 361 363 364 366 370 370 345 333 330 312 312 311
320 332 337 343 347 352 352 354 357 349 353 354 355 356 357 358 360 361 359 362 363 363 362 365 367 366 366 364 363 364 365 365 366 367 366 367 367 367 365 366 366 364 367 367 365 364 364 365 365 364 363 361 361 363 366 368 369 371 346 325 315 312 311
319 330 335 342 347 349 351 353 356 356 357 356 355 356 359 362 363 361 361 364 364 364 366 367 368 367 366 365 365 365 364 365 365 368 368 367 367 368 368 366 365 364 366 365 364 366 365 364 364 365 364 361 362 364 366 369 370 371 367 338 326 319 313
318 326 331 335 341 346 351 350 350 352 355 355 358 359 357 359 359 362 365 369 364 362 369 368 368 365 366 365 363 366 365 365 365 366 368 368 365 366 367 366 365 365 365 365 364 365 364 364 364 363 362 361 362 364 366 369 369 370 371 364 354 348 337
318 326 330 335 339 343 346 349 350 350 352 355 357 359 360 361 363 367 367 364 362 363 367 365 365 362 364 363 363 364 364 364 364 364 364 366 365 362 364 366 365 365 365 365 366 365 365 365 363 364 365 362 362 364 365 367 368 369 370 369 366 361 357
319 327 330 333 336 340 342 345 347 350 352 353 356 357 360 363 364 366 368 366 365 368 367 364 362 363 362 361 361 362 365 363 363 362 363 366 367 366 366 368 367 367 368 371 371 369 367 368 366 367 366 365 365 365 367 369 369 372 348 380 346 361 363
321 326 328 332 335 337 340 343 346 347 350 352 354 354 355 358 360 363 367 369 372 373 369 367 365 362 360 359 359 360 362 361 360 362 362 363 365 366 362 313 303 324 367 371 345 343 338 339 369 373 369 367 369 373 369 370 372 344 331 330 327 327 331
321 325 327 331 333 334 337 340 344 345 346 347 349 350 352 354 355 358 361 366 371 371 372 369 364 365 364 367 365 362 365 363 362 364 365 364 365 368 367 361 344 298 296 308 316 308 309 312 313 315 323 363 371 365 343 339 321 319 317 317 316 315 317
319 323 327 330 333 333 335 337 339 343 344 344 345 347 348 348 351 354 358 362 365 369 371 372 369 367 366 368 368 367 372 367 365 366 367 367 368 370 368 365 363 359 304 295 303 304 303 305 308 310 314 313 323 346 372 334 315 310 310 309 310 310 309

ECMWFFLT1_sfc_thetae_072.txt.gz
Theta_e
338 339 339 340 340 339 342 346 348 347 348 349 350 350 349 350 353 356 357 359 361 362 363 363 364 364 362 361 362 362 362 361 361 358 356 355 353 356 356 355 355 355 353 356 356 357 361 363 366 362 365 368 367 368 373 372 372 370 373 374 373 372 366
335 336 339 340 341 344 345 346 348 348 349 350 350 352 349 350 354 355 357 361 362 362 362 363 364 363 362 361 362 363 363 363 362 361 359 358 357 359 360 358 357 358 358 356 360 361 362 359 364 363 364 367 366 370 368 371 372 371 369 372 370 372 371
334 336 339 341 340 341 343 345 352 350 350 349 349 351 351 353 355 356 358 360 362 363 363 362 363 362 362 362 362 362 363 362 363 362 358 355 356 352 359 361 360 359 356 357 362 360 360 360 362 367 364 363 362 368 369 369 371 370 371 372 368 367 370
334 333 336 338 340 341 341 345 347 353 355 353 355 355 355 355 357 358 359 359 360 362 361 361 361 360 361 362 362 361 362 363 363 360 358 357 356 354 356 360 361 358 357 354 353 357 354 358 361 364 367 365 365 366 366 365 366 369 369 370 368 367 370
336 338 337 339 342 344 345 345 347 352 351 352 353 354 354 354 356 357 359 359 361 361 362 361 360 360 362 362 360 360 360 361 362 362 361 361 360 357 355 354 358 356 357 356 354 356 363 360 361 361 364 366 364 367 366 366 366 369 369 369 367 366 366
336 337 339 341 341 343 344 346 348 349 350 349 350 352 353 356 358 354 355 360 361 363 364 363 360 362 361 361 360 358 360 361 362 363 363 363 363 359 356 355 355 356 354 357 356 354 358 363 359 361 360 360 359 358 361 363 363 366 368 368 367 365 361
334 334 337 342 340 341 342 343 346 349 348 349 349 353 354 352 351 355 356 361 361 362 362 361 360 361 361 361 359 360 360 359 361 361 362 361 363 361 359 357 357 356 356 358 357 356 354 359 360 362 363 360 359 357 358 362 363 363 366 366 367 367 366
335 335 336 336 337 337 339 342 344 347 350 351 354 352 354 353 354 354 353 359 361 362 362 361 360 360 360 360 359 358 359 359 359 360 362 360 360 360 360 358 358 360 359 356 359 359 354 356 358 362 363 362 361 360 360 363 366 363 364 365 366 365 363
333 335 334 334 337 339 340 342 343 346 350 350 348 349 349 351 351 350 353 358 357 361 362 362 361 361 362 361 360 360 359 360 360 361 360 359 359 358 358 359 358 360 359 354 353 359 357 357 355 360 364 363 364 363 361 364 364 363 362 364 365 364 362
330 336 336 335 339 343 344 342 346 349 349 349 350 349 350 351 351 351 352 355 355 359 362 363 363 362 361 360 359 359 360 360 360 359 358 358 358 357 359 358 357 359 358 355 353 355 359 360 357 361 365 364 365 365 361 364 363 362 362 364 365 364 364
327 334 336 335 336 339 343 346 346 347 347 347 347 348 349 351 352 352 350 353 354 356 362 363 363 362 361 360 359 357 358 358 359 358 358 358 357 357 357 358 357 358 356 356 353 355 357 361 361 361 363 362 363 365 363 362 363 362 360 362 364 365 364
329 332 337 337 337 339 339 343 346 347 347 348 348 347 350 352 353 351 351 353 357 359 362 363 363 362 360 360 358 358 359 359 359 358 358 357 357 355 356 356 358 359 358 358 355 356 356 359 360 361 362 361 361 363 365 365 364 364 362 360 361 363 363
322 334 337 336 336 341 342 343 344 349 349 347 346 347 350 352 351 351 351 352 352 354 360 363 363 362 361 360 358 358 358 358 359 359 358 359 357 356 357 357 358 358 357 358 356 354 354 356 359 362 364 363 362 361 364 366 365 365 365 363 362 362 362
338 327 335 336 336 343 344 345 348 350 351 348 346 346 346 350 352 353 354 354 356 358 358 362 363 363 363 361 360 359 358 360 358 358 361 360 359 359 358 357 357 358 360 359 357 354 353 355 357 361 363 364 363 363 364 366 365 366 367 365 363 362 362
323 323 332 332 336 345 341 346 346 349 350 349 346 346 348 350 351 354 355 356 359 356 359 363 363 362 361 361 360 360 360 361 361 362 362 361 361 360 358 358 358 359 361 362 359 356 354 354 357 358 360 363 364 364 364 364 365 365 366 365 364 362 360
329 328 334 337 339 341 348 346 353 355 353 351 349 350 349 351 354 352 354 358 357 359 359 362 362 361 360 360 361 362 362 364 362 362 363 362 362 361 360 359 359 357 359 361 360 360 359 355 359 360 360 361 364 364 363 363 364 359 348 354 363 362 357
333 334 336 337 341 340 345 347 354 360 364 357 354 353 352 354 354 356 356 357 358 360 360 360 361 360 361 362 363 364 364 364 362 363 364 363 363 362 362 360 359 358 359 362 361 360 362 358 357 358 360 360 361 362 361 361 360 346 338 341 348 360 359
332 335 335 336 338 342 345 343 346 344 347 349 351 356 354 358 356 355 353 356 357 358 359 359 359 358 361 364 365 366 365 363 364 364 364 364 363 363 363 362 361 360 360 361 361 362 362 359 358 358 360 360 361 361 362 363 351 336 335 337 339 350 361
333 334 334 336 338 341 343 347 350 350 342 347 348 346 347 351 352 354 356 357 358 359 358 357 358 360 362 365 366 367 366 365 365 364 364 364 364 364 363 362 362 361 359 359 362 364 363 361 359 358 359 360 361 361 362 362 344 332 333 335 335 337 354
331 332 334 336 337 340 343 346 347 349 351 355 358 350 351 352 346 351 355 354 359 357 359 360 360 361 362 365 367 368 367 366 366 365 365 365 366 365 363 361 361 360 360 359 362 364 362 362 360 360 360 360 363 362 362 363 343 329 330 331 332 334 343
329 330 333 334 336 338 342 346 349 350 351 350 354 355 350 350 351 350 353 356 354 358 362 361 362 362 362 365 368 369 368 367 367 366 366 366 366 366 364 362 362 362 359 357 358 362 363 360 359 360 360 359 361 363 360 361 336 325 326 327 328 332 338
327 328 329 332 334 337 340 342 345 346 349 355 353 352 353 348 346 345 344 350 351 353 358 362 362 364 364 366 368 369 368 368 367 368 367 367 366 365 364 363 362 362 360 358 356 360 363 364 361 361 360 360 358 357 359 358 328 324 324 325 326 330 348
326 326 328 330 332 334 339 343 345 347 354 353 354 352 350 348 347 344 342 347 349 352 354 358 363 364 364 365 368 368 369 368 367 368 368 367 366 365 364 363 363 363 363 359 357 356 359 361 360 362 361 359 359 357 358 359 332 321 321 322 324 329 355
325 326 328 329 332 334 337 340 344 349 351 352 353 354 354 349 348 346 348 345 344 347 349 353 360 364 364 365 368 368 368 368 368 368 368 367 366 366 365 365 364 362 363 359 356 355 358 361 363 363 362 360 359 359 359 359 342 317 319 320 320 335 358
323 325 327 329 330 332 334 337 341 345 350 353 352 354 354 355 353 345 348 347 342 343 346 352 358 363 364 365 367 369 370 370 369 369 368 368 368 367 367 365 364 363 364 359 359 360 362 364 363 362 361 360 360 356 359 358 345 314 319 317 317 334 358
323 324 326 328 330 332 334 338 341 344 346 349 354 356 357 354 353 351 343 343 345 344 349 354 358 363 366 366 367 370 371 370 371 371 369 370 370 370 370 369 365 363 361 360 359 358 359 362 363 362 361 361 360 362 362 360 361 332 316 315 316 323 358
322 323 324 326 327 331 333 336 339 341 345 349 355 357 358 351 350 351 347 344 348 349 351 356 360 364 368 367 365 367 370 370 371 371 372 372 371 369 369 367 365 364 364 360 359 358 358 358 361 360 362 361 362 361 361 362 363 344 314 314 315 318 335
320 321 323 325 327 329 331 334 339 342 346 350 353 356 358 357 355 353 355 349 349 353 354 358 363 365 368 367 366 367 368 370 372 372 371 373 373 371 369 369 368 367 366 363 361 360 359 358 359 359 360 361 363 363 364 361 350 358 316 315 313 316 322
317 318 319 321 323 327 331 334 337 342 346 349 353 357 360 355 353 352 357 357 355 356 359 363 364 367 369 368 367 369 370 371 371 370 369 371 373 371 368 369 368 369 368 366 365 363 361 361 359 357 358 362 364 366 366 367 362 342 333 315 313 313 316
317 317 319 321 323 326 330 333 336 339 345 351 355 359 361 357 354 354 358 361 361 359 364 367 368 369 369 367 368 369 369 370 370 370 370 371 372 370 368 368 368 369 369 368 366 363 361 361 361 359 356 357 361 361 363 368 370 342 328 324 312 313 314
315 316 317 319 321 326 329 332 334 339 349 358 362 363 364 362 360 365 365 366 365 364 369 368 368 368 368 368 368 369 369 370 370 370 371 371 371 369 368 368 368 367 369 369 366 364 362 361 362 359 357 355 356 358 361 365 367 362 334 321 315 313 313
316 318 319 320 322 324 328 332 336 345 353 356 360 365 365 366 364 367 368 370 367 370 373 369 368 367 368 367 367 368 367 368 367 370 371 371 370 370 369 366 365 365 367 366 364 364 363 362 360 360 359 357 357 357 360 364 366 369 351 328 321 317 314
316 318 319 319 321 324 327 332 336 346 351 353 358 362 367 355 363 376 376 370 369 372 373 370 368 366 367 367 366 367 367 366 365 367 368 370 368 367 367 366 365 364 364 364 361 361 362 362 360 360 359 359 358 359 360 361 364 368 359 344 338 332 329
317 318 319 320 322 324 329 332 333 343 347 351 354 358 363 362 360 368 369 366 363 370 371 368 366 366 367 366 366 366 366 366 364 364 363 365 366 365 365 365 365 363 363 361 362 361 361 361 360 359 360 359 359 359 359 359 361 363 367 354 348 343 341
318 319 319 320 322 326 330 330 330 339 344 345 348 354 352 355 355 363 369 374 368 374 369 368 363 366 366 364 363 363 364 365 366 365 363 365 367 368 367 365 364 364 365 366 368 366 363 362 362 363 363 363 363 361 360 359 359 363 345 359 336 346 349
319 319 319 321 324 327 328 328 330 337 340 340 344 345 348 348 352 355 352 349 358 375 369 368 366 367 364 363 362 361 362 362 363 364 362 364 364 365 358 323 313 341 366 364 353 345 339 340 361 364 363 363 367 368 364 365 364 342 330 323 322 323 326
318 318 319 322 324 324 325 326 329 333 337 339 340 341 341 344 346 349 352 352 349 349 363 371 367 366 365 363 363 359 361 362 362 363 365 365 364 366 360 356 345 307 297 323 346 328 312 316 322 329 338 368 367 363 324 335 341 331 320 315 318 317 318
318 320 322 323 324 322 323 324 325 328 333 337 338 338 340 341 343 346 350 354 353 349 343 344 360 365 364 364 364 361 361 365 365 364 366 365 366 370 362 360 358 353 316 299 311 311 304 304 304 305 306 310 331 363 360 326 316 313 310 312 314 315 313

ECMWFFLT1_sfc_thetae_078.txt.gz
Theta_e
336 337 337 337 337 338 338 338 338 339 339 340 340 340 340 341 343 341 343 344 344 344 345 348 347 346 346 347 346 343 342 343 342 343 340 338 339 341 340 338 342 346 348 348 350 350 352 355 354 356 356 356 356 357 357 358 357 357 354 358 356 355 356
334 336 337 338 337 338 338 339 338 339 339 340 341 341 341 342 343 342 343 344 344 345 346 347 349 346 345 346 347 344 342 343 343 347 343 340 340 341 343 341 341 345 348 349 350 350 351 354 354 355 356 357 356 357 358 357 357 356 354 356 355 356 355
333 335 336 337 337 337 338 340 339 339 340 340 341 342 342 342 343 344 343 344 344 345 347 348 349 347 346 346 346 345 343 343 343 344 343 340 339 339 342 342 341 344 347 349 350 350 352 352 353 354 355 356 356 356 358 357 357 357 356 356 355 355 354
333 334 336 337 338 338 338 340 340 339 341 341 341 342 343 343 344 346 345 345 344 345 346 348 349 348 347 345 345 346 344 343 343 343 344 343 340 340 340 341 342 342 343 346 349 351 353 352 352 352 360 355 355 355 357 358 357 358 357 357 355 355 354
332 334 335 336 337 337 338 339 340 340 340 342 342 344 344 345 346 346 347 346 346 346 346 348 350 350 349 347 346 346 346 344 343 343 343 344 344 342 340 340 340 341 342 343 346 350 351 351 351 351 353 355 355 355 355 358 358 358 357 357 355 356 355
331 332 334 335 336 337 338 339 340 341 340 341 342 343 344 345 346 346 347 348 347 348 348 348 350 351 349 348 347 346 347 346 344 345 343 343 343 344 342 340 340 340 342 342 344 345 348 350 350 351 351 353 354 354 355 355 358 358 357 357 356 356 356
331 332 333 334 336 337 338 339 340 342 341 343 344 344 345 345 346 347 348 348 348 347 348 348 350 351 350 350 348 348 346 347 345 344 345 343 342 343 344 343 342 340 340 343 343 344 344 345 347 348 351 352 354 353 354 354 356 358 357 357 356 356 356
331 332 333 334 336 337 338 339 340 341 342 342 344 344 344 345 346 347 348 349 349 348 348 349 350 351 351 351 350 348 347 347 347 346 345 344 343 342 343 344 344 342 341 341 344 345 344 343 344 346 348 352 353 353 354 354 354 357 357 356 356 356 357
331 332 333 335 336 337 339 339 340 341 341 341 343 344 344 345 346 347 348 349 350 349 349 350 351 352 353 352 350 349 349 349 348 347 346 345 344 343 342 343 345 345 343 341 342 346 346 345 343 344 344 348 352 352 353 354 354 355 357 357 356 356 356
330 331 333 336 338 338 339 340 341 341 341 341 342 343 344 345 346 347 349 350 351 350 351 351 352 352 353 352 352 351 350 349 349 348 347 345 345 344 343 342 343 347 345 344 343 343 346 347 346 345 345 344 348 352 353 354 355 355 356 356 356 356 355
331 331 333 335 336 337 338 338 340 341 341 341 342 343 344 345 345 346 347 350 351 351 352 353 353 353 353 353 352 352 351 350 350 349 348 347 346 345 345 344 343 345 347 346 345 344 344 346 347 347 346 346 346 349 352 353 354 354 354 356 357 357 356
333 333 333 334 336 336 337 338 339 341 341 342 342 343 344 345 345 346 347 349 352 352 353 353 354 354 354 354 353 352 352 351 351 351 350 349 348 347 346 345 344 343 345 347 346 346 345 344 345 348 347 347 347 348 350 352 354 354 354 354 356 356 357
332 333 334 333 335 336 337 337 338 339 341 342 343 343 344 345 345 346 346 348 351 353 353 354 354 354 354 354 354 353 353 352 351 351 351 351 351 350 349 347 346 345 344 347 347 347 346 346 344 345 348 349 348 348 349 351 352 354 354 353 354 355 356
334 329 331 333 335 336 334 336 337 338 340 342 343 344 345 346 346 346 347 347 350 353 354 355 355 354 354 354 354 353 353 353 353 353 352 352 352 352 351 350 349 348 346 346 346 347 347 347 346 344 345 349 350 350 350 350 350 352 353 353 353 353 354
322 324 325 326 328 332 334 337 337 338 340 342 344 344 345 346 346 347 348 349 351 353 354 355 355 354 354 354 353 353 354 354 354 354 353 353 352 352 352 352 351 351 349 348 347 348 347 348 348 346 344 346 349 351 351 351 350 351 351 352 352 353 353
319 320 322 323 325 327 329 332 335 340 342 342 345 344 345 345 346 346 347 349 351 353 354 355 355 354 354 354 354 354 355 354 354 353 353 352 351 351 352 352 352 352 352 350 349 348 348 347 348 348 346 344 347 350 352 352 353 349 341 345 353 352 353
318 319 320 322 323 324 327 330 331 334 337 340 342 346 344 345 346 347 348 348 351 352 354 355 355 355 355 354 355 355 355 355 354 353 352 352 351 351 351 351 352 352 352 352 350 349 349 348 347 347 348 346 345 347 351 353 354 342 335 336 341 351 352
317 317 319 322 324 323 324 327 329 330 331 335 336 339 345 346 345 347 347 348 348 351 353 354 354 354 355 356 356 356 355 355 354 353 352 352 351 351 351 351 351 351 351 351 351 350 350 349 347 347 348 348 347 346 349 351 345 335 333 334 334 342 353
316 317 318 320 322 323 323 324 326 329 331 333 334 337 341 345 346 346 347 347 348 350 351 352 353 353 354 355 356 356 356 355 354 353 353 352 352 351 351 350 350 350 350 350 351 351 349 348 348 347 347 348 347 347 348 349 341 333 331 332 332 333 346
316 318 318 319 321 323 324 323 324 327 329 331 334 338 340 343 345 348 349 349 349 349 349 350 350 351 352 354 355 356 356 355 354 353 353 353 352 352 351 350 350 350 351 351 351 351 350 349 348 347 347 348 348 348 349 349 341 330 328 329 329 331 337
317 317 317 318 318 320 322 322 323 326 327 330 335 338 340 339 343 346 348 350 348 349 349 350 349 350 351 352 353 354 355 356 355 354 353 353 352 352 351 351 350 350 350 350 350 350 350 349 348 347 348 348 349 349 350 351 337 328 325 325 325 328 334
318 317 318 318 318 319 320 323 325 327 328 334 335 336 339 339 342 344 349 349 348 348 349 349 349 349 349 350 351 352 353 355 355 355 354 353 352 352 351 351 351 350 350 350 350 351 351 351 350 348 347 348 349 349 350 352 334 327 324 323 323 327 340
318 320 318 319 319 320 321 322 324 327 330 332 334 336 340 341 341 342 341 344 348 347 348 348 348 348 348 349 350 351 352 353 354 355 355 354 353 351 351 351 351 351 352 350 350 349 350 351 350 350 349 348 349 349 350 352 337 325 322 321 322 325 343
319 321 319 319 320 321 322 323 324 327 328 328 330 333 337 341 343 341 341 342 345 346 347 348 347 348 348 348 349 350 350 351 353 354 355 354 353 353 352 353 353 352 353 350 349 349 350 351 351 351 351 349 349 350 350 351 341 322 321 320 320 329 344
315 320 320 321 320 320 321 322 324 326 327 327 328 330 333 337 342 341 341 342 343 346 345 346 347 348 349 349 349 349 350 351 352 354 355 355 354 354 353 353 353 353 353 352 351 350 351 352 352 352 351 351 350 348 350 351 343 320 321 319 318 328 346
312 316 320 320 321 323 323 324 324 324 324 325 327 330 332 334 337 340 341 342 344 346 346 345 346 348 350 351 350 350 350 351 352 354 356 355 355 355 355 355 354 353 352 352 352 351 350 351 352 351 351 352 351 351 352 352 353 337 318 318 317 320 346
316 316 318 320 321 323 321 322 323 323 324 326 328 330 332 334 335 338 341 342 344 346 349 351 350 349 349 350 350 350 350 351 353 354 356 357 356 356 356 355 355 354 353 352 352 351 350 350 351 351 352 352 352 351 351 353 353 346 318 317 316 317 328
315 316 317 321 323 322 321 322 323 324 325 326 328 329 330 333 335 339 342 346 349 352 356 356 355 353 349 348 349 350 350 350 352 356 357 358 357 356 355 356 356 355 354 353 351 350 349 349 349 350 351 352 352 351 350 351 345 354 322 317 315 315 316
312 314 315 317 319 321 322 321 322 322 323 325 326 328 330 334 338 341 342 341 343 345 346 348 351 355 354 349 348 349 349 350 351 354 358 358 358 356 355 355 355 355 354 353 351 350 349 349 348 349 350 350 351 351 352 352 349 336 338 317 314 313 314
313 314 316 318 318 320 322 322 322 322 323 323 325 327 330 332 332 334 336 337 340 340 341 344 348 352 354 351 348 348 350 350 352 354 356 358 358 357 355 355 355 355 354 353 351 350 349 348 348 348 348 349 349 351 352 352 352 337 329 328 314 313 312
312 314 315 316 317 319 322 322 321 322 320 321 324 326 328 328 327 329 330 333 336 336 337 340 345 348 351 352 349 347 348 350 352 354 357 358 358 356 356 355 355 354 354 353 352 350 349 348 348 347 347 348 348 350 351 353 353 352 335 324 316 313 312
312 314 315 317 317 318 321 323 322 320 319 320 323 323 325 325 326 326 328 329 331 334 335 336 339 344 348 351 350 346 348 350 352 354 357 358 358 357 357 356 355 354 354 353 352 351 350 348 348 347 347 347 349 350 351 352 353 353 349 331 324 317 312
311 312 313 314 317 318 320 321 320 318 318 319 321 321 323 323 324 326 327 327 328 330 330 332 335 341 346 349 350 347 348 351 353 355 357 358 358 358 358 357 356 355 354 354 353 351 350 349 348 347 346 347 348 350 351 352 352 353 352 345 339 333 327
311 311 313 315 316 319 319 320 319 317 317 319 319 320 321 322 323 325 325 325 327 328 328 330 333 337 341 346 350 348 348 351 355 355 357 358 358 358 357 357 357 356 354 354 353 352 351 350 348 347 347 347 348 350 351 352 352 353 353 351 346 341 336
310 311 312 313 315 319 318 320 319 317 317 317 318 320 320 321 322 324 323 323 325 326 326 328 331 335 339 345 350 349 348 351 353 356 357 358 358 359 359 358 358 357 357 358 358 356 354 352 351 350 350 349 348 348 349 351 351 353 338 351 334 341 343
311 311 312 314 317 317 317 321 319 317 317 317 319 319 319 320 321 323 322 322 324 325 325 328 330 334 340 343 346 351 349 350 353 356 357 358 358 358 359 351 339 348 359 357 347 340 335 334 352 354 353 351 350 351 349 350 354 336 324 321 319 319 322
312 312 312 314 316 316 316 319 320 317 317 316 318 318 319 319 320 321 321 321 322 323 324 326 330 335 341 340 340 342 350 351 352 356 358 358 359 359 357 357 344 312 316 332 342 330 321 319 324 329 335 349 351 346 332 331 331 327 321 316 313 314 314
314 313 315 317 317 317 316 319 318 316 316 316 317 317 318 318 319 319 320 321 322 323 323 325 328 334 339 339 341 340 342 349 353 355 357 358 359 359 358 357 354 340 311 300 315 327 315 314 315 318 319 325 335 348 350 329 319 317 312 313 312 310 310

ECMWFFLT1_sfc_thetae_081.txt.gz
Theta_e
334 334 335 336 336 336 336 336 336 336 336 336 337 337 337 337 338 339 340 340 341 341 343 345 345 346 345 345 344 344 343 342 341 340 339 338 339 338 340 342 345 345 346 347 349 350 350 353 353 354 355 355 355 355 354 355 355 357 354 354 353 353 352
333 334 335 336 336 336 336 337 337 337 336 336 337 337 338 337 338 339 339 340 341 342 343 344 346 346 346 345 345 344 343 342 342 343 340 339 340 339 339 340 343 345 346 347 348 350 350 351 353 353 354 355 355 355 355 355 355 355 354 352 352 350 351
333 334 335 336 336 336 337 337 337 337 337 337 337 337 337 338 338 339 340 340 340 342 344 344 346 345 346 346 344 344 343 342 342 341 340 338 337 338 339 338 340 344 346 347 347 349 350 350 351 352 353 353 354 354 354 354 355 355 354 352 352 353 350
333 334 335 336 337 338 338 338 337 338 338 338 338 338 338 338 339 339 341 340 340 341 342 344 345 345 345 345 344 344 343 342 342 342 342 340 338 338 339 338 338 341 344 346 348 349 350 350 350 351 357 353 353 354 354 355 355 355 354 353 351 352 351
333 334 335 336 336 337 337 338 338 337 338 339 339 340 339 339 340 340 341 342 341 341 342 344 346 346 346 346 346 345 344 342 341 342 342 342 340 337 338 339 338 338 342 345 347 349 348 348 349 350 351 352 352 353 353 354 355 355 354 353 352 351 351
332 333 334 335 336 337 338 338 338 338 338 338 339 339 339 339 340 339 340 342 342 342 342 344 345 346 345 345 345 345 345 343 342 342 342 342 340 337 336 339 340 339 339 342 346 347 348 348 348 350 350 351 352 352 352 353 354 355 355 354 353 352 352
332 333 334 335 336 337 338 338 339 339 339 339 340 341 341 340 340 340 340 341 342 341 342 342 344 346 345 345 344 345 344 344 342 341 341 341 342 339 337 337 341 340 340 341 343 346 347 347 348 348 349 350 352 352 352 352 353 354 354 353 353 352 351
332 333 334 335 336 337 338 338 339 339 339 340 340 340 340 340 340 341 340 341 342 342 342 343 343 345 345 345 344 343 344 344 343 342 341 341 341 341 339 337 338 340 340 339 341 343 345 347 348 348 348 349 349 351 352 352 352 353 354 353 353 353 354
331 333 334 335 336 337 338 338 339 339 339 339 339 340 341 341 340 341 341 341 342 342 342 344 344 345 346 346 344 343 344 344 343 343 341 340 340 340 341 340 338 339 339 339 340 342 343 345 346 347 348 348 348 349 350 351 351 352 353 353 353 352 353
327 329 331 333 335 337 337 338 338 339 339 338 339 339 340 341 341 342 342 342 343 342 342 343 345 346 346 346 346 345 344 343 344 343 342 341 340 340 341 342 341 341 339 338 338 339 342 342 343 345 345 346 347 348 349 349 350 351 352 353 353 353 352
323 327 330 331 332 335 336 336 337 338 339 339 339 339 340 341 341 342 342 343 343 343 344 344 345 346 347 347 346 346 345 344 344 343 343 342 341 341 341 341 341 342 342 340 338 337 339 342 341 340 341 343 344 346 348 349 350 350 351 353 354 353 353
321 323 324 326 329 331 333 334 336 338 339 340 339 340 340 341 342 343 343 344 345 345 345 345 346 346 347 347 347 346 346 345 344 344 343 343 343 342 342 341 341 340 342 343 341 339 338 339 341 342 340 340 340 342 344 348 349 350 351 352 353 353 353
320 321 322 323 325 327 329 330 332 336 339 339 339 340 341 341 342 343 343 344 346 346 346 346 347 347 347 348 347 347 347 346 346 345 345 345 344 344 343 342 342 341 340 342 343 341 340 339 339 342 342 341 341 340 341 343 347 349 350 351 351 352 352
322 319 320 322 322 323 324 326 328 331 335 338 339 339 340 342 343 343 343 344 346 347 348 348 347 347 347 348 348 348 348 348 347 347 347 347 346 345 344 344 343 342 342 341 341 342 342 341 340 340 342 343 343 343 343 342 344 347 349 350 351 351 351
316 317 318 320 320 322 322 323 325 327 330 332 334 338 339 342 342 343 344 345 347 348 348 349 348 348 348 348 348 348 349 349 349 349 349 349 347 347 346 345 344 344 343 342 341 342 343 343 343 341 341 342 343 344 345 344 344 346 348 349 350 351 350
316 317 318 318 320 321 321 322 324 325 328 329 331 335 337 340 342 343 343 344 346 348 349 350 349 348 348 348 348 350 350 350 351 350 349 349 348 348 348 347 346 345 344 343 342 342 343 343 343 343 342 341 341 343 345 346 346 345 338 342 350 350 351
316 317 318 319 320 320 321 322 323 324 326 328 329 332 336 337 339 343 344 344 346 348 350 351 350 349 349 349 350 350 351 351 351 351 350 350 350 349 349 348 348 347 346 345 344 343 342 343 342 343 343 343 342 341 343 346 347 338 332 333 338 349 350
315 316 317 319 320 321 320 321 322 323 325 328 329 332 334 336 338 341 344 345 346 347 350 351 350 350 350 350 351 351 351 352 352 351 351 351 350 350 350 350 349 349 348 347 346 346 345 343 343 343 343 344 343 342 342 343 339 332 330 331 331 339 351
314 316 316 318 319 321 320 321 322 324 326 329 330 331 333 336 338 337 340 345 347 349 350 350 351 350 351 351 352 352 352 352 352 352 352 351 351 351 351 350 349 349 349 348 349 348 347 345 344 344 344 344 343 343 344 344 336 330 329 329 329 330 342
315 316 317 317 319 320 321 322 323 325 327 329 331 333 334 338 338 339 340 345 351 350 349 349 351 351 351 352 352 352 352 353 352 352 352 352 352 352 351 350 349 350 350 350 350 349 348 348 346 346 345 344 344 344 345 344 337 328 327 327 327 328 334
314 315 316 316 317 319 320 322 323 326 328 328 331 332 334 334 336 337 339 342 348 346 345 346 346 350 351 352 352 353 353 353 352 352 352 352 352 351 351 350 350 350 350 350 349 349 348 348 348 347 347 346 346 345 345 346 334 326 324 324 324 326 331
315 315 315 316 317 318 318 320 323 325 327 332 331 331 333 332 334 335 337 341 346 346 345 346 345 346 350 351 353 353 354 353 353 353 353 352 352 351 351 350 350 349 350 350 350 350 350 350 350 348 348 348 347 346 345 347 331 325 323 322 322 325 336
314 316 316 318 318 319 320 321 322 324 328 329 331 332 333 333 335 336 335 339 341 343 344 344 344 345 348 351 352 354 354 355 354 353 353 353 352 351 351 350 350 350 351 349 349 349 348 349 349 349 349 348 347 346 346 346 335 323 320 320 320 324 339
315 318 318 318 319 320 321 322 322 324 326 326 329 331 332 333 334 336 336 338 340 341 342 345 345 346 347 348 350 352 354 355 355 354 354 353 352 352 352 352 352 351 352 350 349 348 349 349 349 349 350 348 348 347 346 346 339 323 318 318 318 327 340
314 317 319 318 319 318 320 321 323 325 325 325 327 328 331 333 333 335 338 339 340 342 342 344 346 347 347 348 349 350 351 353 354 355 354 354 353 353 353 352 352 352 352 351 350 350 350 350 349 349 349 349 349 346 346 347 341 323 319 317 316 326 341
313 315 317 319 319 320 321 323 323 322 322 323 324 326 327 331 331 335 339 340 342 343 343 344 344 346 349 349 349 350 350 351 352 353 353 354 354 354 354 354 353 352 352 351 351 350 350 350 349 348 348 350 350 349 348 347 348 340 318 316 314 319 341
314 314 315 318 319 323 320 322 322 322 322 323 323 325 327 330 330 332 334 338 337 337 336 337 338 339 342 346 349 349 349 350 350 351 352 354 354 355 355 355 353 353 352 351 351 350 350 349 349 348 348 349 350 350 349 349 348 345 320 315 314 315 326
312 313 315 318 320 320 320 321 322 322 323 322 322 324 327 328 327 329 330 332 333 332 332 333 334 336 338 340 345 350 351 349 350 351 351 352 354 354 354 355 355 354 353 352 351 350 349 349 348 348 348 349 349 349 349 348 341 349 325 317 313 313 316
310 312 313 314 316 319 320 320 320 321 321 321 321 324 325 325 325 326 328 328 329 330 330 331 332 333 334 336 341 347 351 352 349 349 351 351 352 353 353 354 354 354 353 352 351 349 349 348 348 347 347 347 348 349 350 350 348 334 341 319 314 312 312
311 313 313 315 316 317 320 319 321 321 320 320 321 323 323 323 323 324 325 325 328 327 329 329 330 330 331 333 338 344 349 352 352 350 350 351 351 352 352 353 354 354 353 352 351 349 348 348 348 347 346 346 346 348 350 350 350 337 329 331 314 313 311
311 311 312 314 314 317 319 319 320 321 319 319 320 321 321 322 321 322 323 325 326 326 326 328 328 328 329 332 336 342 346 350 352 351 350 350 351 351 352 352 353 352 353 352 351 350 348 348 348 347 346 346 346 347 348 350 350 350 336 325 320 314 312
311 312 312 313 313 315 317 318 320 320 320 318 319 319 320 320 320 320 322 324 325 324 325 326 326 327 329 332 336 339 343 346 349 351 350 350 350 351 353 353 353 353 352 352 351 350 349 348 348 347 346 346 346 346 348 349 349 350 348 333 327 320 314
309 311 311 311 313 315 315 317 317 320 320 318 318 318 319 320 320 321 322 323 322 323 323 324 325 327 330 331 333 338 342 345 347 349 349 349 350 351 353 354 354 353 352 352 351 351 350 349 347 347 346 346 346 347 347 348 349 349 349 344 339 336 329
308 310 312 313 313 315 315 314 316 318 320 318 318 317 318 319 319 320 321 321 321 322 322 323 325 326 328 330 333 338 343 344 347 348 348 348 349 350 351 353 354 353 352 352 352 351 350 349 348 347 347 346 346 346 346 347 348 349 349 348 343 340 336
307 309 311 312 313 316 315 315 317 318 319 318 318 317 317 318 318 319 319 320 320 320 320 322 324 325 326 329 334 340 342 342 344 347 347 348 349 351 352 353 353 354 354 355 355 354 352 351 350 350 350 349 348 346 345 346 346 349 335 348 332 339 340
307 308 310 313 314 315 315 318 317 317 318 318 317 317 318 318 318 318 319 318 319 319 320 321 322 323 326 330 335 339 341 342 343 346 347 348 348 350 351 346 334 344 355 354 342 336 333 332 350 353 352 350 350 350 348 347 349 333 325 322 320 319 322
307 308 310 312 313 314 315 315 318 318 318 317 317 317 318 317 317 317 317 317 318 319 319 319 321 324 325 328 332 336 339 340 341 344 347 348 350 351 350 350 346 313 305 313 328 328 319 316 321 326 333 348 350 345 332 331 329 322 317 316 314 313 314
307 308 311 313 314 315 316 316 316 316 317 316 317 316 317 316 316 316 316 316 317 318 318 319 320 322 324 326 328 332 337 340 340 341 344 348 350 351 351 350 349 338 314 302 313 325 314 314 313 316 317 322 333 344 348 327 317 315 313 314 312 310 311

ECMWFFLT1_sfc_thetae_084.txt.gz
Theta_e
332 333 333 334 335 336 336 337 336 335 335 335 336 336 337 338 339 340 341 342 343 343 343 345 345 346 346 346 346 346 345 344 343 342 341 341 342 344 347 348 349 349 350 351 352 353 354 356 357 357 358 359 358 358 358 359 360 360 360 360 359 359 357
331 332 333 334 334 335 336 337 337 336 335 336 336 336 337 337 339 339 340 341 342 343 343 344 346 345 346 346 346 346 345 344 344 345 343 342 343 343 346 348 349 349 349 350 352 354 354 354 356 356 356 358 358 358 358 358 359 359 359 357 357 356 357
331 332 333 334 334 335 336 337 337 337 336 336 337 336 336 337 338 339 340 340 341 342 343 344 345 345 346 346 345 345 345 344 344 343 342 340 341 341 342 346 347 348 349 350 351 352 354 353 355 355 356 356 357 357 357 358 358 358 358 357 357 357 355
331 332 333 335 335 336 337 337 337 337 337 337 337 337 337 337 338 339 340 341 341 342 342 343 344 345 345 346 345 345 345 345 344 343 343 342 341 341 341 342 344 347 348 348 349 351 352 353 353 354 359 356 356 357 357 357 358 358 358 357 356 356 357
325 332 334 334 334 335 336 337 337 337 337 337 338 339 338 338 338 338 339 341 341 341 342 343 344 345 346 346 346 345 345 344 344 344 344 343 343 341 340 340 340 342 346 348 349 351 351 352 352 353 354 355 355 356 357 357 357 358 358 358 357 356 355
323 327 333 334 335 336 336 337 337 337 337 337 337 338 338 338 338 337 339 340 341 342 343 343 344 345 345 346 346 346 346 345 345 345 344 344 342 339 339 340 340 340 341 345 349 349 350 350 351 351 352 353 354 355 355 356 356 357 358 358 357 357 355
322 326 331 334 335 336 337 337 338 338 339 339 338 339 339 338 338 338 339 339 340 340 341 342 343 344 345 346 346 346 345 344 344 344 344 343 343 340 339 340 342 340 341 344 345 348 348 349 350 351 352 352 354 354 354 355 355 357 358 357 357 357 357
322 323 329 334 335 336 337 338 338 339 339 339 338 338 338 339 338 338 338 339 340 340 340 341 343 344 345 346 346 345 345 345 344 344 344 343 343 342 340 338 340 341 342 340 342 346 347 348 349 350 351 352 352 354 354 355 355 355 357 357 356 356 355
321 323 324 327 335 336 339 340 340 339 338 338 338 338 338 338 338 338 338 339 340 340 340 341 343 344 345 345 345 345 346 345 345 344 343 342 342 342 342 340 339 341 341 340 340 344 346 347 348 349 350 350 351 352 353 354 354 355 355 356 356 356 356
320 321 322 325 326 331 335 341 339 339 338 338 338 338 338 338 339 339 339 339 340 340 340 341 342 344 345 345 345 345 345 345 345 343 342 341 342 341 342 342 340 341 340 341 341 341 344 346 347 349 349 349 350 351 352 353 354 354 354 355 356 356 356
319 320 321 322 323 325 327 329 331 335 340 340 339 339 339 339 339 339 339 339 339 340 341 342 343 343 344 345 344 344 344 344 345 344 343 342 341 341 342 342 342 341 339 340 340 341 342 344 346 347 348 348 349 349 350 351 353 353 354 354 355 355 355
318 319 319 320 322 323 324 326 329 330 332 337 341 338 343 341 341 340 340 340 341 341 342 342 343 343 343 344 344 344 344 344 344 344 343 343 342 341 341 342 342 342 342 340 339 340 341 342 343 345 345 347 348 349 350 351 352 352 353 353 354 355 355
319 319 320 320 321 321 323 324 327 329 331 333 336 339 340 340 340 340 340 341 341 341 342 343 343 343 343 343 344 344 344 344 343 344 344 344 343 343 342 341 341 342 342 343 341 340 339 340 341 344 344 345 346 347 349 350 351 352 352 353 354 354 354
322 319 320 321 321 320 321 322 325 328 330 331 334 336 338 340 341 341 341 341 342 342 342 343 343 343 344 344 344 344 344 345 345 344 345 345 345 345 343 342 341 341 342 344 343 342 340 339 339 341 344 343 343 344 346 347 348 351 352 352 353 353 353
316 317 318 319 320 321 321 322 323 326 329 331 332 334 336 338 339 343 343 343 343 343 343 344 343 343 343 344 344 345 346 346 346 346 346 346 345 345 344 344 343 343 342 342 342 343 343 343 341 340 341 343 343 344 344 343 343 345 348 350 352 353 352
315 316 317 318 319 321 322 322 324 325 328 330 330 332 334 336 339 339 341 343 343 344 345 345 344 343 343 343 344 346 347 347 348 347 347 346 346 346 346 345 344 343 342 342 342 342 344 344 344 342 341 341 342 343 343 343 343 342 336 340 348 350 351
314 315 316 317 318 320 321 322 323 325 327 328 330 331 332 335 338 338 339 340 343 345 346 346 345 344 344 344 345 346 348 348 348 349 348 347 347 347 347 346 346 345 344 344 343 342 343 343 342 342 343 342 341 341 342 344 344 336 330 331 335 346 350
312 314 315 316 317 319 319 320 322 323 325 327 329 330 332 334 335 336 337 339 340 343 347 347 346 345 345 346 347 347 348 348 349 349 349 349 348 348 348 348 347 347 346 345 344 344 344 342 342 343 343 343 343 342 342 343 338 330 329 330 329 336 349
311 313 315 316 317 318 318 319 321 322 324 327 329 330 332 334 334 335 336 339 340 344 347 348 347 346 346 347 347 348 348 349 349 349 349 349 349 349 349 349 348 347 347 346 346 345 344 344 343 343 343 343 343 342 343 344 334 329 328 328 328 328 340
311 313 315 316 317 318 319 320 321 322 324 326 329 330 332 335 334 334 337 339 343 344 345 348 349 348 347 348 348 349 349 350 350 349 350 351 350 350 350 349 349 349 349 349 349 347 346 345 344 344 344 344 343 344 344 344 336 327 325 326 326 327 332
310 312 313 315 316 317 319 320 321 322 323 325 328 329 331 332 334 335 337 339 342 343 343 345 348 350 350 349 349 350 350 350 350 350 351 351 351 351 350 350 350 350 350 350 349 348 348 347 346 346 345 345 345 344 344 344 332 325 322 322 323 325 329
310 312 313 315 315 317 318 319 321 322 323 328 327 328 329 329 332 335 337 340 341 344 342 343 344 344 346 349 351 351 351 351 351 351 352 352 352 351 351 351 351 350 351 351 351 351 351 351 350 349 348 347 346 345 345 346 329 324 322 320 321 324 337
312 313 314 315 316 318 320 320 321 323 325 326 326 328 327 328 332 334 338 339 341 343 343 343 342 342 344 345 346 348 351 353 352 352 352 353 352 352 352 351 351 352 353 351 351 351 350 351 351 351 351 350 349 347 347 347 335 322 320 319 319 323 339
314 314 315 315 317 318 319 321 322 324 325 324 325 325 325 327 331 333 338 340 341 343 343 341 339 340 341 344 346 348 348 350 351 352 353 353 352 352 352 353 353 353 354 351 351 350 351 351 351 352 352 351 350 350 349 348 340 322 318 317 317 326 340
314 314 314 315 315 316 318 320 322 324 324 323 323 323 324 326 329 330 336 339 339 342 339 338 338 338 338 339 341 344 349 351 350 351 352 353 353 354 353 353 353 354 354 353 353 352 353 353 352 352 352 352 351 346 349 350 343 322 318 316 315 325 342
312 313 313 314 316 317 319 321 321 321 321 322 322 322 323 324 325 328 331 333 336 336 333 332 333 335 336 337 337 340 345 349 352 355 356 355 355 355 355 355 355 355 354 354 353 353 353 352 352 351 351 352 352 352 351 350 351 343 318 316 313 317 341
312 313 313 314 315 319 318 319 320 320 321 322 322 321 322 323 322 324 327 330 333 331 331 331 331 334 336 336 335 336 339 345 350 351 355 357 357 357 356 356 355 355 354 353 353 353 352 352 352 351 351 352 352 352 352 352 351 348 320 315 313 314 325
311 312 313 315 317 318 316 317 319 321 322 322 320 320 321 321 321 323 324 326 328 328 330 331 331 333 334 334 333 334 337 341 347 351 352 355 357 357 356 357 357 356 355 354 354 353 352 352 352 351 351 352 352 352 352 351 342 352 327 317 313 312 315
308 310 310 311 312 315 317 316 317 319 320 322 321 320 321 320 320 320 322 323 325 326 327 328 330 331 331 332 333 335 339 342 344 348 352 353 354 355 355 357 357 356 356 355 354 353 352 352 352 351 351 351 352 352 353 354 351 332 343 320 313 311 311
308 310 311 312 313 314 316 315 316 317 320 322 322 321 320 320 319 319 320 321 324 325 326 325 326 327 328 331 332 335 338 341 344 346 350 353 353 353 353 354 356 356 356 355 354 352 351 351 351 351 350 349 350 351 352 353 353 338 328 333 314 312 310
307 308 310 311 312 315 315 314 315 316 318 320 322 322 320 320 318 318 318 321 323 324 323 323 323 324 325 327 330 333 337 340 343 344 347 351 353 352 351 352 354 354 355 355 354 353 351 351 351 350 350 350 349 350 351 352 353 353 338 325 321 313 311
307 308 309 310 311 312 314 314 315 315 316 318 321 322 321 319 319 318 318 321 322 322 322 322 322 322 324 326 328 331 334 336 339 342 346 349 351 352 352 351 352 352 353 354 353 353 352 351 351 350 350 350 350 350 351 352 352 352 352 335 327 320 313
306 307 307 308 310 313 312 313 313 315 316 316 318 320 319 318 318 319 320 320 320 321 320 320 321 323 324 325 327 329 331 333 337 342 346 348 350 351 352 352 351 351 351 352 353 353 352 352 351 350 350 349 350 351 351 351 351 352 352 352 346 340 332
305 306 307 308 309 312 313 313 313 313 315 316 317 318 319 318 318 319 319 319 319 319 319 319 320 321 322 324 325 327 329 332 339 342 343 345 347 348 350 351 351 351 350 351 352 352 351 352 351 350 350 350 350 351 351 350 351 351 351 352 349 346 344
304 305 306 307 308 311 311 312 314 314 315 316 317 318 318 318 319 319 319 319 319 318 317 318 319 321 321 322 324 326 331 334 338 340 342 343 344 347 350 351 351 351 352 354 355 354 353 352 352 353 353 353 351 350 350 350 350 351 335 350 333 343 347
304 304 305 307 308 309 311 314 314 314 315 316 317 318 318 319 319 319 319 319 318 318 316 318 318 319 321 322 324 327 329 332 335 337 339 341 342 344 348 343 329 340 353 352 340 334 330 330 351 355 355 353 354 354 352 351 353 334 323 320 319 318 322
303 303 304 306 307 307 308 310 314 315 316 317 318 318 319 319 319 318 319 318 318 317 316 317 317 319 320 322 323 325 327 329 330 332 335 339 341 342 343 347 346 318 317 330 339 329 320 315 319 324 331 350 354 349 332 332 328 322 316 313 313 313 313
303 304 305 306 306 307 308 309 311 314 315 317 318 317 318 318 318 318 317 317 316 316 316 316 316 317 318 319 321 324 326 328 330 332 334 337 340 341 342 345 347 349 324 314 316 316 312 313 313 313 315 320 332 345 352 330 318 317 312 311 312 311 311

ECMWFFLT1_sfc_thetae_087.txt.gz
Theta_e
338 339 341 341 341 340 340 342 343 341 342 343 344 345 346 347 349 351 351 352 353 354 355 356 356 356 356 356 357 358 358 357 357 355 355 355 356 358 358 358 359 362 360 360 363 364 367 369 369 369 370 370 370 370 371 372 371 369 370 372 371 370 369
336 338 339 340 341 341 342 342 344 343 342 343 344 346 346 347 349 350 351 353 353 354 354 355 356 356 356 357 357 358 358 357 357 357 356 357 358 358 359 361 360 363 364 363 364 367 367 367 367 367 368 369 368 370 369 370 371 371 368 370 368 368 368
330 332 338 340 340 341 343 343 343 343 343 342 343 344 345 348 350 350 351 351 352 354 354 354 356 356 356 357 357 357 357 356 356 355 354 352 353 352 356 360 361 360 360 363 365 364 365 365 367 367 367 367 365 369 370 369 370 369 369 370 368 365 368
329 331 332 337 341 343 343 344 344 343 343 343 343 344 345 349 350 351 351 350 351 352 353 353 354 354 356 356 356 357 356 357 356 354 353 353 353 353 355 357 359 360 360 360 361 362 361 364 365 366 367 367 367 368 368 367 367 368 368 369 366 366 368
329 331 333 334 338 341 342 343 343 345 343 343 343 345 346 347 347 348 349 350 350 350 351 351 352 353 355 356 355 355 355 356 356 355 355 354 356 355 353 352 354 356 357 359 361 362 363 364 363 364 365 367 366 367 367 368 366 368 368 369 366 365 364
327 329 331 334 336 340 341 342 343 344 344 343 342 343 344 345 346 346 347 349 349 350 352 352 352 353 354 354 354 354 356 357 357 357 355 356 356 353 352 352 352 353 354 357 359 359 361 361 361 362 362 362 362 362 364 365 365 366 367 367 366 364 362
325 328 330 334 337 339 341 342 342 343 345 345 343 343 344 343 344 345 346 347 348 348 349 350 351 352 354 354 354 355 355 354 356 355 355 354 354 353 353 353 353 352 353 357 357 358 358 359 361 362 362 361 362 361 364 366 365 366 366 367 367 367 366
325 326 329 333 336 339 341 343 343 343 345 345 343 343 343 343 343 345 345 345 347 347 348 348 349 352 353 354 354 354 354 354 354 355 354 353 353 353 352 352 352 353 354 353 355 357 356 358 358 360 361 360 361 363 363 366 367 364 364 365 365 365 364
326 327 327 329 334 336 338 342 343 343 343 344 344 343 343 343 342 343 344 345 346 346 347 348 349 351 353 353 354 354 353 353 353 354 353 352 352 351 350 351 351 353 352 350 350 355 355 356 356 359 361 360 361 363 363 365 364 364 364 364 365 364 363
325 326 328 329 331 333 337 340 342 343 346 345 344 344 342 343 343 343 343 343 344 345 347 348 348 350 352 352 352 353 353 354 353 352 352 350 351 350 351 350 350 352 351 350 349 350 354 355 356 359 361 359 360 362 362 363 362 362 363 364 365 364 364
324 327 327 328 329 330 333 336 338 340 343 345 348 344 344 343 343 342 343 343 343 344 346 346 348 348 350 351 350 351 352 352 352 351 351 350 350 350 350 350 350 350 349 349 349 349 351 354 356 358 359 356 358 360 360 361 362 362 360 361 363 364 363
323 324 325 327 328 329 330 332 335 338 340 342 343 345 346 345 344 344 343 344 344 344 345 345 346 347 349 349 349 350 351 351 351 351 351 350 350 350 350 350 350 349 349 349 348 349 349 351 352 354 356 357 357 359 360 361 362 362 362 359 361 362 362
321 322 322 324 326 328 330 331 332 335 338 339 342 344 346 343 344 344 346 344 344 345 346 347 346 347 347 348 348 350 350 350 351 351 351 351 351 351 351 350 350 350 349 349 349 348 348 348 351 353 354 357 356 356 359 360 360 362 363 361 362 363 362
322 321 321 322 323 324 325 328 330 332 334 336 338 342 344 346 346 345 346 344 345 344 345 346 347 348 348 348 349 350 350 351 352 352 353 353 354 352 351 350 350 351 351 350 349 348 348 347 348 351 352 354 355 357 359 360 360 361 362 362 361 361 361
317 318 320 320 321 322 323 324 326 328 330 333 336 338 341 343 345 347 350 347 346 345 345 348 348 348 348 348 349 351 353 353 352 353 354 354 354 353 351 351 351 351 351 352 350 348 348 348 348 349 350 352 354 355 356 355 356 357 359 360 360 360 358
315 317 318 319 321 322 322 323 324 325 327 329 332 335 337 340 342 343 345 347 349 347 346 347 348 349 348 347 349 353 355 355 355 354 354 354 354 355 353 352 351 350 350 350 351 351 351 350 349 348 349 350 352 353 352 353 354 351 341 345 359 360 357
314 315 317 318 320 321 322 322 323 324 325 326 328 331 334 337 340 342 344 346 347 349 352 348 349 348 348 348 350 353 355 355 355 356 355 355 355 356 356 354 352 352 352 351 351 351 353 351 349 348 347 347 348 349 349 349 349 338 332 333 337 354 359
313 314 315 316 318 320 320 321 322 323 324 325 326 328 330 333 337 340 341 344 348 350 352 353 350 348 350 350 354 355 354 353 355 356 355 356 355 355 356 355 354 354 354 352 350 353 351 350 349 350 348 347 347 347 347 348 340 331 329 330 330 337 354
313 314 314 316 317 318 318 320 321 322 323 325 326 327 328 329 331 335 340 344 348 352 352 353 352 355 352 352 354 355 356 357 356 355 355 356 356 357 356 356 355 354 353 351 352 351 351 351 349 350 350 348 349 347 347 347 336 329 327 327 327 327 339
314 314 315 315 316 317 318 320 321 322 324 326 328 328 329 328 328 331 338 345 349 352 353 354 355 355 357 355 355 356 357 357 356 356 357 358 358 358 356 355 354 353 352 352 353 353 351 350 350 350 351 350 349 350 349 348 338 327 325 325 324 326 331
314 314 315 316 316 316 318 320 321 322 323 326 327 328 327 326 327 330 334 341 345 349 350 351 352 352 355 358 359 357 357 357 356 356 357 356 355 356 356 355 355 355 353 352 352 353 353 350 350 350 351 350 349 349 348 347 333 325 322 321 321 324 328
314 314 314 316 316 317 317 318 320 322 324 328 327 327 326 326 328 330 332 339 343 346 347 348 348 347 350 353 355 357 358 358 356 357 355 352 351 353 354 354 356 356 356 355 353 354 354 354 352 351 351 351 350 349 348 349 330 324 321 320 320 322 338
313 315 315 316 317 317 319 320 321 322 325 326 327 326 325 327 328 329 332 335 338 345 344 344 343 343 346 351 353 354 354 354 354 355 353 351 350 350 351 352 355 356 356 355 354 352 353 354 353 355 353 353 352 351 351 351 337 322 319 318 318 323 344
313 315 315 316 317 318 320 320 321 322 323 324 325 325 325 327 328 329 332 334 335 339 340 339 339 339 341 343 346 348 349 351 352 353 353 353 350 350 351 354 355 356 356 355 353 352 354 355 355 356 356 354 353 353 352 352 342 321 317 316 316 327 346
313 314 315 316 316 316 318 320 322 323 323 323 322 324 324 325 326 327 329 332 333 336 335 334 332 333 333 336 339 343 345 348 352 353 353 353 353 352 351 353 354 356 356 354 355 355 356 357 356 356 357 356 355 349 352 354 346 321 318 316 315 327 348
312 313 314 315 316 317 319 322 321 320 320 320 321 324 324 323 323 326 328 329 330 333 333 333 333 332 332 335 338 339 341 344 349 353 353 352 353 354 353 353 353 353 354 356 356 356 356 357 357 357 357 358 358 357 356 355 357 350 317 315 313 317 347
312 312 313 314 315 319 317 317 318 318 319 322 324 323 323 322 321 324 326 328 329 329 330 331 333 333 331 332 333 335 337 341 344 348 353 355 355 355 356 358 358 356 357 354 355 356 357 357 358 357 358 358 359 359 358 358 358 357 318 314 313 314 324
311 312 313 315 316 317 316 316 317 317 318 321 322 323 323 323 322 323 325 325 325 326 328 330 332 332 331 330 332 333 335 339 344 347 348 352 356 357 357 356 357 357 357 359 357 354 358 359 359 358 358 359 360 361 361 357 346 361 327 316 313 312 313
309 309 310 312 313 314 314 315 315 315 316 318 320 322 323 323 323 323 323 323 325 325 327 329 330 331 331 330 330 333 336 338 341 344 346 348 351 353 355 357 354 352 354 355 355 351 355 360 360 359 358 360 360 361 362 363 360 335 352 318 313 311 311
309 310 311 311 312 313 314 314 314 315 316 316 320 321 322 324 322 322 322 323 326 326 327 328 328 329 330 331 330 331 334 337 340 342 346 347 349 350 350 353 355 353 352 354 353 350 350 356 359 358 356 355 357 358 360 362 362 344 331 338 313 312 310
308 309 309 310 310 313 314 313 313 314 316 317 319 321 323 325 324 323 322 324 326 326 326 326 326 326 328 329 330 330 332 335 338 340 343 345 347 349 350 349 351 351 353 353 352 350 350 353 358 358 357 356 355 357 359 360 362 363 345 326 320 313 311
308 310 309 309 310 311 313 313 313 313 313 315 317 317 321 321 323 322 323 324 325 326 325 325 325 325 326 327 329 329 330 332 334 337 339 342 345 346 349 351 351 350 351 352 353 353 354 353 357 357 357 356 356 356 358 360 362 362 363 339 331 321 314
307 308 309 309 310 311 311 312 311 312 313 313 316 318 318 317 320 323 325 325 324 323 324 324 324 325 325 326 327 328 329 330 331 334 337 341 344 347 349 351 353 353 351 350 350 354 353 354 356 356 355 355 355 357 358 359 360 362 362 362 356 349 338
306 307 309 310 311 311 311 311 311 312 312 313 315 317 319 318 319 321 324 324 325 324 324 323 324 323 324 324 326 327 329 330 332 334 336 339 343 345 346 348 350 352 354 355 356 356 355 356 355 355 356 356 357 358 358 358 360 361 361 360 361 358 354
306 307 308 308 309 311 310 311 311 312 312 313 314 316 318 319 319 321 324 325 325 324 322 322 322 323 323 323 324 325 328 330 332 333 334 335 338 340 344 345 347 349 353 358 360 358 357 357 358 360 361 361 359 359 359 360 360 362 340 362 338 354 358
305 306 306 307 308 309 309 311 311 311 312 312 314 315 317 318 320 323 324 325 325 323 322 321 321 322 322 323 323 324 326 328 329 330 332 332 333 335 337 337 325 334 346 348 339 330 323 325 353 360 362 361 362 365 361 360 363 337 326 322 321 320 324
304 304 304 306 306 307 308 309 310 311 312 313 314 314 315 317 319 323 325 325 324 322 321 320 320 320 321 323 324 323 324 325 325 328 331 332 333 334 334 337 340 316 313 320 328 326 321 315 312 318 325 351 360 356 335 333 328 322 322 315 313 313 313
304 305 305 306 306 307 308 308 309 310 311 312 313 313 314 316 319 321 324 325 323 321 320 319 318 318 319 320 322 323 323 323 325 327 329 331 334 335 336 337 337 341 327 314 314 316 311 311 312 311 313 316 326 345 361 335 318 315 317 310 309 310 310

ECMWFFLT1_sfc_thetae_090.txt.gz
Theta_e
342 345 346 345 346 346 346 346 348 347 348 349 351 351 351 353 356 358 359 362 364 365 366 367 365 365 364 363 363 364 362 361 362 361 361 360 359 359 358 357 358 360 358 357 360 359 364 365 366 367 367 367 367 369 371 370 370 369 370 373 371 370 372
339 342 344 345 346 346 348 348 349 348 349 349 351 353 352 353 355 356 359 362 364 364 365 365 366 365 364 364 364 365 364 362 363 363 362 361 361 361 360 361 358 360 362 360 360 364 365 366 366 365 365 367 365 367 367 369 370 369 370 370 369 370 370
337 338 341 344 346 346 349 349 349 348 350 349 350 351 352 355 355 357 359 360 362 364 365 365 366 364 365 365 364 364 365 363 362 361 360 357 360 358 360 363 361 358 359 360 362 361 364 365 367 366 365 363 361 364 366 367 368 368 369 370 368 365 368
336 337 339 341 345 347 348 349 350 349 349 350 350 352 353 355 356 357 358 360 361 362 363 363 364 363 363 364 364 365 365 364 362 360 359 358 358 360 359 360 361 360 357 358 358 358 357 361 364 366 367 364 364 363 365 365 364 367 367 368 366 365 366
336 337 338 339 341 345 347 349 348 350 349 349 351 353 353 353 354 356 358 358 358 360 360 361 361 362 363 364 362 362 363 364 362 360 360 359 360 361 359 357 358 359 357 358 361 362 362 363 362 363 365 367 364 365 365 366 364 365 366 367 365 363 363
334 335 336 338 339 342 345 347 349 349 349 349 349 350 350 350 352 353 356 357 356 358 360 361 360 362 362 362 362 361 364 364 365 364 361 361 360 358 358 359 357 358 355 357 358 360 363 362 360 360 361 361 359 357 360 363 362 361 364 366 365 362 359
334 336 336 338 341 341 343 346 347 348 349 350 350 351 350 349 350 351 352 353 354 355 356 357 358 359 362 362 362 363 363 362 363 362 361 359 360 359 360 360 359 355 356 358 358 359 360 361 360 361 362 359 358 356 359 364 362 362 364 366 366 366 366
335 336 338 338 339 341 346 346 348 348 350 349 350 350 350 349 349 351 351 350 353 353 353 354 356 358 361 362 361 361 362 362 362 363 362 360 358 359 358 359 358 359 358 355 358 360 357 360 359 359 359 359 359 362 360 363 368 361 360 363 364 364 359
334 337 337 338 338 339 342 346 349 350 346 347 349 350 349 349 348 349 349 350 351 352 352 353 355 357 361 361 361 361 361 361 362 362 361 359 357 356 356 356 357 359 358 355 354 359 359 356 357 359 361 360 359 362 363 365 365 363 361 361 364 363 359
331 333 335 336 336 338 339 341 346 349 350 349 351 353 350 350 349 349 348 349 350 351 351 352 353 355 358 360 360 361 361 361 361 360 360 358 357 355 355 354 355 358 357 355 353 352 358 358 357 359 362 362 361 362 365 364 364 363 362 363 363 363 363
328 331 332 332 333 334 336 336 338 342 346 349 349 347 349 349 349 349 349 349 349 350 351 353 355 354 355 357 358 358 359 359 359 358 359 358 356 355 355 354 353 356 356 355 352 352 353 358 359 359 361 360 360 361 363 362 363 363 359 360 362 363 360
326 327 328 331 331 332 334 336 336 336 339 344 346 346 349 350 348 348 349 349 349 349 350 351 352 352 353 355 356 357 358 358 358 357 357 357 356 355 355 354 354 354 356 356 354 353 351 354 357 357 360 362 360 360 362 364 363 364 362 357 358 360 360
324 325 327 328 330 331 333 335 335 334 334 337 340 345 346 347 347 346 349 350 349 349 350 352 352 353 351 352 354 357 357 357 357 358 357 358 357 356 356 355 354 354 353 356 356 353 351 350 355 358 358 362 362 357 360 363 362 364 365 362 359 359 360
325 324 325 327 328 329 329 331 333 333 332 332 335 339 344 346 348 349 351 349 350 350 349 350 352 352 352 352 353 355 355 357 358 358 360 359 361 359 357 356 356 356 356 357 356 354 353 351 350 354 357 357 360 360 359 361 362 364 366 366 361 358 359
320 321 323 323 325 327 328 327 330 331 331 331 332 334 337 340 344 349 351 353 353 349 350 352 352 352 351 352 353 355 358 358 358 359 361 360 361 360 359 357 358 358 358 359 357 355 355 354 352 352 355 356 357 358 357 354 357 358 361 363 363 361 356
319 319 320 321 322 323 326 327 328 330 331 332 331 330 332 335 339 344 348 349 350 352 354 351 351 352 352 351 353 356 358 359 360 360 361 360 361 362 361 359 359 357 358 358 358 359 359 358 356 354 353 355 356 357 354 353 352 355 345 350 359 361 354
319 320 320 321 323 322 325 325 326 327 329 331 331 330 329 332 338 343 344 348 349 351 352 354 352 350 351 353 355 356 359 359 360 361 361 362 362 363 362 359 358 359 360 359 359 360 361 358 356 355 354 353 354 355 354 352 349 342 335 336 341 355 358
319 320 321 321 322 323 323 323 324 325 326 328 330 330 329 331 334 338 341 344 349 352 353 351 352 353 353 353 356 357 358 358 362 361 361 362 363 363 364 362 360 359 361 359 358 361 359 357 357 358 355 353 354 353 354 355 344 332 331 333 333 342 354
319 319 320 322 322 323 322 323 324 325 326 327 329 329 330 331 332 334 338 342 345 352 354 353 351 351 356 358 356 357 357 361 360 361 360 362 362 363 363 363 360 359 358 357 359 358 359 360 357 358 357 356 355 353 354 354 341 330 328 330 330 331 344
318 319 320 320 322 323 324 325 325 326 327 328 329 329 329 331 330 332 336 340 345 349 351 352 353 354 354 355 358 359 359 360 359 359 361 362 362 362 361 360 361 358 357 357 359 359 357 357 358 358 359 358 357 357 355 355 343 329 325 326 326 328 335
318 318 319 320 320 322 324 325 326 327 328 327 328 328 328 328 330 331 334 338 341 346 347 349 351 352 352 353 356 359 358 359 359 359 360 362 362 362 361 360 361 359 357 356 356 357 358 357 358 358 358 357 357 356 355 354 337 327 322 322 322 325 331
317 317 318 319 320 321 322 324 325 326 328 330 329 328 328 327 329 330 332 337 339 342 343 344 344 342 343 348 351 355 356 357 358 360 360 361 361 362 361 361 361 360 359 358 356 356 356 358 359 358 357 357 357 355 355 356 333 326 322 319 320 323 342
316 317 318 319 320 320 322 324 324 326 328 328 328 329 330 329 328 329 331 334 337 339 341 341 340 340 340 340 341 344 349 350 352 357 359 362 362 362 360 360 360 361 362 359 357 354 353 356 357 360 359 358 358 357 357 357 341 324 319 318 318 325 348
317 318 317 318 319 320 322 322 323 324 325 325 327 327 329 331 329 329 331 332 334 339 339 338 337 338 339 338 340 340 340 342 347 353 356 358 358 358 358 358 358 358 360 358 357 355 353 355 356 358 360 359 359 358 357 358 348 323 318 316 316 331 350
315 317 317 317 317 317 318 320 322 322 323 323 325 326 328 329 329 327 328 330 331 333 333 334 335 336 337 338 340 338 340 342 343 346 353 356 356 357 357 357 358 358 358 357 358 357 358 357 356 356 359 359 359 355 356 359 351 324 318 316 314 330 353
313 314 315 316 317 319 320 321 321 320 319 319 322 325 326 326 327 329 328 327 328 329 328 329 331 336 338 339 340 340 340 341 342 343 345 351 357 359 358 358 357 357 356 357 357 357 357 357 357 356 358 361 358 358 358 358 360 359 316 315 313 318 351
313 314 314 315 316 320 318 318 318 318 319 320 322 322 324 325 326 328 329 328 328 328 328 329 332 334 336 337 337 339 341 342 343 343 345 347 350 355 359 358 358 358 358 357 358 359 358 359 360 359 358 358 359 359 359 360 361 361 318 314 312 314 326
312 312 314 315 317 317 317 317 318 319 318 320 321 321 322 323 324 327 329 328 327 329 330 331 332 333 334 334 336 338 340 341 342 344 344 347 349 350 354 360 360 360 360 359 359 361 361 364 363 359 356 357 357 361 362 360 352 364 327 315 312 312 313
311 311 311 313 314 315 315 315 316 317 318 318 319 321 322 322 324 326 327 328 330 330 330 331 332 332 333 334 334 337 339 341 341 342 343 345 348 349 348 352 358 362 362 360 360 360 359 359 359 356 353 353 356 361 363 364 363 339 357 317 312 311 311
312 312 312 312 312 313 314 314 315 315 318 319 320 321 322 322 323 325 326 327 331 331 331 332 331 332 331 332 332 333 336 339 340 340 342 344 346 349 348 348 351 355 360 360 358 357 356 356 355 353 352 351 354 356 358 363 364 349 336 340 312 312 310
311 311 311 312 312 315 315 314 314 314 316 318 321 321 322 323 322 323 324 327 330 330 331 331 331 331 330 330 331 332 333 335 339 340 339 341 343 345 347 349 350 350 355 357 356 356 355 354 353 352 351 351 353 356 359 361 363 365 351 329 320 313 312
311 313 313 313 313 314 315 314 314 313 313 315 318 319 321 321 322 322 323 325 328 330 329 330 331 331 330 330 330 330 331 332 334 339 341 341 342 345 347 347 347 349 353 354 354 355 354 353 353 351 351 352 354 355 358 362 365 365 368 346 331 322 315
311 312 312 313 314 315 314 315 313 313 313 313 316 318 319 319 319 322 325 325 324 325 327 329 329 329 330 329 328 330 331 332 332 334 337 339 341 342 345 348 349 349 350 353 353 354 353 352 351 351 352 352 354 356 359 363 364 364 364 365 362 352 342
310 311 313 314 315 315 314 313 314 315 315 315 316 317 318 318 319 320 322 323 323 323 326 327 327 326 327 328 328 328 329 330 331 332 335 337 340 339 340 344 347 348 349 351 353 353 353 352 352 352 353 354 356 358 359 359 358 363 363 364 364 365 362
310 311 312 312 313 314 313 313 313 314 314 315 317 317 317 318 319 320 322 324 325 325 326 326 325 325 325 326 327 326 329 328 329 330 331 334 337 339 340 341 342 343 347 352 354 356 356 353 354 356 358 359 358 357 358 359 359 364 344 368 342 358 363
309 310 310 312 312 313 313 313 313 313 313 314 316 317 318 319 319 321 322 323 325 326 327 327 326 326 324 325 326 326 326 327 327 327 329 330 332 334 337 336 322 330 340 340 335 327 320 318 337 345 347 346 350 356 358 359 366 340 329 326 326 322 322
307 308 309 310 310 311 311 312 313 313 313 313 315 316 317 319 320 320 322 323 323 325 326 326 324 323 323 325 326 327 328 327 326 328 330 331 331 333 334 336 340 314 311 320 326 323 316 312 310 311 314 332 342 344 331 327 322 316 318 317 315 315 314
308 309 309 310 309 310 311 311 311 312 313 313 314 314 316 317 319 320 321 322 322 325 326 326 323 322 322 324 325 326 328 329 329 330 329 329 331 332 332 333 334 338 323 309 309 311 307 306 306 306 308 309 315 329 346 334 320 315 314 313 311 310 310

ECMWFFLT1_sfc_thetae_093.txt.gz
Theta_e
343 343 344 344 345 344 344 346 348 347 350 349 350 352 351 353 355 358 360 362 363 364 365 366 366 366 363 361 360 360 360 360 361 360 359 358 356 355 355 356 359 360 358 357 359 358 362 366 366 365 368 366 367 368 372 371 370 367 370 376 368 370 371
342 343 343 340 344 345 346 346 347 348 348 349 351 351 352 353 354 356 360 364 366 366 366 367 367 366 365 364 361 362 361 360 361 362 360 359 359 358 355 356 356 360 362 360 359 361 363 362 365 367 367 367 365 369 367 369 370 370 370 371 369 369 371
340 342 341 343 344 343 344 347 349 348 349 350 351 353 353 357 355 359 360 363 366 367 368 368 368 366 366 364 363 363 363 360 360 360 358 355 358 354 356 358 357 355 358 360 363 361 361 364 365 366 365 364 362 365 367 369 370 369 370 373 369 367 369
340 341 343 344 346 348 349 348 346 350 352 350 349 349 350 355 357 360 360 365 365 367 368 368 367 365 365 366 364 364 364 363 361 358 357 355 355 356 355 356 358 355 354 355 355 359 358 361 363 365 365 363 363 362 363 364 364 366 367 369 367 367 367
339 341 342 342 344 345 348 349 349 350 350 350 354 352 351 352 355 355 359 360 360 360 362 364 365 364 365 366 363 362 364 363 361 358 358 357 357 357 354 353 354 354 353 354 356 356 359 360 360 362 363 365 362 363 363 363 363 364 365 366 365 364 361
336 339 340 342 344 347 344 346 349 350 352 350 347 350 352 354 353 354 357 355 355 356 358 360 361 364 364 364 362 361 365 366 364 362 359 358 357 354 354 354 352 354 350 352 352 354 356 357 358 360 361 360 358 356 358 360 360 360 363 364 364 360 356
336 337 339 342 345 345 346 348 349 349 352 354 355 352 353 352 354 354 355 355 356 362 357 356 357 361 365 363 363 362 364 364 365 361 359 357 357 356 355 356 356 352 352 354 353 353 353 357 358 360 360 359 358 355 358 360 360 360 361 363 363 362 363
336 336 338 340 342 346 347 348 349 349 351 351 352 350 350 351 353 352 353 356 354 357 355 354 355 358 365 364 363 362 363 363 364 364 360 357 356 356 354 355 356 356 353 349 353 353 351 357 357 357 357 357 358 359 356 359 362 358 359 360 362 362 358
335 337 337 339 342 343 345 349 350 349 351 350 351 353 352 353 353 357 353 357 357 355 353 357 358 359 363 363 363 363 362 362 362 364 361 356 354 353 352 353 356 358 354 350 349 354 354 352 355 357 357 358 358 360 358 362 360 361 360 360 361 362 358
334 335 337 339 342 341 340 341 345 349 351 353 353 353 352 350 350 351 351 353 356 350 352 356 358 354 359 363 362 362 362 363 361 360 359 355 353 351 351 349 352 356 354 351 349 347 354 354 353 355 359 357 358 359 361 360 360 360 360 359 361 362 363
333 335 336 338 339 339 340 340 341 342 346 350 349 351 352 352 350 349 354 352 353 356 357 358 355 354 357 360 362 362 361 360 359 358 358 355 353 352 350 348 347 351 352 352 349 346 349 354 355 357 358 355 357 358 360 360 362 362 358 358 359 361 361
332 332 332 334 335 336 337 338 340 340 341 344 347 348 351 353 353 353 351 350 352 351 352 359 357 356 357 359 360 360 361 360 359 357 357 357 354 352 351 349 348 347 349 351 350 348 345 350 353 353 356 358 359 359 360 362 362 363 363 357 355 358 359
328 329 330 331 332 333 335 336 337 339 340 340 341 344 348 349 352 352 354 351 356 355 354 357 350 353 354 359 354 359 358 359 359 359 357 357 357 354 352 351 349 347 347 350 350 349 346 345 351 354 354 357 359 357 359 360 360 363 363 361 359 356 358
327 327 329 329 330 330 331 333 335 336 338 338 339 341 343 350 350 353 352 352 352 358 354 352 354 352 353 354 353 356 357 358 360 360 362 361 363 359 354 352 351 351 350 351 351 348 347 345 345 350 354 355 357 359 359 359 359 361 362 362 359 355 354
324 324 326 326 328 329 329 329 332 333 334 336 337 338 340 343 347 351 352 353 355 354 351 354 356 353 353 353 353 358 360 362 360 361 364 362 363 360 358 355 355 355 354 353 351 350 349 347 345 346 350 354 357 358 356 352 355 357 359 359 360 358 352
323 323 324 324 325 326 328 328 330 331 333 334 334 336 337 339 343 346 349 349 351 352 353 354 354 356 353 353 355 357 359 363 364 365 364 363 362 364 362 359 358 355 354 354 352 355 356 356 352 348 347 350 354 356 354 352 349 355 348 353 358 358 351
322 322 323 324 326 326 327 328 328 329 330 331 332 333 335 337 339 341 345 348 350 352 354 355 355 354 354 355 356 358 360 358 361 363 363 365 365 365 366 364 360 359 363 359 357 360 364 357 354 351 348 348 349 352 352 351 348 343 335 337 344 356 356
321 322 323 324 325 326 326 327 328 328 328 329 329 331 332 335 336 337 341 346 348 351 351 351 352 354 356 356 359 359 357 359 362 363 363 364 367 368 367 366 364 362 362 359 358 363 359 357 357 358 354 351 350 349 350 351 347 332 332 335 335 345 356
321 322 322 324 325 325 325 326 327 329 329 328 329 330 331 332 334 337 341 345 347 351 351 351 348 351 353 356 358 359 358 356 357 361 361 363 363 367 367 367 365 361 359 358 360 360 362 363 359 359 359 357 354 350 350 350 341 331 329 332 332 334 348
321 321 322 322 324 325 326 326 327 328 330 330 330 330 331 332 331 334 339 342 345 348 349 348 348 348 346 349 351 352 352 351 348 347 349 355 358 361 364 365 365 361 359 357 359 360 359 360 361 360 362 361 360 358 355 353 345 329 326 328 329 331 339
320 320 321 322 322 323 325 326 326 327 328 329 330 330 331 330 330 333 335 338 340 344 346 345 345 346 346 347 348 348 347 350 350 351 351 351 353 356 354 356 359 361 360 357 357 358 360 359 360 361 362 360 360 360 357 355 340 328 323 323 325 328 336
320 319 319 320 321 322 323 323 324 326 328 330 331 328 330 330 331 331 331 335 338 341 343 342 343 343 343 343 343 345 346 344 343 347 352 355 356 354 353 353 353 355 360 359 357 359 359 361 360 360 360 360 361 358 358 358 335 328 322 320 322 326 346
319 320 320 321 320 321 323 323 322 324 327 327 328 327 330 331 331 332 331 331 333 336 336 337 337 338 340 341 342 344 344 343 343 345 348 352 355 353 352 353 354 356 358 358 355 356 357 359 358 361 360 360 360 359 360 359 344 325 320 318 319 327 351
318 320 319 320 321 321 323 323 322 323 323 323 325 324 328 331 331 333 333 333 332 335 335 335 334 336 337 338 340 344 345 344 342 343 345 347 350 356 359 360 358 356 357 353 355 358 358 358 359 360 360 359 359 359 359 359 350 323 318 316 317 333 353
317 318 318 318 318 319 319 321 322 322 323 323 323 323 325 327 327 327 331 333 330 333 333 332 333 334 334 335 336 338 341 345 345 343 343 345 348 351 353 355 356 356 358 360 359 358 361 361 360 358 359 358 358 361 358 359 350 324 318 316 315 332 356
316 316 316 317 318 319 320 322 322 321 320 319 322 323 324 324 324 326 328 329 329 330 331 332 333 334 336 337 336 337 339 341 345 344 344 345 347 349 352 354 357 358 359 359 359 357 358 360 358 358 359 358 358 358 358 358 359 355 318 316 313 319 355
316 315 316 316 316 320 318 319 318 318 319 321 323 322 322 323 323 325 327 328 328 330 331 333 335 335 337 337 336 336 337 339 342 342 344 345 347 349 351 354 354 354 354 358 361 356 358 359 358 356 357 357 359 358 357 355 357 365 316 314 312 315 328
314 314 315 317 318 317 317 316 318 318 318 320 320 321 322 323 323 324 326 326 326 329 331 334 335 335 337 336 336 336 336 337 341 343 342 345 347 348 348 352 354 354 355 354 357 358 359 360 359 358 356 357 361 361 362 365 362 364 325 314 312 312 315
313 313 314 315 316 316 315 315 316 316 317 317 319 321 322 322 322 324 325 325 327 328 331 332 333 334 335 337 336 336 336 338 338 339 341 343 345 346 346 348 351 353 354 356 356 356 357 359 359 359 358 361 361 362 364 365 366 347 361 314 310 310 311
314 314 314 314 314 315 316 316 316 316 318 318 319 320 320 322 323 323 324 325 328 329 330 331 332 333 332 335 335 334 334 335 336 337 339 342 344 345 346 348 349 350 352 353 353 353 355 355 353 357 358 357 358 360 362 364 363 353 339 345 311 311 309
312 313 313 314 314 317 317 317 317 317 318 319 320 320 321 321 321 323 323 326 328 329 329 329 329 329 331 333 333 333 333 333 335 335 338 341 341 342 343 346 347 347 351 353 354 355 354 355 353 351 352 353 354 358 358 360 362 364 352 332 325 312 310
313 314 314 314 315 316 317 316 317 316 316 318 319 319 321 320 320 320 323 325 326 327 328 328 328 329 330 330 330 329 330 331 331 334 337 337 338 339 341 342 343 345 348 350 350 353 354 354 353 351 352 352 354 356 356 357 361 360 363 353 338 324 313
312 313 314 314 315 316 315 316 315 315 315 316 318 319 319 320 320 321 322 323 323 323 326 327 327 327 327 328 328 329 328 329 329 331 332 333 335 339 341 342 343 343 346 349 349 350 351 353 352 352 354 354 354 355 355 358 358 359 359 363 364 360 345
312 313 314 315 315 316 316 315 316 316 317 317 318 318 318 318 319 321 322 321 321 322 323 324 325 324 324 326 328 327 325 325 330 330 330 332 334 334 335 337 338 339 341 343 346 347 348 349 349 349 348 351 353 354 356 356 357 360 358 364 361 361 364
312 313 313 313 314 315 314 315 315 316 316 317 318 318 319 319 319 320 322 323 323 324 323 322 323 324 324 324 326 326 327 325 325 325 328 331 333 333 335 336 338 340 341 342 343 343 341 338 338 340 342 347 349 352 354 356 357 363 328 342 323 340 357
312 312 312 313 313 314 314 315 315 315 316 316 318 318 318 319 320 321 321 323 324 324 324 324 324 324 323 325 325 325 324 324 324 327 329 328 328 331 333 335 324 330 336 336 334 325 318 316 334 339 341 340 342 345 345 348 353 329 316 313 315 314 313
311 310 310 312 311 312 312 313 314 315 315 315 317 317 318 318 319 320 321 323 323 324 325 325 324 323 323 325 326 326 326 325 326 328 329 330 330 331 332 333 336 313 310 318 324 320 313 309 308 309 312 328 336 336 326 323 319 315 313 311 310 313 313
311 311 311 311 311 311 311 312 313 313 314 315 315 315 317 316 318 319 319 321 322 324 324 324 323 322 322 323 325 326 327 326 328 328 329 329 330 332 331 331 331 334 320 309 310 310 305 304 304 304 306 308 314 326 336 326 317 311 310 308 307 310 310

ECMWFFLT1_sfc_thetae_096.txt.gz
Theta_e
343 344 343 344 344 345 346 346 347 346 347 347 348 346 347 346 350 353 356 361 361 361 362 364 365 364 363 360 362 363 363 364 364 362 362 362 362 362 361 356 358 364 359 359 361 366 367 372 368 366 368 369 370 374 375 374 372 368 373 374 371 371 375
340 342 343 345 345 345 348 350 350 348 348 347 348 353 355 354 355 352 354 361 361 362 361 362 365 365 364 361 359 362 364 363 364 364 362 365 365 366 361 362 364 365 369 364 366 367 368 365 368 369 366 368 367 372 370 372 373 373 369 373 372 373 374
340 342 342 344 345 345 348 347 350 348 348 347 348 349 353 357 352 351 350 359 362 363 361 361 365 364 364 364 360 360 362 361 362 360 359 356 357 353 357 362 361 360 359 363 366 361 363 364 371 371 368 365 363 370 371 371 373 370 373 373 372 368 373
340 341 341 342 346 347 347 345 347 349 348 348 349 350 355 355 355 352 351 357 359 364 361 360 361 362 362 363 360 360 360 361 360 357 356 356 356 354 356 360 359 359 360 358 357 357 356 363 363 369 368 369 369 365 367 368 366 370 370 373 372 370 374
340 341 341 343 344 344 344 345 346 349 350 351 352 354 354 355 355 355 356 359 360 361 360 363 361 361 363 362 358 357 358 357 358 358 357 356 358 357 354 352 354 354 357 356 362 366 371 363 362 365 366 370 365 368 367 367 367 370 370 370 371 367 367
338 340 342 344 344 347 347 347 348 349 351 356 351 352 350 351 354 355 357 354 354 358 364 363 362 360 361 361 359 357 360 361 361 361 359 358 359 354 352 353 353 354 351 354 356 356 361 362 360 361 360 359 359 359 360 362 361 362 368 368 367 364 360
337 339 341 344 343 346 347 350 350 351 357 358 353 353 351 350 350 353 356 354 356 358 358 358 358 358 360 362 361 361 360 358 359 356 357 355 355 355 354 354 355 352 351 355 354 354 354 358 361 363 362 359 361 358 360 364 363 362 366 366 368 368 369
337 338 341 343 343 345 346 349 353 353 355 357 355 354 353 353 353 349 351 353 354 354 353 356 358 360 360 362 357 358 359 360 359 358 357 354 352 353 353 353 354 356 355 351 354 354 351 356 353 358 361 359 361 361 360 365 367 359 360 363 364 363 359
337 339 340 341 342 344 345 347 349 350 352 353 355 354 355 351 352 352 352 356 360 359 361 358 357 359 364 363 359 359 358 361 361 359 356 353 351 350 350 351 352 355 353 349 349 353 353 355 353 358 361 360 362 364 361 365 361 360 361 361 363 362 359
336 337 338 339 340 340 342 343 347 349 350 349 351 354 356 355 355 353 353 353 353 353 355 358 358 357 357 358 358 360 354 357 360 358 355 352 350 349 350 350 351 354 351 349 348 348 352 354 355 359 361 360 363 364 361 362 361 359 359 364 363 362 363
333 335 336 337 337 338 340 341 342 344 346 347 349 351 351 351 352 352 354 353 354 355 354 357 357 356 354 356 356 358 356 351 354 357 357 354 351 349 349 349 349 352 351 349 346 348 349 353 357 359 360 355 357 361 361 360 361 362 358 359 360 362 360
331 332 334 335 336 336 336 338 341 341 343 345 348 348 347 347 348 352 352 352 355 355 353 353 355 354 353 358 356 354 355 354 352 353 354 354 353 350 350 348 348 349 352 351 348 348 349 351 351 355 358 356 355 358 360 361 361 362 361 358 358 359 359
329 330 332 332 333 334 336 337 337 340 342 342 343 345 348 350 351 351 351 353 354 353 353 354 358 358 356 356 356 354 354 355 356 350 356 354 352 349 349 348 347 347 349 351 350 347 345 348 351 352 357 358 357 356 359 361 361 363 364 362 361 360 358
329 328 329 330 331 332 332 333 336 339 339 341 342 343 348 349 350 351 351 351 353 355 354 354 350 349 352 356 354 353 352 355 357 353 356 358 356 354 349 347 346 347 349 351 349 347 345 343 347 351 352 357 357 358 360 362 361 363 365 364 361 360 359
324 325 326 327 328 329 329 330 331 333 335 339 341 341 342 342 344 348 349 351 354 354 353 353 355 354 354 356 354 353 355 354 355 352 352 356 360 358 355 353 353 355 355 353 348 346 347 345 343 348 349 352 356 358 357 356 358 358 361 362 362 360 355
324 324 324 325 326 327 328 328 329 330 332 333 334 337 339 339 341 344 349 351 354 354 351 355 354 352 352 351 352 354 356 359 353 352 354 354 351 349 348 349 357 349 352 355 353 354 354 352 351 347 350 351 354 356 354 354 354 356 348 352 359 360 355
323 324 324 325 326 326 327 328 327 328 330 330 331 333 335 341 342 343 345 347 347 349 351 351 350 353 352 354 352 353 355 357 354 354 353 354 355 354 355 355 353 349 356 360 361 360 370 363 353 348 345 349 351 352 351 351 351 346 337 338 345 358 359
321 322 322 323 324 325 325 327 327 327 327 327 327 329 332 338 338 339 341 343 346 351 352 351 349 349 350 350 351 352 352 355 357 356 356 357 355 355 355 356 353 351 352 355 358 364 360 354 357 358 351 346 346 347 350 352 349 335 333 335 336 346 357
321 321 321 322 322 323 323 324 326 327 326 327 328 328 329 332 335 341 342 343 347 349 348 347 346 346 348 347 347 348 349 351 353 355 356 356 357 357 354 353 355 353 354 354 357 359 363 359 356 357 356 352 352 350 348 350 341 332 329 332 333 334 348
320 321 321 321 322 322 322 323 324 325 326 327 328 329 330 333 331 333 337 340 345 345 344 344 344 344 345 347 346 346 346 346 347 349 354 356 356 357 358 355 353 355 357 358 358 358 355 357 359 358 361 358 356 357 353 350 344 331 326 327 329 331 338
320 319 320 320 320 320 322 323 324 325 325 324 325 328 329 329 331 331 333 336 336 338 340 339 339 341 343 344 346 346 345 343 341 343 346 352 357 357 356 356 356 355 355 356 357 357 357 357 354 356 359 358 357 357 355 353 340 329 323 323 324 328 334
319 318 318 319 320 320 320 320 323 324 327 328 325 324 326 326 331 331 330 333 337 337 336 337 337 337 339 338 340 344 346 344 342 342 346 349 351 354 357 357 357 356 357 357 356 358 360 359 356 353 354 356 355 356 356 357 337 332 323 320 321 326 341
318 318 318 319 319 320 321 321 321 323 328 328 324 328 329 325 328 330 329 329 332 334 334 336 337 337 338 337 339 341 344 346 343 343 344 346 349 350 353 355 357 358 359 356 355 354 355 356 355 357 355 357 357 355 354 355 346 331 321 318 319 324 344
318 318 317 318 319 320 320 320 320 322 321 322 322 322 329 332 331 330 331 329 331 336 337 336 335 336 338 337 339 340 343 345 347 345 344 345 346 349 352 354 356 358 360 355 354 354 354 356 358 357 356 354 354 353 354 356 351 331 319 316 317 329 346
316 317 317 317 317 317 317 319 320 320 321 320 320 321 323 326 326 325 327 328 326 331 332 332 332 332 333 332 334 338 340 339 343 345 344 345 345 346 349 351 353 355 356 358 357 356 357 358 357 357 357 357 356 354 354 356 350 332 319 316 315 327 347
315 315 316 316 317 317 318 321 319 318 317 317 320 321 321 322 323 325 325 325 324 325 324 328 331 332 335 335 334 335 337 338 343 343 343 345 345 347 349 352 353 354 355 357 358 357 356 356 355 354 355 355 355 354 354 354 356 353 320 315 313 318 348
315 315 315 315 316 320 316 317 316 316 316 320 322 319 320 321 321 322 324 326 326 325 325 328 331 333 335 336 335 334 334 334 337 339 341 342 346 345 347 348 350 354 354 354 355 354 353 354 355 354 356 357 357 354 354 355 354 352 328 314 312 314 327
313 314 315 317 318 317 316 315 317 317 316 318 318 319 319 319 321 324 324 323 323 325 329 332 332 333 334 334 335 335 334 333 339 339 337 343 347 347 347 347 348 348 353 356 356 353 352 352 353 353 353 354 356 356 357 359 359 360 338 326 312 311 315
313 313 313 314 315 316 316 316 315 316 317 317 318 319 319 318 320 321 323 323 325 326 328 330 332 333 334 335 335 337 336 337 336 339 334 338 342 344 344 346 346 348 351 350 353 354 351 350 350 352 350 348 349 351 352 356 357 347 352 333 315 310 309
313 313 312 313 314 315 316 316 316 316 317 317 319 320 321 321 321 322 321 323 328 327 327 328 328 332 331 332 334 333 332 331 332 334 335 336 340 344 345 345 346 347 349 350 351 352 353 352 352 349 347 346 348 350 352 353 355 349 339 343 319 309 310
312 312 312 313 313 317 316 315 314 314 316 317 319 320 322 321 320 321 321 325 327 328 326 326 326 328 328 329 329 330 329 330 332 332 332 334 336 338 339 341 344 344 347 349 349 351 352 355 351 347 346 348 348 350 353 356 358 359 350 336 330 313 308
313 314 314 314 314 314 314 314 314 314 315 316 318 318 322 319 319 320 322 321 325 325 324 325 326 326 326 325 325 325 326 328 327 327 331 333 332 332 334 335 338 343 349 349 348 351 352 353 348 346 345 345 348 352 355 358 359 358 356 352 345 335 320
313 313 313 313 313 315 314 314 313 314 315 314 317 317 318 318 318 319 323 323 320 320 324 323 324 325 325 325 322 325 326 327 325 326 326 327 326 328 331 336 336 336 343 345 340 342 348 349 348 347 348 347 348 349 352 353 355 360 356 355 359 356 348
312 312 314 314 314 315 314 313 313 313 314 315 316 317 318 318 318 319 319 320 320 321 322 323 323 321 322 322 322 323 322 322 327 328 325 324 324 324 328 331 331 331 338 339 337 337 338 339 344 343 342 340 341 342 343 344 350 355 353 353 345 342 345
312 313 313 313 313 314 313 313 313 313 313 314 315 316 317 317 318 319 320 320 321 323 322 321 322 323 322 322 322 322 325 322 322 323 323 324 327 330 336 333 331 337 338 335 337 335 332 333 333 335 335 337 340 340 341 342 341 347 333 337 318 330 337
312 312 312 312 313 313 313 314 313 313 313 314 315 316 316 316 318 319 318 320 321 322 321 321 321 322 322 322 323 323 323 323 322 323 324 323 323 325 328 333 322 326 332 329 333 327 320 321 333 336 338 336 338 341 339 339 342 326 313 310 310 312 313
311 311 311 311 311 311 312 312 313 313 313 314 315 315 315 316 317 319 319 321 321 321 321 321 321 320 320 323 323 324 324 323 322 324 327 327 325 328 328 329 330 312 310 316 323 320 313 308 308 310 314 330 334 334 324 321 316 311 309 307 305 303 302
311 311 311 310 310 311 311 311 312 312 312 313 314 314 315 314 315 318 317 319 320 321 321 321 320 319 318 319 320 324 326 325 326 326 327 328 329 328 328 327 328 332 318 307 309 310 307 305 305 305 306 307 314 327 334 324 314 308 306 306 304 305 306

ECMWFFLT1_sfc_thetae_102.txt.gz
Theta_e
337 337 337 339 340 336 334 334 334 335 336 337 338 339 342 345 345 345 344 348 347 348 350 348 351 353 352 352 354 353 354 351 354 349 350 350 353 351 352 353 353 352 352 354 354 355 358 360 360 360 361 360 360 359 359 362 360 363 359 359 357 360 359
336 337 338 340 342 339 337 335 335 336 335 336 338 338 342 345 346 345 345 347 347 348 351 349 351 353 353 352 354 353 352 352 355 354 352 354 355 353 353 354 354 353 353 355 356 355 358 358 359 359 360 361 360 362 363 362 360 361 359 357 356 356 359
336 338 339 341 342 340 341 338 336 336 335 337 338 338 342 345 346 346 347 347 347 348 352 350 350 353 354 353 353 353 352 353 354 354 350 353 352 353 353 354 354 353 353 354 355 356 359 357 357 358 359 359 360 362 363 362 361 361 359 357 356 357 357
337 339 341 342 342 341 343 342 344 348 340 340 339 338 342 345 347 347 348 348 347 348 351 351 350 353 354 353 353 352 352 353 354 354 353 353 353 353 353 352 353 354 353 353 355 355 360 358 357 357 364 358 360 362 363 362 361 360 360 359 358 358 358
336 337 339 340 338 340 341 343 346 345 344 345 346 348 345 346 348 348 348 350 349 348 352 353 352 353 355 354 354 354 353 353 354 354 354 354 354 354 352 352 352 353 353 354 354 355 354 356 358 357 359 357 359 361 362 361 360 360 360 359 358 358 358
336 336 337 338 339 340 340 342 343 346 347 346 346 347 346 347 347 348 350 352 351 350 353 354 352 354 354 354 354 354 353 353 353 354 354 353 353 352 352 352 352 353 352 353 356 354 352 354 357 358 358 356 357 360 360 360 360 359 359 359 358 359 360
335 337 338 340 338 337 341 343 345 346 348 347 348 349 348 347 347 348 350 351 352 352 353 354 354 354 355 355 353 353 352 353 353 354 353 353 353 351 350 351 353 351 352 352 353 354 352 352 354 358 358 357 356 358 358 358 358 358 358 358 358 357 357
334 335 336 339 342 343 342 342 346 347 347 348 348 347 347 348 349 349 349 350 351 352 353 356 356 355 355 355 354 352 351 352 353 353 353 352 351 351 349 349 350 350 350 350 351 352 353 353 353 354 357 358 356 356 357 357 357 358 357 357 356 357 359
332 334 335 338 341 342 341 343 344 345 344 344 346 346 348 348 349 349 350 352 353 352 352 350 348 346 345 345 346 349 351 351 351 352 352 352 351 351 350 349 348 349 348 349 350 351 350 352 354 353 354 355 355 354 354 355 355 355 356 356 356 355 356
330 331 334 337 339 340 339 340 342 343 344 343 344 346 347 348 349 349 349 349 351 352 353 353 349 347 346 346 346 345 346 349 351 351 352 351 351 350 350 350 348 349 348 348 349 349 350 349 351 354 353 353 353 353 353 352 353 353 353 355 355 355 354
330 331 332 334 337 338 338 339 340 341 344 344 344 345 345 347 348 348 348 349 349 350 353 353 349 349 349 348 347 347 346 348 348 346 349 350 351 350 348 348 349 348 348 347 346 347 348 349 348 350 353 353 353 352 352 352 353 353 353 353 355 355 354
328 330 331 332 335 335 335 335 337 339 342 342 343 343 345 345 346 346 347 348 348 349 350 351 351 349 347 347 346 346 345 346 348 349 348 350 347 347 345 345 345 344 345 348 347 345 346 347 348 348 349 352 353 353 353 352 352 353 353 353 353 354 354
325 326 327 330 333 335 337 337 337 338 341 344 345 346 346 346 347 348 348 350 351 350 349 351 351 351 348 346 346 345 346 347 348 348 347 349 350 350 346 344 344 345 344 345 345 345 344 345 346 348 347 347 351 353 353 353 352 352 352 352 351 352 353
326 324 326 327 329 331 331 333 334 334 336 339 343 345 345 345 346 346 348 349 352 353 353 352 352 348 347 348 347 346 348 348 349 349 348 349 351 352 351 347 345 344 344 347 346 344 344 343 344 346 347 347 347 349 352 353 352 351 351 351 350 350 351
321 321 322 324 326 328 330 331 332 333 334 336 341 344 344 343 343 346 346 346 348 350 351 353 352 348 346 347 348 348 349 350 350 351 351 353 352 352 351 350 348 347 345 345 345 347 345 345 343 343 345 347 347 347 349 350 352 352 351 351 351 350 349
320 320 321 321 322 323 326 328 330 331 333 334 337 340 340 340 341 343 345 347 348 350 351 351 351 351 352 351 351 351 351 350 350 351 351 350 348 348 350 350 349 349 347 346 346 345 348 347 344 342 342 345 347 347 348 348 350 353 346 349 352 351 351
318 318 319 320 320 321 322 323 326 329 332 335 337 338 339 340 340 341 342 345 347 347 348 347 345 346 346 346 349 351 351 349 348 348 349 349 347 349 350 351 351 350 349 348 348 347 348 353 351 343 341 342 344 347 348 349 349 344 336 337 342 352 350
316 316 317 317 318 317 317 318 320 324 331 335 337 337 337 337 339 340 340 343 344 346 347 345 343 342 343 344 345 346 346 349 351 350 350 351 349 349 350 351 350 348 348 349 350 350 354 352 351 351 345 341 342 344 347 348 347 336 333 334 334 343 352
314 315 315 317 318 317 316 317 319 320 324 330 336 336 337 337 336 336 337 339 341 343 344 344 344 341 341 342 342 342 343 344 344 346 346 347 348 350 350 348 349 349 349 350 351 353 351 350 352 352 353 351 343 340 344 347 341 333 332 331 331 332 343
314 314 314 315 316 318 317 318 319 321 322 323 327 331 333 335 335 335 337 337 337 336 337 338 340 342 342 341 341 341 342 342 342 342 343 346 346 348 348 350 350 351 351 352 352 350 351 353 352 351 350 351 351 349 348 345 343 332 327 326 327 328 333
312 313 312 311 311 313 316 317 317 318 320 323 324 322 323 327 333 334 334 335 335 335 335 335 334 335 338 341 342 342 342 341 341 341 343 345 346 346 347 349 350 351 352 352 352 350 349 351 351 351 352 352 353 352 351 351 330 330 328 326 323 324 328
312 312 311 311 311 311 312 316 318 317 319 325 323 322 322 322 325 329 331 331 330 330 330 331 332 334 335 335 340 342 342 341 341 341 343 344 345 346 347 348 348 348 352 354 353 353 353 353 353 352 351 352 352 351 351 352 331 329 329 325 321 323 333
313 312 312 312 312 311 312 314 317 317 319 321 323 323 321 321 322 323 327 330 330 329 329 329 328 328 329 330 333 340 343 342 341 341 343 343 344 344 344 345 346 349 351 351 352 353 352 352 353 353 353 352 352 350 349 350 332 324 324 329 322 325 332
313 312 311 310 311 312 314 315 315 318 318 318 320 321 321 321 321 321 321 322 325 327 327 327 327 328 328 328 330 332 335 341 341 341 342 342 342 343 345 346 346 347 349 349 350 352 353 353 351 352 353 353 352 352 351 352 342 320 317 318 319 331 334
310 310 310 311 311 312 313 315 316 315 315 314 314 317 320 321 321 321 321 322 320 322 323 325 327 327 326 327 327 329 332 332 336 337 337 337 338 342 344 345 344 347 349 350 351 352 352 354 352 352 352 354 354 355 353 353 346 321 318 316 317 328 337
308 310 312 313 313 313 314 315 314 313 313 313 313 316 319 321 321 325 322 320 320 321 323 324 326 327 328 327 326 328 333 329 330 330 330 331 333 336 340 345 346 346 347 349 350 351 352 352 351 352 351 353 353 354 355 353 352 348 329 323 321 323 341
311 313 313 313 314 318 311 311 311 311 313 314 315 316 319 320 319 318 319 317 316 318 319 320 322 323 323 324 326 329 331 326 326 328 329 332 331 329 329 331 336 342 343 344 345 348 350 351 350 350 349 350 351 351 351 354 353 351 332 324 319 318 327
311 311 313 318 320 315 310 310 310 312 314 315 316 317 317 319 319 317 315 315 315 317 319 319 319 320 321 323 322 325 324 323 325 327 328 330 328 323 323 325 330 337 341 342 342 343 346 348 348 348 347 348 348 348 348 352 355 352 339 328 318 314 312
309 309 309 309 310 315 312 309 310 311 313 314 315 315 315 318 319 317 315 314 315 317 320 320 319 320 320 322 321 322 323 323 323 324 325 325 324 321 321 323 326 328 333 335 338 340 343 345 346 345 346 345 345 346 347 347 350 345 347 334 322 314 309
308 308 309 311 312 313 315 310 311 311 312 312 314 314 314 315 317 318 315 313 317 317 320 318 319 319 320 321 320 320 321 322 322 320 320 321 322 321 321 322 323 324 325 329 335 337 339 342 344 345 346 344 344 345 346 347 349 347 341 341 329 317 311
307 308 308 309 311 314 311 309 309 310 311 311 311 312 313 313 314 316 313 313 318 316 317 317 319 320 320 318 318 319 319 320 319 320 320 320 320 320 323 322 323 326 329 332 333 336 334 335 344 343 344 342 341 342 344 347 348 351 348 337 332 320 311
307 307 308 308 309 311 309 309 310 310 311 311 311 311 314 312 312 312 312 314 316 315 316 317 318 318 318 318 318 318 318 318 319 320 320 321 320 321 322 323 326 327 326 324 323 324 326 329 329 330 330 329 330 333 334 339 342 344 347 349 345 336 319
306 306 307 307 310 311 308 309 309 311 312 312 310 310 312 312 312 313 313 314 314 315 315 316 318 319 317 314 315 316 317 317 319 321 320 318 319 320 322 325 323 323 324 322 319 319 321 322 324 324 323 324 324 327 332 333 334 335 337 340 345 344 339
306 306 307 308 309 310 307 307 308 310 310 310 309 310 312 312 312 313 312 313 314 313 313 315 317 316 314 315 315 316 316 317 323 321 317 318 319 319 319 320 323 322 321 321 320 319 319 320 321 320 321 320 321 324 327 328 328 329 330 332 336 339 337
305 305 306 307 309 309 306 310 309 309 311 309 310 310 310 310 311 311 311 311 312 312 311 314 315 315 312 313 313 314 318 320 317 316 316 316 318 318 319 319 323 322 321 321 321 322 323 320 318 323 320 320 321 323 324 326 327 328 323 332 324 328 330
305 304 304 306 307 307 310 312 307 309 310 307 308 309 310 308 309 310 311 311 311 311 311 312 312 312 312 313 313 314 315 318 317 316 318 317 316 318 319 325 317 315 319 321 326 320 311 310 316 319 317 316 319 323 324 324 328 321 312 307 304 303 303
304 303 304 305 304 305 305 307 311 309 308 306 309 308 309 309 308 308 310 310 311 311 311 310 312 312 310 313 312 314 316 316 315 316 315 315 315 315 316 316 317 308 308 311 315 311 306 304 304 305 309 317 316 318 316 316 312 307 306 305 304 303 303
304 304 305 306 304 305 308 307 307 306 307 305 307 306 307 308 307 307 309 309 310 310 310 311 311 310 310 310 311 314 316 313 314 315 315 314 313 313 314 314 315 316 309 306 306 307 304 303 301 302 302 303 307 314 318 314 309 306 304 303 303 303 300

ECMWFFLT1_sfc_thetae_105.txt.gz
Theta_e
336 337 336 337 337 331 330 332 333 334 335 336 337 337 339 342 342 344 345 344 345 345 346 346 348 350 349 350 351 352 353 350 352 348 349 348 349 348 348 350 350 351 351 351 352 353 356 358 359 359 359 359 358 357 356 357 357 360 356 357 355 356 355
336 337 337 338 338 337 337 332 333 334 335 336 337 338 339 341 342 343 344 344 344 345 346 346 349 350 349 349 351 351 352 350 353 353 350 350 353 349 350 350 351 351 351 352 352 353 356 357 359 358 358 359 358 357 357 357 358 357 357 355 353 353 355
335 337 337 335 336 336 336 339 338 335 335 336 337 338 339 341 342 343 344 345 344 345 347 346 349 350 350 349 350 351 352 351 352 351 348 349 351 351 351 351 352 352 352 352 353 354 356 356 357 357 358 358 358 358 358 358 358 358 356 354 353 353 352
335 335 336 337 338 338 337 339 339 339 342 340 340 338 339 342 343 343 345 346 344 345 346 346 348 350 350 349 349 350 351 351 352 352 350 350 351 351 351 351 352 352 351 351 354 355 356 356 356 356 363 357 357 357 359 360 360 358 357 355 353 353 353
334 336 336 337 337 337 336 340 342 341 340 341 343 344 343 345 344 344 344 346 346 346 347 347 348 351 352 351 351 351 351 351 352 352 351 350 351 351 351 351 352 351 352 352 353 355 354 355 355 355 356 357 356 357 359 359 359 359 357 356 354 354 354
335 335 335 337 336 337 338 340 342 344 342 341 341 343 345 345 346 344 345 346 346 346 348 348 347 350 351 352 352 351 351 351 352 352 352 351 351 350 349 350 351 352 351 351 353 352 352 354 355 355 354 356 356 357 359 359 359 359 358 357 356 356 356
334 335 336 337 337 337 339 340 343 344 346 345 343 344 345 346 348 346 347 347 347 346 348 349 348 349 351 352 352 352 350 351 351 352 352 352 351 351 350 350 351 351 352 352 351 352 351 351 354 355 355 355 356 356 357 358 358 358 357 356 355 355 355
336 336 336 336 337 339 342 344 345 345 346 346 344 344 343 346 349 349 348 349 348 348 349 350 349 349 350 352 352 351 351 351 351 352 352 351 351 351 350 350 350 351 350 350 350 351 352 350 352 355 355 355 354 355 356 357 357 357 356 355 355 355 357
335 338 340 339 337 338 341 344 345 344 344 344 345 345 346 347 347 347 351 351 351 349 350 352 351 351 352 352 351 351 351 351 351 351 351 351 350 350 350 350 350 351 350 349 349 350 351 351 351 352 354 355 354 353 354 355 356 356 356 355 355 354 355
333 336 337 337 338 339 340 342 342 340 341 342 342 343 344 346 348 347 349 351 351 350 352 354 353 352 351 350 350 349 349 349 350 351 351 351 350 350 350 350 348 349 349 349 348 348 349 350 351 351 351 353 354 353 353 353 354 355 355 355 355 354 354
331 333 334 335 335 335 337 337 338 339 340 341 343 344 344 346 347 347 348 350 351 350 352 350 350 350 350 350 349 348 348 348 349 349 350 351 351 350 350 350 349 348 348 348 347 347 347 349 349 349 350 351 352 352 352 352 352 352 353 354 355 354 354
330 332 332 333 334 335 334 335 338 340 340 341 342 342 344 346 347 348 348 349 350 351 351 349 349 349 348 348 349 348 348 347 347 348 349 350 350 350 350 350 349 348 348 348 346 346 346 346 347 348 349 350 351 351 352 352 351 351 352 352 352 353 354
329 330 332 332 332 333 333 334 336 338 338 340 341 343 345 345 344 346 347 347 349 350 350 349 348 348 347 347 347 347 347 346 346 347 348 350 349 349 347 346 346 346 346 347 347 345 344 344 345 347 347 348 351 351 351 351 351 351 351 351 351 351 351
329 330 331 332 332 332 332 333 334 337 339 340 341 343 343 344 345 345 347 347 348 349 349 348 347 347 347 347 346 345 346 347 347 347 346 348 349 348 346 344 343 342 343 345 343 344 344 343 343 344 347 346 348 350 352 351 351 350 350 350 351 350 350
324 325 326 327 328 330 332 332 334 336 338 341 342 342 342 344 344 346 347 349 348 347 347 348 346 346 347 347 346 345 345 347 347 348 348 350 348 349 349 347 345 344 343 344 344 345 343 343 342 342 343 345 346 346 349 351 351 352 351 350 350 350 349
320 322 323 324 326 328 330 332 333 335 336 336 337 339 340 341 342 345 346 346 347 347 348 347 345 344 345 346 345 347 348 348 348 348 348 349 348 348 348 348 347 347 345 344 343 342 344 345 346 341 340 342 344 345 345 346 349 353 346 348 352 350 350
316 315 316 318 319 322 326 331 334 335 335 335 335 336 337 339 339 340 342 344 345 345 348 350 346 347 347 346 347 347 348 347 348 348 348 347 345 345 346 347 347 347 346 346 345 344 344 348 348 346 341 339 340 342 345 346 347 343 336 336 340 351 349
314 314 315 317 319 321 323 329 333 333 334 335 335 335 335 336 338 339 339 341 342 343 343 341 341 341 341 343 345 346 347 348 347 347 348 349 348 348 348 348 347 346 346 347 348 347 349 349 348 348 347 344 340 339 342 345 345 335 332 333 333 340 350
314 315 316 318 319 320 321 325 329 331 331 332 333 334 335 335 335 336 337 338 340 341 341 341 341 339 339 340 342 342 344 345 345 345 345 347 348 350 349 346 346 346 346 348 349 350 349 348 349 348 349 349 345 343 342 341 339 333 330 330 329 330 338
313 314 314 316 317 317 317 320 323 327 329 330 332 332 333 334 334 336 337 336 336 336 337 337 338 339 339 340 340 341 342 343 343 343 344 346 347 347 348 348 347 348 349 350 350 348 348 349 349 349 348 349 348 347 349 346 339 330 328 328 328 329 332
311 312 312 313 313 315 315 317 320 321 321 322 325 325 328 330 333 333 332 332 331 333 332 332 332 333 337 340 341 341 341 341 341 343 344 345 345 346 346 347 346 347 349 350 348 347 346 348 347 348 349 350 349 348 350 349 331 329 327 324 324 326 331
309 310 309 310 312 313 316 318 319 320 320 323 322 322 324 326 328 329 329 330 329 329 328 328 328 330 331 331 336 341 341 340 340 342 343 343 345 345 344 346 346 346 348 350 350 350 349 349 349 349 348 348 349 349 348 347 327 327 325 323 322 324 335
309 308 310 311 313 314 316 318 318 319 319 319 319 320 320 321 323 323 324 325 326 326 326 325 325 326 327 329 331 334 337 340 341 340 342 342 342 343 344 344 343 344 348 347 347 350 350 349 349 350 350 350 350 349 348 349 332 323 322 320 319 326 333
309 310 312 312 312 312 312 313 315 317 316 316 318 318 319 320 321 320 319 320 320 320 321 322 322 324 325 324 327 330 333 332 332 334 337 337 337 339 342 343 343 344 347 346 347 348 350 350 349 349 350 350 350 351 349 349 340 319 318 318 316 331 335
310 310 311 312 312 313 314 314 315 316 316 316 316 317 319 320 318 317 316 317 316 316 316 317 319 320 320 322 325 327 327 326 329 329 329 331 331 332 334 337 340 342 346 347 348 348 349 352 351 350 349 352 353 355 353 352 346 322 317 317 315 327 338
310 310 310 310 311 312 314 316 314 313 313 314 315 317 316 316 317 320 316 316 316 315 316 316 317 318 320 320 321 322 323 324 326 326 325 325 325 324 326 329 330 332 337 342 346 347 348 350 349 349 349 351 351 352 353 351 349 338 318 314 315 316 338
313 312 311 312 314 318 312 312 312 312 312 313 315 317 317 315 314 314 316 315 314 315 316 316 317 318 319 319 319 320 321 321 322 322 322 323 323 323 324 323 324 327 330 334 340 343 345 347 347 348 348 349 350 349 349 351 351 347 322 314 313 314 323
316 315 316 318 317 314 311 311 311 311 312 313 315 317 316 315 315 314 313 313 313 314 316 316 316 317 318 318 318 320 320 320 322 323 322 324 323 320 321 323 325 327 329 332 336 338 340 343 346 346 346 347 346 346 345 349 354 349 339 328 319 313 311
308 308 309 310 311 315 312 309 309 310 310 312 313 314 315 315 314 313 312 311 313 314 316 316 316 316 317 318 317 319 319 320 320 321 322 323 323 321 321 323 325 327 327 329 334 335 338 342 343 344 344 344 343 344 344 344 346 343 346 332 320 319 311
308 309 310 310 311 311 313 309 309 309 309 310 312 311 312 314 314 314 312 310 314 314 316 315 316 317 317 318 316 316 318 319 319 320 320 321 321 322 321 323 325 326 325 324 324 324 325 329 334 334 337 337 334 336 339 341 343 342 337 335 324 317 315
307 307 308 309 310 312 310 308 308 308 308 308 310 311 311 311 312 312 310 310 314 313 313 314 316 317 315 314 314 316 315 315 315 319 318 318 319 320 321 321 323 323 323 322 321 321 322 324 328 326 327 327 325 328 330 333 338 338 337 333 332 324 314
306 307 307 308 308 309 309 309 309 309 308 308 309 310 312 310 310 310 309 311 313 312 312 314 315 315 314 313 313 313 314 314 315 317 316 317 318 320 320 320 322 323 322 321 320 320 321 323 325 324 323 322 322 324 325 329 331 331 332 337 337 334 326
305 306 306 307 309 310 307 308 308 309 310 308 308 309 309 309 310 310 310 311 311 311 312 314 314 314 312 311 312 312 313 313 317 317 316 316 316 317 319 319 320 320 321 320 318 318 322 322 324 322 321 320 319 320 323 324 325 326 327 328 330 331 334
304 305 306 307 308 307 305 305 305 308 308 307 306 307 308 308 308 308 309 310 311 311 312 314 314 312 310 310 311 312 314 314 321 318 314 315 316 314 314 316 319 318 317 318 318 318 319 319 320 319 319 317 317 317 318 319 321 323 324 327 328 325 324
305 305 305 305 306 307 305 307 308 307 307 306 305 306 306 306 307 308 308 309 309 310 311 313 314 313 310 311 311 311 315 316 315 314 314 314 314 314 313 314 317 316 316 317 320 322 320 317 315 320 317 316 316 315 316 319 320 323 319 321 311 313 315
303 304 304 305 307 307 309 309 307 306 306 304 305 306 306 305 306 307 308 308 308 309 310 311 312 310 309 311 311 311 314 315 313 312 314 313 312 313 314 320 313 311 314 315 321 316 308 309 314 317 315 313 315 317 316 317 321 316 305 302 300 301 303
302 302 303 304 304 304 306 306 308 307 306 304 306 307 306 305 305 305 307 307 307 307 307 307 309 309 308 311 310 313 316 315 312 313 312 312 311 312 313 313 314 306 305 308 313 309 302 300 301 303 306 314 315 317 315 312 308 302 301 300 300 298 298
303 303 304 304 305 306 306 306 306 305 305 304 306 305 304 305 304 304 306 306 306 306 305 305 306 304 305 307 309 314 316 314 314 315 313 312 310 311 312 311 311 313 308 305 305 306 303 301 301 301 302 303 307 314 317 313 308 304 300 299 299 298 297

ECMWFFLT1_sfc_thetae_111.txt.gz
Theta_e
337 338 340 337 335 335 337 339 341 341 343 344 346 346 348 349 351 353 353 355 356 357 358 359 360 360 360 359 360 361 360 361 361 360 360 361 362 363 363 362 362 364 362 361 363 363 366 368 367 366 368 369 369 371 371 372 371 368 370 372 372 370 369
337 338 339 338 335 335 338 340 341 342 343 344 345 347 348 349 351 352 353 355 356 357 357 358 359 360 359 360 360 362 361 361 362 363 361 363 364 365 364 365 364 365 367 365 365 368 368 367 368 367 367 369 368 371 370 370 371 370 369 371 369 368 369
337 338 339 340 336 335 338 340 341 341 343 344 345 346 347 350 352 353 354 354 355 357 357 357 359 359 360 360 360 361 360 360 361 360 359 357 360 358 362 365 364 363 363 365 368 365 366 366 369 368 367 367 365 370 371 370 371 369 370 370 369 366 368
337 340 341 342 339 339 340 341 341 342 343 343 344 345 347 351 352 354 354 354 354 356 355 356 357 357 358 359 359 360 361 361 360 358 357 357 359 359 361 362 364 363 364 363 363 364 362 366 367 368 369 368 369 368 369 368 368 369 370 371 369 368 369
338 340 341 342 342 338 339 340 341 343 343 343 346 348 348 350 351 353 353 353 353 354 354 355 355 356 358 359 357 358 359 360 360 360 359 359 362 362 360 358 360 361 362 362 365 367 367 367 365 367 368 370 368 369 369 369 369 371 371 371 369 368 364
337 339 341 343 342 340 340 342 343 344 344 345 346 348 349 350 350 350 352 353 353 354 355 356 355 356 356 357 357 357 360 362 363 364 361 363 363 360 360 360 359 360 359 362 363 364 365 365 365 365 364 363 363 363 366 367 367 368 369 370 369 366 363
339 341 341 341 342 343 342 341 341 342 345 347 349 349 347 348 350 350 351 352 353 353 352 353 354 355 357 357 357 359 359 359 361 360 361 360 361 361 361 361 362 360 360 364 363 364 363 364 366 367 365 363 365 363 366 370 369 369 371 371 370 370 369
341 341 341 341 341 342 343 344 344 342 344 347 347 348 347 348 351 351 352 352 353 354 354 353 353 355 356 358 358 357 357 357 359 361 362 359 360 360 361 361 362 363 364 362 364 365 362 365 364 365 365 364 365 367 366 369 372 367 368 369 368 368 364
342 342 340 340 341 342 346 348 347 346 347 347 347 348 351 351 351 350 352 353 354 353 354 352 353 357 359 358 358 358 357 357 359 360 360 358 358 357 357 360 361 364 362 359 360 364 363 363 362 366 368 365 366 368 367 369 368 368 368 369 369 368 364
340 340 341 341 341 342 344 347 346 344 347 348 349 348 347 349 352 352 352 354 354 354 354 354 356 358 359 359 359 358 358 359 358 357 357 356 357 357 357 357 359 362 360 360 359 359 364 365 364 366 368 365 366 367 367 368 367 367 369 369 369 369 368
340 340 340 342 344 344 344 344 344 344 343 345 349 350 350 350 347 348 353 354 353 355 356 356 358 358 358 358 359 360 360 359 358 356 356 356 356 356 357 357 358 360 360 359 358 359 361 365 366 366 366 361 362 364 367 366 367 368 366 367 368 368 366
338 338 338 341 341 343 345 346 346 348 346 345 347 349 350 350 351 351 355 356 357 355 357 358 359 356 355 358 358 360 360 360 360 358 357 356 355 356 356 357 358 359 359 359 358 360 358 360 361 361 364 364 363 364 366 368 368 369 368 365 366 367 366
336 337 338 340 342 343 343 343 343 345 346 346 346 346 348 351 352 352 352 352 353 355 358 359 358 357 356 357 358 359 360 359 360 359 357 359 358 357 357 357 357 358 358 359 359 359 357 358 360 362 362 364 364 362 365 367 366 368 370 367 367 367 367
334 335 337 339 339 339 340 341 343 344 346 345 346 348 348 349 351 352 352 352 352 353 357 355 353 353 355 357 356 357 357 359 361 360 359 361 364 362 359 358 358 358 359 360 360 358 357 357 357 360 361 361 362 363 365 366 365 367 368 367 365 364 365
331 332 334 334 335 336 338 339 341 343 344 345 346 347 347 348 349 351 352 352 352 354 354 356 355 354 355 356 356 357 357 358 358 359 361 362 362 362 361 359 360 360 360 361 359 357 358 358 357 357 358 359 360 362 362 359 360 361 363 364 365 364 362
330 331 332 333 334 335 337 339 341 341 342 343 344 345 345 346 348 349 350 351 351 352 354 355 353 352 351 349 350 353 355 357 358 358 358 358 359 360 360 359 359 358 358 359 359 360 361 360 359 357 356 357 359 360 358 358 358 361 352 354 361 363 360
330 331 332 333 334 335 336 336 337 337 337 337 339 340 341 344 345 345 346 348 351 352 353 352 349 349 348 346 348 349 350 351 351 352 354 353 353 354 354 357 357 357 358 357 357 359 361 360 359 358 356 355 356 356 355 355 355 350 338 337 341 357 361
329 330 331 331 332 333 332 332 333 333 333 333 334 335 336 337 337 337 337 339 341 345 348 349 348 346 346 347 347 347 346 346 346 349 350 349 348 348 350 351 352 354 356 356 356 358 356 355 356 358 357 355 355 354 353 353 354 337 334 335 334 343 358
329 329 329 330 330 330 330 330 330 331 330 330 330 330 332 333 332 331 333 333 334 338 343 344 344 343 344 346 347 347 347 346 345 347 349 349 348 346 346 346 348 350 351 353 355 356 357 358 356 355 355 354 355 353 353 353 347 335 332 331 331 331 344
329 329 329 329 329 329 329 330 329 327 327 328 328 328 329 330 330 330 331 332 333 333 334 334 333 334 335 336 338 342 347 347 348 347 347 348 348 347 346 345 346 349 352 353 355 354 356 357 358 358 360 359 358 358 356 355 352 337 331 328 328 329 335
325 325 325 326 326 327 327 327 327 327 328 330 329 328 327 326 328 328 328 329 329 331 331 332 332 333 334 333 332 332 332 334 335 336 338 342 345 346 347 348 349 351 352 353 354 355 356 355 356 358 358 357 355 355 355 355 346 338 333 327 324 325 333
325 325 325 326 326 326 325 326 326 326 326 328 329 328 325 324 324 324 324 327 327 328 328 329 328 329 330 329 329 329 330 329 330 331 332 333 333 333 335 338 339 341 347 351 353 354 356 353 354 354 355 356 355 353 352 354 330 330 330 327 326 327 344
326 325 326 327 326 326 328 328 327 327 326 324 324 324 324 323 323 323 322 323 324 326 326 327 327 328 329 329 329 329 329 329 329 329 330 331 331 331 332 334 335 338 342 344 347 349 350 352 352 353 354 354 353 350 352 353 337 325 324 324 323 334 355
325 326 325 325 326 326 326 326 325 323 321 321 321 322 324 325 324 323 323 323 325 325 325 325 325 326 327 326 328 329 330 331 331 330 330 330 331 332 335 337 336 336 338 340 344 347 348 351 352 352 353 354 355 354 354 352 340 327 320 320 322 332 355
324 324 325 325 325 324 324 324 323 322 322 321 320 322 323 323 322 320 320 320 321 323 323 323 324 324 325 325 327 328 329 330 330 331 330 330 330 332 332 334 337 337 337 339 341 345 348 350 350 350 350 350 352 351 349 346 342 323 319 318 320 340 358
321 322 323 324 325 325 325 325 323 321 320 320 321 322 323 321 321 322 320 318 318 318 319 321 323 324 325 325 326 328 328 329 329 329 329 329 330 331 332 334 335 338 340 338 339 340 346 350 350 349 346 342 344 347 347 342 340 333 316 315 318 324 352
320 321 321 321 322 324 322 322 321 320 320 321 322 321 321 321 320 320 321 321 320 319 320 322 324 325 325 325 324 325 327 328 329 328 329 329 330 330 331 333 333 335 338 339 341 341 344 347 346 337 338 338 339 342 342 340 338 338 318 313 312 319 335
319 319 321 322 322 321 320 319 319 319 319 320 320 321 321 321 321 321 320 319 318 320 323 324 324 325 326 326 325 324 324 325 327 328 326 329 330 329 329 331 330 332 334 335 335 334 335 338 338 338 335 337 338 339 341 341 338 342 325 315 312 313 320
318 318 319 319 319 320 318 317 317 317 318 319 320 320 320 320 320 319 319 318 320 320 322 322 323 324 324 325 325 324 324 324 324 325 325 326 328 328 327 329 329 331 333 332 332 332 331 332 333 332 332 332 335 337 338 341 340 332 337 317 311 311 314
317 317 317 317 318 317 318 316 316 316 317 318 320 321 322 321 319 319 318 318 322 321 321 322 322 323 321 322 323 323 323 322 322 324 324 325 326 327 327 327 328 329 329 331 330 330 330 331 331 330 327 327 329 331 333 336 338 335 332 327 313 310 309
316 316 316 317 319 318 317 316 315 315 316 318 319 320 321 320 318 317 317 319 321 321 321 320 321 321 320 320 320 321 322 322 321 322 323 323 324 325 325 325 327 326 328 329 328 328 330 331 330 329 327 326 325 327 330 331 333 334 332 329 325 315 311
314 315 316 317 317 318 317 316 316 315 314 315 316 317 319 318 318 316 317 319 320 320 320 320 320 320 320 319 320 320 321 321 320 320 322 322 323 323 323 323 324 326 326 325 325 326 327 328 329 329 329 325 325 326 326 329 330 331 332 330 329 328 320
315 314 314 315 317 317 316 315 314 314 314 313 314 314 314 315 315 317 319 319 317 318 320 319 318 318 319 319 319 321 322 322 320 319 319 320 320 320 321 322 322 323 324 324 322 322 323 323 325 325 324 325 325 326 328 328 330 331 330 331 329 329 329
313 314 316 316 317 318 318 317 316 314 314 313 313 314 313 313 313 315 316 315 315 317 318 318 317 316 317 317 319 320 320 320 319 319 318 319 319 319 320 320 320 320 321 322 322 321 321 321 322 321 321 321 322 325 326 326 328 329 326 326 325 325 327
312 314 315 315 317 318 318 318 316 316 314 314 315 315 315 314 313 313 313 313 315 316 316 315 316 317 316 317 318 318 320 319 319 319 318 319 320 321 321 319 319 321 322 322 322 321 319 320 319 320 320 320 322 322 324 325 325 326 311 319 307 313 318
312 312 313 316 317 318 318 318 317 315 315 314 315 315 315 314 315 315 313 313 314 314 313 315 315 315 316 317 316 317 317 318 318 319 319 318 318 319 321 320 313 316 320 320 319 313 306 305 319 318 320 321 324 325 322 322 323 309 299 298 296 297 297
311 312 313 315 315 316 316 316 317 316 315 315 316 315 315 314 314 314 314 314 314 313 313 313 313 314 315 316 316 316 316 317 317 318 319 319 319 320 319 320 325 303 304 310 314 307 300 299 299 300 305 317 321 321 315 312 306 300 297 295 296 295 294
313 313 314 315 316 316 316 315 315 315 314 315 315 314 314 313 313 313 313 313 313 313 313 312 312 312 313 314 315 316 317 316 317 317 317 318 319 319 318 318 318 321 310 306 307 306 302 300 299 300 302 303 308 316 323 314 305 297 295 295 295 295 294

ECMWFFLT1_sfc_thetae_114.txt.gz
Theta_e
341 341 342 342 341 340 341 343 345 344 346 349 351 351 351 351 353 355 356 361 361 361 364 365 363 364 363 362 363 363 363 363 364 363 360 362 362 364 363 362 362 364 362 361 362 362 367 365 367 367 369 370 370 371 374 374 373 370 372 375 372 371 371
341 341 342 342 341 341 342 343 345 345 347 349 351 353 352 351 355 356 359 362 362 361 363 363 364 362 362 362 362 364 365 363 363 363 362 363 365 365 365 366 365 366 366 365 365 367 367 364 365 367 367 369 369 372 371 373 373 373 370 373 370 371 372
340 342 343 343 342 342 344 344 346 346 348 348 349 351 352 355 357 360 361 361 362 361 361 361 364 362 362 363 362 363 363 362 362 361 360 358 361 359 363 365 366 364 364 365 365 364 364 367 367 367 367 368 367 370 372 373 372 371 372 374 370 367 370
340 342 343 344 344 345 346 346 346 347 348 348 348 350 352 356 358 361 362 360 360 360 359 358 359 359 360 361 361 362 362 363 362 360 358 358 359 360 362 364 366 366 364 363 363 363 362 366 367 367 367 369 369 369 369 370 369 370 371 372 369 370 370
341 342 343 343 344 344 345 346 347 349 350 347 350 353 354 356 358 360 360 359 356 357 357 357 355 357 359 360 359 358 361 361 361 361 361 360 362 362 361 361 361 362 363 363 366 367 368 368 366 367 367 368 370 369 369 371 369 372 372 373 369 369 366
341 344 342 343 344 344 344 346 348 350 351 350 351 354 355 357 358 358 360 360 357 355 357 358 355 356 357 358 357 356 359 361 362 363 361 362 363 360 361 361 360 361 360 362 364 365 366 366 365 366 365 364 363 364 366 367 366 368 371 372 370 369 364
341 341 342 342 342 343 343 342 344 348 352 352 353 355 356 357 358 358 359 360 359 357 355 355 354 354 358 358 357 358 358 358 360 360 360 359 361 362 362 362 363 361 361 363 363 364 364 364 366 366 365 364 366 363 366 368 367 367 371 371 370 369 367
343 341 343 344 347 348 344 345 346 346 350 352 353 355 355 357 358 358 359 359 361 361 359 356 354 356 358 359 357 356 357 358 358 360 360 358 360 360 359 361 362 363 363 361 364 365 363 365 363 365 364 363 365 365 366 368 371 368 368 369 368 369 364
344 346 344 344 345 346 347 349 351 349 350 351 351 353 354 356 357 356 359 359 360 360 361 356 356 359 362 361 359 358 357 357 357 359 358 357 356 356 357 359 361 363 362 360 361 364 364 362 362 363 366 365 364 367 367 369 368 367 367 368 369 368 366
344 346 347 348 347 347 349 348 350 347 351 351 352 352 352 353 356 356 357 359 360 359 361 360 360 361 363 363 362 360 358 357 356 355 357 355 355 355 357 358 359 362 361 360 359 359 363 364 363 364 367 365 365 367 366 366 365 365 366 367 368 367 367
345 346 347 347 348 349 351 350 350 351 349 348 349 352 353 355 356 355 356 358 358 359 359 360 361 362 363 364 365 364 361 357 355 354 355 355 354 355 356 357 357 360 361 360 359 359 361 363 363 366 367 361 363 365 365 364 365 365 364 365 366 366 365
344 345 346 348 350 350 350 352 352 352 351 351 350 350 354 357 357 356 357 359 359 358 359 361 362 361 360 363 363 364 364 360 358 356 354 352 354 355 355 356 356 358 360 361 360 361 359 361 361 360 362 363 362 364 365 365 366 366 366 364 365 365 366
342 344 345 346 347 348 350 350 350 349 350 352 354 353 353 354 352 352 356 357 358 360 359 362 362 362 360 360 362 362 363 360 361 358 356 355 355 355 356 357 357 357 358 360 360 359 358 357 361 360 360 363 363 361 363 364 364 367 368 366 366 366 365
342 343 345 345 346 346 347 348 349 350 350 349 350 351 350 351 350 350 353 354 357 359 357 359 360 361 361 359 359 359 358 360 362 362 361 361 363 360 358 357 357 358 360 360 360 358 358 356 355 358 359 360 360 362 364 364 364 366 367 367 365 363 362
339 339 340 342 342 344 345 345 348 348 348 350 349 348 348 348 349 352 353 354 354 354 356 360 359 358 357 358 358 359 360 361 363 365 366 366 365 365 362 360 359 359 360 362 361 358 358 358 354 355 358 358 359 360 360 358 359 359 362 363 363 362 360
338 337 337 338 340 341 344 346 346 347 348 349 349 350 349 349 351 352 352 352 354 356 357 358 358 357 357 357 357 357 359 361 365 366 366 366 367 367 365 363 362 359 359 360 359 361 362 361 360 357 355 355 357 358 356 356 356 363 363 363 362 361 358
335 337 337 338 340 341 343 344 344 345 345 347 348 348 349 351 351 351 354 357 355 355 357 356 355 355 357 355 357 358 357 360 362 365 364 365 364 363 363 364 362 361 362 362 361 361 362 360 359 357 355 354 353 354 353 352 353 360 344 345 349 360 358
335 336 337 336 337 339 339 340 340 339 339 340 341 342 343 343 344 346 347 351 353 356 358 357 355 356 354 355 355 355 356 357 357 358 358 361 362 362 362 362 362 361 361 361 360 363 361 359 359 359 356 354 353 352 351 351 357 339 340 341 340 351 360
334 334 334 335 335 335 335 336 336 336 336 337 338 339 341 344 344 343 345 346 346 350 350 353 356 356 353 354 353 354 353 354 351 353 354 354 357 359 358 359 359 359 358 357 359 359 361 361 358 358 357 355 355 353 352 352 345 336 338 338 337 336 352
333 333 333 334 335 335 335 334 334 335 336 337 338 339 341 344 342 342 343 343 342 341 340 341 343 345 347 350 351 352 353 352 349 348 350 351 352 353 354 354 354 356 358 358 359 358 358 358 360 359 360 358 356 358 356 354 349 335 335 334 332 333 342
332 331 331 331 331 331 332 333 334 335 335 335 335 337 339 339 340 341 341 340 337 337 336 336 337 338 340 341 343 346 348 349 348 349 350 350 350 350 350 351 353 354 356 356 355 357 357 356 358 359 360 359 358 358 356 353 329 330 331 330 329 330 340
331 330 329 329 329 330 331 333 334 333 333 337 338 336 338 339 340 338 337 336 334 334 335 336 336 335 336 336 337 337 338 339 340 342 343 342 342 344 345 346 349 352 355 355 356 356 357 358 357 357 359 362 363 361 360 352 325 327 328 327 329 332 354
331 329 327 326 327 328 332 332 331 330 332 333 332 332 333 333 334 336 335 335 334 333 332 332 332 332 332 332 334 336 337 338 338 338 337 338 339 339 339 340 342 343 345 353 355 354 355 356 357 359 358 358 359 360 360 358 329 320 321 323 324 334 359
328 325 323 322 325 326 327 327 327 328 329 330 331 332 333 333 334 333 332 331 332 332 331 330 329 330 331 332 334 335 335 336 334 332 332 333 334 335 337 339 340 338 342 343 348 352 353 356 357 358 358 355 354 356 358 352 331 318 318 321 324 338 358
326 325 324 323 322 323 325 325 326 326 327 326 326 328 330 330 330 328 328 330 331 332 330 328 329 330 330 331 333 334 335 335 335 333 332 332 331 335 336 335 337 339 343 343 343 345 348 349 348 348 346 345 345 347 351 349 337 317 316 316 318 337 360
322 323 324 324 325 325 326 327 325 323 322 322 324 326 328 327 326 326 324 324 326 326 328 329 329 330 331 332 333 333 333 334 334 333 333 332 333 337 337 339 337 337 342 342 343 344 346 348 344 340 341 343 344 343 343 344 340 328 314 315 318 323 352
326 326 325 325 324 326 323 323 322 322 322 323 324 324 324 324 324 323 324 324 324 324 325 328 331 332 332 331 330 331 331 332 332 331 332 332 333 334 334 335 336 337 339 341 344 346 345 340 340 340 341 344 344 343 343 342 340 335 313 312 313 318 337
327 326 327 327 327 325 323 321 321 321 321 323 323 323 324 325 324 323 323 322 320 322 326 328 329 330 332 331 329 328 329 331 332 331 331 334 334 333 333 335 335 338 341 342 344 343 340 339 338 337 338 341 344 343 340 339 338 340 321 312 311 311 318
327 326 324 324 324 324 323 322 320 320 321 321 322 323 323 324 323 324 323 322 322 322 324 325 326 328 329 330 328 328 329 330 330 330 329 331 333 334 332 334 335 337 339 339 340 340 337 336 335 335 335 337 338 340 338 337 337 330 334 317 310 309 312
325 323 324 323 323 323 323 322 321 321 322 323 325 325 324 325 324 325 324 324 325 325 325 325 325 327 326 327 327 326 326 326 327 329 329 330 332 332 332 331 333 334 336 337 337 336 335 333 334 333 331 332 334 335 338 335 333 329 328 328 315 310 307
321 323 321 322 323 322 321 321 322 322 323 325 326 326 326 325 324 324 323 324 326 326 325 325 324 324 324 324 325 326 325 324 326 326 327 328 328 329 330 331 332 331 333 334 334 335 334 334 335 332 330 330 329 331 332 333 333 332 333 330 329 320 314
321 321 320 322 323 321 320 320 321 320 320 321 321 322 323 323 323 323 323 323 324 325 324 324 325 324 324 324 324 324 326 325 323 323 325 325 325 327 327 328 329 330 330 330 329 330 331 330 331 331 333 330 329 330 331 332 332 333 335 334 334 333 326
320 320 320 320 321 321 321 321 319 317 316 317 318 319 318 319 320 322 323 322 321 323 324 325 324 324 323 323 323 324 325 325 323 323 323 324 323 321 322 323 325 326 328 328 327 328 328 328 329 329 328 329 328 330 332 333 334 335 334 335 334 333 335
318 319 321 321 321 322 321 319 318 317 316 315 316 316 316 316 317 318 320 319 320 322 323 323 324 322 323 323 324 324 324 323 319 322 322 322 323 322 322 322 323 323 324 324 325 326 326 327 326 325 326 326 327 328 330 330 334 331 328 329 329 330 333
320 321 321 320 320 320 320 319 318 319 318 317 317 317 317 317 317 317 318 318 320 323 323 322 323 323 322 322 322 322 325 323 322 322 322 323 327 324 322 322 323 324 326 323 323 321 321 324 324 324 324 325 326 325 327 329 329 324 309 318 305 315 326
319 320 319 322 320 321 321 321 321 319 318 319 320 319 319 319 319 319 318 319 319 320 321 321 321 321 321 322 321 322 322 323 322 322 324 321 322 325 324 318 311 317 323 323 320 311 301 303 320 319 323 324 327 326 323 323 321 303 297 295 295 296 297
318 318 317 320 320 319 320 320 321 321 321 320 320 319 319 319 319 319 319 320 320 320 320 320 319 319 318 319 319 318 322 322 322 324 325 324 323 324 323 325 323 300 304 314 315 308 302 297 299 301 306 319 324 321 310 308 300 297 295 295 296 294 294
321 319 318 318 317 318 318 318 318 318 319 320 320 319 319 318 318 319 318 319 319 319 319 319 319 318 318 319 319 319 320 320 321 322 323 323 323 324 323 322 323 324 305 303 306 302 300 301 300 301 302 303 308 321 325 314 303 295 296 295 295 295 294

ECMWFFLT1_sfc_thetae_117.txt.gz
Theta_e
342 340 340 340 341 340 341 340 342 342 345 347 348 348 347 347 349 351 352 356 359 360 362 363 364 364 363 363 363 363 361 362 364 363 361 361 361 361 361 360 361 362 360 358 361 362 363 364 364 363 367 367 370 369 373 370 368 367 371 376 368 370 369
341 341 340 339 340 341 342 343 343 343 346 348 348 350 350 347 349 350 354 357 358 359 360 362 362 363 363 363 363 364 363 362 363 364 362 363 364 364 363 362 361 363 367 362 365 363 366 362 365 366 367 369 368 374 370 369 371 370 369 370 366 370 371
341 342 342 341 341 340 344 344 342 343 346 348 348 348 349 350 350 353 355 356 357 358 359 360 363 361 363 363 362 363 363 361 363 361 361 359 362 360 363 364 364 362 363 362 364 362 365 366 364 368 366 366 364 366 371 372 371 367 371 374 368 365 367
339 341 342 342 342 344 344 346 344 344 345 346 347 348 349 351 352 353 354 355 354 355 357 357 359 359 359 361 361 363 362 362 363 360 357 359 359 359 361 363 365 364 362 362 359 361 359 362 363 366 365 367 366 365 367 367 367 367 370 373 365 366 371
338 341 342 342 341 341 342 343 345 346 347 346 349 351 351 351 351 351 353 352 351 351 352 352 354 355 358 359 357 358 360 361 361 361 360 358 360 360 359 359 361 361 361 361 364 360 367 365 365 365 364 367 365 369 370 369 368 370 370 372 367 367 368
338 338 339 340 340 340 342 343 344 345 347 348 350 350 352 351 351 351 353 353 350 349 351 352 351 353 354 355 354 353 358 360 362 363 361 361 360 359 358 360 358 360 358 361 361 363 364 365 364 364 363 361 361 363 364 366 364 366 369 370 369 364 363
340 341 340 343 344 345 342 342 342 344 347 349 350 352 352 353 353 354 354 353 351 350 349 349 350 351 354 354 354 355 355 356 358 358 358 359 360 359 359 359 361 359 360 361 361 363 363 363 365 366 364 363 362 361 364 366 364 365 367 369 368 368 366
340 342 344 345 342 341 342 345 346 346 348 349 351 351 352 355 357 356 356 354 354 353 353 352 350 353 353 354 353 353 354 354 355 358 358 356 357 358 359 360 360 362 361 359 361 362 362 364 363 363 364 362 363 364 363 367 369 366 365 367 368 368 364
341 343 343 342 344 345 348 350 348 347 352 352 350 353 356 357 359 357 358 358 356 353 354 351 352 356 356 355 355 354 353 353 355 355 355 354 353 354 355 358 360 361 360 358 358 362 362 362 362 363 364 362 362 365 365 369 368 363 364 365 366 368 365
343 343 345 342 345 346 348 350 358 356 351 352 354 355 357 358 361 360 360 362 363 358 354 353 357 357 359 358 357 355 354 354 353 353 354 352 352 352 355 355 356 360 359 358 358 358 361 362 362 362 365 361 363 366 365 366 365 364 363 364 368 368 365
343 344 344 344 344 346 348 354 351 355 355 355 357 357 359 360 362 362 361 362 362 362 361 357 358 359 358 359 360 358 356 353 352 352 353 353 352 352 353 354 355 357 358 358 358 357 359 361 362 363 365 361 362 365 366 366 366 364 361 362 363 362 360
345 344 345 345 347 347 347 351 351 351 354 355 355 357 358 360 361 361 362 363 363 361 362 362 359 358 360 362 362 360 358 356 354 352 352 352 353 352 352 353 354 354 354 356 357 359 357 358 360 360 364 365 363 363 364 365 365 366 364 362 362 362 363
346 347 349 347 349 349 351 351 349 349 351 353 355 354 355 357 359 360 360 361 362 362 362 363 361 363 362 364 365 364 361 356 356 353 352 352 354 353 353 353 353 353 352 354 356 357 356 356 359 360 359 364 361 359 363 365 363 366 366 364 364 362 363
343 345 346 348 347 349 350 351 351 352 353 353 352 352 353 358 360 360 361 360 361 361 361 362 364 364 364 364 364 364 361 360 358 356 356 356 358 355 354 354 354 354 354 354 354 354 356 355 355 358 360 359 359 359 360 361 362 364 365 364 363 362 363
341 343 345 342 344 350 349 349 350 351 351 353 354 354 354 355 355 357 360 362 362 362 362 363 365 363 362 362 361 362 364 363 360 360 360 359 359 358 357 356 356 355 356 356 354 354 355 357 355 356 357 358 359 359 357 355 357 358 360 362 364 364 361
340 341 343 345 344 345 348 349 349 350 351 352 352 352 351 352 354 355 355 358 358 358 361 362 363 360 359 359 359 363 365 365 365 364 364 362 362 363 361 358 359 357 357 356 356 357 359 359 357 356 355 356 358 357 354 353 352 360 364 363 360 361 358
338 339 340 342 344 344 347 348 349 352 352 352 351 352 352 353 353 354 355 356 357 358 357 356 355 357 357 357 360 361 364 365 365 365 361 365 365 366 367 362 359 358 359 359 359 361 363 359 358 357 355 353 355 357 354 353 353 357 344 347 353 360 360
339 339 339 341 343 345 345 346 347 348 349 351 352 353 353 353 354 354 354 356 357 356 358 357 355 354 354 354 357 359 361 362 363 360 354 358 367 368 367 367 366 365 362 357 358 363 361 359 359 359 358 356 355 354 353 353 359 339 341 344 345 360 358
338 338 339 339 340 341 342 343 344 345 346 347 347 348 350 353 353 353 354 355 357 358 357 355 354 356 357 357 357 357 357 358 359 362 360 356 357 367 367 368 368 365 362 360 361 360 360 361 358 358 357 356 356 351 350 349 342 336 339 341 340 345 361
336 337 338 338 339 339 340 340 341 343 345 346 346 347 348 348 347 347 349 351 352 352 352 352 351 352 354 354 353 358 357 359 358 356 358 360 360 361 360 360 361 362 361 361 360 360 359 358 359 358 358 356 354 356 350 351 345 337 337 338 337 339 350
335 336 336 336 337 338 339 340 340 341 342 342 343 344 345 344 344 345 345 346 345 347 346 346 346 345 345 346 345 347 350 355 357 357 356 357 357 357 358 358 358 358 361 360 358 358 358 356 356 355 356 354 352 351 348 344 326 328 331 331 333 334 349
334 334 334 335 335 336 336 337 338 339 339 342 342 341 343 342 342 342 342 342 341 341 341 340 339 340 341 342 343 342 342 343 347 351 353 353 352 352 353 354 355 354 357 357 357 357 357 359 357 358 355 355 354 352 351 344 323 324 326 327 329 333 353
333 334 333 334 334 333 335 335 334 336 338 338 337 339 340 340 340 340 340 339 339 337 336 335 335 335 337 338 340 342 343 343 343 341 341 343 347 348 349 350 351 353 353 353 355 355 356 352 353 354 351 350 350 351 349 350 325 319 320 322 324 337 358
333 332 332 331 332 333 335 335 336 336 336 336 337 338 339 340 340 339 338 337 337 336 334 333 331 332 333 334 337 338 340 340 340 338 337 338 340 342 343 346 346 346 349 349 350 349 347 347 349 351 351 349 349 351 352 344 326 317 316 318 321 338 356
326 326 326 326 326 327 326 327 327 329 332 334 333 335 337 337 337 335 335 335 335 335 333 331 331 332 331 332 334 336 336 336 337 335 335 335 337 339 341 344 345 346 346 347 349 349 350 350 345 346 349 348 346 347 350 344 332 315 315 316 320 341 358
321 322 322 322 323 323 324 326 326 326 325 324 326 328 331 331 331 331 331 331 332 332 332 332 332 332 332 332 333 335 334 336 339 339 338 338 338 338 339 339 339 342 347 346 346 345 348 349 348 346 347 349 345 346 344 340 333 325 312 313 317 326 357
324 323 323 322 323 327 323 322 322 321 322 324 325 325 326 327 327 327 328 329 329 329 330 332 334 334 334 334 333 333 335 335 336 337 338 337 338 336 337 339 339 340 343 345 344 346 346 343 345 345 344 346 346 346 345 342 335 327 312 310 312 318 335
327 327 327 325 325 324 321 321 322 322 322 323 322 322 322 325 326 326 326 324 323 325 329 330 332 332 332 333 332 331 330 333 335 336 338 339 339 338 338 340 342 342 343 347 346 342 340 340 340 341 340 341 342 340 338 338 336 335 319 312 310 311 317
325 326 324 324 323 322 321 321 322 321 322 322 324 324 325 326 326 326 325 324 325 325 325 326 328 329 330 330 329 329 330 331 331 334 334 338 338 337 337 338 340 341 342 342 342 340 337 338 337 336 337 338 339 339 335 334 333 329 331 317 310 310 313
326 325 325 326 328 324 324 321 321 321 323 324 325 325 326 326 326 326 325 325 327 327 327 327 327 328 328 328 326 325 325 326 327 330 331 334 337 337 338 337 338 341 341 341 340 337 336 336 337 336 335 334 336 338 337 335 332 327 327 329 316 312 311
324 322 323 324 324 325 324 323 322 320 322 323 323 324 326 325 323 323 323 325 327 326 327 326 326 327 326 325 327 327 323 323 325 326 329 331 333 335 336 336 336 335 337 339 337 337 336 337 337 335 333 333 333 336 336 335 335 332 330 329 328 321 319
324 324 323 322 321 322 323 324 323 322 320 319 320 321 324 323 323 323 324 324 325 326 327 327 327 326 326 326 326 328 329 326 322 321 325 326 328 329 331 333 334 334 335 333 332 334 333 333 333 332 334 333 333 334 334 335 335 336 338 337 335 331 322
323 322 322 321 323 323 321 317 318 319 319 318 319 320 319 320 321 324 325 325 325 324 327 328 326 323 324 325 326 323 324 325 325 325 324 326 325 323 324 326 328 332 333 332 331 331 328 330 330 329 329 330 330 332 335 336 337 336 334 336 337 333 334
323 322 323 324 323 323 321 319 316 316 315 315 318 322 318 318 318 319 322 322 325 325 326 327 328 325 324 324 324 326 326 321 318 325 322 320 325 325 325 326 327 326 326 326 326 326 329 330 328 326 326 326 328 331 332 331 328 327 326 326 327 328 330
325 325 324 322 323 323 322 320 319 318 317 317 317 316 317 319 320 319 322 323 325 328 327 327 327 328 325 325 325 321 326 322 323 324 325 328 327 323 323 321 323 328 328 323 323 321 320 323 325 325 325 327 328 326 328 329 324 320 307 314 305 316 326
323 324 325 326 325 323 323 321 322 320 319 319 322 321 320 319 319 320 320 322 324 326 327 326 325 323 322 324 323 325 325 325 324 322 326 325 326 328 326 319 311 318 323 322 318 307 302 307 320 320 323 325 327 324 322 319 318 302 297 296 296 296 297
322 320 320 321 320 321 322 322 321 320 319 321 321 321 321 321 321 321 322 322 322 324 325 326 324 323 322 322 320 320 324 324 324 326 326 326 325 326 326 327 323 302 307 318 318 308 298 297 298 302 308 321 324 316 307 306 300 295 295 296 296 294 294
324 323 321 321 320 321 321 321 321 321 320 320 320 319 320 319 320 320 320 322 323 324 324 323 322 321 320 321 322 323 323 324 323 324 324 325 325 327 323 325 326 322 307 302 306 303 299 299 300 300 299 301 309 322 323 312 302 296 296 296 295 295 294

ECMWFFLT1_sfc_thetae_120.txt.gz
Theta_e
338 337 336 337 337 337 337 339 342 341 342 343 344 343 343 350 354 356 356 360 361 361 362 365 364 364 363 361 362 364 363 364 366 360 364 364 363 363 362 358 360 364 361 361 362 370 367 367 367 363 368 368 368 372 373 374 374 364 372 378 372 375 376
341 337 336 336 337 338 338 341 343 342 343 344 343 349 343 345 351 352 356 359 359 360 361 362 364 363 363 363 361 365 364 364 364 366 363 367 368 368 364 364 364 365 368 364 371 366 367 363 364 365 367 367 366 372 368 371 372 372 370 371 374 374 374
341 341 339 336 337 337 342 340 341 342 344 343 343 345 343 351 351 355 357 356 359 360 360 360 363 362 363 364 363 363 361 361 362 360 358 357 357 358 361 365 363 360 360 365 366 362 362 361 368 370 367 365 362 372 372 370 371 368 368 371 370 369 373
341 340 341 339 339 342 345 343 342 343 343 344 343 346 346 353 349 357 355 355 356 358 358 358 359 359 360 362 361 362 361 362 361 358 357 357 358 357 360 362 365 362 364 360 360 359 364 363 361 368 367 368 369 366 368 367 365 367 369 373 369 366 373
341 341 343 344 340 340 344 343 343 345 346 344 346 350 348 348 349 351 352 354 354 356 357 357 357 358 360 360 358 359 359 358 359 359 358 359 362 361 358 356 358 358 361 358 367 366 364 369 361 364 365 371 366 370 367 367 365 369 370 370 370 368 368
341 343 342 344 342 339 341 346 344 347 347 348 350 351 352 349 349 348 352 355 352 353 355 355 354 356 356 357 356 357 359 361 363 363 360 359 361 357 356 357 356 357 359 358 360 358 362 363 363 361 360 359 360 361 362 364 362 367 369 370 369 366 362
340 342 343 343 344 343 342 343 343 345 348 352 353 354 354 351 353 352 351 352 351 352 350 351 352 352 355 356 356 357 357 357 358 357 357 355 356 356 356 357 360 357 357 361 359 358 360 362 362 364 361 358 360 357 363 368 365 363 368 370 370 373 370
340 340 343 346 344 345 341 343 343 341 345 352 352 352 353 353 355 355 355 353 353 354 352 349 348 352 354 357 354 352 354 355 356 357 358 356 354 355 354 355 358 360 360 355 358 359 356 360 357 360 361 359 360 362 362 367 372 361 364 367 368 365 363
336 342 343 342 342 345 345 345 345 344 348 352 353 351 353 355 354 354 355 358 357 357 358 347 347 352 358 356 356 355 352 353 355 356 356 354 354 353 353 355 356 358 357 355 356 360 360 359 358 363 364 362 366 369 365 368 365 364 366 369 368 366 361
339 340 342 343 344 346 353 345 349 347 347 351 355 352 351 353 359 359 357 362 357 357 354 352 359 361 358 358 356 352 352 354 353 352 353 352 352 352 353 353 354 357 355 355 355 355 358 359 359 364 367 362 366 366 365 364 367 364 363 367 366 367 370
344 343 346 345 345 350 353 348 352 358 350 351 354 354 357 359 361 359 359 358 353 355 351 353 363 362 356 356 360 359 357 353 350 350 351 350 350 350 351 351 352 355 356 355 353 354 356 361 364 370 368 358 360 364 367 364 366 366 360 362 363 366 364
342 345 346 347 348 347 349 355 359 359 355 353 355 358 358 361 363 362 362 360 362 355 358 361 362 355 352 357 358 361 360 359 353 350 350 350 349 349 349 350 351 352 355 355 355 356 355 359 359 358 363 365 362 361 367 368 367 368 366 360 360 361 360
344 345 346 345 347 347 351 353 354 357 358 355 357 360 361 362 364 366 366 366 367 367 363 360 360 362 360 358 359 360 357 352 356 351 349 351 352 350 351 349 350 351 352 355 357 356 354 353 358 361 362 366 363 358 363 366 362 368 369 365 365 365 364
343 343 345 347 347 346 349 351 354 356 356 356 357 358 359 362 363 364 364 364 366 367 365 365 367 366 365 367 362 360 354 353 356 356 358 360 366 361 351 351 349 352 356 357 355 353 353 353 352 355 356 359 362 365 363 364 362 366 368 366 363 360 360
336 338 341 344 347 349 346 347 349 354 354 356 357 355 356 357 358 362 363 364 365 366 365 367 366 365 364 363 361 365 365 367 360 363 367 369 371 367 363 355 354 358 357 356 354 351 352 353 354 354 355 357 360 360 358 355 356 358 360 361 363 361 358
335 337 339 341 339 341 342 343 345 345 349 354 355 354 354 356 358 359 358 360 362 364 364 367 366 365 365 364 362 363 360 363 359 360 359 361 364 367 364 356 359 353 354 354 352 354 357 357 358 353 354 356 356 357 355 354 351 361 364 364 362 362 359
335 336 336 337 336 339 340 343 343 342 341 351 354 354 354 355 356 358 358 359 360 361 362 363 363 364 364 363 364 366 364 363 358 357 356 359 357 358 364 367 364 359 361 363 361 360 367 363 357 354 353 353 353 354 353 352 352 357 343 348 357 361 362
334 334 335 337 337 339 342 343 341 342 345 348 350 348 347 346 355 356 356 358 359 359 360 360 359 359 361 361 361 363 363 363 357 355 354 353 352 355 356 357 357 359 361 359 356 364 360 355 357 363 355 354 352 351 352 352 354 334 337 343 345 359 360
335 335 335 337 337 338 341 342 342 343 345 342 341 341 346 352 353 351 354 355 357 359 357 357 357 356 356 356 356 358 359 357 355 354 353 353 351 351 351 352 353 354 353 355 354 352 353 355 356 359 360 359 360 353 352 350 340 330 333 337 341 347 362
335 335 335 335 336 336 338 341 340 341 342 341 344 346 348 347 346 348 349 350 351 352 352 351 349 349 349 352 353 354 354 355 355 353 351 351 352 352 352 354 357 357 356 360 359 355 356 351 348 351 353 355 355 360 349 346 334 329 330 331 333 339 352
335 334 336 336 337 338 339 339 341 342 341 342 344 345 343 342 343 345 347 347 343 343 343 345 345 344 345 346 348 349 349 352 354 353 350 350 352 352 353 356 357 357 358 355 354 356 351 350 351 351 354 354 353 352 348 337 324 326 328 327 329 332 353
334 334 333 335 335 336 337 339 339 339 340 345 345 344 344 343 344 340 341 342 340 339 340 341 342 342 343 344 344 344 345 347 346 347 349 350 349 347 349 354 356 355 355 354 356 353 352 351 350 350 351 353 352 352 350 334 320 323 324 325 328 335 353
332 331 332 332 334 334 337 339 339 340 341 341 342 340 341 343 341 339 338 337 338 338 337 338 338 339 340 342 341 342 343 344 343 343 344 345 347 347 349 351 353 353 353 354 353 351 348 347 347 351 352 353 353 353 349 336 322 318 318 321 324 342 356
326 328 331 331 333 334 335 335 336 336 335 336 337 338 340 340 338 336 336 334 334 334 334 334 334 336 338 338 339 339 339 341 341 340 340 342 342 343 345 348 348 348 350 352 349 349 351 351 350 351 353 352 352 353 341 330 321 315 315 317 320 336 352
322 321 321 323 328 327 327 329 332 332 333 333 333 336 337 336 337 335 334 334 333 333 332 331 331 332 332 332 334 336 338 339 339 338 339 339 340 341 340 341 344 348 349 351 350 349 350 350 348 347 349 350 352 348 338 331 325 314 313 315 317 334 353
319 320 320 320 319 319 322 327 323 322 322 324 327 329 331 330 329 330 331 331 331 330 329 330 331 332 332 333 334 335 337 338 339 339 338 337 337 336 337 340 340 343 346 348 348 349 349 349 348 346 347 348 348 340 334 330 328 322 311 312 315 323 352
321 321 320 319 318 324 319 321 321 320 319 321 322 323 326 326 325 325 327 327 327 327 328 330 331 333 336 337 333 333 333 334 337 336 337 336 337 337 339 338 339 341 344 343 345 346 346 344 344 344 344 342 339 340 337 334 330 326 312 310 311 315 330
321 322 325 327 327 323 322 321 321 322 322 324 324 324 324 325 325 326 325 323 321 323 327 329 329 330 331 331 328 328 330 332 335 336 335 339 342 340 340 342 343 343 344 344 342 340 340 341 342 341 338 338 337 334 335 335 334 332 320 314 311 310 315
325 324 323 323 322 324 324 321 320 319 319 321 323 324 325 326 325 324 324 323 325 325 327 327 328 329 330 330 329 329 329 330 330 333 334 335 339 339 338 340 341 343 344 342 340 338 337 338 337 336 335 334 334 333 331 330 330 328 329 319 313 311 313
324 323 323 323 323 322 323 322 321 320 321 323 323 322 323 323 322 323 323 323 326 327 327 327 329 330 327 329 326 324 325 326 327 329 332 334 338 338 338 339 341 343 344 343 341 338 338 338 337 336 335 332 331 329 330 329 330 328 328 325 319 315 312
322 322 320 317 320 323 322 321 320 319 321 323 324 324 325 322 321 322 320 323 327 328 327 326 326 328 327 328 328 327 323 323 327 327 328 329 329 334 337 335 337 338 340 341 338 339 337 338 337 337 336 334 332 331 331 330 328 328 328 329 327 319 316
320 321 319 319 320 322 322 322 322 320 318 319 321 320 324 321 320 324 324 326 326 326 328 327 325 327 328 327 325 325 327 325 319 321 327 329 329 331 331 330 332 334 338 336 334 336 336 336 337 335 335 333 333 334 333 334 332 331 331 332 334 331 321
320 319 319 319 322 323 321 320 318 317 318 320 322 321 318 316 315 318 322 325 325 324 327 329 330 328 327 326 324 326 321 321 324 323 324 326 325 328 330 340 334 330 330 325 324 328 331 332 331 330 328 330 330 332 333 328 325 326 328 329 330 332 334
321 321 322 323 324 322 319 318 316 315 316 317 317 317 319 318 315 315 318 318 324 327 328 327 327 327 325 320 321 327 323 321 327 328 319 319 322 320 320 326 328 324 320 318 319 319 322 328 330 326 327 329 328 329 327 323 321 320 319 320 318 320 326
324 325 325 323 323 323 321 319 318 318 317 316 316 317 318 319 318 319 320 314 319 324 326 326 328 325 322 324 324 323 328 323 322 325 326 324 323 322 321 321 323 326 324 321 320 318 316 320 320 321 323 327 324 325 324 322 319 318 307 310 303 307 313
326 325 326 326 325 324 323 322 321 319 318 318 320 319 318 317 319 320 319 321 322 323 325 322 326 323 321 323 321 323 325 325 324 327 325 325 326 323 320 319 308 314 322 319 316 307 305 311 318 319 324 325 320 321 319 317 316 304 298 297 296 296 297
326 326 326 325 325 325 326 325 323 322 320 321 322 320 320 320 318 321 321 322 323 324 325 328 329 328 325 321 321 323 323 321 322 323 328 325 325 326 326 321 320 301 300 313 314 302 295 295 296 302 309 325 320 312 306 306 300 297 296 297 296 296 295
326 325 325 324 324 323 322 322 322 321 321 322 321 320 322 319 320 322 322 324 324 325 326 326 326 324 324 323 323 325 326 324 323 323 325 327 329 328 327 326 320 319 303 296 302 300 296 295 294 294 298 302 313 326 318 304 297 295 297 297 297 296 295

ECMWFFLT1_sfc_thetae_123.txt.gz
Theta_e
338 337 334 335 335 335 336 337 338 339 339 340 344 347 350 352 353 353 354 355 355 356 357 355 355 354 354 356 356 356 358 356 359 356 353 355 355 357 359 360 358 359 360 359 359 357 358 361 360 359 361 364 364 366 368 368 367 370 366 368 367 365 364
336 336 335 334 334 334 335 337 338 339 339 339 345 346 349 351 353 353 354 356 356 357 358 356 358 355 355 357 356 358 358 357 361 360 355 360 360 359 359 358 357 359 359 359 358 363 360 359 360 358 360 365 365 366 367 366 365 364 364 367 365 364 365
336 337 335 334 334 333 334 336 338 339 339 339 345 346 348 351 353 353 354 355 356 358 359 358 358 357 356 356 355 357 358 357 359 359 357 358 360 359 359 359 359 358 360 358 361 361 363 358 359 358 360 362 363 365 365 364 363 365 364 364 366 363 363
337 338 339 335 334 334 336 336 338 339 339 339 342 347 349 352 354 354 356 356 355 357 356 358 358 359 358 356 356 356 357 357 357 358 357 357 356 357 357 359 359 358 359 358 360 362 361 358 358 361 368 360 361 364 365 363 363 364 362 363 363 363 364
339 340 340 339 337 335 335 336 338 338 338 339 340 345 350 352 353 354 356 357 357 356 357 358 359 359 359 358 357 358 357 357 357 356 356 355 355 355 355 357 356 356 357 358 357 358 361 357 358 361 361 359 362 363 364 362 361 363 363 365 362 360 362
336 339 339 339 341 336 337 336 337 339 339 338 340 344 348 350 352 353 354 355 356 357 358 357 357 358 357 358 357 357 356 356 356 356 355 354 355 354 354 355 355 356 357 356 360 357 358 358 357 360 359 360 361 361 362 362 361 362 364 364 361 361 361
335 338 339 339 341 342 338 337 337 341 340 340 342 346 347 348 350 351 353 353 355 355 356 355 356 357 357 358 356 356 355 355 355 356 356 356 356 354 354 354 356 355 357 356 356 356 356 356 357 357 358 357 358 359 358 359 358 361 363 362 360 362 360
338 338 339 339 340 342 340 337 338 341 341 343 343 345 344 347 349 350 351 352 353 355 354 354 354 355 356 356 356 355 356 355 356 356 355 354 353 354 353 353 354 354 356 354 356 356 355 358 358 358 357 356 356 355 358 359 359 361 361 362 361 364 364
340 340 340 340 341 342 345 339 338 340 341 344 342 345 344 345 347 348 349 351 350 352 352 353 353 353 354 354 353 352 356 355 354 354 354 353 351 353 352 352 353 356 355 353 354 355 356 357 356 358 357 356 355 355 359 359 360 360 360 361 362 362 362
340 340 340 341 341 342 342 342 338 340 341 344 343 345 344 345 347 347 348 349 349 350 350 350 351 351 352 352 352 351 352 352 353 353 353 352 352 351 351 351 352 357 354 353 352 354 356 356 356 358 356 356 358 358 359 360 361 360 359 361 362 361 360
339 340 340 340 340 340 342 343 338 340 342 344 343 346 345 345 348 348 349 348 348 349 349 348 348 351 351 352 350 349 349 350 351 352 352 352 351 351 351 350 351 355 353 352 351 352 353 356 356 357 357 355 359 358 358 357 359 360 359 361 362 361 361
334 339 339 340 340 343 346 344 342 340 342 347 344 345 345 346 350 349 351 350 348 349 349 348 352 350 349 351 350 348 348 348 348 349 351 351 350 349 349 350 349 351 353 352 351 352 352 353 355 358 359 356 357 358 359 359 360 361 360 357 358 360 361
336 337 336 340 339 339 339 342 350 344 342 348 345 346 345 347 351 350 350 351 351 349 349 352 351 349 348 349 351 349 349 350 347 347 348 350 348 348 347 348 348 347 351 353 351 351 350 352 354 358 357 358 358 357 359 360 361 360 360 359 358 358 358
340 336 339 339 338 337 338 340 347 350 345 347 346 350 348 349 352 352 351 353 356 354 352 355 353 350 349 348 351 352 350 350 352 351 352 354 352 350 349 348 345 346 347 352 351 351 351 352 352 354 357 358 358 358 359 360 359 359 361 361 359 358 359
336 337 337 339 338 336 336 343 349 350 350 351 352 353 353 356 357 358 358 359 359 359 360 360 358 356 356 354 355 354 350 352 355 353 356 359 358 361 355 354 355 358 354 351 351 351 354 352 351 352 353 360 359 359 358 359 360 359 360 360 359 357 356
336 339 339 340 341 342 343 343 341 340 341 341 342 341 341 342 344 347 350 351 353 357 360 361 361 360 357 354 352 351 351 353 354 356 356 356 356 356 360 358 358 358 357 354 352 350 352 351 351 348 346 345 348 350 354 356 355 362 365 365 359 356 356
334 335 336 336 335 335 336 338 339 338 338 340 342 343 343 343 344 346 347 348 348 349 351 355 354 359 358 350 348 348 349 351 352 354 352 354 353 354 355 356 358 359 357 354 353 351 351 347 347 350 350 349 347 347 348 348 351 342 333 338 350 360 355
333 333 333 334 334 334 334 336 338 338 337 340 342 343 343 344 344 344 344 346 347 348 350 350 350 350 349 347 349 350 351 352 353 351 351 351 350 350 351 352 352 353 354 353 350 350 349 347 348 349 352 353 350 350 351 350 346 329 333 337 338 350 356
333 332 331 332 333 333 333 334 336 336 337 339 340 340 342 343 342 342 343 344 345 347 348 346 346 346 348 349 349 349 350 351 352 351 349 349 349 348 349 350 352 352 353 355 353 353 350 348 349 348 350 352 348 349 352 348 337 327 331 333 335 338 354
332 332 333 334 334 334 335 336 337 338 338 340 341 340 341 341 339 340 342 343 343 342 343 344 343 344 344 346 348 347 349 351 350 349 349 349 349 348 348 350 352 354 355 354 353 353 351 352 349 350 352 355 351 349 347 342 331 327 328 329 331 335 344
330 330 330 331 332 333 334 336 338 339 339 340 341 342 341 340 340 340 340 340 339 340 341 342 342 342 342 341 342 344 345 347 349 349 348 348 348 348 348 349 351 353 352 352 352 348 348 351 350 351 353 354 355 348 340 333 323 323 326 326 328 331 351
331 332 331 332 332 333 333 335 336 338 338 341 342 341 340 338 340 339 338 339 338 339 339 339 338 339 340 340 341 341 342 342 342 342 343 345 345 345 344 344 346 349 350 351 350 349 350 349 350 350 351 353 353 347 339 331 319 320 321 323 326 337 356
328 332 334 335 336 336 337 337 338 338 338 338 339 339 339 339 339 337 337 337 338 337 337 336 336 337 338 338 339 341 341 340 340 340 340 341 341 343 344 345 345 346 350 349 348 347 346 346 346 348 349 350 351 345 334 327 319 315 316 318 322 342 353
322 323 329 328 329 332 336 338 340 341 340 339 338 337 336 336 335 334 333 333 334 332 332 332 332 334 335 336 337 338 339 339 338 337 339 339 340 341 343 344 343 343 346 345 346 346 348 348 346 348 350 349 348 338 330 325 321 314 313 315 319 337 350
320 320 317 319 320 320 321 322 323 326 332 330 327 329 332 334 334 332 331 331 331 331 329 329 331 332 332 333 335 337 338 339 339 339 338 338 338 339 338 339 342 344 345 345 345 345 346 347 344 344 346 345 341 339 330 327 324 314 313 314 316 334 347
315 315 316 318 319 321 324 326 325 324 324 324 326 328 329 325 325 325 324 325 325 324 325 326 328 331 335 336 335 335 337 340 341 339 337 335 334 336 337 340 341 341 344 344 344 343 344 345 344 344 344 340 334 333 332 329 327 322 312 312 314 322 349
317 317 317 319 320 323 318 320 321 322 323 324 325 327 328 325 323 322 325 323 322 323 325 326 328 329 328 328 328 329 331 333 338 335 338 339 338 339 339 338 338 340 342 342 343 343 342 343 340 336 335 336 336 335 334 331 327 325 312 310 311 315 328
320 319 321 324 325 320 317 318 319 320 321 324 324 324 324 324 323 322 322 322 321 322 326 327 328 326 326 327 327 327 327 329 334 339 338 341 340 338 338 340 342 343 342 341 340 340 339 339 337 333 330 330 331 331 330 333 331 328 319 313 310 311 317
319 318 317 317 317 319 317 315 316 317 318 319 320 321 323 323 322 322 322 321 322 324 325 326 327 328 328 326 324 328 327 329 328 331 336 338 341 339 339 341 342 341 341 339 338 337 337 335 333 331 329 329 329 329 329 329 329 327 326 317 313 312 314
319 319 319 319 318 318 318 314 314 314 317 319 319 319 320 320 319 321 321 321 325 326 327 324 324 327 329 328 327 325 325 326 327 327 328 330 334 337 338 340 342 342 340 338 338 336 335 335 334 331 327 324 325 326 327 328 329 327 327 324 317 315 314
315 315 316 316 317 321 319 316 316 317 318 319 320 321 321 321 321 321 319 321 326 326 327 326 326 328 328 322 320 320 323 325 323 325 325 326 326 324 328 333 332 327 326 333 337 336 335 336 336 334 330 326 324 325 326 327 326 327 327 328 326 319 316
315 315 317 318 317 318 317 318 316 315 315 313 312 312 316 314 317 319 320 323 325 323 326 329 330 325 325 323 320 316 320 321 321 322 323 322 322 328 330 326 324 322 321 319 319 323 332 336 336 336 333 329 328 328 328 329 328 326 325 327 329 329 324
315 315 315 318 319 319 316 314 314 316 317 315 316 314 313 312 313 315 317 321 324 326 327 328 327 326 327 322 320 322 319 322 322 320 320 318 318 321 326 328 322 317 318 316 315 318 323 323 325 327 328 329 327 323 321 319 318 317 317 317 316 317 320
316 316 318 320 321 320 318 315 313 314 316 314 313 315 315 314 313 313 312 315 318 322 325 327 326 321 319 321 328 326 322 326 331 324 319 317 318 320 321 322 318 314 316 317 317 317 319 321 322 323 323 323 323 322 319 317 316 314 311 313 312 312 313
318 318 318 320 319 320 316 316 315 315 316 316 316 316 315 315 315 317 315 315 316 318 319 323 327 322 317 319 321 322 327 324 325 323 319 317 317 316 315 316 320 318 316 318 318 317 315 317 320 324 322 320 320 321 318 316 315 315 306 309 304 306 309
321 321 320 321 321 319 319 320 317 316 315 314 315 315 315 315 316 318 318 319 319 321 318 319 321 320 316 318 319 320 320 321 322 323 324 320 316 316 316 313 306 311 319 318 315 305 300 306 315 318 318 314 313 316 316 315 315 306 299 297 297 297 297
321 322 322 322 321 320 319 319 320 318 317 317 318 317 317 316 316 318 320 320 320 322 323 323 325 322 319 318 320 322 320 320 320 322 324 323 323 319 318 315 313 298 299 308 307 301 295 293 294 303 314 316 310 309 305 306 301 297 297 296 296 296 296
323 322 322 321 321 319 318 317 318 318 319 317 318 317 317 317 318 318 320 322 322 322 321 322 322 321 321 321 322 326 324 321 324 324 323 322 322 321 321 315 315 316 301 296 302 301 295 293 292 292 296 302 312 315 309 301 296 295 295 295 295 295 294

ECMWFFLT1_sfc_thetae_126.txt.gz
Theta_e
333 332 334 335 335 336 337 338 339 341 341 342 343 346 347 350 350 349 349 348 348 349 348 349 351 351 349 350 351 349 351 351 351 350 348 349 352 352 352 354 355 354 353 352 353 355 356 358 357 358 358 360 358 362 364 363 362 366 361 362 361 362 358
334 333 334 335 335 336 338 339 339 340 340 342 343 346 348 349 350 350 349 349 349 350 349 349 352 351 351 351 352 350 351 352 352 357 350 352 356 354 355 356 356 357 355 356 355 356 356 357 357 357 358 362 360 362 364 364 363 363 361 362 361 359 361
335 335 334 334 335 335 338 339 339 340 339 341 344 347 348 349 350 350 350 349 348 351 351 349 352 351 352 351 352 351 352 353 354 355 350 351 353 354 356 357 356 357 357 358 357 358 358 356 357 356 357 360 360 361 364 363 362 363 361 361 362 361 358
335 335 335 334 335 336 337 339 340 340 339 341 344 347 348 350 351 352 352 351 349 352 351 350 352 352 352 352 352 352 352 353 355 355 352 353 353 355 355 356 356 357 357 357 359 359 362 357 357 355 363 359 360 361 363 362 362 361 361 360 360 360 359
335 336 335 333 333 334 335 338 339 339 338 341 345 348 350 351 352 352 353 353 351 352 354 352 353 353 353 353 354 354 353 354 355 356 354 355 356 356 355 355 356 355 357 357 357 359 358 357 355 355 357 358 358 361 361 361 360 361 359 359 358 359 359
335 335 336 337 334 333 334 337 338 339 338 341 344 347 349 351 352 352 353 354 353 354 356 354 354 355 352 353 355 354 354 355 355 356 355 354 355 354 354 355 356 356 356 356 357 357 358 356 355 356 356 357 358 361 361 360 359 360 359 359 358 358 358
336 337 337 337 338 334 334 335 337 339 339 343 345 347 350 351 351 352 353 354 354 353 355 355 355 356 354 354 354 355 353 355 354 354 355 354 354 353 354 355 356 355 355 357 355 355 356 355 355 355 357 356 358 360 360 359 359 358 359 359 358 357 358
335 335 337 339 338 339 335 334 336 338 339 343 344 346 348 350 351 352 352 354 354 355 355 356 356 356 356 355 355 354 354 354 355 355 354 353 353 353 352 353 355 354 355 355 355 355 354 355 355 356 358 357 356 358 359 359 358 358 358 359 358 356 360
334 334 336 338 340 342 342 337 336 337 337 340 343 345 347 349 350 351 352 353 354 354 354 356 357 356 356 356 354 353 354 354 354 354 353 353 352 353 353 353 354 354 354 354 354 355 354 354 355 355 356 356 355 356 357 357 357 358 358 359 358 356 359
331 333 339 342 341 342 339 339 340 335 336 339 342 344 346 348 350 351 352 353 354 353 354 355 356 356 355 355 355 354 354 353 353 353 353 353 352 352 353 353 352 354 353 354 354 353 354 354 354 354 354 354 354 354 354 356 356 357 357 358 359 358 358
336 337 338 338 337 339 341 341 342 340 337 338 342 344 345 347 348 349 351 352 353 353 355 354 355 354 355 354 354 353 353 353 353 353 352 352 352 350 351 351 351 352 353 353 352 353 353 353 354 354 354 354 354 353 353 355 356 356 357 358 359 359 359
335 337 338 337 338 338 338 338 342 343 338 338 341 342 344 346 347 348 350 351 353 353 353 353 354 353 354 353 353 352 351 352 352 352 352 352 352 351 350 350 350 350 352 353 351 351 352 352 353 354 354 354 354 354 355 355 356 357 357 357 358 359 359
335 336 337 338 338 338 339 338 340 337 339 339 340 342 344 345 346 347 348 347 347 349 350 351 352 351 352 352 352 351 350 351 351 352 352 352 352 352 351 349 349 349 351 353 351 350 350 352 352 353 354 355 350 344 346 346 347 348 350 353 357 358 358
339 336 337 337 336 335 335 337 337 339 341 341 341 342 343 342 343 343 343 344 346 345 345 344 343 345 348 351 351 350 349 350 351 350 351 351 352 351 351 350 349 348 350 352 351 349 349 349 352 352 351 350 349 347 348 347 346 345 346 345 348 353 356
335 336 336 336 334 334 335 337 338 339 341 343 345 345 346 347 347 348 348 350 351 352 351 349 347 345 342 341 341 344 347 349 349 350 352 353 351 350 349 347 346 346 346 350 351 351 351 351 350 351 352 350 350 349 350 349 348 348 347 346 345 347 352
331 331 332 333 335 336 335 336 338 340 341 342 343 344 345 346 347 347 349 350 351 351 352 350 348 347 346 344 342 343 343 347 351 352 353 352 352 353 356 358 357 354 351 348 349 349 349 349 350 349 347 349 349 350 351 350 350 350 353 353 350 347 350
330 331 331 331 332 334 336 337 337 338 339 340 342 343 343 344 345 346 347 348 349 350 350 349 346 347 346 346 345 345 343 344 344 344 344 350 350 350 351 353 355 353 349 348 349 349 350 347 346 346 348 349 348 348 349 351 351 351 339 340 347 354 352
329 330 331 331 332 333 334 335 336 336 337 338 339 341 341 341 342 343 342 345 346 348 350 349 347 346 347 347 347 348 348 347 347 346 346 345 344 346 348 351 350 350 349 347 347 347 348 347 346 347 348 349 347 347 349 349 353 336 332 334 335 344 353
329 330 330 331 331 333 333 334 335 336 336 337 338 338 339 341 341 340 342 343 344 347 347 346 347 347 347 347 347 346 346 347 345 346 346 346 347 347 347 350 350 349 350 349 349 347 345 346 347 346 347 347 346 347 349 345 332 327 330 330 331 335 352
329 330 331 332 333 334 334 335 335 336 336 336 337 338 339 339 338 339 342 343 344 343 343 343 343 343 343 343 344 344 345 346 345 344 345 346 346 345 344 345 350 352 352 351 349 347 348 348 346 347 347 347 346 347 343 336 328 325 327 328 329 332 342
329 329 330 331 332 334 335 335 336 337 337 338 338 338 338 338 339 338 338 339 340 341 341 340 340 339 340 340 341 341 341 342 343 343 343 344 345 345 344 344 343 349 350 350 347 346 346 347 347 349 351 352 349 342 337 330 321 321 324 323 325 328 343
329 330 329 331 332 333 334 335 336 336 336 338 338 338 338 337 338 337 337 338 337 337 338 338 338 338 339 338 338 338 339 339 339 340 341 342 343 343 342 343 342 343 347 349 347 346 347 347 347 347 349 350 345 341 335 325 318 318 319 320 322 334 352
322 320 321 322 325 327 332 335 335 335 335 334 335 334 334 335 335 334 333 333 334 335 335 336 335 336 336 337 338 338 338 338 338 339 339 339 340 341 341 341 342 343 347 346 344 344 344 344 346 347 348 349 344 336 328 325 319 315 315 316 319 339 349
320 320 320 321 323 324 325 327 330 333 334 333 333 334 334 334 332 331 330 330 331 331 331 332 333 335 335 335 337 337 338 337 337 337 338 338 338 339 341 342 343 343 347 344 345 344 345 345 345 345 346 347 338 331 327 325 322 314 313 314 317 335 348
317 318 319 321 321 321 323 324 325 325 325 324 324 326 328 329 329 327 326 326 326 327 328 330 331 333 334 335 337 337 337 338 338 338 337 336 337 338 338 338 341 344 343 342 343 343 343 345 343 343 343 340 338 339 329 327 326 314 312 312 315 332 344
315 316 318 319 320 321 323 324 324 323 324 324 324 324 324 325 326 326 323 324 324 323 323 324 326 329 333 334 335 337 339 339 338 337 336 334 335 336 336 339 340 341 344 344 343 342 342 344 342 342 338 334 332 331 329 327 325 321 311 311 312 319 346
317 317 317 318 320 324 319 320 321 322 323 324 326 327 327 325 324 324 325 324 323 323 324 325 325 326 327 327 325 326 329 333 336 336 336 337 335 338 339 337 336 339 342 341 342 342 341 338 336 333 332 333 333 332 330 328 325 324 312 311 311 314 325
315 316 318 322 323 320 317 317 317 318 320 321 323 325 325 325 323 322 321 322 322 325 328 328 326 327 326 325 326 326 326 328 334 339 339 340 339 336 336 338 341 341 340 340 339 337 335 333 332 329 328 329 330 330 329 331 330 327 318 313 311 312 314
313 312 312 313 314 318 316 314 314 315 316 318 319 319 321 322 322 321 321 320 321 323 324 325 326 329 328 327 325 326 325 325 325 327 330 334 337 337 338 339 338 338 339 338 337 335 332 331 330 327 325 325 326 327 328 328 330 328 327 317 313 311 312
314 314 315 316 317 317 318 314 315 315 315 315 317 318 319 320 321 322 320 320 323 325 325 322 324 325 324 326 323 323 324 324 326 325 326 329 329 329 327 326 325 325 329 335 337 334 332 330 328 325 324 323 323 325 326 326 327 328 327 326 317 314 313
313 313 313 314 316 319 317 315 313 311 311 310 311 313 314 316 320 321 319 319 326 325 325 326 327 327 320 317 319 323 322 321 322 323 326 326 325 325 324 322 321 318 319 322 324 333 334 333 329 323 323 323 322 322 324 325 323 321 324 326 327 318 315
312 313 313 313 314 316 314 314 314 313 311 310 312 311 314 311 312 315 316 320 322 323 324 327 327 324 321 318 320 321 321 318 318 319 321 324 324 322 320 319 319 318 316 317 319 323 326 333 331 327 325 323 324 324 320 318 317 316 317 321 322 321 318
311 312 312 313 315 315 312 313 312 311 310 310 311 313 313 311 311 311 313 316 317 321 323 327 325 326 321 316 318 320 318 317 316 316 319 319 320 320 319 317 315 315 318 316 316 319 324 326 329 329 329 326 321 320 319 317 315 314 314 314 313 313 314
311 313 314 314 315 314 311 311 311 312 312 312 312 314 315 314 313 314 312 313 315 317 322 326 323 318 317 319 323 325 325 325 327 320 316 318 318 317 316 314 314 313 314 314 316 318 319 322 323 321 321 320 319 317 317 315 314 313 310 311 310 310 310
312 314 314 315 315 315 310 311 312 312 313 313 312 312 311 311 313 315 313 316 316 317 319 323 322 319 316 317 320 323 325 321 318 316 315 315 314 313 313 313 314 313 314 315 314 316 317 320 320 321 319 319 318 317 314 315 315 315 307 308 304 304 305
313 314 314 315 316 313 314 314 312 312 312 310 310 311 312 311 313 314 316 315 316 317 319 321 319 315 315 317 317 319 321 322 320 318 317 314 313 313 313 312 302 306 315 314 312 303 297 303 316 317 315 313 313 315 316 314 314 303 298 296 295 296 296
315 315 316 315 314 313 314 313 315 313 312 310 312 312 314 312 311 311 314 314 316 317 316 318 319 317 315 318 318 320 319 319 318 318 318 314 313 314 315 312 312 298 299 308 308 300 294 294 296 302 311 320 311 310 304 303 299 296 295 294 294 293 293
317 317 317 316 315 314 314 315 315 314 315 312 314 313 312 313 312 312 314 316 316 315 313 315 316 315 317 319 321 324 322 319 320 320 319 318 316 314 315 313 312 313 301 296 301 297 294 294 294 294 298 304 311 317 314 307 298 295 294 294 294 293 293

ECMWFFLT1_sfc_thetae_129.txt.gz
Theta_e
333 331 330 330 331 332 334 336 338 339 340 341 342 343 344 344 344 345 345 345 345 345 345 345 347 348 348 348 349 349 349 347 349 348 348 347 349 349 348 348 348 349 351 350 351 353 354 357 357 357 357 357 356 356 357 358 357 361 358 358 358 359 353
332 331 331 331 331 332 334 337 339 340 340 341 342 343 344 345 345 345 345 345 345 345 346 346 348 348 348 348 349 348 348 349 349 353 349 350 352 350 349 350 350 350 351 351 351 354 355 356 356 355 356 357 358 356 359 359 358 357 357 357 356 354 357
332 331 331 331 332 332 334 336 339 340 340 341 343 343 344 345 346 346 346 345 345 346 347 346 348 348 348 348 348 348 348 349 349 350 348 347 348 351 351 351 352 352 353 353 353 353 357 355 355 355 355 355 357 357 359 359 359 359 357 356 357 356 353
332 331 331 332 333 333 335 336 338 340 341 342 343 344 344 346 348 347 347 347 345 346 346 346 348 348 348 347 348 348 348 348 349 350 350 348 348 351 351 352 353 354 355 354 356 356 357 356 354 354 361 355 356 357 359 360 360 359 358 356 356 356 354
333 333 332 332 332 333 335 336 337 339 340 342 343 345 345 347 349 348 348 348 347 347 348 347 348 349 350 349 349 349 349 348 350 351 351 350 350 351 351 352 353 354 355 356 356 357 356 356 354 354 354 355 355 357 358 359 359 358 357 356 356 357 356
333 334 332 332 332 334 335 336 337 339 340 341 342 344 346 347 349 348 349 349 348 348 349 348 348 350 349 349 350 350 350 350 350 352 352 351 350 350 351 352 353 354 354 355 357 356 356 356 355 354 353 354 356 356 358 358 359 359 357 355 356 356 357
333 334 333 332 331 332 334 337 337 339 340 341 343 345 346 347 348 349 349 349 349 347 349 348 348 349 350 350 350 351 349 350 350 351 353 352 352 351 351 352 354 354 354 354 354 355 355 355 355 354 354 354 355 356 356 357 357 357 357 355 355 355 354
333 334 334 334 333 332 333 336 336 338 339 339 341 344 345 347 348 348 348 349 349 348 349 349 349 349 350 350 350 350 350 351 351 352 353 353 352 352 352 352 353 354 354 354 354 355 354 354 355 355 354 354 353 354 356 357 357 357 357 356 355 355 357
334 336 335 335 337 337 337 340 342 341 340 339 338 342 345 346 347 348 349 349 350 349 349 351 351 351 351 350 350 350 351 352 352 352 352 352 352 352 352 352 353 354 354 353 354 355 354 353 354 354 353 354 353 353 355 356 357 357 356 356 355 355 355
333 334 335 337 338 339 339 339 342 341 339 340 339 340 342 345 348 348 349 350 350 349 350 352 352 352 352 351 350 351 351 351 352 352 352 351 352 352 352 352 352 354 353 353 354 353 354 354 353 353 353 353 354 353 354 355 356 356 356 356 356 355 355
332 333 333 335 336 337 339 339 339 338 337 337 338 340 340 341 346 348 349 350 351 351 352 352 354 353 353 352 351 351 351 351 351 351 352 352 352 352 352 352 352 352 353 353 353 353 353 353 353 352 352 353 353 352 351 352 353 353 354 354 355 356 356
333 334 334 335 334 335 336 338 339 337 337 337 339 340 341 342 343 345 348 349 351 351 351 352 353 354 353 353 352 351 350 350 351 351 351 352 352 352 351 352 352 351 352 353 352 352 352 352 352 352 351 351 348 347 349 349 350 349 349 350 350 351 354
333 333 333 333 334 334 335 337 339 339 339 339 339 341 341 342 344 344 343 344 346 346 346 346 348 351 352 353 352 351 350 350 350 351 351 352 352 352 351 350 350 350 349 351 352 352 351 351 351 352 351 348 349 348 348 349 350 349 348 349 349 349 350
334 333 333 334 334 334 333 335 338 338 339 340 340 341 342 344 344 344 344 344 346 347 347 347 346 345 346 348 349 349 349 347 344 342 343 344 346 349 351 351 350 349 349 349 349 350 350 350 350 351 350 349 349 349 348 348 349 348 348 349 349 349 348
331 332 333 333 333 333 334 336 337 338 339 340 341 341 341 343 344 345 346 346 347 348 347 345 345 344 344 344 344 342 343 343 343 343 345 346 345 343 345 348 349 348 347 347 349 350 350 351 351 351 350 349 349 348 348 348 349 349 348 347 348 348 348
329 330 332 333 334 334 334 336 337 337 339 340 341 341 342 342 343 345 345 346 347 347 347 345 344 344 343 343 342 342 343 343 344 343 344 344 344 345 346 348 350 353 349 344 346 348 349 349 350 350 350 349 348 348 349 349 349 353 355 354 349 347 347
328 330 331 331 332 334 335 335 336 337 337 339 340 341 342 343 344 345 347 347 347 347 348 346 345 345 343 343 343 343 343 344 344 344 343 344 345 346 347 348 349 349 348 347 346 346 348 349 347 348 349 349 349 348 349 350 351 353 342 344 352 353 347
328 328 328 330 333 334 334 334 334 335 337 339 340 341 341 342 344 345 346 348 348 348 349 347 345 344 344 345 344 343 344 344 345 344 343 345 345 346 347 348 348 347 346 346 346 346 347 347 347 347 348 349 349 348 349 349 353 340 339 341 342 353 352
329 330 330 331 333 332 333 334 334 335 337 338 339 340 341 342 342 342 344 345 346 347 346 345 344 343 342 343 345 345 344 344 344 344 343 344 345 346 347 348 348 347 348 347 348 345 343 343 345 345 346 347 347 348 348 348 344 337 337 335 334 336 346
329 331 332 332 332 332 334 335 335 335 336 336 337 338 340 342 341 341 343 344 343 342 342 342 343 342 343 344 345 345 345 344 344 344 343 344 345 345 346 348 349 350 349 349 346 344 344 346 344 343 343 345 345 344 346 343 332 328 329 330 330 332 337
324 326 329 332 332 333 334 335 335 335 336 336 338 338 339 339 341 340 340 341 340 341 339 339 339 340 340 340 341 342 343 343 343 343 343 344 344 343 342 342 344 347 348 348 347 345 344 343 343 343 345 345 346 345 341 329 320 322 324 323 324 328 340
323 324 324 326 329 332 333 333 333 334 334 335 336 337 338 337 339 338 337 339 338 338 337 337 337 337 338 337 338 339 340 340 340 341 342 341 341 340 340 341 341 342 345 346 346 346 345 345 346 346 346 348 344 340 331 325 318 318 319 319 321 329 345
321 322 323 324 326 328 330 332 332 332 332 331 331 330 330 332 334 334 334 335 336 336 335 335 335 335 336 337 337 338 338 338 338 339 340 340 340 339 338 338 339 340 344 344 343 343 344 344 345 346 347 345 340 336 332 327 321 315 315 316 318 328 344
320 321 322 323 324 324 324 324 326 328 328 328 328 329 330 331 331 331 330 331 331 332 333 333 333 334 335 335 336 336 337 337 337 337 338 337 336 337 338 340 342 341 345 344 342 341 343 342 342 342 344 343 336 335 331 328 323 313 313 314 316 327 338
319 320 320 321 321 322 323 324 325 325 326 326 325 326 328 328 328 327 326 327 327 328 328 331 333 333 334 335 336 336 336 337 337 336 336 336 336 337 337 339 342 343 343 341 340 341 342 344 341 340 339 339 338 339 329 328 326 315 311 313 314 327 336
316 317 318 319 320 321 322 324 324 323 323 323 324 325 325 325 325 326 324 325 326 324 324 325 326 329 333 335 337 336 338 339 339 337 335 334 334 335 335 339 340 341 341 340 340 341 341 343 340 336 334 333 331 329 329 326 326 321 311 311 313 320 336
315 316 316 317 319 323 318 318 318 318 320 321 324 326 326 324 323 323 324 323 323 323 324 326 327 326 327 327 327 329 332 336 337 335 334 335 334 338 338 336 336 341 341 340 340 340 339 338 335 332 330 331 331 331 331 330 326 324 312 311 311 314 323
313 314 315 320 322 318 314 315 315 315 316 317 319 321 322 323 322 321 321 320 321 324 327 327 326 326 325 325 325 326 327 330 333 336 338 340 339 338 338 340 342 341 340 338 335 333 331 331 331 328 327 328 329 329 329 332 331 328 319 313 310 310 315
309 310 311 312 313 318 315 313 312 312 312 314 316 318 320 321 320 320 320 320 321 323 324 326 326 326 324 324 324 326 326 327 330 332 334 333 331 329 327 328 329 333 338 335 332 330 329 328 327 325 324 325 326 326 327 326 329 327 328 317 310 310 313
311 311 312 314 315 315 316 310 310 309 309 310 312 313 315 320 321 322 320 318 322 324 327 325 324 321 323 326 323 323 325 326 327 326 327 327 325 324 322 322 323 324 326 334 333 329 327 325 325 323 322 321 323 324 325 324 322 324 326 324 315 311 311
309 311 312 313 313 314 311 309 308 308 308 308 309 309 310 312 317 319 317 316 323 324 323 325 325 321 320 320 320 321 320 321 321 322 321 320 321 322 321 321 321 320 322 328 332 331 327 324 324 323 323 323 322 322 319 318 318 317 321 323 323 315 313
309 310 312 312 311 312 309 308 307 307 308 308 311 310 312 309 309 311 311 315 319 321 323 325 325 323 320 320 320 318 319 318 318 318 318 317 316 318 318 318 321 321 321 323 326 330 329 326 325 325 324 323 321 319 318 318 316 315 315 319 319 318 316
308 308 309 311 314 313 309 308 307 308 309 308 309 310 311 310 311 311 312 316 316 320 322 324 324 325 322 321 321 320 319 317 316 316 317 316 315 314 315 315 313 316 320 319 321 326 330 331 329 329 327 321 319 319 318 316 315 313 313 312 311 310 312
308 310 310 310 311 311 308 307 307 308 309 309 308 309 310 311 311 312 313 316 318 319 321 324 323 318 318 322 324 324 323 324 326 319 315 315 314 313 312 313 313 312 313 313 314 318 320 323 323 322 320 317 317 315 315 314 314 312 309 309 308 307 308
308 309 309 309 311 311 307 310 310 310 312 309 308 307 308 309 310 310 312 314 316 317 320 322 323 320 316 317 320 321 321 318 317 315 314 313 312 311 310 311 312 313 313 313 310 311 315 319 318 319 318 318 317 315 313 313 313 313 304 306 302 303 304
309 310 310 310 311 308 311 313 310 310 311 309 306 307 310 309 309 309 312 312 313 316 319 319 318 315 316 317 317 320 321 321 317 316 315 313 311 311 310 308 303 307 312 311 311 303 297 302 314 314 313 310 311 314 314 312 313 304 297 295 294 295 296
310 310 310 311 310 309 309 309 314 312 312 310 310 310 310 310 308 309 311 313 312 313 313 316 317 316 315 319 317 320 320 319 318 317 313 313 312 313 314 310 309 296 299 306 305 299 294 293 295 302 310 316 309 309 304 303 299 296 294 294 294 293 292
311 312 312 312 310 310 311 311 312 311 312 309 311 310 308 309 309 308 310 312 311 310 311 313 315 314 315 315 318 322 320 317 319 319 317 314 313 313 313 309 308 310 301 296 299 299 294 293 293 293 295 298 304 314 310 305 299 294 294 294 293 293 292

ECMWFFLT1_sfc_thetae_132.txt.gz
Theta_e
333 329 326 328 330 331 332 334 336 337 337 338 338 340 341 341 343 344 344 345 346 345 345 346 346 347 347 348 349 350 350 350 350 350 350 350 350 350 350 351 351 351 353 353 353 354 356 360 360 361 361 360 360 360 360 362 363 363 364 365 364 366 360
332 330 327 328 330 331 333 334 336 337 338 338 339 340 341 342 343 344 344 345 345 345 345 346 347 347 347 348 349 349 350 350 351 354 351 351 354 352 351 351 351 351 352 354 354 355 357 358 360 359 359 361 361 360 360 361 363 362 363 363 362 361 363
332 331 328 328 330 331 333 334 336 338 339 339 340 340 341 342 343 344 345 344 345 345 346 345 347 347 348 348 348 349 349 350 349 351 350 349 350 351 352 352 352 352 352 354 355 355 358 358 359 359 359 359 359 360 361 362 363 363 363 362 363 362 361
332 332 330 329 330 332 333 335 336 338 339 340 340 341 341 343 344 345 345 345 344 345 345 345 346 347 347 347 348 348 349 350 350 350 351 350 350 351 352 352 353 353 353 353 355 356 357 359 358 358 362 359 359 360 361 362 363 363 363 362 362 362 362
331 333 332 329 329 331 332 334 336 338 339 340 341 343 343 344 345 345 345 346 345 345 346 346 346 347 348 348 348 348 349 349 350 350 351 351 351 351 352 352 353 353 354 355 357 358 358 358 357 357 357 359 358 359 361 362 362 363 363 362 362 362 361
329 331 331 330 330 330 332 334 336 338 339 340 341 342 343 344 346 345 346 347 346 346 347 347 347 348 347 348 348 348 350 350 350 351 351 352 351 350 351 352 353 354 354 356 358 358 358 358 358 358 356 356 357 357 359 360 361 362 362 361 361 361 361
329 331 331 331 331 331 332 333 335 338 340 341 342 344 345 345 346 346 346 346 347 346 346 346 347 347 348 349 348 349 348 349 349 350 352 352 352 351 351 352 355 354 355 357 357 359 358 358 359 359 357 356 358 357 358 360 360 361 362 361 360 360 360
331 332 332 332 332 332 333 334 336 338 340 341 341 344 344 345 347 347 347 347 347 347 347 347 347 347 348 349 349 348 348 349 349 350 352 352 352 352 352 352 354 355 356 355 356 358 357 358 358 359 358 357 357 358 358 359 360 360 360 360 359 359 358
335 334 333 333 333 334 335 336 336 337 338 339 340 342 344 345 346 347 348 348 348 347 347 348 348 349 349 349 349 349 349 349 350 350 351 352 352 352 352 353 353 355 355 355 355 357 357 357 357 358 358 358 358 357 357 359 359 360 360 360 359 359 358
334 334 335 336 337 337 338 339 339 338 337 338 339 341 343 344 345 347 348 348 349 348 348 349 350 349 349 349 349 350 350 350 350 350 351 351 352 352 353 354 354 355 355 355 355 355 357 357 357 357 357 357 357 357 357 357 358 359 359 359 359 359 359
334 334 333 334 335 336 338 338 338 338 339 338 339 341 343 344 345 346 347 348 349 349 349 349 351 350 350 350 349 350 350 350 350 351 351 351 351 352 353 353 353 355 355 355 354 355 356 357 358 356 356 354 355 356 356 357 358 359 358 359 360 359 359
333 333 333 333 335 337 336 337 338 338 338 339 340 340 341 342 344 346 348 349 350 350 350 351 352 351 350 350 350 350 350 350 350 351 351 351 352 352 353 353 353 353 354 355 355 356 355 355 355 356 355 355 356 356 357 357 357 358 358 358 358 359 359
332 332 333 333 335 335 336 337 338 339 339 339 340 341 341 343 344 346 347 349 351 352 352 352 352 352 351 351 350 350 350 350 351 351 352 353 353 353 353 353 353 353 353 354 355 354 354 354 354 355 355 355 356 356 356 356 356 356 357 357 357 356 356
333 332 333 333 333 334 335 336 338 338 339 339 340 341 342 343 342 345 346 348 349 351 352 352 353 352 352 352 351 350 350 351 351 352 352 351 352 352 352 352 352 352 353 354 353 353 353 353 353 354 355 355 355 355 356 355 355 354 355 356 355 355 354
330 330 331 332 332 333 334 334 336 337 338 339 339 339 339 340 341 344 346 348 349 350 351 352 352 352 352 352 352 351 352 351 351 350 350 351 349 349 350 351 351 352 351 352 351 351 352 354 354 354 354 354 354 354 355 354 354 354 354 353 354 353 352
329 330 332 332 333 334 334 335 336 337 337 338 339 339 340 341 342 343 345 346 348 349 350 350 351 351 351 351 352 352 350 348 349 348 349 348 348 348 349 349 351 352 353 351 350 350 352 352 352 352 352 353 353 354 354 353 354 355 357 357 354 353 352
328 329 330 332 333 334 335 336 337 337 338 338 339 339 340 341 342 344 345 347 348 349 349 349 348 346 344 344 345 346 346 346 346 346 346 346 347 348 348 348 349 351 352 352 352 351 351 352 350 350 352 352 353 352 352 353 353 350 337 338 346 355 352
329 329 329 330 333 333 334 335 335 336 338 339 340 341 341 341 342 344 344 346 347 348 349 346 343 341 343 343 343 343 344 345 345 345 345 346 346 347 347 348 349 349 351 351 349 351 351 348 349 350 351 353 352 352 352 351 350 337 339 340 339 348 354
326 329 331 331 332 333 333 334 334 335 337 338 339 339 341 343 342 342 344 345 347 348 345 343 342 342 342 343 343 344 344 343 343 344 345 345 346 347 348 348 348 349 349 349 351 351 349 349 349 349 351 351 351 351 353 352 344 337 338 337 337 340 352
325 326 329 332 333 333 333 334 334 333 334 335 338 339 341 342 343 343 345 347 347 345 343 343 342 341 342 343 342 342 344 343 344 345 345 345 346 345 347 349 349 350 351 351 350 348 348 349 348 348 349 349 350 351 349 347 334 331 332 332 332 333 339
323 324 325 327 328 329 329 330 330 330 330 332 334 335 337 339 340 341 342 343 344 344 342 342 341 341 342 341 341 342 342 343 344 344 344 345 344 344 344 345 346 348 349 349 348 347 347 347 346 345 347 348 348 347 343 336 324 325 327 325 326 328 337
322 323 323 324 325 325 327 328 328 329 328 331 330 331 332 333 335 336 338 341 340 339 340 339 339 339 339 338 339 339 340 341 341 341 342 343 342 342 341 342 344 345 348 348 347 347 348 348 347 345 344 347 348 345 341 331 318 319 319 319 321 328 336
322 322 323 323 324 324 326 327 327 328 328 327 327 327 328 330 331 331 330 334 335 335 335 336 335 336 336 336 337 337 338 338 339 340 339 340 340 340 340 340 341 343 346 346 345 346 345 344 345 345 346 345 344 342 339 332 319 314 314 316 318 327 339
320 321 321 322 324 324 324 325 325 327 326 325 325 326 328 329 328 327 326 330 332 333 333 333 333 334 335 335 335 335 336 337 338 337 337 338 337 337 338 339 341 341 344 344 343 342 343 344 343 343 344 344 339 340 335 329 321 313 313 314 316 330 339
319 319 320 320 321 322 323 323 324 324 324 324 323 325 326 327 327 325 324 324 324 325 326 329 333 334 334 335 336 337 337 337 336 336 336 336 336 336 337 338 341 343 343 342 342 342 344 345 342 340 339 339 338 339 330 329 324 314 312 313 315 328 338
316 317 318 319 319 319 319 320 319 319 319 319 321 324 324 324 324 325 323 324 324 323 323 324 325 328 332 334 335 335 335 334 335 335 334 334 335 335 336 339 340 340 341 341 342 342 343 346 341 335 332 332 331 330 329 327 326 321 311 310 313 321 336
315 317 317 318 318 320 316 315 315 315 316 317 320 322 323 323 322 322 323 323 322 322 323 324 326 327 329 331 333 335 336 335 334 333 333 337 336 338 337 336 337 339 340 340 340 340 339 337 333 331 331 331 331 332 331 330 328 323 311 309 311 315 327
313 314 315 319 321 319 313 313 312 312 313 314 316 320 322 322 322 322 322 321 321 323 326 326 326 327 327 328 329 331 333 335 338 339 339 339 337 334 332 334 337 338 336 336 334 333 332 331 330 327 327 327 329 329 328 332 331 326 315 311 309 310 316
311 311 312 313 313 316 313 310 310 310 310 311 313 315 319 323 322 320 319 317 320 324 326 324 323 325 326 327 327 330 329 329 331 331 331 330 330 328 327 329 333 335 336 333 331 329 327 327 326 325 324 325 325 325 323 323 327 326 324 314 309 309 312
311 312 312 313 314 314 314 309 309 309 309 310 311 311 313 318 320 320 318 315 319 324 325 322 322 323 324 326 323 323 324 324 323 323 324 326 326 325 323 324 327 330 334 333 330 327 325 325 325 324 324 323 321 321 321 320 320 323 323 321 313 310 309
310 311 311 311 313 314 311 308 308 308 309 310 311 311 312 313 317 319 316 316 322 324 324 323 324 322 320 320 320 320 319 319 318 318 318 319 321 322 323 324 325 325 327 333 329 326 324 325 326 325 324 321 318 318 318 317 316 316 320 321 321 314 311
310 311 311 311 310 312 309 308 308 308 308 309 311 311 315 313 314 315 315 319 321 323 324 325 325 323 321 320 319 317 318 316 316 316 316 316 317 318 319 321 325 326 325 327 330 328 326 327 327 326 323 319 319 318 317 317 315 314 314 318 318 317 315
309 310 311 312 315 313 309 308 308 309 309 309 310 312 313 313 315 315 317 320 320 322 325 326 325 326 324 323 323 322 321 319 317 315 315 314 313 314 316 317 318 320 323 322 324 328 330 330 329 326 323 320 318 318 317 315 315 313 313 312 312 312 313
309 310 310 310 313 311 307 307 308 310 311 311 310 310 312 312 313 313 315 317 319 321 325 326 324 321 321 322 323 322 322 324 325 317 313 313 312 311 312 314 315 314 314 314 316 321 321 322 323 321 320 318 317 316 316 314 315 313 309 310 309 309 309
309 310 309 309 312 313 306 311 312 311 313 311 309 309 310 311 312 313 314 316 317 320 323 324 324 321 319 320 321 322 323 317 316 315 314 313 312 310 309 309 312 314 314 313 311 312 316 319 319 319 316 317 315 315 313 313 313 313 305 306 302 304 304
310 310 311 311 312 311 314 315 309 311 313 311 310 311 312 311 311 313 314 316 316 318 322 324 321 319 319 320 320 321 320 318 316 317 316 313 312 311 311 308 302 305 313 312 310 303 298 302 314 314 314 311 312 315 314 312 311 303 296 294 294 295 295
311 311 311 313 311 311 310 311 316 315 315 312 315 314 313 314 312 312 314 314 314 316 318 319 321 319 319 323 323 324 323 319 315 315 314 314 314 315 314 312 309 296 298 306 306 299 294 293 295 301 307 317 314 311 305 304 299 294 293 293 293 292 292
311 312 313 314 311 311 313 314 315 315 315 311 314 312 312 313 312 312 314 314 313 314 315 317 320 318 319 320 324 326 324 321 322 320 317 315 316 316 315 313 312 312 300 296 300 299 294 293 293 293 294 296 303 313 314 306 298 294 294 294 294 294 294